<?xml version='1.0' encoding='UTF-8'?><gpx version="1.1" creator="JPX - https://github.com/jenetics/jpx" xmlns="http://www.topografix.com/GPX/1/1"><trk><trkseg><trkpt lat="44.8171437" lon="7.2986142"><ele>399.0</ele><time>2026-04-19T07:42:23.06Z</time></trkpt><trkpt lat="44.8170753" lon="7.2986298"><ele>399.0</ele><time>2026-04-19T07:44:07.47Z</time></trkpt><trkpt lat="44.8170228" lon="7.2985675"><ele>399.0</ele><time>2026-04-19T07:44:10.524Z</time></trkpt><trkpt lat="44.8169974" lon="7.2984673"><ele>399.0</ele><time>2026-04-19T07:44:12.423Z</time></trkpt><trkpt lat="44.8170049" lon="7.2983144"><ele>399.0</ele><time>2026-04-19T07:44:14.422Z</time></trkpt><trkpt lat="44.817053" lon="7.2981383"><ele>399.5</ele><time>2026-04-19T07:44:16.422Z</time></trkpt><trkpt lat="44.8170914" lon="7.2980289"><ele>400.0</ele><time>2026-04-19T07:44:17.422Z</time></trkpt><trkpt lat="44.8171259" lon="7.2979178"><ele>400.5</ele><time>2026-04-19T07:44:18.422Z</time></trkpt><trkpt lat="44.81716" lon="7.2978037"><ele>401.0</ele><time>2026-04-19T07:44:19.422Z</time></trkpt><trkpt lat="44.8171919" lon="7.2976943"><ele>401.5</ele><time>2026-04-19T07:44:20.422Z</time></trkpt><trkpt lat="44.8172243" lon="7.2975934"><ele>402.0</ele><time>2026-04-19T07:44:21.422Z</time></trkpt><trkpt lat="44.8172596" lon="7.2974976"><ele>402.0</ele><time>2026-04-19T07:44:22.422Z</time></trkpt><trkpt lat="44.8172959" lon="7.2973975"><ele>402.0</ele><time>2026-04-19T07:44:23.421Z</time></trkpt><trkpt lat="44.8173289" lon="7.2972951"><ele>402.0</ele><time>2026-04-19T07:44:24.422Z</time></trkpt><trkpt lat="44.8173612" lon="7.2971851"><ele>402.0</ele><time>2026-04-19T07:44:25.422Z</time></trkpt><trkpt lat="44.8173932" lon="7.297073"><ele>402.0</ele><time>2026-04-19T07:44:26.421Z</time></trkpt><trkpt lat="44.8174264" lon="7.2969604"><ele>402.0</ele><time>2026-04-19T07:44:27.422Z</time></trkpt><trkpt lat="44.8174617" lon="7.296843"><ele>402.1666666666667</ele><time>2026-04-19T07:44:28.422Z</time></trkpt><trkpt lat="44.8174944" lon="7.2967262"><ele>402.33333333333337</ele><time>2026-04-19T07:44:29.422Z</time></trkpt><trkpt lat="44.8175269" lon="7.2966035"><ele>402.5</ele><time>2026-04-19T07:44:30.422Z</time></trkpt><trkpt lat="44.8175666" lon="7.2964843"><ele>402.6666666666667</ele><time>2026-04-19T07:44:31.422Z</time></trkpt><trkpt lat="44.8175981" lon="7.2963698"><ele>402.83333333333337</ele><time>2026-04-19T07:44:32.422Z</time></trkpt><trkpt lat="44.8176271" lon="7.2962678"><ele>403.0</ele><time>2026-04-19T07:44:33.422Z</time></trkpt><trkpt lat="44.8176559" lon="7.2961722"><ele>403.0</ele><time>2026-04-19T07:44:34.422Z</time></trkpt><trkpt lat="44.8176785" lon="7.2960866"><ele>403.0</ele><time>2026-04-19T07:44:35.422Z</time></trkpt><trkpt lat="44.8177436" lon="7.2960008"><ele>403.0</ele><time>2026-04-19T07:44:37.421Z</time></trkpt><trkpt lat="44.8178256" lon="7.2960996"><ele>403.0</ele><time>2026-04-19T07:44:39.421Z</time></trkpt><trkpt lat="44.8178904" lon="7.2962623"><ele>403.0</ele><time>2026-04-19T07:44:41.422Z</time></trkpt><trkpt lat="44.8179317" lon="7.2963611"><ele>403.0</ele><time>2026-04-19T07:44:42.421Z</time></trkpt><trkpt lat="44.8179734" lon="7.2964654"><ele>403.0</ele><time>2026-04-19T07:44:43.421Z</time></trkpt><trkpt lat="44.8180193" lon="7.2965731"><ele>403.0</ele><time>2026-04-19T07:44:44.422Z</time></trkpt><trkpt lat="44.8180697" lon="7.2966832"><ele>403.0</ele><time>2026-04-19T07:44:45.422Z</time></trkpt><trkpt lat="44.8181237" lon="7.2968017"><ele>403.0</ele><time>2026-04-19T07:44:46.422Z</time></trkpt><trkpt lat="44.818181" lon="7.2969195"><ele>403.0</ele><time>2026-04-19T07:44:47.422Z</time></trkpt><trkpt lat="44.8182375" lon="7.2970329"><ele>403.0</ele><time>2026-04-19T07:44:48.422Z</time></trkpt><trkpt lat="44.8182955" lon="7.2971432"><ele>403.0</ele><time>2026-04-19T07:44:49.422Z</time></trkpt><trkpt lat="44.8183534" lon="7.2972546"><ele>403.0</ele><time>2026-04-19T07:44:50.421Z</time></trkpt><trkpt lat="44.818417" lon="7.2973646"><ele>403.0</ele><time>2026-04-19T07:44:51.422Z</time></trkpt><trkpt lat="44.8184812" lon="7.2974701"><ele>402.59999999999997</ele><time>2026-04-19T07:44:52.422Z</time></trkpt><trkpt lat="44.8185473" lon="7.297582"><ele>402.2</ele><time>2026-04-19T07:44:53.422Z</time></trkpt><trkpt lat="44.8186158" lon="7.2976895"><ele>401.8</ele><time>2026-04-19T07:44:54.421Z</time></trkpt><trkpt lat="44.8186844" lon="7.2977991"><ele>401.4</ele><time>2026-04-19T07:44:55.421Z</time></trkpt><trkpt lat="44.818755" lon="7.2979099"><ele>401.0</ele><time>2026-04-19T07:44:56.421Z</time></trkpt><trkpt lat="44.8188257" lon="7.2980206"><ele>400.6</ele><time>2026-04-19T07:44:57.421Z</time></trkpt><trkpt lat="44.8188983" lon="7.2981357"><ele>400.20000000000005</ele><time>2026-04-19T07:44:58.422Z</time></trkpt><trkpt lat="44.8189693" lon="7.2982516"><ele>399.79999999999995</ele><time>2026-04-19T07:44:59.422Z</time></trkpt><trkpt lat="44.819041" lon="7.2983626"><ele>399.4</ele><time>2026-04-19T07:45:00.422Z</time></trkpt><trkpt lat="44.819116" lon="7.2984777"><ele>399.0</ele><time>2026-04-19T07:45:01.422Z</time></trkpt><trkpt lat="44.8191885" lon="7.2985903"><ele>399.0</ele><time>2026-04-19T07:45:02.422Z</time></trkpt><trkpt lat="44.8192582" lon="7.2987026"><ele>399.0</ele><time>2026-04-19T07:45:03.421Z</time></trkpt><trkpt lat="44.8193282" lon="7.2988159"><ele>399.0</ele><time>2026-04-19T07:45:04.422Z</time></trkpt><trkpt lat="44.819394" lon="7.2989195"><ele>399.0</ele><time>2026-04-19T07:45:05.422Z</time></trkpt><trkpt lat="44.8194523" lon="7.2990135"><ele>399.0</ele><time>2026-04-19T07:45:06.422Z</time></trkpt><trkpt lat="44.819503" lon="7.2990873"><ele>398.8333333333333</ele><time>2026-04-19T07:45:07.422Z</time></trkpt><trkpt lat="44.8195443" lon="7.2991546"><ele>398.66666666666663</ele><time>2026-04-19T07:45:08.421Z</time></trkpt><trkpt lat="44.8196292" lon="7.2992844"><ele>398.5</ele><time>2026-04-19T07:45:10.422Z</time></trkpt><trkpt lat="44.8196741" lon="7.299355"><ele>398.3333333333333</ele><time>2026-04-19T07:45:11.422Z</time></trkpt><trkpt lat="44.8197242" lon="7.2994285"><ele>398.16666666666663</ele><time>2026-04-19T07:45:12.421Z</time></trkpt><trkpt lat="44.8197751" lon="7.2995105"><ele>398.0</ele><time>2026-04-19T07:45:13.422Z</time></trkpt><trkpt lat="44.8198277" lon="7.2996015"><ele>397.99999999999994</ele><time>2026-04-19T07:45:14.422Z</time></trkpt><trkpt lat="44.8198864" lon="7.2996895"><ele>398.0</ele><time>2026-04-19T07:45:15.422Z</time></trkpt><trkpt lat="44.8199498" lon="7.2997836"><ele>398.0</ele><time>2026-04-19T07:45:16.421Z</time></trkpt><trkpt lat="44.8200073" lon="7.2998785"><ele>398.0</ele><time>2026-04-19T07:45:17.422Z</time></trkpt><trkpt lat="44.8200638" lon="7.2999775"><ele>397.99999999999994</ele><time>2026-04-19T07:45:18.422Z</time></trkpt><trkpt lat="44.8201218" lon="7.3000737"><ele>398.0</ele><time>2026-04-19T07:45:19.422Z</time></trkpt><trkpt lat="44.8201721" lon="7.3001751"><ele>397.49999999999994</ele><time>2026-04-19T07:45:20.422Z</time></trkpt><trkpt lat="44.8202106" lon="7.3002792"><ele>397.0</ele><time>2026-04-19T07:45:21.421Z</time></trkpt><trkpt lat="44.8202328" lon="7.300387"><ele>396.5</ele><time>2026-04-19T07:45:22.422Z</time></trkpt><trkpt lat="44.8202436" lon="7.3005028"><ele>396.0</ele><time>2026-04-19T07:45:23.422Z</time></trkpt><trkpt lat="44.8202435" lon="7.3006201"><ele>395.49999999999994</ele><time>2026-04-19T07:45:24.422Z</time></trkpt><trkpt lat="44.820242" lon="7.3007343"><ele>395.0</ele><time>2026-04-19T07:45:25.422Z</time></trkpt><trkpt lat="44.820235" lon="7.3008408"><ele>394.6</ele><time>2026-04-19T07:45:26.421Z</time></trkpt><trkpt lat="44.8202241" lon="7.3009338"><ele>394.2</ele><time>2026-04-19T07:45:27.421Z</time></trkpt><trkpt lat="44.8201919" lon="7.3010853"><ele>393.79999999999995</ele><time>2026-04-19T07:45:29.421Z</time></trkpt><trkpt lat="44.8201714" lon="7.3012235"><ele>393.4</ele><time>2026-04-19T07:45:31.421Z</time></trkpt><trkpt lat="44.8202238" lon="7.3013314"><ele>393.0</ele><time>2026-04-19T07:45:33.42Z</time></trkpt><trkpt lat="44.8203514" lon="7.3013297"><ele>393.0</ele><time>2026-04-19T07:45:35.421Z</time></trkpt><trkpt lat="44.8204322" lon="7.3013214"><ele>393.0</ele><time>2026-04-19T07:45:36.42Z</time></trkpt><trkpt lat="44.8205222" lon="7.3013412"><ele>393.0</ele><time>2026-04-19T07:45:37.42Z</time></trkpt><trkpt lat="44.82061" lon="7.301387"><ele>393.0</ele><time>2026-04-19T07:45:38.42Z</time></trkpt><trkpt lat="44.8207021" lon="7.3014423"><ele>393.0</ele><time>2026-04-19T07:45:39.42Z</time></trkpt><trkpt lat="44.8207983" lon="7.3014954"><ele>393.0</ele><time>2026-04-19T07:45:40.42Z</time></trkpt><trkpt lat="44.8208911" lon="7.3015409"><ele>393.0</ele><time>2026-04-19T07:45:41.421Z</time></trkpt><trkpt lat="44.8209868" lon="7.3015889"><ele>393.0</ele><time>2026-04-19T07:45:42.421Z</time></trkpt><trkpt lat="44.8210858" lon="7.3016342"><ele>393.0</ele><time>2026-04-19T07:45:43.421Z</time></trkpt><trkpt lat="44.8211779" lon="7.3016861"><ele>393.0</ele><time>2026-04-19T07:45:44.421Z</time></trkpt><trkpt lat="44.8212642" lon="7.3017354"><ele>392.8333333333333</ele><time>2026-04-19T07:45:45.42Z</time></trkpt><trkpt lat="44.8213448" lon="7.3017793"><ele>392.66666666666663</ele><time>2026-04-19T07:45:46.42Z</time></trkpt><trkpt lat="44.8214234" lon="7.3018167"><ele>392.5</ele><time>2026-04-19T07:45:47.421Z</time></trkpt><trkpt lat="44.8214909" lon="7.3018471"><ele>392.3333333333333</ele><time>2026-04-19T07:45:48.421Z</time></trkpt><trkpt lat="44.8215517" lon="7.3018747"><ele>392.16666666666663</ele><time>2026-04-19T07:45:49.421Z</time></trkpt><trkpt lat="44.8216162" lon="7.3019153"><ele>392.0</ele><time>2026-04-19T07:45:50.421Z</time></trkpt><trkpt lat="44.8216922" lon="7.3019492"><ele>392.0</ele><time>2026-04-19T07:45:51.42Z</time></trkpt><trkpt lat="44.8217679" lon="7.3019889"><ele>392.0</ele><time>2026-04-19T07:45:52.42Z</time></trkpt><trkpt lat="44.8218481" lon="7.3020301"><ele>392.0</ele><time>2026-04-19T07:45:53.421Z</time></trkpt><trkpt lat="44.8219411" lon="7.302078"><ele>392.0</ele><time>2026-04-19T07:45:54.421Z</time></trkpt><trkpt lat="44.8220316" lon="7.3021258"><ele>392.0</ele><time>2026-04-19T07:45:55.421Z</time></trkpt><trkpt lat="44.8221239" lon="7.3021807"><ele>391.40000000000003</ele><time>2026-04-19T07:45:56.421Z</time></trkpt><trkpt lat="44.8222257" lon="7.3022436"><ele>390.8</ele><time>2026-04-19T07:45:57.421Z</time></trkpt><trkpt lat="44.8223301" lon="7.3022992"><ele>390.2</ele><time>2026-04-19T07:45:58.421Z</time></trkpt><trkpt lat="44.822427" lon="7.3023457"><ele>389.6</ele><time>2026-04-19T07:45:59.421Z</time></trkpt><trkpt lat="44.8225282" lon="7.3023992"><ele>389.0</ele><time>2026-04-19T07:46:00.421Z</time></trkpt><trkpt lat="44.8226357" lon="7.3024618"><ele>389.0</ele><time>2026-04-19T07:46:01.42Z</time></trkpt><trkpt lat="44.8227432" lon="7.3025091"><ele>389.0</ele><time>2026-04-19T07:46:02.42Z</time></trkpt><trkpt lat="44.8228589" lon="7.302559"><ele>389.0</ele><time>2026-04-19T07:46:03.421Z</time></trkpt><trkpt lat="44.8229665" lon="7.3026306"><ele>389.0</ele><time>2026-04-19T07:46:04.421Z</time></trkpt><trkpt lat="44.8230759" lon="7.3026895"><ele>389.0</ele><time>2026-04-19T07:46:05.421Z</time></trkpt><trkpt lat="44.8231879" lon="7.3027465"><ele>389.0</ele><time>2026-04-19T07:46:06.421Z</time></trkpt><trkpt lat="44.8233009" lon="7.3028048"><ele>389.0</ele><time>2026-04-19T07:46:07.421Z</time></trkpt><trkpt lat="44.8234044" lon="7.302857"><ele>389.0</ele><time>2026-04-19T07:46:08.421Z</time></trkpt><trkpt lat="44.823501" lon="7.3029247"><ele>388.99999999999994</ele><time>2026-04-19T07:46:09.42Z</time></trkpt><trkpt lat="44.8235922" lon="7.3029684"><ele>389.0</ele><time>2026-04-19T07:46:10.421Z</time></trkpt><trkpt lat="44.8236776" lon="7.3030144"><ele>389.0</ele><time>2026-04-19T07:46:11.421Z</time></trkpt><trkpt lat="44.8237616" lon="7.3030544"><ele>389.0</ele><time>2026-04-19T07:46:12.421Z</time></trkpt><trkpt lat="44.8238383" lon="7.3030985"><ele>388.99999999999994</ele><time>2026-04-19T07:46:13.421Z</time></trkpt><trkpt lat="44.8239124" lon="7.3031362"><ele>389.0</ele><time>2026-04-19T07:46:14.421Z</time></trkpt><trkpt lat="44.82399" lon="7.3031688"><ele>388.99999999999994</ele><time>2026-04-19T07:46:15.421Z</time></trkpt><trkpt lat="44.8240562" lon="7.3032076"><ele>389.0</ele><time>2026-04-19T07:46:16.421Z</time></trkpt><trkpt lat="44.824121" lon="7.3032384"><ele>389.0</ele><time>2026-04-19T07:46:17.421Z</time></trkpt><trkpt lat="44.8241984" lon="7.3032724"><ele>389.0</ele><time>2026-04-19T07:46:18.42Z</time></trkpt><trkpt lat="44.8242795" lon="7.3033241"><ele>388.99999999999994</ele><time>2026-04-19T07:46:19.42Z</time></trkpt><trkpt lat="44.824366" lon="7.3033733"><ele>389.0</ele><time>2026-04-19T07:46:20.421Z</time></trkpt><trkpt lat="44.8244533" lon="7.3034113"><ele>389.0</ele><time>2026-04-19T07:46:21.42Z</time></trkpt><trkpt lat="44.8245456" lon="7.3034482"><ele>389.0</ele><time>2026-04-19T07:46:22.421Z</time></trkpt><trkpt lat="44.8246343" lon="7.3034805"><ele>389.0</ele><time>2026-04-19T07:46:23.421Z</time></trkpt><trkpt lat="44.8247339" lon="7.3035208"><ele>389.0</ele><time>2026-04-19T07:46:24.421Z</time></trkpt><trkpt lat="44.8248351" lon="7.3035672"><ele>389.0</ele><time>2026-04-19T07:46:25.42Z</time></trkpt><trkpt lat="44.8249271" lon="7.3036103"><ele>388.99999999999994</ele><time>2026-04-19T07:46:26.42Z</time></trkpt><trkpt lat="44.8250138" lon="7.3036437"><ele>389.0</ele><time>2026-04-19T07:46:27.421Z</time></trkpt><trkpt lat="44.8250978" lon="7.3036821"><ele>389.0</ele><time>2026-04-19T07:46:28.421Z</time></trkpt><trkpt lat="44.8251821" lon="7.3037065"><ele>389.0</ele><time>2026-04-19T07:46:29.42Z</time></trkpt><trkpt lat="44.8252706" lon="7.3037183"><ele>388.99999999999994</ele><time>2026-04-19T07:46:30.421Z</time></trkpt><trkpt lat="44.8253612" lon="7.3037216"><ele>389.0</ele><time>2026-04-19T07:46:31.421Z</time></trkpt><trkpt lat="44.825462" lon="7.3037307"><ele>389.49999999999994</ele><time>2026-04-19T07:46:32.421Z</time></trkpt><trkpt lat="44.8255493" lon="7.3037226"><ele>390.0</ele><time>2026-04-19T07:46:33.421Z</time></trkpt><trkpt lat="44.8256379" lon="7.3036808"><ele>390.5</ele><time>2026-04-19T07:46:34.421Z</time></trkpt><trkpt lat="44.825707" lon="7.3036536"><ele>391.0</ele><time>2026-04-19T07:46:35.421Z</time></trkpt><trkpt lat="44.8257692" lon="7.3036307"><ele>391.49999999999994</ele><time>2026-04-19T07:46:36.421Z</time></trkpt><trkpt lat="44.8258796" lon="7.303654"><ele>392.0</ele><time>2026-04-19T07:46:38.421Z</time></trkpt><trkpt lat="44.8259592" lon="7.3037344"><ele>392.0</ele><time>2026-04-19T07:46:40.421Z</time></trkpt><trkpt lat="44.8259777" lon="7.3038242"><ele>392.0</ele><time>2026-04-19T07:46:41.42Z</time></trkpt><trkpt lat="44.8259755" lon="7.3040123"><ele>392.0</ele><time>2026-04-19T07:46:43.421Z</time></trkpt><trkpt lat="44.8259624" lon="7.3041638"><ele>392.0</ele><time>2026-04-19T07:46:44.42Z</time></trkpt><trkpt lat="44.8259722" lon="7.3043123"><ele>392.0</ele><time>2026-04-19T07:46:45.421Z</time></trkpt><trkpt lat="44.8260015" lon="7.3044455"><ele>395.0</ele><time>2026-04-19T07:46:46.42Z</time></trkpt><trkpt lat="44.8260289" lon="7.3046123"><ele>398.0</ele><time>2026-04-19T07:46:47.421Z</time></trkpt><trkpt lat="44.8260629" lon="7.3047775"><ele>401.0</ele><time>2026-04-19T07:46:48.421Z</time></trkpt><trkpt lat="44.8261014" lon="7.3049595"><ele>404.0</ele><time>2026-04-19T07:46:49.42Z</time></trkpt><trkpt lat="44.8261462" lon="7.3051409"><ele>404.0</ele><time>2026-04-19T07:46:50.421Z</time></trkpt><trkpt lat="44.8261861" lon="7.3053141"><ele>404.0</ele><time>2026-04-19T07:46:51.42Z</time></trkpt><trkpt lat="44.8262467" lon="7.3054845"><ele>404.0</ele><time>2026-04-19T07:46:52.421Z</time></trkpt><trkpt lat="44.8263066" lon="7.3056107"><ele>404.0</ele><time>2026-04-19T07:46:53.42Z</time></trkpt><trkpt lat="44.8263913" lon="7.3057001"><ele>401.6</ele><time>2026-04-19T07:46:54.421Z</time></trkpt><trkpt lat="44.8265" lon="7.3057456"><ele>399.2</ele><time>2026-04-19T07:46:55.421Z</time></trkpt><trkpt lat="44.8266038" lon="7.3057908"><ele>396.8</ele><time>2026-04-19T07:46:56.421Z</time></trkpt><trkpt lat="44.8266921" lon="7.3058492"><ele>394.40000000000003</ele><time>2026-04-19T07:46:57.421Z</time></trkpt><trkpt lat="44.8267803" lon="7.3059018"><ele>392.0</ele><time>2026-04-19T07:46:58.421Z</time></trkpt><trkpt lat="44.8268398" lon="7.3059437"><ele>391.66666666666663</ele><time>2026-04-19T07:46:59.42Z</time></trkpt><trkpt lat="44.8268966" lon="7.3059836"><ele>391.3333333333333</ele><time>2026-04-19T07:47:00.421Z</time></trkpt><trkpt lat="44.8269654" lon="7.3060333"><ele>391.0</ele><time>2026-04-19T07:47:01.421Z</time></trkpt><trkpt lat="44.827044" lon="7.3060819"><ele>390.66666666666663</ele><time>2026-04-19T07:47:02.42Z</time></trkpt><trkpt lat="44.8271344" lon="7.30614"><ele>390.3333333333333</ele><time>2026-04-19T07:47:03.42Z</time></trkpt><trkpt lat="44.8272278" lon="7.3062027"><ele>390.0</ele><time>2026-04-19T07:47:04.421Z</time></trkpt><trkpt lat="44.8273312" lon="7.3062658"><ele>390.0</ele><time>2026-04-19T07:47:05.421Z</time></trkpt><trkpt lat="44.8274304" lon="7.3063324"><ele>390.0</ele><time>2026-04-19T07:47:06.42Z</time></trkpt><trkpt lat="44.8275239" lon="7.3064028"><ele>390.0</ele><time>2026-04-19T07:47:07.421Z</time></trkpt><trkpt lat="44.8276205" lon="7.3064576"><ele>390.0</ele><time>2026-04-19T07:47:08.42Z</time></trkpt><trkpt lat="44.8277221" lon="7.3064677"><ele>390.0</ele><time>2026-04-19T07:47:09.421Z</time></trkpt><trkpt lat="44.8278294" lon="7.3064437"><ele>388.75</ele><time>2026-04-19T07:47:10.421Z</time></trkpt><trkpt lat="44.8279456" lon="7.306387"><ele>387.5</ele><time>2026-04-19T07:47:11.421Z</time></trkpt><trkpt lat="44.8280637" lon="7.3063126"><ele>386.25</ele><time>2026-04-19T07:47:12.421Z</time></trkpt><trkpt lat="44.8281922" lon="7.3062412"><ele>385.0</ele><time>2026-04-19T07:47:13.42Z</time></trkpt><trkpt lat="44.828317" lon="7.3061697"><ele>385.0</ele><time>2026-04-19T07:47:14.421Z</time></trkpt><trkpt lat="44.8284484" lon="7.3061003"><ele>385.0</ele><time>2026-04-19T07:47:15.421Z</time></trkpt><trkpt lat="44.8285837" lon="7.3060337"><ele>385.0</ele><time>2026-04-19T07:47:16.421Z</time></trkpt><trkpt lat="44.8287164" lon="7.3059766"><ele>385.0</ele><time>2026-04-19T07:47:17.421Z</time></trkpt><trkpt lat="44.8288561" lon="7.3059199"><ele>384.25</ele><time>2026-04-19T07:47:18.421Z</time></trkpt><trkpt lat="44.8289899" lon="7.3058771"><ele>383.5</ele><time>2026-04-19T07:47:19.421Z</time></trkpt><trkpt lat="44.8291235" lon="7.3058351"><ele>382.75</ele><time>2026-04-19T07:47:20.421Z</time></trkpt><trkpt lat="44.8292582" lon="7.3057935"><ele>382.0</ele><time>2026-04-19T07:47:21.421Z</time></trkpt><trkpt lat="44.8293889" lon="7.305756"><ele>380.75</ele><time>2026-04-19T07:47:22.421Z</time></trkpt><trkpt lat="44.8295201" lon="7.3057271"><ele>379.5</ele><time>2026-04-19T07:47:23.42Z</time></trkpt><trkpt lat="44.8296489" lon="7.3057163"><ele>378.25</ele><time>2026-04-19T07:47:24.421Z</time></trkpt><trkpt lat="44.8297858" lon="7.3057117"><ele>377.0</ele><time>2026-04-19T07:47:25.42Z</time></trkpt><trkpt lat="44.8299193" lon="7.3057013"><ele>377.0</ele><time>2026-04-19T07:47:26.421Z</time></trkpt><trkpt lat="44.8300508" lon="7.3057006"><ele>377.0</ele><time>2026-04-19T07:47:27.42Z</time></trkpt><trkpt lat="44.8301866" lon="7.3057008"><ele>377.0</ele><time>2026-04-19T07:47:28.421Z</time></trkpt><trkpt lat="44.8303249" lon="7.3056942"><ele>377.0</ele><time>2026-04-19T07:47:29.42Z</time></trkpt><trkpt lat="44.8304625" lon="7.3056944"><ele>375.5</ele><time>2026-04-19T07:47:30.42Z</time></trkpt><trkpt lat="44.8305903" lon="7.305689"><ele>374.0</ele><time>2026-04-19T07:47:31.421Z</time></trkpt><trkpt lat="44.8307165" lon="7.3056925"><ele>372.5</ele><time>2026-04-19T07:47:32.421Z</time></trkpt><trkpt lat="44.8308312" lon="7.3056976"><ele>371.0</ele><time>2026-04-19T07:47:33.421Z</time></trkpt><trkpt lat="44.8309444" lon="7.3056976"><ele>370.8</ele><time>2026-04-19T07:47:34.421Z</time></trkpt><trkpt lat="44.831055" lon="7.3056956"><ele>370.6</ele><time>2026-04-19T07:47:35.421Z</time></trkpt><trkpt lat="44.8311601" lon="7.3056958"><ele>370.4</ele><time>2026-04-19T07:47:36.42Z</time></trkpt><trkpt lat="44.8312571" lon="7.3056915"><ele>370.2</ele><time>2026-04-19T07:47:37.421Z</time></trkpt><trkpt lat="44.8313538" lon="7.3056999"><ele>370.0</ele><time>2026-04-19T07:47:38.421Z</time></trkpt><trkpt lat="44.8314421" lon="7.3057049"><ele>370.0</ele><time>2026-04-19T07:47:39.421Z</time></trkpt><trkpt lat="44.8315294" lon="7.3057082"><ele>370.0</ele><time>2026-04-19T07:47:40.421Z</time></trkpt><trkpt lat="44.8316207" lon="7.3057144"><ele>370.0</ele><time>2026-04-19T07:47:41.42Z</time></trkpt><trkpt lat="44.8317181" lon="7.305722"><ele>370.0</ele><time>2026-04-19T07:47:42.42Z</time></trkpt><trkpt lat="44.8318159" lon="7.3057267"><ele>370.0</ele><time>2026-04-19T07:47:43.421Z</time></trkpt><trkpt lat="44.8319134" lon="7.3057349"><ele>369.8</ele><time>2026-04-19T07:47:44.421Z</time></trkpt><trkpt lat="44.8320027" lon="7.3057538"><ele>369.6</ele><time>2026-04-19T07:47:45.42Z</time></trkpt><trkpt lat="44.8320865" lon="7.3057938"><ele>369.4</ele><time>2026-04-19T07:47:46.42Z</time></trkpt><trkpt lat="44.8321705" lon="7.3058722"><ele>369.2</ele><time>2026-04-19T07:47:47.421Z</time></trkpt><trkpt lat="44.8322389" lon="7.3059714"><ele>369.0</ele><time>2026-04-19T07:47:48.421Z</time></trkpt><trkpt lat="44.832289" lon="7.3060849"><ele>369.0</ele><time>2026-04-19T07:47:49.421Z</time></trkpt><trkpt lat="44.8323131" lon="7.3062019"><ele>369.0</ele><time>2026-04-19T07:47:50.421Z</time></trkpt><trkpt lat="44.8323264" lon="7.3063294"><ele>369.0</ele><time>2026-04-19T07:47:51.421Z</time></trkpt><trkpt lat="44.8323441" lon="7.3064508"><ele>369.0</ele><time>2026-04-19T07:47:52.421Z</time></trkpt><trkpt lat="44.8323834" lon="7.3065675"><ele>369.0</ele><time>2026-04-19T07:47:53.421Z</time></trkpt><trkpt lat="44.8324409" lon="7.3066505"><ele>369.0</ele><time>2026-04-19T07:47:54.42Z</time></trkpt><trkpt lat="44.8325149" lon="7.3066791"><ele>368.79999999999995</ele><time>2026-04-19T07:47:55.42Z</time></trkpt><trkpt lat="44.8326034" lon="7.3066445"><ele>368.59999999999997</ele><time>2026-04-19T07:47:56.42Z</time></trkpt><trkpt lat="44.8326887" lon="7.3065575"><ele>368.4</ele><time>2026-04-19T07:47:57.421Z</time></trkpt><trkpt lat="44.8327348" lon="7.3064231"><ele>368.2</ele><time>2026-04-19T07:47:58.421Z</time></trkpt><trkpt lat="44.8327841" lon="7.3062794"><ele>368.0</ele><time>2026-04-19T07:47:59.421Z</time></trkpt><trkpt lat="44.8328402" lon="7.3061208"><ele>367.75</ele><time>2026-04-19T07:48:00.42Z</time></trkpt><trkpt lat="44.8329242" lon="7.3059871"><ele>367.5</ele><time>2026-04-19T07:48:01.421Z</time></trkpt><trkpt lat="44.8330391" lon="7.305886"><ele>367.25</ele><time>2026-04-19T07:48:02.421Z</time></trkpt><trkpt lat="44.8331592" lon="7.305777"><ele>367.0</ele><time>2026-04-19T07:48:03.42Z</time></trkpt><trkpt lat="44.8332883" lon="7.3056681"><ele>367.3333333333333</ele><time>2026-04-19T07:48:04.42Z</time></trkpt><trkpt lat="44.8334209" lon="7.3055655"><ele>367.6666666666667</ele><time>2026-04-19T07:48:05.421Z</time></trkpt><trkpt lat="44.8335592" lon="7.3054672"><ele>368.0</ele><time>2026-04-19T07:48:06.42Z</time></trkpt><trkpt lat="44.8337041" lon="7.3053737"><ele>367.33333333333337</ele><time>2026-04-19T07:48:07.421Z</time></trkpt><trkpt lat="44.8338516" lon="7.3052869"><ele>366.6666666666667</ele><time>2026-04-19T07:48:08.421Z</time></trkpt><trkpt lat="44.8339979" lon="7.3052013"><ele>366.0</ele><time>2026-04-19T07:48:09.42Z</time></trkpt><trkpt lat="44.8341446" lon="7.3051212"><ele>366.0</ele><time>2026-04-19T07:48:10.421Z</time></trkpt><trkpt lat="44.8343018" lon="7.3050544"><ele>366.0</ele><time>2026-04-19T07:48:11.421Z</time></trkpt><trkpt lat="44.8344534" lon="7.3049969"><ele>366.0</ele><time>2026-04-19T07:48:12.421Z</time></trkpt><trkpt lat="44.8345995" lon="7.3049459"><ele>365.25</ele><time>2026-04-19T07:48:13.421Z</time></trkpt><trkpt lat="44.8347444" lon="7.3049004"><ele>364.5</ele><time>2026-04-19T07:48:14.42Z</time></trkpt><trkpt lat="44.8348835" lon="7.3048596"><ele>363.75</ele><time>2026-04-19T07:48:15.421Z</time></trkpt><trkpt lat="44.8350247" lon="7.3048207"><ele>363.0</ele><time>2026-04-19T07:48:16.421Z</time></trkpt><trkpt lat="44.8351589" lon="7.3047849"><ele>362.75</ele><time>2026-04-19T07:48:17.421Z</time></trkpt><trkpt lat="44.8352956" lon="7.3047601"><ele>362.5</ele><time>2026-04-19T07:48:18.421Z</time></trkpt><trkpt lat="44.8354342" lon="7.3047404"><ele>362.25</ele><time>2026-04-19T07:48:19.421Z</time></trkpt><trkpt lat="44.8355671" lon="7.3047258"><ele>362.0</ele><time>2026-04-19T07:48:20.421Z</time></trkpt><trkpt lat="44.8357005" lon="7.3047176"><ele>362.75</ele><time>2026-04-19T07:48:21.421Z</time></trkpt><trkpt lat="44.8358224" lon="7.3047212"><ele>363.5</ele><time>2026-04-19T07:48:22.421Z</time></trkpt><trkpt lat="44.8359387" lon="7.3047203"><ele>364.25</ele><time>2026-04-19T07:48:23.421Z</time></trkpt><trkpt lat="44.8360538" lon="7.3047246"><ele>365.0</ele><time>2026-04-19T07:48:24.421Z</time></trkpt><trkpt lat="44.83616" lon="7.3047372"><ele>364.6</ele><time>2026-04-19T07:48:25.42Z</time></trkpt><trkpt lat="44.836267" lon="7.3047468"><ele>364.2</ele><time>2026-04-19T07:48:26.42Z</time></trkpt><trkpt lat="44.8363758" lon="7.3047579"><ele>363.79999999999995</ele><time>2026-04-19T07:48:27.421Z</time></trkpt><trkpt lat="44.8364852" lon="7.3047718"><ele>363.4</ele><time>2026-04-19T07:48:28.42Z</time></trkpt><trkpt lat="44.8365932" lon="7.304791"><ele>363.0</ele><time>2026-04-19T07:48:29.421Z</time></trkpt><trkpt lat="44.836707" lon="7.3048129"><ele>363.0</ele><time>2026-04-19T07:48:30.421Z</time></trkpt><trkpt lat="44.8368297" lon="7.3048425"><ele>363.0</ele><time>2026-04-19T07:48:31.421Z</time></trkpt><trkpt lat="44.8369521" lon="7.3048792"><ele>363.0</ele><time>2026-04-19T07:48:32.421Z</time></trkpt><trkpt lat="44.8370863" lon="7.304921"><ele>363.0</ele><time>2026-04-19T07:48:33.421Z</time></trkpt><trkpt lat="44.8372218" lon="7.304976"><ele>363.0</ele><time>2026-04-19T07:48:34.42Z</time></trkpt><trkpt lat="44.8373645" lon="7.3050296"><ele>363.0</ele><time>2026-04-19T07:48:35.421Z</time></trkpt><trkpt lat="44.8375094" lon="7.3050915"><ele>363.0</ele><time>2026-04-19T07:48:36.421Z</time></trkpt><trkpt lat="44.8376528" lon="7.3051584"><ele>363.3333333333333</ele><time>2026-04-19T07:48:37.421Z</time></trkpt><trkpt lat="44.8377986" lon="7.3052334"><ele>363.66666666666663</ele><time>2026-04-19T07:48:38.421Z</time></trkpt><trkpt lat="44.8379424" lon="7.3053093"><ele>364.0</ele><time>2026-04-19T07:48:39.42Z</time></trkpt><trkpt lat="44.8380833" lon="7.3053997"><ele>364.0</ele><time>2026-04-19T07:48:40.421Z</time></trkpt><trkpt lat="44.8382265" lon="7.305488"><ele>364.0</ele><time>2026-04-19T07:48:41.42Z</time></trkpt><trkpt lat="44.8383724" lon="7.3055788"><ele>364.0</ele><time>2026-04-19T07:48:42.42Z</time></trkpt><trkpt lat="44.8385136" lon="7.3056784"><ele>364.0</ele><time>2026-04-19T07:48:43.42Z</time></trkpt><trkpt lat="44.8386449" lon="7.3057815"><ele>364.0</ele><time>2026-04-19T07:48:44.421Z</time></trkpt><trkpt lat="44.8387733" lon="7.3058923"><ele>364.0</ele><time>2026-04-19T07:48:45.421Z</time></trkpt><trkpt lat="44.8388911" lon="7.3060013"><ele>364.0</ele><time>2026-04-19T07:48:46.42Z</time></trkpt><trkpt lat="44.8390031" lon="7.3061089"><ele>364.0</ele><time>2026-04-19T07:48:47.421Z</time></trkpt><trkpt lat="44.8391084" lon="7.3062224"><ele>364.0</ele><time>2026-04-19T07:48:48.421Z</time></trkpt><trkpt lat="44.839212" lon="7.3063352"><ele>364.0</ele><time>2026-04-19T07:48:49.421Z</time></trkpt><trkpt lat="44.8393094" lon="7.3064386"><ele>364.0</ele><time>2026-04-19T07:48:50.42Z</time></trkpt><trkpt lat="44.8393979" lon="7.3065275"><ele>363.6</ele><time>2026-04-19T07:48:51.421Z</time></trkpt><trkpt lat="44.8394806" lon="7.3066184"><ele>363.2</ele><time>2026-04-19T07:48:52.421Z</time></trkpt><trkpt lat="44.8395576" lon="7.3067021"><ele>362.8</ele><time>2026-04-19T07:48:53.421Z</time></trkpt><trkpt lat="44.8396286" lon="7.3068031"><ele>362.40000000000003</ele><time>2026-04-19T07:48:54.421Z</time></trkpt><trkpt lat="44.8397032" lon="7.3069011"><ele>362.0</ele><time>2026-04-19T07:48:55.421Z</time></trkpt><trkpt lat="44.8397933" lon="7.3069918"><ele>362.0</ele><time>2026-04-19T07:48:56.421Z</time></trkpt><trkpt lat="44.8398945" lon="7.3070853"><ele>362.0</ele><time>2026-04-19T07:48:57.421Z</time></trkpt><trkpt lat="44.8400005" lon="7.307195"><ele>362.0</ele><time>2026-04-19T07:48:58.421Z</time></trkpt><trkpt lat="44.8401107" lon="7.3073154"><ele>362.0</ele><time>2026-04-19T07:48:59.42Z</time></trkpt><trkpt lat="44.8402296" lon="7.3074397"><ele>361.33333333333337</ele><time>2026-04-19T07:49:00.421Z</time></trkpt><trkpt lat="44.8403483" lon="7.3075671"><ele>360.6666666666667</ele><time>2026-04-19T07:49:01.421Z</time></trkpt><trkpt lat="44.8404733" lon="7.307697"><ele>360.0</ele><time>2026-04-19T07:49:02.421Z</time></trkpt><trkpt lat="44.8405986" lon="7.3078289"><ele>360.0</ele><time>2026-04-19T07:49:03.42Z</time></trkpt><trkpt lat="44.8407242" lon="7.3079615"><ele>360.0</ele><time>2026-04-19T07:49:04.421Z</time></trkpt><trkpt lat="44.8408508" lon="7.3080965"><ele>360.0</ele><time>2026-04-19T07:49:05.421Z</time></trkpt><trkpt lat="44.8409802" lon="7.3082387"><ele>359.3333333333333</ele><time>2026-04-19T07:49:06.421Z</time></trkpt><trkpt lat="44.841114" lon="7.308378"><ele>358.66666666666663</ele><time>2026-04-19T07:49:07.421Z</time></trkpt><trkpt lat="44.8412534" lon="7.3085175"><ele>358.0</ele><time>2026-04-19T07:49:08.42Z</time></trkpt><trkpt lat="44.8413909" lon="7.3086612"><ele>358.0</ele><time>2026-04-19T07:49:09.42Z</time></trkpt><trkpt lat="44.8415264" lon="7.3088059"><ele>358.0</ele><time>2026-04-19T07:49:10.421Z</time></trkpt><trkpt lat="44.8416657" lon="7.308954"><ele>358.0</ele><time>2026-04-19T07:49:11.421Z</time></trkpt><trkpt lat="44.8417983" lon="7.3090954"><ele>357.66666666666663</ele><time>2026-04-19T07:49:12.421Z</time></trkpt><trkpt lat="44.8419324" lon="7.3092368"><ele>357.3333333333333</ele><time>2026-04-19T07:49:13.421Z</time></trkpt><trkpt lat="44.842067" lon="7.3093848"><ele>357.0</ele><time>2026-04-19T07:49:14.421Z</time></trkpt><trkpt lat="44.8422005" lon="7.3095285"><ele>357.0</ele><time>2026-04-19T07:49:15.42Z</time></trkpt><trkpt lat="44.842332" lon="7.3096743"><ele>357.0</ele><time>2026-04-19T07:49:16.421Z</time></trkpt><trkpt lat="44.842465" lon="7.3098179"><ele>357.0</ele><time>2026-04-19T07:49:17.421Z</time></trkpt><trkpt lat="44.8426008" lon="7.309957"><ele>356.3333333333333</ele><time>2026-04-19T07:49:18.421Z</time></trkpt><trkpt lat="44.8427394" lon="7.310097"><ele>355.66666666666663</ele><time>2026-04-19T07:49:19.421Z</time></trkpt><trkpt lat="44.8428778" lon="7.3102393"><ele>355.0</ele><time>2026-04-19T07:49:20.421Z</time></trkpt><trkpt lat="44.8430124" lon="7.3103827"><ele>355.0</ele><time>2026-04-19T07:49:21.421Z</time></trkpt><trkpt lat="44.8431445" lon="7.3105229"><ele>355.0</ele><time>2026-04-19T07:49:22.421Z</time></trkpt><trkpt lat="44.8432801" lon="7.3106707"><ele>355.0</ele><time>2026-04-19T07:49:23.421Z</time></trkpt><trkpt lat="44.8434152" lon="7.3108201"><ele>355.0</ele><time>2026-04-19T07:49:24.421Z</time></trkpt><trkpt lat="44.843549" lon="7.3109638"><ele>355.0</ele><time>2026-04-19T07:49:25.42Z</time></trkpt><trkpt lat="44.8436826" lon="7.3111052"><ele>355.0</ele><time>2026-04-19T07:49:26.421Z</time></trkpt><trkpt lat="44.8438177" lon="7.3112462"><ele>355.0</ele><time>2026-04-19T07:49:27.421Z</time></trkpt><trkpt lat="44.8439559" lon="7.3113801"><ele>355.0</ele><time>2026-04-19T07:49:28.421Z</time></trkpt><trkpt lat="44.8440844" lon="7.311519"><ele>355.0</ele><time>2026-04-19T07:49:29.421Z</time></trkpt><trkpt lat="44.8442182" lon="7.3116603"><ele>354.66666666666663</ele><time>2026-04-19T07:49:30.421Z</time></trkpt><trkpt lat="44.8443515" lon="7.3118034"><ele>354.3333333333333</ele><time>2026-04-19T07:49:31.421Z</time></trkpt><trkpt lat="44.8444859" lon="7.3119487"><ele>354.0</ele><time>2026-04-19T07:49:32.42Z</time></trkpt><trkpt lat="44.8446193" lon="7.3120924"><ele>354.0</ele><time>2026-04-19T07:49:33.42Z</time></trkpt><trkpt lat="44.8447493" lon="7.3122323"><ele>354.0</ele><time>2026-04-19T07:49:34.42Z</time></trkpt><trkpt lat="44.8448791" lon="7.3123738"><ele>354.0</ele><time>2026-04-19T07:49:35.421Z</time></trkpt><trkpt lat="44.8450126" lon="7.3125172"><ele>353.6666666666667</ele><time>2026-04-19T07:49:36.421Z</time></trkpt><trkpt lat="44.8451464" lon="7.3126602"><ele>353.33333333333337</ele><time>2026-04-19T07:49:37.421Z</time></trkpt><trkpt lat="44.8452846" lon="7.3128025"><ele>353.0</ele><time>2026-04-19T07:49:38.42Z</time></trkpt><trkpt lat="44.8454222" lon="7.312945"><ele>353.33333333333337</ele><time>2026-04-19T07:49:39.42Z</time></trkpt><trkpt lat="44.845556" lon="7.3130869"><ele>353.6666666666667</ele><time>2026-04-19T07:49:40.421Z</time></trkpt><trkpt lat="44.8456908" lon="7.3132298"><ele>354.0</ele><time>2026-04-19T07:49:41.421Z</time></trkpt><trkpt lat="44.8458276" lon="7.3133783"><ele>354.6666666666667</ele><time>2026-04-19T07:49:42.421Z</time></trkpt><trkpt lat="44.8459638" lon="7.3135247"><ele>355.33333333333337</ele><time>2026-04-19T07:49:43.421Z</time></trkpt><trkpt lat="44.8461043" lon="7.3136722"><ele>356.0</ele><time>2026-04-19T07:49:44.421Z</time></trkpt><trkpt lat="44.8462398" lon="7.3138209"><ele>356.6666666666667</ele><time>2026-04-19T07:49:45.421Z</time></trkpt><trkpt lat="44.8463787" lon="7.3139659"><ele>357.3333333333333</ele><time>2026-04-19T07:49:46.421Z</time></trkpt><trkpt lat="44.8465154" lon="7.3141129"><ele>358.0</ele><time>2026-04-19T07:49:47.421Z</time></trkpt><trkpt lat="44.8466512" lon="7.3142588"><ele>358.0</ele><time>2026-04-19T07:49:48.42Z</time></trkpt><trkpt lat="44.8467881" lon="7.3144064"><ele>358.0</ele><time>2026-04-19T07:49:49.421Z</time></trkpt><trkpt lat="44.8469248" lon="7.3145536"><ele>358.0</ele><time>2026-04-19T07:49:50.42Z</time></trkpt><trkpt lat="44.8470606" lon="7.3146956"><ele>358.66666666666663</ele><time>2026-04-19T07:49:51.421Z</time></trkpt><trkpt lat="44.8471984" lon="7.314831"><ele>359.3333333333333</ele><time>2026-04-19T07:49:52.421Z</time></trkpt><trkpt lat="44.8473249" lon="7.3149726"><ele>360.0</ele><time>2026-04-19T07:49:53.421Z</time></trkpt><trkpt lat="44.8474577" lon="7.3151138"><ele>360.0</ele><time>2026-04-19T07:49:54.421Z</time></trkpt><trkpt lat="44.847591" lon="7.3152574"><ele>360.0</ele><time>2026-04-19T07:49:55.421Z</time></trkpt><trkpt lat="44.8477263" lon="7.3153924"><ele>360.0</ele><time>2026-04-19T07:49:56.421Z</time></trkpt><trkpt lat="44.8478622" lon="7.3155306"><ele>359.6666666666667</ele><time>2026-04-19T07:49:57.421Z</time></trkpt><trkpt lat="44.8479962" lon="7.3156766"><ele>359.33333333333337</ele><time>2026-04-19T07:49:58.42Z</time></trkpt><trkpt lat="44.848129" lon="7.3158248"><ele>359.0</ele><time>2026-04-19T07:49:59.421Z</time></trkpt><trkpt lat="44.8482626" lon="7.31597"><ele>359.0</ele><time>2026-04-19T07:50:00.421Z</time></trkpt><trkpt lat="44.8483952" lon="7.3161161"><ele>359.0</ele><time>2026-04-19T07:50:01.421Z</time></trkpt><trkpt lat="44.8485315" lon="7.3162636"><ele>359.0</ele><time>2026-04-19T07:50:02.421Z</time></trkpt><trkpt lat="44.8486668" lon="7.3164097"><ele>359.0</ele><time>2026-04-19T07:50:03.421Z</time></trkpt><trkpt lat="44.8488026" lon="7.3165555"><ele>359.0</ele><time>2026-04-19T07:50:04.42Z</time></trkpt><trkpt lat="44.8489437" lon="7.3167015"><ele>359.0</ele><time>2026-04-19T07:50:05.421Z</time></trkpt><trkpt lat="44.849084" lon="7.3168531"><ele>359.0</ele><time>2026-04-19T07:50:06.421Z</time></trkpt><trkpt lat="44.849226" lon="7.316996"><ele>359.0</ele><time>2026-04-19T07:50:07.42Z</time></trkpt><trkpt lat="44.8493628" lon="7.3171381"><ele>359.0</ele><time>2026-04-19T07:50:08.421Z</time></trkpt><trkpt lat="44.8495023" lon="7.3172847"><ele>359.33333333333337</ele><time>2026-04-19T07:50:09.421Z</time></trkpt><trkpt lat="44.849644" lon="7.3174352"><ele>359.6666666666667</ele><time>2026-04-19T07:50:10.421Z</time></trkpt><trkpt lat="44.8497883" lon="7.3175899"><ele>360.0</ele><time>2026-04-19T07:50:11.42Z</time></trkpt><trkpt lat="44.84993" lon="7.3177429"><ele>360.0</ele><time>2026-04-19T07:50:12.421Z</time></trkpt><trkpt lat="44.8500709" lon="7.3178886"><ele>360.0</ele><time>2026-04-19T07:50:13.421Z</time></trkpt><trkpt lat="44.8502106" lon="7.3180313"><ele>360.0</ele><time>2026-04-19T07:50:14.421Z</time></trkpt><trkpt lat="44.8503495" lon="7.3181829"><ele>360.0</ele><time>2026-04-19T07:50:15.421Z</time></trkpt><trkpt lat="44.8504858" lon="7.3183294"><ele>360.0</ele><time>2026-04-19T07:50:16.421Z</time></trkpt><trkpt lat="44.850618" lon="7.3184734"><ele>360.0</ele><time>2026-04-19T07:50:17.42Z</time></trkpt><trkpt lat="44.8507521" lon="7.3186151"><ele>360.0</ele><time>2026-04-19T07:50:18.42Z</time></trkpt><trkpt lat="44.850888" lon="7.3187561"><ele>360.0</ele><time>2026-04-19T07:50:19.421Z</time></trkpt><trkpt lat="44.8510227" lon="7.3188991"><ele>360.0</ele><time>2026-04-19T07:50:20.421Z</time></trkpt><trkpt lat="44.8511596" lon="7.3190361"><ele>360.0</ele><time>2026-04-19T07:50:21.42Z</time></trkpt><trkpt lat="44.8512931" lon="7.3191763"><ele>360.0</ele><time>2026-04-19T07:50:22.421Z</time></trkpt><trkpt lat="44.8514261" lon="7.3193133"><ele>360.0</ele><time>2026-04-19T07:50:23.421Z</time></trkpt><trkpt lat="44.8515547" lon="7.3194441"><ele>360.0</ele><time>2026-04-19T07:50:24.421Z</time></trkpt><trkpt lat="44.8516797" lon="7.3195737"><ele>360.0</ele><time>2026-04-19T07:50:25.421Z</time></trkpt><trkpt lat="44.8517994" lon="7.3196996"><ele>360.0</ele><time>2026-04-19T07:50:26.421Z</time></trkpt><trkpt lat="44.8519115" lon="7.3198205"><ele>360.0</ele><time>2026-04-19T07:50:27.421Z</time></trkpt><trkpt lat="44.8520247" lon="7.3199424"><ele>360.0</ele><time>2026-04-19T07:50:28.42Z</time></trkpt><trkpt lat="44.8521377" lon="7.3200632"><ele>360.0</ele><time>2026-04-19T07:50:29.421Z</time></trkpt><trkpt lat="44.8522529" lon="7.320188"><ele>360.0</ele><time>2026-04-19T07:50:30.421Z</time></trkpt><trkpt lat="44.8523717" lon="7.3203133"><ele>360.0</ele><time>2026-04-19T07:50:31.42Z</time></trkpt><trkpt lat="44.852492" lon="7.3204388"><ele>359.0</ele><time>2026-04-19T07:50:32.421Z</time></trkpt><trkpt lat="44.8526109" lon="7.3205666"><ele>358.0</ele><time>2026-04-19T07:50:33.421Z</time></trkpt><trkpt lat="44.8527284" lon="7.3206971"><ele>357.0</ele><time>2026-04-19T07:50:34.42Z</time></trkpt><trkpt lat="44.8528502" lon="7.3208326"><ele>356.3333333333333</ele><time>2026-04-19T07:50:35.421Z</time></trkpt><trkpt lat="44.8529747" lon="7.3209693"><ele>355.66666666666663</ele><time>2026-04-19T07:50:36.421Z</time></trkpt><trkpt lat="44.8530989" lon="7.3211085"><ele>355.0</ele><time>2026-04-19T07:50:37.421Z</time></trkpt><trkpt lat="44.8532297" lon="7.3212458"><ele>355.0</ele><time>2026-04-19T07:50:38.421Z</time></trkpt><trkpt lat="44.8533566" lon="7.321382"><ele>355.0</ele><time>2026-04-19T07:50:39.421Z</time></trkpt><trkpt lat="44.8534854" lon="7.3215187"><ele>355.0</ele><time>2026-04-19T07:50:40.421Z</time></trkpt><trkpt lat="44.8536185" lon="7.3216612"><ele>356.0</ele><time>2026-04-19T07:50:41.421Z</time></trkpt><trkpt lat="44.8537518" lon="7.3217975"><ele>357.0</ele><time>2026-04-19T07:50:42.421Z</time></trkpt><trkpt lat="44.8538828" lon="7.3219381"><ele>358.0</ele><time>2026-04-19T07:50:43.421Z</time></trkpt><trkpt lat="44.8540178" lon="7.3220839"><ele>358.0</ele><time>2026-04-19T07:50:44.421Z</time></trkpt><trkpt lat="44.8541522" lon="7.3222248"><ele>358.0</ele><time>2026-04-19T07:50:45.42Z</time></trkpt><trkpt lat="44.8542848" lon="7.3223698"><ele>358.0</ele><time>2026-04-19T07:50:46.421Z</time></trkpt><trkpt lat="44.8544188" lon="7.3225161"><ele>358.0</ele><time>2026-04-19T07:50:47.421Z</time></trkpt><trkpt lat="44.8545557" lon="7.322656"><ele>358.0</ele><time>2026-04-19T07:50:48.42Z</time></trkpt><trkpt lat="44.8546905" lon="7.3227949"><ele>358.0</ele><time>2026-04-19T07:50:49.421Z</time></trkpt><trkpt lat="44.8548237" lon="7.3229391"><ele>358.0</ele><time>2026-04-19T07:50:50.421Z</time></trkpt><trkpt lat="44.8549554" lon="7.3230689"><ele>358.0</ele><time>2026-04-19T07:50:51.421Z</time></trkpt><trkpt lat="44.8550825" lon="7.3232067"><ele>358.0</ele><time>2026-04-19T07:50:52.421Z</time></trkpt><trkpt lat="44.8552114" lon="7.32334"><ele>358.3333333333333</ele><time>2026-04-19T07:50:53.42Z</time></trkpt><trkpt lat="44.8553448" lon="7.3234716"><ele>358.6666666666667</ele><time>2026-04-19T07:50:54.421Z</time></trkpt><trkpt lat="44.8554744" lon="7.3236063"><ele>359.0</ele><time>2026-04-19T07:50:55.421Z</time></trkpt><trkpt lat="44.8556004" lon="7.3237393"><ele>359.0</ele><time>2026-04-19T07:50:56.421Z</time></trkpt><trkpt lat="44.8557249" lon="7.3238777"><ele>359.0</ele><time>2026-04-19T07:50:57.421Z</time></trkpt><trkpt lat="44.8558472" lon="7.3240107"><ele>359.0</ele><time>2026-04-19T07:50:58.421Z</time></trkpt><trkpt lat="44.8559634" lon="7.3241398"><ele>358.75</ele><time>2026-04-19T07:50:59.421Z</time></trkpt><trkpt lat="44.8560752" lon="7.3242647"><ele>358.5</ele><time>2026-04-19T07:51:00.421Z</time></trkpt><trkpt lat="44.856174" lon="7.3243726"><ele>358.25</ele><time>2026-04-19T07:51:01.421Z</time></trkpt><trkpt lat="44.8562564" lon="7.3244608"><ele>358.0</ele><time>2026-04-19T07:51:02.421Z</time></trkpt><trkpt lat="44.8563218" lon="7.324533"><ele>358.0</ele><time>2026-04-19T07:51:03.42Z</time></trkpt><trkpt lat="44.8563686" lon="7.3245998"><ele>358.0</ele><time>2026-04-19T07:51:04.421Z</time></trkpt><trkpt lat="44.8564127" lon="7.3246701"><ele>358.0</ele><time>2026-04-19T07:51:05.42Z</time></trkpt><trkpt lat="44.8564584" lon="7.3247419"><ele>358.0</ele><time>2026-04-19T07:51:06.42Z</time></trkpt><trkpt lat="44.8565444" lon="7.3248649"><ele>358.0</ele><time>2026-04-19T07:51:08.421Z</time></trkpt><trkpt lat="44.8565981" lon="7.3249217"><ele>358.0</ele><time>2026-04-19T07:51:09.42Z</time></trkpt><trkpt lat="44.8566747" lon="7.3249821"><ele>358.0</ele><time>2026-04-19T07:51:10.421Z</time></trkpt><trkpt lat="44.8567669" lon="7.3250608"><ele>358.0</ele><time>2026-04-19T07:51:11.42Z</time></trkpt><trkpt lat="44.8568719" lon="7.3251513"><ele>358.0</ele><time>2026-04-19T07:51:12.42Z</time></trkpt><trkpt lat="44.8569774" lon="7.3252516"><ele>358.0</ele><time>2026-04-19T07:51:13.421Z</time></trkpt><trkpt lat="44.8570808" lon="7.3253571"><ele>358.25</ele><time>2026-04-19T07:51:14.421Z</time></trkpt><trkpt lat="44.8571834" lon="7.3254639"><ele>358.5</ele><time>2026-04-19T07:51:15.421Z</time></trkpt><trkpt lat="44.8572968" lon="7.3255784"><ele>358.75</ele><time>2026-04-19T07:51:16.421Z</time></trkpt><trkpt lat="44.8574214" lon="7.3257032"><ele>359.0</ele><time>2026-04-19T07:51:17.421Z</time></trkpt><trkpt lat="44.8575448" lon="7.325828"><ele>358.33333333333337</ele><time>2026-04-19T07:51:18.421Z</time></trkpt><trkpt lat="44.8576759" lon="7.3259553"><ele>357.6666666666667</ele><time>2026-04-19T07:51:19.42Z</time></trkpt><trkpt lat="44.8578129" lon="7.326088"><ele>357.0</ele><time>2026-04-19T07:51:20.421Z</time></trkpt><trkpt lat="44.857953" lon="7.3262243"><ele>357.0</ele><time>2026-04-19T07:51:21.421Z</time></trkpt><trkpt lat="44.8580921" lon="7.326359"><ele>357.0</ele><time>2026-04-19T07:51:22.421Z</time></trkpt><trkpt lat="44.8582293" lon="7.326497"><ele>357.0</ele><time>2026-04-19T07:51:23.421Z</time></trkpt><trkpt lat="44.8583706" lon="7.3266335"><ele>357.6666666666667</ele><time>2026-04-19T07:51:24.421Z</time></trkpt><trkpt lat="44.8585075" lon="7.3267718"><ele>358.33333333333337</ele><time>2026-04-19T07:51:25.421Z</time></trkpt><trkpt lat="44.8586504" lon="7.3269121"><ele>359.0</ele><time>2026-04-19T07:51:26.421Z</time></trkpt><trkpt lat="44.8587918" lon="7.3270602"><ele>359.0</ele><time>2026-04-19T07:51:27.421Z</time></trkpt><trkpt lat="44.8589345" lon="7.327208"><ele>359.0</ele><time>2026-04-19T07:51:28.42Z</time></trkpt><trkpt lat="44.8590803" lon="7.3273572"><ele>359.0</ele><time>2026-04-19T07:51:29.421Z</time></trkpt><trkpt lat="44.8592282" lon="7.3275091"><ele>358.33333333333337</ele><time>2026-04-19T07:51:30.421Z</time></trkpt><trkpt lat="44.8593778" lon="7.3276586"><ele>357.6666666666667</ele><time>2026-04-19T07:51:31.421Z</time></trkpt><trkpt lat="44.8595242" lon="7.3278022"><ele>357.0</ele><time>2026-04-19T07:51:32.421Z</time></trkpt><trkpt lat="44.8596711" lon="7.3279465"><ele>357.0</ele><time>2026-04-19T07:51:33.421Z</time></trkpt><trkpt lat="44.8598206" lon="7.3280911"><ele>357.0</ele><time>2026-04-19T07:51:34.421Z</time></trkpt><trkpt lat="44.8599739" lon="7.3282371"><ele>357.0</ele><time>2026-04-19T07:51:35.421Z</time></trkpt><trkpt lat="44.8601282" lon="7.3283805"><ele>357.0</ele><time>2026-04-19T07:51:36.421Z</time></trkpt><trkpt lat="44.8602786" lon="7.3285264"><ele>357.0</ele><time>2026-04-19T07:51:37.421Z</time></trkpt><trkpt lat="44.8604245" lon="7.3286761"><ele>357.0</ele><time>2026-04-19T07:51:38.42Z</time></trkpt><trkpt lat="44.8605721" lon="7.3288221"><ele>356.6666666666667</ele><time>2026-04-19T07:51:39.42Z</time></trkpt><trkpt lat="44.8607182" lon="7.3289639"><ele>356.33333333333337</ele><time>2026-04-19T07:51:40.421Z</time></trkpt><trkpt lat="44.8608604" lon="7.3291109"><ele>356.0</ele><time>2026-04-19T07:51:41.42Z</time></trkpt><trkpt lat="44.8610059" lon="7.3292555"><ele>356.0</ele><time>2026-04-19T07:51:42.42Z</time></trkpt><trkpt lat="44.8611482" lon="7.3293989"><ele>356.0</ele><time>2026-04-19T07:51:43.421Z</time></trkpt><trkpt lat="44.8612932" lon="7.3295425"><ele>356.0</ele><time>2026-04-19T07:51:44.42Z</time></trkpt><trkpt lat="44.8614344" lon="7.3296851"><ele>356.0</ele><time>2026-04-19T07:51:45.42Z</time></trkpt><trkpt lat="44.8615779" lon="7.3298294"><ele>356.0</ele><time>2026-04-19T07:51:46.421Z</time></trkpt><trkpt lat="44.8617159" lon="7.3299737"><ele>356.0</ele><time>2026-04-19T07:51:47.42Z</time></trkpt><trkpt lat="44.8618594" lon="7.3301136"><ele>356.0</ele><time>2026-04-19T07:51:48.42Z</time></trkpt><trkpt lat="44.8620006" lon="7.3302545"><ele>356.0</ele><time>2026-04-19T07:51:49.421Z</time></trkpt><trkpt lat="44.8621427" lon="7.3303881"><ele>356.0</ele><time>2026-04-19T07:51:50.42Z</time></trkpt><trkpt lat="44.8622867" lon="7.3305205"><ele>357.0</ele><time>2026-04-19T07:51:51.421Z</time></trkpt><trkpt lat="44.8624278" lon="7.3306599"><ele>358.0</ele><time>2026-04-19T07:51:52.42Z</time></trkpt><trkpt lat="44.8625698" lon="7.3308004"><ele>359.0</ele><time>2026-04-19T07:51:53.421Z</time></trkpt><trkpt lat="44.8627077" lon="7.3309377"><ele>359.0</ele><time>2026-04-19T07:51:54.421Z</time></trkpt><trkpt lat="44.8628497" lon="7.3310763"><ele>359.0</ele><time>2026-04-19T07:51:55.421Z</time></trkpt><trkpt lat="44.8629908" lon="7.3312115"><ele>359.0</ele><time>2026-04-19T07:51:56.421Z</time></trkpt><trkpt lat="44.8631353" lon="7.3313592"><ele>359.0</ele><time>2026-04-19T07:51:57.421Z</time></trkpt><trkpt lat="44.8632746" lon="7.3314966"><ele>359.0</ele><time>2026-04-19T07:51:58.42Z</time></trkpt><trkpt lat="44.8634153" lon="7.3316366"><ele>359.0</ele><time>2026-04-19T07:51:59.421Z</time></trkpt><trkpt lat="44.8635528" lon="7.331775"><ele>359.0</ele><time>2026-04-19T07:52:00.421Z</time></trkpt><trkpt lat="44.8636944" lon="7.3319075"><ele>359.0</ele><time>2026-04-19T07:52:01.421Z</time></trkpt><trkpt lat="44.8638367" lon="7.3320437"><ele>359.0</ele><time>2026-04-19T07:52:02.421Z</time></trkpt><trkpt lat="44.8639729" lon="7.3321809"><ele>359.0</ele><time>2026-04-19T07:52:03.421Z</time></trkpt><trkpt lat="44.8641083" lon="7.3323239"><ele>359.0</ele><time>2026-04-19T07:52:04.421Z</time></trkpt><trkpt lat="44.864245" lon="7.3324799"><ele>359.0</ele><time>2026-04-19T07:52:05.42Z</time></trkpt><trkpt lat="44.8643778" lon="7.3326462"><ele>359.0</ele><time>2026-04-19T07:52:06.42Z</time></trkpt><trkpt lat="44.8645091" lon="7.3328165"><ele>359.0</ele><time>2026-04-19T07:52:07.421Z</time></trkpt><trkpt lat="44.8646482" lon="7.333009"><ele>359.0</ele><time>2026-04-19T07:52:08.42Z</time></trkpt><trkpt lat="44.864788" lon="7.3332184"><ele>358.6666666666667</ele><time>2026-04-19T07:52:09.421Z</time></trkpt><trkpt lat="44.8649328" lon="7.3334339"><ele>358.3333333333333</ele><time>2026-04-19T07:52:10.421Z</time></trkpt><trkpt lat="44.8650926" lon="7.3336732"><ele>358.0</ele><time>2026-04-19T07:52:11.42Z</time></trkpt><trkpt lat="44.8652491" lon="7.333906"><ele>358.0</ele><time>2026-04-19T07:52:12.421Z</time></trkpt><trkpt lat="44.8654086" lon="7.3341387"><ele>358.0</ele><time>2026-04-19T07:52:13.42Z</time></trkpt><trkpt lat="44.8655719" lon="7.334377"><ele>358.0</ele><time>2026-04-19T07:52:14.421Z</time></trkpt><trkpt lat="44.8657414" lon="7.3346252"><ele>358.0</ele><time>2026-04-19T07:52:15.421Z</time></trkpt><trkpt lat="44.8659057" lon="7.3348699"><ele>357.0</ele><time>2026-04-19T07:52:16.421Z</time></trkpt><trkpt lat="44.8660655" lon="7.3351151"><ele>356.0</ele><time>2026-04-19T07:52:17.421Z</time></trkpt><trkpt lat="44.8662352" lon="7.3353605"><ele>355.5</ele><time>2026-04-19T07:52:18.421Z</time></trkpt><trkpt lat="44.8663999" lon="7.3356097"><ele>355.0</ele><time>2026-04-19T07:52:19.421Z</time></trkpt><trkpt lat="44.8665633" lon="7.3358558"><ele>355.0</ele><time>2026-04-19T07:52:20.42Z</time></trkpt><trkpt lat="44.8667272" lon="7.3361031"><ele>355.0</ele><time>2026-04-19T07:52:21.421Z</time></trkpt><trkpt lat="44.8668893" lon="7.3363397"><ele>355.0</ele><time>2026-04-19T07:52:22.421Z</time></trkpt><trkpt lat="44.867054" lon="7.336583"><ele>355.0</ele><time>2026-04-19T07:52:23.421Z</time></trkpt><trkpt lat="44.8672187" lon="7.3368266"><ele>355.0</ele><time>2026-04-19T07:52:24.421Z</time></trkpt><trkpt lat="44.867382" lon="7.3370747"><ele>355.0</ele><time>2026-04-19T07:52:25.421Z</time></trkpt><trkpt lat="44.8675451" lon="7.3373284"><ele>357.0</ele><time>2026-04-19T07:52:26.421Z</time></trkpt><trkpt lat="44.8677102" lon="7.3375858"><ele>359.0</ele><time>2026-04-19T07:52:27.421Z</time></trkpt><trkpt lat="44.8678743" lon="7.3378474"><ele>358.5</ele><time>2026-04-19T07:52:28.421Z</time></trkpt><trkpt lat="44.8680327" lon="7.3381125"><ele>358.0</ele><time>2026-04-19T07:52:29.421Z</time></trkpt><trkpt lat="44.8681917" lon="7.3383825"><ele>358.0</ele><time>2026-04-19T07:52:30.421Z</time></trkpt><trkpt lat="44.8683547" lon="7.3386538"><ele>358.0</ele><time>2026-04-19T07:52:31.421Z</time></trkpt><trkpt lat="44.8685076" lon="7.3389258"><ele>359.0</ele><time>2026-04-19T07:52:32.421Z</time></trkpt><trkpt lat="44.8686534" lon="7.3392067"><ele>360.0</ele><time>2026-04-19T07:52:33.421Z</time></trkpt><trkpt lat="44.8687839" lon="7.3394925"><ele>358.0</ele><time>2026-04-19T07:52:34.42Z</time></trkpt><trkpt lat="44.8689024" lon="7.3397693"><ele>356.0</ele><time>2026-04-19T07:52:35.421Z</time></trkpt><trkpt lat="44.8690109" lon="7.3400362"><ele>354.0</ele><time>2026-04-19T07:52:36.421Z</time></trkpt><trkpt lat="44.8691144" lon="7.3403034"><ele>354.0</ele><time>2026-04-19T07:52:37.421Z</time></trkpt><trkpt lat="44.8692103" lon="7.340577"><ele>354.0</ele><time>2026-04-19T07:52:38.421Z</time></trkpt><trkpt lat="44.8692979" lon="7.3408498"><ele>354.0</ele><time>2026-04-19T07:52:39.421Z</time></trkpt><trkpt lat="44.8693856" lon="7.3411267"><ele>355.0</ele><time>2026-04-19T07:52:40.421Z</time></trkpt><trkpt lat="44.8694701" lon="7.3414068"><ele>356.0</ele><time>2026-04-19T07:52:41.421Z</time></trkpt><trkpt lat="44.8695573" lon="7.3416871"><ele>357.0</ele><time>2026-04-19T07:52:42.42Z</time></trkpt><trkpt lat="44.8696486" lon="7.3419682"><ele>356.0</ele><time>2026-04-19T07:52:43.421Z</time></trkpt><trkpt lat="44.8697451" lon="7.342255"><ele>355.0</ele><time>2026-04-19T07:52:44.42Z</time></trkpt><trkpt lat="44.8698399" lon="7.3425618"><ele>355.0</ele><time>2026-04-19T07:52:45.421Z</time></trkpt><trkpt lat="44.8699248" lon="7.3428804"><ele>355.0</ele><time>2026-04-19T07:52:46.421Z</time></trkpt><trkpt lat="44.8700071" lon="7.343199"><ele>355.5</ele><time>2026-04-19T07:52:47.42Z</time></trkpt><trkpt lat="44.8700852" lon="7.3435184"><ele>356.0</ele><time>2026-04-19T07:52:48.421Z</time></trkpt><trkpt lat="44.8701532" lon="7.3438285"><ele>355.6666666666667</ele><time>2026-04-19T07:52:49.421Z</time></trkpt><trkpt lat="44.8702151" lon="7.3441294"><ele>355.3333333333333</ele><time>2026-04-19T07:52:50.421Z</time></trkpt><trkpt lat="44.8702683" lon="7.3444255"><ele>355.0</ele><time>2026-04-19T07:52:51.421Z</time></trkpt><trkpt lat="44.8703176" lon="7.3447191"><ele>355.0</ele><time>2026-04-19T07:52:52.421Z</time></trkpt><trkpt lat="44.8703612" lon="7.3450146"><ele>355.0</ele><time>2026-04-19T07:52:53.421Z</time></trkpt><trkpt lat="44.8704008" lon="7.3453015"><ele>355.0</ele><time>2026-04-19T07:52:54.421Z</time></trkpt><trkpt lat="44.8704412" lon="7.3455936"><ele>354.66666666666663</ele><time>2026-04-19T07:52:55.421Z</time></trkpt><trkpt lat="44.8704843" lon="7.345879"><ele>354.3333333333333</ele><time>2026-04-19T07:52:56.421Z</time></trkpt><trkpt lat="44.8705342" lon="7.3461563"><ele>354.0</ele><time>2026-04-19T07:52:57.421Z</time></trkpt><trkpt lat="44.8705882" lon="7.3464278"><ele>353.3333333333333</ele><time>2026-04-19T07:52:58.421Z</time></trkpt><trkpt lat="44.8706503" lon="7.3466956"><ele>352.66666666666663</ele><time>2026-04-19T07:52:59.421Z</time></trkpt><trkpt lat="44.870721" lon="7.3469608"><ele>352.0</ele><time>2026-04-19T07:53:00.421Z</time></trkpt><trkpt lat="44.8708033" lon="7.347223"><ele>352.0</ele><time>2026-04-19T07:53:01.42Z</time></trkpt><trkpt lat="44.8708945" lon="7.347481"><ele>352.0</ele><time>2026-04-19T07:53:02.42Z</time></trkpt><trkpt lat="44.8710036" lon="7.3477316"><ele>352.0</ele><time>2026-04-19T07:53:03.42Z</time></trkpt><trkpt lat="44.8711216" lon="7.3479711"><ele>351.66666666666663</ele><time>2026-04-19T07:53:04.42Z</time></trkpt><trkpt lat="44.8712541" lon="7.3481998"><ele>351.3333333333333</ele><time>2026-04-19T07:53:05.421Z</time></trkpt><trkpt lat="44.8714002" lon="7.3484168"><ele>351.0</ele><time>2026-04-19T07:53:06.421Z</time></trkpt><trkpt lat="44.8715627" lon="7.3486092"><ele>351.0</ele><time>2026-04-19T07:53:07.421Z</time></trkpt><trkpt lat="44.8717402" lon="7.3487851"><ele>351.0</ele><time>2026-04-19T07:53:08.421Z</time></trkpt><trkpt lat="44.8719255" lon="7.3489432"><ele>351.0</ele><time>2026-04-19T07:53:09.421Z</time></trkpt><trkpt lat="44.8721188" lon="7.3490818"><ele>350.6666666666667</ele><time>2026-04-19T07:53:10.421Z</time></trkpt><trkpt lat="44.8723133" lon="7.3492201"><ele>350.33333333333337</ele><time>2026-04-19T07:53:11.42Z</time></trkpt><trkpt lat="44.8725078" lon="7.3493555"><ele>350.0</ele><time>2026-04-19T07:53:12.421Z</time></trkpt><trkpt lat="44.8727019" lon="7.3494879"><ele>350.0</ele><time>2026-04-19T07:53:13.42Z</time></trkpt><trkpt lat="44.8728941" lon="7.3496266"><ele>350.0</ele><time>2026-04-19T07:53:14.421Z</time></trkpt><trkpt lat="44.8730839" lon="7.3497717"><ele>350.0</ele><time>2026-04-19T07:53:15.421Z</time></trkpt><trkpt lat="44.8732707" lon="7.3499257"><ele>349.6666666666667</ele><time>2026-04-19T07:53:16.42Z</time></trkpt><trkpt lat="44.8734524" lon="7.3500859"><ele>349.3333333333333</ele><time>2026-04-19T07:53:17.421Z</time></trkpt><trkpt lat="44.8736345" lon="7.3502566"><ele>349.0</ele><time>2026-04-19T07:53:18.421Z</time></trkpt><trkpt lat="44.8738095" lon="7.3504289"><ele>349.0</ele><time>2026-04-19T07:53:19.421Z</time></trkpt><trkpt lat="44.8739841" lon="7.3506021"><ele>349.0</ele><time>2026-04-19T07:53:20.421Z</time></trkpt><trkpt lat="44.8741594" lon="7.3507753"><ele>349.0</ele><time>2026-04-19T07:53:21.421Z</time></trkpt><trkpt lat="44.8743318" lon="7.3509457"><ele>348.0</ele><time>2026-04-19T07:53:22.421Z</time></trkpt><trkpt lat="44.8745082" lon="7.3511127"><ele>347.0</ele><time>2026-04-19T07:53:23.421Z</time></trkpt><trkpt lat="44.8746822" lon="7.3512853"><ele>346.0</ele><time>2026-04-19T07:53:24.421Z</time></trkpt><trkpt lat="44.8748566" lon="7.3514603"><ele>346.0</ele><time>2026-04-19T07:53:25.421Z</time></trkpt><trkpt lat="44.8750302" lon="7.3516375"><ele>346.0</ele><time>2026-04-19T07:53:26.421Z</time></trkpt><trkpt lat="44.8752019" lon="7.3518118"><ele>346.0</ele><time>2026-04-19T07:53:27.421Z</time></trkpt><trkpt lat="44.8753726" lon="7.3519865"><ele>346.0</ele><time>2026-04-19T07:53:28.421Z</time></trkpt><trkpt lat="44.8755471" lon="7.3521612"><ele>346.0</ele><time>2026-04-19T07:53:29.421Z</time></trkpt><trkpt lat="44.8757164" lon="7.3523261"><ele>346.0</ele><time>2026-04-19T07:53:30.421Z</time></trkpt><trkpt lat="44.8758846" lon="7.3524906"><ele>345.3333333333333</ele><time>2026-04-19T07:53:31.421Z</time></trkpt><trkpt lat="44.876049" lon="7.3526595"><ele>344.6666666666667</ele><time>2026-04-19T07:53:32.421Z</time></trkpt><trkpt lat="44.8762108" lon="7.3528303"><ele>344.0</ele><time>2026-04-19T07:53:33.421Z</time></trkpt><trkpt lat="44.8763707" lon="7.3529965"><ele>344.33333333333337</ele><time>2026-04-19T07:53:34.421Z</time></trkpt><trkpt lat="44.8765344" lon="7.3531631"><ele>344.6666666666667</ele><time>2026-04-19T07:53:35.421Z</time></trkpt><trkpt lat="44.8766932" lon="7.3533318"><ele>345.0</ele><time>2026-04-19T07:53:36.421Z</time></trkpt><trkpt lat="44.8768488" lon="7.3535001"><ele>345.0</ele><time>2026-04-19T07:53:37.42Z</time></trkpt><trkpt lat="44.8770008" lon="7.3536777"><ele>345.0</ele><time>2026-04-19T07:53:38.421Z</time></trkpt><trkpt lat="44.8771466" lon="7.3538571"><ele>345.0</ele><time>2026-04-19T07:53:39.421Z</time></trkpt><trkpt lat="44.877298" lon="7.3540374"><ele>345.3333333333333</ele><time>2026-04-19T07:53:40.421Z</time></trkpt><trkpt lat="44.8774492" lon="7.3542166"><ele>345.66666666666663</ele><time>2026-04-19T07:53:41.421Z</time></trkpt><trkpt lat="44.8775994" lon="7.3543899"><ele>346.0</ele><time>2026-04-19T07:53:42.421Z</time></trkpt><trkpt lat="44.8777483" lon="7.3545632"><ele>345.3333333333333</ele><time>2026-04-19T07:53:43.421Z</time></trkpt><trkpt lat="44.8779011" lon="7.3547317"><ele>344.6666666666667</ele><time>2026-04-19T07:53:44.421Z</time></trkpt><trkpt lat="44.8780497" lon="7.3549023"><ele>344.0</ele><time>2026-04-19T07:53:45.42Z</time></trkpt><trkpt lat="44.8781983" lon="7.355073"><ele>344.0</ele><time>2026-04-19T07:53:46.421Z</time></trkpt><trkpt lat="44.8783447" lon="7.3552369"><ele>344.0</ele><time>2026-04-19T07:53:47.421Z</time></trkpt><trkpt lat="44.8784864" lon="7.3553985"><ele>344.0</ele><time>2026-04-19T07:53:48.421Z</time></trkpt><trkpt lat="44.8786266" lon="7.3555591"><ele>344.0</ele><time>2026-04-19T07:53:49.42Z</time></trkpt><trkpt lat="44.8787588" lon="7.3557149"><ele>344.0</ele><time>2026-04-19T07:53:50.42Z</time></trkpt><trkpt lat="44.8788772" lon="7.3558641"><ele>344.0</ele><time>2026-04-19T07:53:51.421Z</time></trkpt><trkpt lat="44.8789896" lon="7.3560052"><ele>344.0</ele><time>2026-04-19T07:53:52.421Z</time></trkpt><trkpt lat="44.8790956" lon="7.3561395"><ele>344.0</ele><time>2026-04-19T07:53:53.421Z</time></trkpt><trkpt lat="44.879197" lon="7.3562733"><ele>344.0</ele><time>2026-04-19T07:53:54.421Z</time></trkpt><trkpt lat="44.8792878" lon="7.3563979"><ele>344.0</ele><time>2026-04-19T07:53:55.421Z</time></trkpt><trkpt lat="44.8793675" lon="7.3565114"><ele>344.2</ele><time>2026-04-19T07:53:56.42Z</time></trkpt><trkpt lat="44.8794398" lon="7.3566139"><ele>344.4</ele><time>2026-04-19T07:53:57.421Z</time></trkpt><trkpt lat="44.8794989" lon="7.3567043"><ele>344.6</ele><time>2026-04-19T07:53:58.421Z</time></trkpt><trkpt lat="44.8795383" lon="7.3567921"><ele>344.8</ele><time>2026-04-19T07:53:59.42Z</time></trkpt><trkpt lat="44.879559" lon="7.3569894"><ele>345.0</ele><time>2026-04-19T07:54:01.421Z</time></trkpt><trkpt lat="44.879554" lon="7.3571152"><ele>344.75</ele><time>2026-04-19T07:54:02.421Z</time></trkpt><trkpt lat="44.8795678" lon="7.3572571"><ele>344.5</ele><time>2026-04-19T07:54:03.421Z</time></trkpt><trkpt lat="44.8796054" lon="7.3574234"><ele>344.25</ele><time>2026-04-19T07:54:04.421Z</time></trkpt><trkpt lat="44.8796648" lon="7.3575869"><ele>344.0</ele><time>2026-04-19T07:54:05.421Z</time></trkpt><trkpt lat="44.8797418" lon="7.3577433"><ele>344.0</ele><time>2026-04-19T07:54:06.421Z</time></trkpt><trkpt lat="44.8798284" lon="7.357892"><ele>344.0</ele><time>2026-04-19T07:54:07.421Z</time></trkpt><trkpt lat="44.8799333" lon="7.3580262"><ele>344.0</ele><time>2026-04-19T07:54:08.421Z</time></trkpt><trkpt lat="44.8800598" lon="7.3581223"><ele>344.0</ele><time>2026-04-19T07:54:09.421Z</time></trkpt><trkpt lat="44.8801965" lon="7.3581842"><ele>343.6666666666667</ele><time>2026-04-19T07:54:10.421Z</time></trkpt><trkpt lat="44.8803535" lon="7.3582094"><ele>343.3333333333333</ele><time>2026-04-19T07:54:11.421Z</time></trkpt><trkpt lat="44.8805187" lon="7.3582092"><ele>343.0</ele><time>2026-04-19T07:54:12.421Z</time></trkpt><trkpt lat="44.8806675" lon="7.3581539"><ele>343.0</ele><time>2026-04-19T07:54:13.421Z</time></trkpt><trkpt lat="44.880801" lon="7.3580652"><ele>343.0</ele><time>2026-04-19T07:54:14.421Z</time></trkpt><trkpt lat="44.8809124" lon="7.3579316"><ele>343.0</ele><time>2026-04-19T07:54:15.421Z</time></trkpt><trkpt lat="44.8810074" lon="7.3577553"><ele>343.25</ele><time>2026-04-19T07:54:16.421Z</time></trkpt><trkpt lat="44.8810794" lon="7.3575721"><ele>343.5</ele><time>2026-04-19T07:54:17.421Z</time></trkpt><trkpt lat="44.8811302" lon="7.3573694"><ele>343.75</ele><time>2026-04-19T07:54:18.42Z</time></trkpt><trkpt lat="44.8811552" lon="7.3571632"><ele>344.0</ele><time>2026-04-19T07:54:19.421Z</time></trkpt><trkpt lat="44.881154" lon="7.356956"><ele>344.0</ele><time>2026-04-19T07:54:20.42Z</time></trkpt><trkpt lat="44.8811341" lon="7.3567645"><ele>344.0</ele><time>2026-04-19T07:54:21.421Z</time></trkpt><trkpt lat="44.8811088" lon="7.3565777"><ele>344.0</ele><time>2026-04-19T07:54:22.42Z</time></trkpt><trkpt lat="44.8811014" lon="7.3563942"><ele>344.0</ele><time>2026-04-19T07:54:23.421Z</time></trkpt><trkpt lat="44.8811243" lon="7.3562061"><ele>344.0</ele><time>2026-04-19T07:54:24.421Z</time></trkpt><trkpt lat="44.8811781" lon="7.3560285"><ele>344.0</ele><time>2026-04-19T07:54:25.421Z</time></trkpt><trkpt lat="44.8812553" lon="7.3558689"><ele>344.0</ele><time>2026-04-19T07:54:26.421Z</time></trkpt><trkpt lat="44.8813591" lon="7.3557264"><ele>344.0</ele><time>2026-04-19T07:54:27.421Z</time></trkpt><trkpt lat="44.8814802" lon="7.3555844"><ele>344.0</ele><time>2026-04-19T07:54:28.421Z</time></trkpt><trkpt lat="44.8816119" lon="7.355446"><ele>344.0</ele><time>2026-04-19T07:54:29.421Z</time></trkpt><trkpt lat="44.8817619" lon="7.3553099"><ele>344.0</ele><time>2026-04-19T07:54:30.421Z</time></trkpt><trkpt lat="44.8819221" lon="7.3551968"><ele>344.33333333333337</ele><time>2026-04-19T07:54:31.42Z</time></trkpt><trkpt lat="44.8820857" lon="7.3551044"><ele>344.6666666666667</ele><time>2026-04-19T07:54:32.421Z</time></trkpt><trkpt lat="44.8822594" lon="7.3550419"><ele>345.0</ele><time>2026-04-19T07:54:33.421Z</time></trkpt><trkpt lat="44.8824432" lon="7.3549966"><ele>345.6666666666667</ele><time>2026-04-19T07:54:34.421Z</time></trkpt><trkpt lat="44.8826299" lon="7.3549785"><ele>346.33333333333337</ele><time>2026-04-19T07:54:35.42Z</time></trkpt><trkpt lat="44.8828123" lon="7.354979"><ele>347.0</ele><time>2026-04-19T07:54:36.421Z</time></trkpt><trkpt lat="44.8830009" lon="7.3550134"><ele>347.0</ele><time>2026-04-19T07:54:37.42Z</time></trkpt><trkpt lat="44.8831856" lon="7.3550749"><ele>347.0</ele><time>2026-04-19T07:54:38.421Z</time></trkpt><trkpt lat="44.8833715" lon="7.3551588"><ele>347.0</ele><time>2026-04-19T07:54:39.421Z</time></trkpt><trkpt lat="44.8835466" lon="7.3552589"><ele>347.33333333333337</ele><time>2026-04-19T07:54:40.421Z</time></trkpt><trkpt lat="44.8837243" lon="7.355366"><ele>347.6666666666667</ele><time>2026-04-19T07:54:41.421Z</time></trkpt><trkpt lat="44.8839005" lon="7.3554955"><ele>348.0</ele><time>2026-04-19T07:54:42.421Z</time></trkpt><trkpt lat="44.8840849" lon="7.355636"><ele>347.0</ele><time>2026-04-19T07:54:43.421Z</time></trkpt><trkpt lat="44.8842784" lon="7.3557909"><ele>346.0</ele><time>2026-04-19T07:54:44.421Z</time></trkpt><trkpt lat="44.8844762" lon="7.3559608"><ele>346.0</ele><time>2026-04-19T07:54:45.421Z</time></trkpt><trkpt lat="44.8846794" lon="7.3561411"><ele>346.0</ele><time>2026-04-19T07:54:46.42Z</time></trkpt><trkpt lat="44.8848851" lon="7.35633"><ele>346.0</ele><time>2026-04-19T07:54:47.421Z</time></trkpt><trkpt lat="44.8850945" lon="7.356516"><ele>346.0</ele><time>2026-04-19T07:54:48.421Z</time></trkpt><trkpt lat="44.885305" lon="7.3567001"><ele>346.0</ele><time>2026-04-19T07:54:49.421Z</time></trkpt><trkpt lat="44.8855217" lon="7.3568799"><ele>346.0</ele><time>2026-04-19T07:54:50.421Z</time></trkpt><trkpt lat="44.8857269" lon="7.3570554"><ele>345.5</ele><time>2026-04-19T07:54:51.421Z</time></trkpt><trkpt lat="44.8859336" lon="7.3572278"><ele>345.0</ele><time>2026-04-19T07:54:52.421Z</time></trkpt><trkpt lat="44.8861357" lon="7.3573984"><ele>345.0</ele><time>2026-04-19T07:54:53.421Z</time></trkpt><trkpt lat="44.8863351" lon="7.357551"><ele>345.0</ele><time>2026-04-19T07:54:54.421Z</time></trkpt><trkpt lat="44.8865407" lon="7.357696"><ele>345.0</ele><time>2026-04-19T07:54:55.42Z</time></trkpt><trkpt lat="44.886743" lon="7.3578194"><ele>345.0</ele><time>2026-04-19T07:54:56.421Z</time></trkpt><trkpt lat="44.8869409" lon="7.3579198"><ele>345.0</ele><time>2026-04-19T07:54:57.421Z</time></trkpt><trkpt lat="44.8871446" lon="7.3580161"><ele>345.3333333333333</ele><time>2026-04-19T07:54:58.421Z</time></trkpt><trkpt lat="44.8873513" lon="7.3580892"><ele>345.66666666666663</ele><time>2026-04-19T07:54:59.42Z</time></trkpt><trkpt lat="44.8875606" lon="7.3581522"><ele>346.0</ele><time>2026-04-19T07:55:00.421Z</time></trkpt><trkpt lat="44.8877647" lon="7.3581951"><ele>346.0</ele><time>2026-04-19T07:55:01.421Z</time></trkpt><trkpt lat="44.8879806" lon="7.3582221"><ele>346.0</ele><time>2026-04-19T07:55:02.421Z</time></trkpt><trkpt lat="44.888192" lon="7.3582326"><ele>346.0</ele><time>2026-04-19T07:55:03.42Z</time></trkpt><trkpt lat="44.8884043" lon="7.3582321"><ele>346.3333333333333</ele><time>2026-04-19T07:55:04.421Z</time></trkpt><trkpt lat="44.8886197" lon="7.3582157"><ele>346.6666666666667</ele><time>2026-04-19T07:55:05.421Z</time></trkpt><trkpt lat="44.8888387" lon="7.3582008"><ele>347.0</ele><time>2026-04-19T07:55:06.421Z</time></trkpt><trkpt lat="44.8890552" lon="7.358184"><ele>347.6666666666667</ele><time>2026-04-19T07:55:07.421Z</time></trkpt><trkpt lat="44.8892738" lon="7.358184"><ele>348.3333333333333</ele><time>2026-04-19T07:55:08.421Z</time></trkpt><trkpt lat="44.8894806" lon="7.3581869"><ele>349.0</ele><time>2026-04-19T07:55:09.42Z</time></trkpt><trkpt lat="44.8896918" lon="7.358187"><ele>349.0</ele><time>2026-04-19T07:55:10.42Z</time></trkpt><trkpt lat="44.8899016" lon="7.3581882"><ele>349.0</ele><time>2026-04-19T07:55:11.421Z</time></trkpt><trkpt lat="44.8901068" lon="7.3581901"><ele>349.0</ele><time>2026-04-19T07:55:12.42Z</time></trkpt><trkpt lat="44.8903086" lon="7.3581965"><ele>349.0</ele><time>2026-04-19T07:55:13.421Z</time></trkpt><trkpt lat="44.8905132" lon="7.3582167"><ele>349.0</ele><time>2026-04-19T07:55:14.421Z</time></trkpt><trkpt lat="44.8907122" lon="7.3582549"><ele>349.0</ele><time>2026-04-19T07:55:15.421Z</time></trkpt><trkpt lat="44.8909101" lon="7.3583057"><ele>347.66666666666663</ele><time>2026-04-19T07:55:16.421Z</time></trkpt><trkpt lat="44.8911067" lon="7.3583614"><ele>346.3333333333333</ele><time>2026-04-19T07:55:17.421Z</time></trkpt><trkpt lat="44.8913072" lon="7.3584311"><ele>345.0</ele><time>2026-04-19T07:55:18.421Z</time></trkpt><trkpt lat="44.8914972" lon="7.3584998"><ele>345.0</ele><time>2026-04-19T07:55:19.421Z</time></trkpt><trkpt lat="44.8916861" lon="7.3585783"><ele>345.0</ele><time>2026-04-19T07:55:20.42Z</time></trkpt><trkpt lat="44.891876" lon="7.358672"><ele>345.0</ele><time>2026-04-19T07:55:21.421Z</time></trkpt><trkpt lat="44.8920627" lon="7.3587696"><ele>344.6666666666667</ele><time>2026-04-19T07:55:22.421Z</time></trkpt><trkpt lat="44.8922456" lon="7.3588742"><ele>344.33333333333337</ele><time>2026-04-19T07:55:23.42Z</time></trkpt><trkpt lat="44.8924327" lon="7.3589815"><ele>344.0</ele><time>2026-04-19T07:55:24.421Z</time></trkpt><trkpt lat="44.8926157" lon="7.3590908"><ele>344.0</ele><time>2026-04-19T07:55:25.421Z</time></trkpt><trkpt lat="44.8928017" lon="7.3591988"><ele>344.0</ele><time>2026-04-19T07:55:26.42Z</time></trkpt><trkpt lat="44.8929932" lon="7.3593028"><ele>344.0</ele><time>2026-04-19T07:55:27.419Z</time></trkpt><trkpt lat="44.8931827" lon="7.3594142"><ele>344.0</ele><time>2026-04-19T07:55:28.42Z</time></trkpt><trkpt lat="44.8933725" lon="7.3595169"><ele>344.0</ele><time>2026-04-19T07:55:29.42Z</time></trkpt><trkpt lat="44.8935632" lon="7.359629"><ele>344.0</ele><time>2026-04-19T07:55:30.42Z</time></trkpt><trkpt lat="44.8937527" lon="7.3597366"><ele>344.0</ele><time>2026-04-19T07:55:31.419Z</time></trkpt><trkpt lat="44.8939392" lon="7.3598417"><ele>344.0</ele><time>2026-04-19T07:55:32.42Z</time></trkpt><trkpt lat="44.8941259" lon="7.3599435"><ele>344.0</ele><time>2026-04-19T07:55:33.42Z</time></trkpt><trkpt lat="44.8943141" lon="7.3600441"><ele>344.0</ele><time>2026-04-19T07:55:34.42Z</time></trkpt><trkpt lat="44.8944999" lon="7.3601486"><ele>344.0</ele><time>2026-04-19T07:55:35.42Z</time></trkpt><trkpt lat="44.8946887" lon="7.36025"><ele>344.0</ele><time>2026-04-19T07:55:36.42Z</time></trkpt><trkpt lat="44.8948758" lon="7.360354"><ele>344.0</ele><time>2026-04-19T07:55:37.42Z</time></trkpt><trkpt lat="44.8950651" lon="7.3604467"><ele>344.0</ele><time>2026-04-19T07:55:38.42Z</time></trkpt><trkpt lat="44.8952541" lon="7.3605358"><ele>344.0</ele><time>2026-04-19T07:55:39.42Z</time></trkpt><trkpt lat="44.8954423" lon="7.3606238"><ele>344.0</ele><time>2026-04-19T07:55:40.42Z</time></trkpt><trkpt lat="44.8956364" lon="7.3606954"><ele>344.0</ele><time>2026-04-19T07:55:41.42Z</time></trkpt><trkpt lat="44.8958302" lon="7.36076"><ele>344.0</ele><time>2026-04-19T07:55:42.42Z</time></trkpt><trkpt lat="44.8960286" lon="7.3608185"><ele>344.0</ele><time>2026-04-19T07:55:43.42Z</time></trkpt><trkpt lat="44.8962307" lon="7.3608687"><ele>344.0</ele><time>2026-04-19T07:55:44.42Z</time></trkpt><trkpt lat="44.8964328" lon="7.360917"><ele>344.0</ele><time>2026-04-19T07:55:45.42Z</time></trkpt><trkpt lat="44.8966371" lon="7.3609594"><ele>343.33333333333337</ele><time>2026-04-19T07:55:46.42Z</time></trkpt><trkpt lat="44.896844" lon="7.3609845"><ele>342.6666666666667</ele><time>2026-04-19T07:55:47.42Z</time></trkpt><trkpt lat="44.897053" lon="7.3610039"><ele>342.0</ele><time>2026-04-19T07:55:48.42Z</time></trkpt><trkpt lat="44.8972607" lon="7.3610108"><ele>342.0</ele><time>2026-04-19T07:55:49.42Z</time></trkpt><trkpt lat="44.8974712" lon="7.3610081"><ele>342.0</ele><time>2026-04-19T07:55:50.419Z</time></trkpt><trkpt lat="44.8976864" lon="7.3610002"><ele>342.0</ele><time>2026-04-19T07:55:51.42Z</time></trkpt><trkpt lat="44.8978986" lon="7.360989"><ele>342.3333333333333</ele><time>2026-04-19T07:55:52.42Z</time></trkpt><trkpt lat="44.8981076" lon="7.3609779"><ele>342.66666666666663</ele><time>2026-04-19T07:55:53.419Z</time></trkpt><trkpt lat="44.8983158" lon="7.36096"><ele>343.0</ele><time>2026-04-19T07:55:54.42Z</time></trkpt><trkpt lat="44.8985238" lon="7.3609483"><ele>342.3333333333333</ele><time>2026-04-19T07:55:55.42Z</time></trkpt><trkpt lat="44.8987297" lon="7.3609311"><ele>341.6666666666667</ele><time>2026-04-19T07:55:56.42Z</time></trkpt><trkpt lat="44.8989363" lon="7.360915"><ele>341.0</ele><time>2026-04-19T07:55:57.42Z</time></trkpt><trkpt lat="44.8991391" lon="7.360899"><ele>340.33333333333337</ele><time>2026-04-19T07:55:58.419Z</time></trkpt><trkpt lat="44.8993276" lon="7.3608794"><ele>339.6666666666667</ele><time>2026-04-19T07:55:59.42Z</time></trkpt><trkpt lat="44.8995114" lon="7.3608517"><ele>339.0</ele><time>2026-04-19T07:56:00.42Z</time></trkpt><trkpt lat="44.8996921" lon="7.3608115"><ele>339.0</ele><time>2026-04-19T07:56:01.42Z</time></trkpt><trkpt lat="44.8998715" lon="7.3607574"><ele>339.0</ele><time>2026-04-19T07:56:02.419Z</time></trkpt><trkpt lat="44.9000485" lon="7.3606887"><ele>339.0</ele><time>2026-04-19T07:56:03.419Z</time></trkpt><trkpt lat="44.900226" lon="7.3606065"><ele>338.0</ele><time>2026-04-19T07:56:04.42Z</time></trkpt><trkpt lat="44.9003973" lon="7.3605213"><ele>337.0</ele><time>2026-04-19T07:56:05.419Z</time></trkpt><trkpt lat="44.9005592" lon="7.3604176"><ele>336.0</ele><time>2026-04-19T07:56:06.42Z</time></trkpt><trkpt lat="44.9007132" lon="7.3603143"><ele>336.0</ele><time>2026-04-19T07:56:07.42Z</time></trkpt><trkpt lat="44.9008563" lon="7.360206"><ele>336.0</ele><time>2026-04-19T07:56:08.42Z</time></trkpt><trkpt lat="44.9009906" lon="7.3600954"><ele>336.0</ele><time>2026-04-19T07:56:09.42Z</time></trkpt><trkpt lat="44.9011121" lon="7.35999"><ele>336.25</ele><time>2026-04-19T07:56:10.42Z</time></trkpt><trkpt lat="44.9012268" lon="7.3598825"><ele>336.5</ele><time>2026-04-19T07:56:11.42Z</time></trkpt><trkpt lat="44.9013325" lon="7.3597843"><ele>336.75</ele><time>2026-04-19T07:56:12.42Z</time></trkpt><trkpt lat="44.9014367" lon="7.3597085"><ele>337.0</ele><time>2026-04-19T07:56:13.42Z</time></trkpt><trkpt lat="44.9015479" lon="7.3596743"><ele>337.0</ele><time>2026-04-19T07:56:14.42Z</time></trkpt><trkpt lat="44.9016618" lon="7.3596722"><ele>337.0</ele><time>2026-04-19T07:56:15.419Z</time></trkpt><trkpt lat="44.9017714" lon="7.359696"><ele>337.0</ele><time>2026-04-19T07:56:16.42Z</time></trkpt><trkpt lat="44.9018882" lon="7.3597005"><ele>337.0</ele><time>2026-04-19T07:56:17.42Z</time></trkpt><trkpt lat="44.9020037" lon="7.3596736"><ele>337.25</ele><time>2026-04-19T07:56:18.419Z</time></trkpt><trkpt lat="44.902118" lon="7.3595943"><ele>337.5</ele><time>2026-04-19T07:56:19.42Z</time></trkpt><trkpt lat="44.9022053" lon="7.3594632"><ele>337.75</ele><time>2026-04-19T07:56:20.419Z</time></trkpt><trkpt lat="44.902263" lon="7.3592925"><ele>338.0</ele><time>2026-04-19T07:56:21.419Z</time></trkpt><trkpt lat="44.9023176" lon="7.3591156"><ele>338.0</ele><time>2026-04-19T07:56:22.42Z</time></trkpt><trkpt lat="44.9023924" lon="7.3589788"><ele>338.0</ele><time>2026-04-19T07:56:23.42Z</time></trkpt><trkpt lat="44.9024966" lon="7.3588919"><ele>338.0</ele><time>2026-04-19T07:56:24.42Z</time></trkpt><trkpt lat="44.9026228" lon="7.3588612"><ele>338.0</ele><time>2026-04-19T07:56:25.42Z</time></trkpt><trkpt lat="44.9027579" lon="7.3588548"><ele>337.33333333333337</ele><time>2026-04-19T07:56:26.419Z</time></trkpt><trkpt lat="44.9029081" lon="7.3588864"><ele>336.6666666666667</ele><time>2026-04-19T07:56:27.42Z</time></trkpt><trkpt lat="44.9030565" lon="7.3589423"><ele>336.0</ele><time>2026-04-19T07:56:28.42Z</time></trkpt><trkpt lat="44.9032089" lon="7.359018"><ele>336.0</ele><time>2026-04-19T07:56:29.42Z</time></trkpt><trkpt lat="44.9033636" lon="7.3590883"><ele>336.0</ele><time>2026-04-19T07:56:30.42Z</time></trkpt><trkpt lat="44.9035218" lon="7.3591496"><ele>336.0</ele><time>2026-04-19T07:56:31.419Z</time></trkpt><trkpt lat="44.9036842" lon="7.3592111"><ele>336.3333333333333</ele><time>2026-04-19T07:56:32.42Z</time></trkpt><trkpt lat="44.9038446" lon="7.3592712"><ele>336.66666666666663</ele><time>2026-04-19T07:56:33.42Z</time></trkpt><trkpt lat="44.9040055" lon="7.3593298"><ele>337.0</ele><time>2026-04-19T07:56:34.42Z</time></trkpt><trkpt lat="44.9041683" lon="7.3593947"><ele>338.0</ele><time>2026-04-19T07:56:35.42Z</time></trkpt><trkpt lat="44.9043311" lon="7.3594583"><ele>339.0</ele><time>2026-04-19T07:56:36.419Z</time></trkpt><trkpt lat="44.9044962" lon="7.3595215"><ele>340.0</ele><time>2026-04-19T07:56:37.42Z</time></trkpt><trkpt lat="44.9046636" lon="7.3595867"><ele>340.0</ele><time>2026-04-19T07:56:38.42Z</time></trkpt><trkpt lat="44.9048296" lon="7.3596547"><ele>340.0</ele><time>2026-04-19T07:56:39.42Z</time></trkpt><trkpt lat="44.9050009" lon="7.3597221"><ele>340.0</ele><time>2026-04-19T07:56:40.42Z</time></trkpt><trkpt lat="44.9051708" lon="7.3597894"><ele>338.0</ele><time>2026-04-19T07:56:41.42Z</time></trkpt><trkpt lat="44.9053361" lon="7.3598605"><ele>336.0</ele><time>2026-04-19T07:56:42.42Z</time></trkpt><trkpt lat="44.9054949" lon="7.3599281"><ele>334.0</ele><time>2026-04-19T07:56:43.42Z</time></trkpt><trkpt lat="44.9056468" lon="7.3599889"><ele>334.0</ele><time>2026-04-19T07:56:44.42Z</time></trkpt><trkpt lat="44.9057944" lon="7.3600444"><ele>334.0</ele><time>2026-04-19T07:56:45.42Z</time></trkpt><trkpt lat="44.9059353" lon="7.360095"><ele>334.0</ele><time>2026-04-19T07:56:46.419Z</time></trkpt><trkpt lat="44.906067" lon="7.3601509"><ele>334.0</ele><time>2026-04-19T07:56:47.419Z</time></trkpt><trkpt lat="44.9061927" lon="7.3601993"><ele>333.5</ele><time>2026-04-19T07:56:48.42Z</time></trkpt><trkpt lat="44.9063101" lon="7.3602435"><ele>333.0</ele><time>2026-04-19T07:56:49.42Z</time></trkpt><trkpt lat="44.9064235" lon="7.3602931"><ele>332.5</ele><time>2026-04-19T07:56:50.419Z</time></trkpt><trkpt lat="44.90653" lon="7.3603557"><ele>332.0</ele><time>2026-04-19T07:56:51.419Z</time></trkpt><trkpt lat="44.9066319" lon="7.3604238"><ele>332.0</ele><time>2026-04-19T07:56:52.419Z</time></trkpt><trkpt lat="44.9067455" lon="7.3604726"><ele>332.0</ele><time>2026-04-19T07:56:53.419Z</time></trkpt><trkpt lat="44.9068599" lon="7.3605034"><ele>332.0</ele><time>2026-04-19T07:56:54.419Z</time></trkpt><trkpt lat="44.9069856" lon="7.3605202"><ele>332.0</ele><time>2026-04-19T07:56:55.42Z</time></trkpt><trkpt lat="44.907119" lon="7.3605642"><ele>331.75</ele><time>2026-04-19T07:56:56.419Z</time></trkpt><trkpt lat="44.9072561" lon="7.3606202"><ele>331.5</ele><time>2026-04-19T07:56:57.42Z</time></trkpt><trkpt lat="44.9074009" lon="7.3606777"><ele>331.25</ele><time>2026-04-19T07:56:58.419Z</time></trkpt><trkpt lat="44.9075438" lon="7.3607394"><ele>331.0</ele><time>2026-04-19T07:56:59.419Z</time></trkpt><trkpt lat="44.9076917" lon="7.3607976"><ele>331.0</ele><time>2026-04-19T07:57:00.42Z</time></trkpt><trkpt lat="44.9078408" lon="7.3608559"><ele>331.0</ele><time>2026-04-19T07:57:01.42Z</time></trkpt><trkpt lat="44.9079922" lon="7.3609108"><ele>331.0</ele><time>2026-04-19T07:57:02.42Z</time></trkpt><trkpt lat="44.9081437" lon="7.3609694"><ele>331.0</ele><time>2026-04-19T07:57:03.419Z</time></trkpt><trkpt lat="44.9082995" lon="7.3610278"><ele>331.0</ele><time>2026-04-19T07:57:04.42Z</time></trkpt><trkpt lat="44.9084573" lon="7.3610893"><ele>331.0</ele><time>2026-04-19T07:57:05.42Z</time></trkpt><trkpt lat="44.9086132" lon="7.3611553"><ele>330.66666666666663</ele><time>2026-04-19T07:57:06.42Z</time></trkpt><trkpt lat="44.9087704" lon="7.3612168"><ele>330.3333333333333</ele><time>2026-04-19T07:57:07.42Z</time></trkpt><trkpt lat="44.90893" lon="7.3612792"><ele>330.0</ele><time>2026-04-19T07:57:08.42Z</time></trkpt><trkpt lat="44.909091" lon="7.3613386"><ele>329.6666666666667</ele><time>2026-04-19T07:57:09.42Z</time></trkpt><trkpt lat="44.9092511" lon="7.3613993"><ele>329.33333333333337</ele><time>2026-04-19T07:57:10.42Z</time></trkpt><trkpt lat="44.909413" lon="7.3614625"><ele>329.0</ele><time>2026-04-19T07:57:11.419Z</time></trkpt><trkpt lat="44.909575" lon="7.3615206"><ele>329.0</ele><time>2026-04-19T07:57:12.42Z</time></trkpt><trkpt lat="44.9097382" lon="7.3615836"><ele>329.0</ele><time>2026-04-19T07:57:13.42Z</time></trkpt><trkpt lat="44.9099043" lon="7.3616467"><ele>329.0</ele><time>2026-04-19T07:57:14.42Z</time></trkpt><trkpt lat="44.9100696" lon="7.3617114"><ele>329.33333333333337</ele><time>2026-04-19T07:57:15.419Z</time></trkpt><trkpt lat="44.9102332" lon="7.3617764"><ele>329.6666666666667</ele><time>2026-04-19T07:57:16.42Z</time></trkpt><trkpt lat="44.9103957" lon="7.3618354"><ele>330.0</ele><time>2026-04-19T07:57:17.42Z</time></trkpt><trkpt lat="44.9105493" lon="7.3618931"><ele>330.0</ele><time>2026-04-19T07:57:18.42Z</time></trkpt><trkpt lat="44.9106992" lon="7.3619468"><ele>330.0</ele><time>2026-04-19T07:57:19.42Z</time></trkpt><trkpt lat="44.9108435" lon="7.3620018"><ele>330.0</ele><time>2026-04-19T07:57:20.42Z</time></trkpt><trkpt lat="44.9109801" lon="7.3620545"><ele>330.0</ele><time>2026-04-19T07:57:21.42Z</time></trkpt><trkpt lat="44.9111078" lon="7.3621089"><ele>329.6666666666667</ele><time>2026-04-19T07:57:22.42Z</time></trkpt><trkpt lat="44.9112183" lon="7.3621569"><ele>329.3333333333333</ele><time>2026-04-19T07:57:23.42Z</time></trkpt><trkpt lat="44.9113133" lon="7.3622015"><ele>329.0</ele><time>2026-04-19T07:57:24.42Z</time></trkpt><trkpt lat="44.9113895" lon="7.3622379"><ele>328.66666666666663</ele><time>2026-04-19T07:57:25.42Z</time></trkpt><trkpt lat="44.9114473" lon="7.3622922"><ele>328.3333333333333</ele><time>2026-04-19T07:57:26.42Z</time></trkpt><trkpt lat="44.9114921" lon="7.3623828"><ele>328.0</ele><time>2026-04-19T07:57:27.42Z</time></trkpt><trkpt lat="44.9115449" lon="7.3624675"><ele>328.0</ele><time>2026-04-19T07:57:28.42Z</time></trkpt><trkpt lat="44.9116127" lon="7.3625149"><ele>328.0</ele><time>2026-04-19T07:57:29.42Z</time></trkpt><trkpt lat="44.9116961" lon="7.3625414"><ele>328.0</ele><time>2026-04-19T07:57:30.42Z</time></trkpt><trkpt lat="44.9117959" lon="7.3625332"><ele>328.0</ele><time>2026-04-19T07:57:31.419Z</time></trkpt><trkpt lat="44.9118991" lon="7.3625113"><ele>328.0</ele><time>2026-04-19T07:57:32.42Z</time></trkpt><trkpt lat="44.912002" lon="7.3625158"><ele>327.75</ele><time>2026-04-19T07:57:33.419Z</time></trkpt><trkpt lat="44.9121168" lon="7.3625431"><ele>327.5</ele><time>2026-04-19T07:57:34.42Z</time></trkpt><trkpt lat="44.9122362" lon="7.3625931"><ele>327.25</ele><time>2026-04-19T07:57:35.42Z</time></trkpt><trkpt lat="44.9123619" lon="7.3626452"><ele>327.0</ele><time>2026-04-19T07:57:36.42Z</time></trkpt><trkpt lat="44.9124872" lon="7.3626889"><ele>326.25</ele><time>2026-04-19T07:57:37.42Z</time></trkpt><trkpt lat="44.9126127" lon="7.3627259"><ele>325.5</ele><time>2026-04-19T07:57:38.42Z</time></trkpt><trkpt lat="44.9127426" lon="7.3627748"><ele>324.75</ele><time>2026-04-19T07:57:39.419Z</time></trkpt><trkpt lat="44.9128791" lon="7.3628238"><ele>324.0</ele><time>2026-04-19T07:57:40.42Z</time></trkpt><trkpt lat="44.9130194" lon="7.3628808"><ele>324.0</ele><time>2026-04-19T07:57:41.419Z</time></trkpt><trkpt lat="44.9131589" lon="7.3629306"><ele>324.0</ele><time>2026-04-19T07:57:42.419Z</time></trkpt><trkpt lat="44.9132914" lon="7.3629786"><ele>324.0</ele><time>2026-04-19T07:57:43.419Z</time></trkpt><trkpt lat="44.9134182" lon="7.3630233"><ele>324.0</ele><time>2026-04-19T07:57:44.42Z</time></trkpt><trkpt lat="44.9135405" lon="7.3630697"><ele>324.75</ele><time>2026-04-19T07:57:45.42Z</time></trkpt><trkpt lat="44.9136589" lon="7.3631158"><ele>325.5</ele><time>2026-04-19T07:57:46.42Z</time></trkpt><trkpt lat="44.9137893" lon="7.3631635"><ele>326.25</ele><time>2026-04-19T07:57:47.42Z</time></trkpt><trkpt lat="44.9139357" lon="7.3632198"><ele>327.0</ele><time>2026-04-19T07:57:48.42Z</time></trkpt><trkpt lat="44.9140902" lon="7.3632751"><ele>327.0</ele><time>2026-04-19T07:57:49.419Z</time></trkpt><trkpt lat="44.9142577" lon="7.3633412"><ele>327.0</ele><time>2026-04-19T07:57:50.419Z</time></trkpt><trkpt lat="44.914428" lon="7.36341"><ele>327.0</ele><time>2026-04-19T07:57:51.419Z</time></trkpt><trkpt lat="44.9146064" lon="7.363477"><ele>327.0</ele><time>2026-04-19T07:57:52.42Z</time></trkpt><trkpt lat="44.9147882" lon="7.3635537"><ele>327.0</ele><time>2026-04-19T07:57:53.419Z</time></trkpt><trkpt lat="44.9149746" lon="7.3636253"><ele>327.0</ele><time>2026-04-19T07:57:54.42Z</time></trkpt><trkpt lat="44.915164" lon="7.363701"><ele>326.6666666666667</ele><time>2026-04-19T07:57:55.42Z</time></trkpt><trkpt lat="44.9153514" lon="7.3637714"><ele>326.33333333333337</ele><time>2026-04-19T07:57:56.419Z</time></trkpt><trkpt lat="44.9155424" lon="7.3638436"><ele>326.0</ele><time>2026-04-19T07:57:57.42Z</time></trkpt><trkpt lat="44.9157366" lon="7.3639192"><ele>325.6666666666667</ele><time>2026-04-19T07:57:58.42Z</time></trkpt><trkpt lat="44.9159285" lon="7.3639936"><ele>325.3333333333333</ele><time>2026-04-19T07:57:59.419Z</time></trkpt><trkpt lat="44.916119" lon="7.3640721"><ele>325.0</ele><time>2026-04-19T07:58:00.42Z</time></trkpt><trkpt lat="44.9163066" lon="7.3641488"><ele>325.0</ele><time>2026-04-19T07:58:01.42Z</time></trkpt><trkpt lat="44.9164963" lon="7.3642238"><ele>325.0</ele><time>2026-04-19T07:58:02.42Z</time></trkpt><trkpt lat="44.9166831" lon="7.3642964"><ele>325.0</ele><time>2026-04-19T07:58:03.42Z</time></trkpt><trkpt lat="44.9168672" lon="7.3643682"><ele>325.66666666666663</ele><time>2026-04-19T07:58:04.42Z</time></trkpt><trkpt lat="44.9170499" lon="7.3644394"><ele>326.3333333333333</ele><time>2026-04-19T07:58:05.42Z</time></trkpt><trkpt lat="44.917228" lon="7.3645076"><ele>327.0</ele><time>2026-04-19T07:58:06.419Z</time></trkpt><trkpt lat="44.9173928" lon="7.3645686"><ele>327.0</ele><time>2026-04-19T07:58:07.42Z</time></trkpt><trkpt lat="44.9175482" lon="7.3646273"><ele>327.0</ele><time>2026-04-19T07:58:08.42Z</time></trkpt><trkpt lat="44.9176999" lon="7.364686"><ele>327.0</ele><time>2026-04-19T07:58:09.42Z</time></trkpt><trkpt lat="44.9178447" lon="7.3647461"><ele>326.5</ele><time>2026-04-19T07:58:10.42Z</time></trkpt><trkpt lat="44.917984" lon="7.3648031"><ele>326.0</ele><time>2026-04-19T07:58:11.419Z</time></trkpt><trkpt lat="44.9181118" lon="7.3648611"><ele>325.5</ele><time>2026-04-19T07:58:12.419Z</time></trkpt><trkpt lat="44.9182279" lon="7.3649037"><ele>325.0</ele><time>2026-04-19T07:58:13.42Z</time></trkpt><trkpt lat="44.9183298" lon="7.3649491"><ele>325.3333333333333</ele><time>2026-04-19T07:58:14.42Z</time></trkpt><trkpt lat="44.9184131" lon="7.3650171"><ele>325.66666666666663</ele><time>2026-04-19T07:58:15.42Z</time></trkpt><trkpt lat="44.9184858" lon="7.3650957"><ele>326.0</ele><time>2026-04-19T07:58:16.42Z</time></trkpt><trkpt lat="44.9185564" lon="7.3651536"><ele>326.3333333333333</ele><time>2026-04-19T07:58:17.42Z</time></trkpt><trkpt lat="44.9186278" lon="7.3651839"><ele>326.6666666666667</ele><time>2026-04-19T07:58:18.42Z</time></trkpt><trkpt lat="44.9187149" lon="7.3651631"><ele>327.0</ele><time>2026-04-19T07:58:19.42Z</time></trkpt><trkpt lat="44.9188245" lon="7.3651613"><ele>327.0</ele><time>2026-04-19T07:58:20.419Z</time></trkpt><trkpt lat="44.9189503" lon="7.3651886"><ele>327.0</ele><time>2026-04-19T07:58:21.42Z</time></trkpt><trkpt lat="44.9190806" lon="7.3652357"><ele>327.0</ele><time>2026-04-19T07:58:22.42Z</time></trkpt><trkpt lat="44.919208" lon="7.3652942"><ele>327.0</ele><time>2026-04-19T07:58:23.42Z</time></trkpt><trkpt lat="44.9193467" lon="7.3653513"><ele>326.6666666666667</ele><time>2026-04-19T07:58:24.42Z</time></trkpt><trkpt lat="44.9194919" lon="7.365407"><ele>326.33333333333337</ele><time>2026-04-19T07:58:25.42Z</time></trkpt><trkpt lat="44.9196389" lon="7.3654625"><ele>326.0</ele><time>2026-04-19T07:58:26.42Z</time></trkpt><trkpt lat="44.919795" lon="7.3655168"><ele>325.6666666666667</ele><time>2026-04-19T07:58:27.42Z</time></trkpt><trkpt lat="44.9199484" lon="7.365576"><ele>325.3333333333333</ele><time>2026-04-19T07:58:28.42Z</time></trkpt><trkpt lat="44.920103" lon="7.3656391"><ele>325.0</ele><time>2026-04-19T07:58:29.419Z</time></trkpt><trkpt lat="44.9202608" lon="7.3657008"><ele>324.66666666666663</ele><time>2026-04-19T07:58:30.42Z</time></trkpt><trkpt lat="44.9204202" lon="7.3657665"><ele>324.3333333333333</ele><time>2026-04-19T07:58:31.419Z</time></trkpt><trkpt lat="44.9205844" lon="7.3658318"><ele>324.0</ele><time>2026-04-19T07:58:32.42Z</time></trkpt><trkpt lat="44.9207498" lon="7.3658997"><ele>324.0</ele><time>2026-04-19T07:58:33.42Z</time></trkpt><trkpt lat="44.920917" lon="7.365968"><ele>324.0</ele><time>2026-04-19T07:58:34.42Z</time></trkpt><trkpt lat="44.9210773" lon="7.3660325"><ele>324.0</ele><time>2026-04-19T07:58:35.42Z</time></trkpt><trkpt lat="44.9212393" lon="7.3660963"><ele>324.0</ele><time>2026-04-19T07:58:36.42Z</time></trkpt><trkpt lat="44.9214049" lon="7.3661591"><ele>324.0</ele><time>2026-04-19T07:58:37.42Z</time></trkpt><trkpt lat="44.9215679" lon="7.366222"><ele>324.0</ele><time>2026-04-19T07:58:38.42Z</time></trkpt><trkpt lat="44.921728" lon="7.3662873"><ele>324.6666666666667</ele><time>2026-04-19T07:58:39.42Z</time></trkpt><trkpt lat="44.9218847" lon="7.366352"><ele>325.33333333333337</ele><time>2026-04-19T07:58:40.42Z</time></trkpt><trkpt lat="44.9220344" lon="7.3664152"><ele>326.0</ele><time>2026-04-19T07:58:41.42Z</time></trkpt><trkpt lat="44.9221791" lon="7.3664794"><ele>326.25</ele><time>2026-04-19T07:58:42.42Z</time></trkpt><trkpt lat="44.9223173" lon="7.3665367"><ele>326.5</ele><time>2026-04-19T07:58:43.42Z</time></trkpt><trkpt lat="44.9224549" lon="7.3665865"><ele>326.75</ele><time>2026-04-19T07:58:44.42Z</time></trkpt><trkpt lat="44.9225934" lon="7.3666363"><ele>327.0</ele><time>2026-04-19T07:58:45.42Z</time></trkpt><trkpt lat="44.9227357" lon="7.3666959"><ele>327.0</ele><time>2026-04-19T07:58:46.42Z</time></trkpt><trkpt lat="44.9228789" lon="7.3667508"><ele>327.0</ele><time>2026-04-19T07:58:47.42Z</time></trkpt><trkpt lat="44.9230161" lon="7.3668092"><ele>327.0</ele><time>2026-04-19T07:58:48.42Z</time></trkpt><trkpt lat="44.9231517" lon="7.3668684"><ele>327.0</ele><time>2026-04-19T07:58:49.42Z</time></trkpt><trkpt lat="44.9232818" lon="7.3669249"><ele>326.5</ele><time>2026-04-19T07:58:50.419Z</time></trkpt><trkpt lat="44.9234118" lon="7.3669798"><ele>326.0</ele><time>2026-04-19T07:58:51.42Z</time></trkpt><trkpt lat="44.9235354" lon="7.3670289"><ele>325.5</ele><time>2026-04-19T07:58:52.42Z</time></trkpt><trkpt lat="44.9236567" lon="7.3670769"><ele>325.0</ele><time>2026-04-19T07:58:53.42Z</time></trkpt><trkpt lat="44.9237712" lon="7.3671239"><ele>325.0</ele><time>2026-04-19T07:58:54.42Z</time></trkpt><trkpt lat="44.9238814" lon="7.3671668"><ele>325.0</ele><time>2026-04-19T07:58:55.419Z</time></trkpt><trkpt lat="44.9239912" lon="7.367203"><ele>325.0</ele><time>2026-04-19T07:58:56.42Z</time></trkpt><trkpt lat="44.9240876" lon="7.3672396"><ele>325.0</ele><time>2026-04-19T07:58:57.42Z</time></trkpt><trkpt lat="44.9241787" lon="7.3672798"><ele>325.0</ele><time>2026-04-19T07:58:58.42Z</time></trkpt><trkpt lat="44.9242664" lon="7.3673173"><ele>325.3333333333333</ele><time>2026-04-19T07:58:59.419Z</time></trkpt><trkpt lat="44.9243429" lon="7.3673601"><ele>325.66666666666663</ele><time>2026-04-19T07:59:00.42Z</time></trkpt><trkpt lat="44.9244124" lon="7.3674255"><ele>326.0</ele><time>2026-04-19T07:59:01.42Z</time></trkpt><trkpt lat="44.9244657" lon="7.3674999"><ele>326.3333333333333</ele><time>2026-04-19T07:59:02.42Z</time></trkpt><trkpt lat="44.9245085" lon="7.3675699"><ele>326.6666666666667</ele><time>2026-04-19T07:59:03.42Z</time></trkpt><trkpt lat="44.9246191" lon="7.367619"><ele>327.0</ele><time>2026-04-19T07:59:05.42Z</time></trkpt><trkpt lat="44.9246979" lon="7.3675998"><ele>327.0</ele><time>2026-04-19T07:59:06.42Z</time></trkpt><trkpt lat="44.9247895" lon="7.36757"><ele>327.0</ele><time>2026-04-19T07:59:07.42Z</time></trkpt><trkpt lat="44.9248934" lon="7.3675635"><ele>327.0</ele><time>2026-04-19T07:59:08.42Z</time></trkpt><trkpt lat="44.9249853" lon="7.3675787"><ele>327.0</ele><time>2026-04-19T07:59:09.42Z</time></trkpt><trkpt lat="44.9250798" lon="7.3676045"><ele>327.0</ele><time>2026-04-19T07:59:10.42Z</time></trkpt><trkpt lat="44.9251795" lon="7.3676324"><ele>326.6</ele><time>2026-04-19T07:59:11.42Z</time></trkpt><trkpt lat="44.9252783" lon="7.3676648"><ele>326.20000000000005</ele><time>2026-04-19T07:59:12.42Z</time></trkpt><trkpt lat="44.9253728" lon="7.3676906"><ele>325.8</ele><time>2026-04-19T07:59:13.42Z</time></trkpt><trkpt lat="44.9254553" lon="7.3677374"><ele>325.4</ele><time>2026-04-19T07:59:14.42Z</time></trkpt><trkpt lat="44.9255326" lon="7.367803"><ele>325.0</ele><time>2026-04-19T07:59:15.42Z</time></trkpt><trkpt lat="44.9256125" lon="7.3678599"><ele>325.0</ele><time>2026-04-19T07:59:16.42Z</time></trkpt><trkpt lat="44.9256995" lon="7.3678806"><ele>325.0</ele><time>2026-04-19T07:59:17.42Z</time></trkpt><trkpt lat="44.9258015" lon="7.3678882"><ele>325.0</ele><time>2026-04-19T07:59:18.42Z</time></trkpt><trkpt lat="44.9259093" lon="7.3679032"><ele>325.0</ele><time>2026-04-19T07:59:19.419Z</time></trkpt><trkpt lat="44.9260186" lon="7.3679331"><ele>325.0</ele><time>2026-04-19T07:59:20.42Z</time></trkpt><trkpt lat="44.9261393" lon="7.3679902"><ele>325.0</ele><time>2026-04-19T07:59:21.42Z</time></trkpt><trkpt lat="44.926257" lon="7.3680509"><ele>325.0</ele><time>2026-04-19T07:59:22.42Z</time></trkpt><trkpt lat="44.9263777" lon="7.3681057"><ele>325.0</ele><time>2026-04-19T07:59:23.42Z</time></trkpt><trkpt lat="44.9265051" lon="7.3681575"><ele>325.0</ele><time>2026-04-19T07:59:24.419Z</time></trkpt><trkpt lat="44.9266282" lon="7.3682082"><ele>325.25</ele><time>2026-04-19T07:59:25.419Z</time></trkpt><trkpt lat="44.9267567" lon="7.3682604"><ele>325.5</ele><time>2026-04-19T07:59:26.419Z</time></trkpt><trkpt lat="44.9268886" lon="7.3683117"><ele>325.75</ele><time>2026-04-19T07:59:27.42Z</time></trkpt><trkpt lat="44.9270171" lon="7.3683647"><ele>326.0</ele><time>2026-04-19T07:59:28.42Z</time></trkpt><trkpt lat="44.9271465" lon="7.3684116"><ele>326.0</ele><time>2026-04-19T07:59:29.42Z</time></trkpt><trkpt lat="44.9272687" lon="7.3684549"><ele>326.0</ele><time>2026-04-19T07:59:30.42Z</time></trkpt><trkpt lat="44.92739" lon="7.3685005"><ele>326.0</ele><time>2026-04-19T07:59:31.42Z</time></trkpt><trkpt lat="44.92751" lon="7.368545"><ele>326.0</ele><time>2026-04-19T07:59:32.419Z</time></trkpt><trkpt lat="44.9276295" lon="7.3685882"><ele>326.0</ele><time>2026-04-19T07:59:33.419Z</time></trkpt><trkpt lat="44.9277479" lon="7.368628"><ele>326.0</ele><time>2026-04-19T07:59:34.42Z</time></trkpt><trkpt lat="44.9278559" lon="7.3686733"><ele>326.0</ele><time>2026-04-19T07:59:35.419Z</time></trkpt><trkpt lat="44.9279562" lon="7.3687161"><ele>326.0</ele><time>2026-04-19T07:59:36.42Z</time></trkpt><trkpt lat="44.9280458" lon="7.3687629"><ele>326.0</ele><time>2026-04-19T07:59:37.42Z</time></trkpt><trkpt lat="44.928129" lon="7.3688198"><ele>325.6666666666667</ele><time>2026-04-19T07:59:38.42Z</time></trkpt><trkpt lat="44.928199" lon="7.3689007"><ele>325.33333333333337</ele><time>2026-04-19T07:59:39.42Z</time></trkpt><trkpt lat="44.9282577" lon="7.3689798"><ele>325.0</ele><time>2026-04-19T07:59:40.419Z</time></trkpt><trkpt lat="44.9283188" lon="7.369046"><ele>324.6666666666667</ele><time>2026-04-19T07:59:41.42Z</time></trkpt><trkpt lat="44.9283826" lon="7.3690836"><ele>324.3333333333333</ele><time>2026-04-19T07:59:42.42Z</time></trkpt><trkpt lat="44.9284697" lon="7.3690916"><ele>324.0</ele><time>2026-04-19T07:59:43.42Z</time></trkpt><trkpt lat="44.9285812" lon="7.3690804"><ele>323.75</ele><time>2026-04-19T07:59:44.42Z</time></trkpt><trkpt lat="44.9287004" lon="7.3690777"><ele>323.5</ele><time>2026-04-19T07:59:45.419Z</time></trkpt><trkpt lat="44.9288301" lon="7.3691017"><ele>323.25</ele><time>2026-04-19T07:59:46.419Z</time></trkpt><trkpt lat="44.9289671" lon="7.3691473"><ele>323.0</ele><time>2026-04-19T07:59:47.419Z</time></trkpt><trkpt lat="44.9291191" lon="7.3692015"><ele>322.6666666666667</ele><time>2026-04-19T07:59:48.42Z</time></trkpt><trkpt lat="44.9292872" lon="7.369266"><ele>322.3333333333333</ele><time>2026-04-19T07:59:49.42Z</time></trkpt><trkpt lat="44.9294695" lon="7.3693408"><ele>322.0</ele><time>2026-04-19T07:59:50.42Z</time></trkpt><trkpt lat="44.929659" lon="7.3694215"><ele>322.0</ele><time>2026-04-19T07:59:51.42Z</time></trkpt><trkpt lat="44.9298567" lon="7.369501"><ele>322.0</ele><time>2026-04-19T07:59:52.42Z</time></trkpt><trkpt lat="44.9300551" lon="7.3695855"><ele>322.0</ele><time>2026-04-19T07:59:53.42Z</time></trkpt><trkpt lat="44.9302527" lon="7.3696708"><ele>321.66666666666663</ele><time>2026-04-19T07:59:54.42Z</time></trkpt><trkpt lat="44.9304518" lon="7.3697561"><ele>321.3333333333333</ele><time>2026-04-19T07:59:55.42Z</time></trkpt><trkpt lat="44.9306562" lon="7.36984"><ele>321.0</ele><time>2026-04-19T07:59:56.419Z</time></trkpt><trkpt lat="44.9308652" lon="7.3699153"><ele>321.6666666666667</ele><time>2026-04-19T07:59:57.42Z</time></trkpt><trkpt lat="44.9310708" lon="7.3699945"><ele>322.33333333333337</ele><time>2026-04-19T07:59:58.42Z</time></trkpt><trkpt lat="44.9312731" lon="7.3700796"><ele>323.0</ele><time>2026-04-19T07:59:59.42Z</time></trkpt><trkpt lat="44.931478" lon="7.3701669"><ele>323.0</ele><time>2026-04-19T08:00:00.42Z</time></trkpt><trkpt lat="44.9316895" lon="7.370253"><ele>323.0</ele><time>2026-04-19T08:00:01.419Z</time></trkpt><trkpt lat="44.9318996" lon="7.3703334"><ele>323.0</ele><time>2026-04-19T08:00:02.42Z</time></trkpt><trkpt lat="44.9321094" lon="7.3704187"><ele>323.0</ele><time>2026-04-19T08:00:03.42Z</time></trkpt><trkpt lat="44.9323203" lon="7.3705037"><ele>323.0</ele><time>2026-04-19T08:00:04.42Z</time></trkpt><trkpt lat="44.9325313" lon="7.3705851"><ele>323.0</ele><time>2026-04-19T08:00:05.42Z</time></trkpt><trkpt lat="44.9327458" lon="7.3706643"><ele>323.0</ele><time>2026-04-19T08:00:06.42Z</time></trkpt><trkpt lat="44.9329575" lon="7.3707474"><ele>323.0</ele><time>2026-04-19T08:00:07.42Z</time></trkpt><trkpt lat="44.9331723" lon="7.3708313"><ele>323.0</ele><time>2026-04-19T08:00:08.42Z</time></trkpt><trkpt lat="44.9333828" lon="7.3709195"><ele>322.33333333333337</ele><time>2026-04-19T08:00:09.42Z</time></trkpt><trkpt lat="44.9335955" lon="7.3710033"><ele>321.6666666666667</ele><time>2026-04-19T08:00:10.42Z</time></trkpt><trkpt lat="44.9338131" lon="7.3710881"><ele>321.0</ele><time>2026-04-19T08:00:11.42Z</time></trkpt><trkpt lat="44.9340278" lon="7.3711749"><ele>321.0</ele><time>2026-04-19T08:00:12.42Z</time></trkpt><trkpt lat="44.934242" lon="7.3712598"><ele>321.0</ele><time>2026-04-19T08:00:13.42Z</time></trkpt><trkpt lat="44.934459" lon="7.3713437"><ele>321.0</ele><time>2026-04-19T08:00:14.42Z</time></trkpt><trkpt lat="44.9346787" lon="7.3714269"><ele>320.5</ele><time>2026-04-19T08:00:15.42Z</time></trkpt><trkpt lat="44.9348965" lon="7.3715119"><ele>320.0</ele><time>2026-04-19T08:00:16.42Z</time></trkpt><trkpt lat="44.9351136" lon="7.3715973"><ele>319.6666666666667</ele><time>2026-04-19T08:00:17.42Z</time></trkpt><trkpt lat="44.9353247" lon="7.3716806"><ele>319.3333333333333</ele><time>2026-04-19T08:00:18.42Z</time></trkpt><trkpt lat="44.9355435" lon="7.3717648"><ele>319.0</ele><time>2026-04-19T08:00:19.419Z</time></trkpt><trkpt lat="44.9357582" lon="7.3718491"><ele>318.66666666666663</ele><time>2026-04-19T08:00:20.42Z</time></trkpt><trkpt lat="44.9359732" lon="7.3719366"><ele>318.3333333333333</ele><time>2026-04-19T08:00:21.419Z</time></trkpt><trkpt lat="44.9361884" lon="7.3720244"><ele>318.0</ele><time>2026-04-19T08:00:22.42Z</time></trkpt><trkpt lat="44.9364026" lon="7.3721085"><ele>318.0</ele><time>2026-04-19T08:00:23.42Z</time></trkpt><trkpt lat="44.9366211" lon="7.3721885"><ele>318.0</ele><time>2026-04-19T08:00:24.42Z</time></trkpt><trkpt lat="44.9368345" lon="7.3722734"><ele>318.0</ele><time>2026-04-19T08:00:25.42Z</time></trkpt><trkpt lat="44.9370477" lon="7.3723621"><ele>317.3333333333333</ele><time>2026-04-19T08:00:26.42Z</time></trkpt><trkpt lat="44.9372607" lon="7.3724466"><ele>316.66666666666663</ele><time>2026-04-19T08:00:27.419Z</time></trkpt><trkpt lat="44.9374757" lon="7.3725305"><ele>316.0</ele><time>2026-04-19T08:00:28.42Z</time></trkpt><trkpt lat="44.9376902" lon="7.3726142"><ele>316.0</ele><time>2026-04-19T08:00:29.42Z</time></trkpt><trkpt lat="44.9379048" lon="7.3727006"><ele>316.0</ele><time>2026-04-19T08:00:30.419Z</time></trkpt><trkpt lat="44.9381154" lon="7.3727867"><ele>316.0</ele><time>2026-04-19T08:00:31.42Z</time></trkpt><trkpt lat="44.9383294" lon="7.3728778"><ele>316.0</ele><time>2026-04-19T08:00:32.42Z</time></trkpt><trkpt lat="44.9385444" lon="7.3729665"><ele>316.0</ele><time>2026-04-19T08:00:33.42Z</time></trkpt><trkpt lat="44.9387578" lon="7.3730617"><ele>316.0</ele><time>2026-04-19T08:00:34.42Z</time></trkpt><trkpt lat="44.9389684" lon="7.3731628"><ele>316.3333333333333</ele><time>2026-04-19T08:00:35.42Z</time></trkpt><trkpt lat="44.9391729" lon="7.3732741"><ele>316.6666666666667</ele><time>2026-04-19T08:00:36.42Z</time></trkpt><trkpt lat="44.9393732" lon="7.3734058"><ele>317.0</ele><time>2026-04-19T08:00:37.42Z</time></trkpt><trkpt lat="44.9395689" lon="7.373553"><ele>317.0</ele><time>2026-04-19T08:00:38.42Z</time></trkpt><trkpt lat="44.9397602" lon="7.3737083"><ele>317.0</ele><time>2026-04-19T08:00:39.42Z</time></trkpt><trkpt lat="44.9399445" lon="7.3738758"><ele>317.0</ele><time>2026-04-19T08:00:40.42Z</time></trkpt><trkpt lat="44.9401283" lon="7.3740487"><ele>316.6666666666667</ele><time>2026-04-19T08:00:41.42Z</time></trkpt><trkpt lat="44.9403037" lon="7.3742235"><ele>316.3333333333333</ele><time>2026-04-19T08:00:42.42Z</time></trkpt><trkpt lat="44.9404791" lon="7.3744057"><ele>316.0</ele><time>2026-04-19T08:00:43.42Z</time></trkpt><trkpt lat="44.9406468" lon="7.3745987"><ele>315.0</ele><time>2026-04-19T08:00:44.42Z</time></trkpt><trkpt lat="44.9408095" lon="7.374803"><ele>314.0</ele><time>2026-04-19T08:00:45.42Z</time></trkpt><trkpt lat="44.9409661" lon="7.3750177"><ele>313.0</ele><time>2026-04-19T08:00:46.42Z</time></trkpt><trkpt lat="44.9411144" lon="7.3752435"><ele>313.0</ele><time>2026-04-19T08:00:47.42Z</time></trkpt><trkpt lat="44.9412592" lon="7.375476"><ele>313.0</ele><time>2026-04-19T08:00:48.419Z</time></trkpt><trkpt lat="44.9413993" lon="7.3757138"><ele>313.0</ele><time>2026-04-19T08:00:49.419Z</time></trkpt><trkpt lat="44.9415311" lon="7.3759562"><ele>313.0</ele><time>2026-04-19T08:00:50.42Z</time></trkpt><trkpt lat="44.9416571" lon="7.3762106"><ele>313.0</ele><time>2026-04-19T08:00:51.419Z</time></trkpt><trkpt lat="44.9417768" lon="7.3764638"><ele>313.0</ele><time>2026-04-19T08:00:52.419Z</time></trkpt><trkpt lat="44.9418941" lon="7.3767194"><ele>313.0</ele><time>2026-04-19T08:00:53.42Z</time></trkpt><trkpt lat="44.9420135" lon="7.3769713"><ele>313.0</ele><time>2026-04-19T08:00:54.42Z</time></trkpt><trkpt lat="44.9421328" lon="7.3772265"><ele>313.0</ele><time>2026-04-19T08:00:55.42Z</time></trkpt><trkpt lat="44.9422505" lon="7.377479"><ele>313.0</ele><time>2026-04-19T08:00:56.42Z</time></trkpt><trkpt lat="44.9423693" lon="7.37773"><ele>313.0</ele><time>2026-04-19T08:00:57.42Z</time></trkpt><trkpt lat="44.9424887" lon="7.3779808"><ele>313.0</ele><time>2026-04-19T08:00:58.42Z</time></trkpt><trkpt lat="44.9426085" lon="7.3782287"><ele>313.0</ele><time>2026-04-19T08:00:59.42Z</time></trkpt><trkpt lat="44.9427279" lon="7.3784773"><ele>313.0</ele><time>2026-04-19T08:01:00.419Z</time></trkpt><trkpt lat="44.9428501" lon="7.3787322"><ele>313.0</ele><time>2026-04-19T08:01:01.418Z</time></trkpt><trkpt lat="44.9429654" lon="7.3789859"><ele>312.3333333333333</ele><time>2026-04-19T08:01:02.419Z</time></trkpt><trkpt lat="44.9430839" lon="7.3792393"><ele>311.6666666666667</ele><time>2026-04-19T08:01:03.419Z</time></trkpt><trkpt lat="44.9432031" lon="7.3794928"><ele>311.0</ele><time>2026-04-19T08:01:04.419Z</time></trkpt><trkpt lat="44.9433288" lon="7.3797447"><ele>312.0</ele><time>2026-04-19T08:01:05.419Z</time></trkpt><trkpt lat="44.9434524" lon="7.3799927"><ele>313.0</ele><time>2026-04-19T08:01:06.419Z</time></trkpt><trkpt lat="44.9435755" lon="7.3802454"><ele>314.0</ele><time>2026-04-19T08:01:07.419Z</time></trkpt><trkpt lat="44.943699" lon="7.3804943"><ele>313.33333333333337</ele><time>2026-04-19T08:01:08.418Z</time></trkpt><trkpt lat="44.9438223" lon="7.3807448"><ele>312.6666666666667</ele><time>2026-04-19T08:01:09.419Z</time></trkpt><trkpt lat="44.9439434" lon="7.380991"><ele>312.0</ele><time>2026-04-19T08:01:10.419Z</time></trkpt><trkpt lat="44.9440695" lon="7.3812376"><ele>312.3333333333333</ele><time>2026-04-19T08:01:11.419Z</time></trkpt><trkpt lat="44.9441901" lon="7.3814876"><ele>312.66666666666663</ele><time>2026-04-19T08:01:12.418Z</time></trkpt><trkpt lat="44.9443122" lon="7.3817368"><ele>313.0</ele><time>2026-04-19T08:01:13.419Z</time></trkpt><trkpt lat="44.9444358" lon="7.3819813"><ele>312.3333333333333</ele><time>2026-04-19T08:01:14.418Z</time></trkpt><trkpt lat="44.9445581" lon="7.3822314"><ele>311.6666666666667</ele><time>2026-04-19T08:01:15.419Z</time></trkpt><trkpt lat="44.9446794" lon="7.3824804"><ele>311.0</ele><time>2026-04-19T08:01:16.419Z</time></trkpt><trkpt lat="44.9447975" lon="7.3827294"><ele>311.0</ele><time>2026-04-19T08:01:17.419Z</time></trkpt><trkpt lat="44.9449155" lon="7.3829765"><ele>311.0</ele><time>2026-04-19T08:01:18.419Z</time></trkpt><trkpt lat="44.9450382" lon="7.3832235"><ele>311.0</ele><time>2026-04-19T08:01:19.419Z</time></trkpt><trkpt lat="44.945158" lon="7.383467"><ele>310.6666666666667</ele><time>2026-04-19T08:01:20.419Z</time></trkpt><trkpt lat="44.9452761" lon="7.3837073"><ele>310.3333333333333</ele><time>2026-04-19T08:01:21.419Z</time></trkpt><trkpt lat="44.9453908" lon="7.3839519"><ele>310.0</ele><time>2026-04-19T08:01:22.419Z</time></trkpt><trkpt lat="44.9455115" lon="7.3841959"><ele>309.0</ele><time>2026-04-19T08:01:23.419Z</time></trkpt><trkpt lat="44.9456299" lon="7.3844403"><ele>308.0</ele><time>2026-04-19T08:01:24.419Z</time></trkpt><trkpt lat="44.9457453" lon="7.3846808"><ele>307.0</ele><time>2026-04-19T08:01:25.419Z</time></trkpt><trkpt lat="44.9458553" lon="7.3849097"><ele>307.0</ele><time>2026-04-19T08:01:26.418Z</time></trkpt><trkpt lat="44.9459622" lon="7.3851371"><ele>307.0</ele><time>2026-04-19T08:01:27.419Z</time></trkpt><trkpt lat="44.946069" lon="7.3853481"><ele>307.0</ele><time>2026-04-19T08:01:28.419Z</time></trkpt><trkpt lat="44.9461725" lon="7.3855527"><ele>306.3333333333333</ele><time>2026-04-19T08:01:29.419Z</time></trkpt><trkpt lat="44.9462743" lon="7.3857596"><ele>305.6666666666667</ele><time>2026-04-19T08:01:30.418Z</time></trkpt><trkpt lat="44.946373" lon="7.3859576"><ele>305.0</ele><time>2026-04-19T08:01:31.419Z</time></trkpt><trkpt lat="44.9464682" lon="7.3861509"><ele>305.0</ele><time>2026-04-19T08:01:32.419Z</time></trkpt><trkpt lat="44.9465598" lon="7.3863378"><ele>305.0</ele><time>2026-04-19T08:01:33.419Z</time></trkpt><trkpt lat="44.9466501" lon="7.3865176"><ele>305.0</ele><time>2026-04-19T08:01:34.419Z</time></trkpt><trkpt lat="44.9467356" lon="7.3866911"><ele>305.0</ele><time>2026-04-19T08:01:35.419Z</time></trkpt><trkpt lat="44.9468195" lon="7.386866"><ele>305.0</ele><time>2026-04-19T08:01:36.419Z</time></trkpt><trkpt lat="44.9469009" lon="7.3870376"><ele>305.0</ele><time>2026-04-19T08:01:37.419Z</time></trkpt><trkpt lat="44.9469788" lon="7.3872042"><ele>305.0</ele><time>2026-04-19T08:01:38.419Z</time></trkpt><trkpt lat="44.9470558" lon="7.387364"><ele>304.8</ele><time>2026-04-19T08:01:39.419Z</time></trkpt><trkpt lat="44.9471244" lon="7.3875094"><ele>304.6</ele><time>2026-04-19T08:01:40.418Z</time></trkpt><trkpt lat="44.9471908" lon="7.3876479"><ele>304.4</ele><time>2026-04-19T08:01:41.418Z</time></trkpt><trkpt lat="44.9472425" lon="7.3877793"><ele>304.2</ele><time>2026-04-19T08:01:42.418Z</time></trkpt><trkpt lat="44.9472699" lon="7.387916"><ele>304.0</ele><time>2026-04-19T08:01:43.418Z</time></trkpt><trkpt lat="44.9472867" lon="7.3880367"><ele>303.8</ele><time>2026-04-19T08:01:44.419Z</time></trkpt><trkpt lat="44.9473142" lon="7.3881427"><ele>303.59999999999997</ele><time>2026-04-19T08:01:45.419Z</time></trkpt><trkpt lat="44.9473779" lon="7.3882318"><ele>303.4</ele><time>2026-04-19T08:01:46.419Z</time></trkpt><trkpt lat="44.9474694" lon="7.3883406"><ele>303.2</ele><time>2026-04-19T08:01:47.419Z</time></trkpt><trkpt lat="44.9475559" lon="7.3884791"><ele>303.0</ele><time>2026-04-19T08:01:48.419Z</time></trkpt><trkpt lat="44.9476401" lon="7.3886266"><ele>303.0</ele><time>2026-04-19T08:01:49.419Z</time></trkpt><trkpt lat="44.9477231" lon="7.3887866"><ele>303.0</ele><time>2026-04-19T08:01:50.419Z</time></trkpt><trkpt lat="44.9478099" lon="7.3889538"><ele>303.0</ele><time>2026-04-19T08:01:51.419Z</time></trkpt><trkpt lat="44.947896" lon="7.3891344"><ele>303.0</ele><time>2026-04-19T08:01:52.418Z</time></trkpt><trkpt lat="44.9479895" lon="7.3893191"><ele>303.6666666666667</ele><time>2026-04-19T08:01:53.419Z</time></trkpt><trkpt lat="44.9480845" lon="7.3895135"><ele>304.33333333333337</ele><time>2026-04-19T08:01:54.419Z</time></trkpt><trkpt lat="44.9481816" lon="7.389705"><ele>305.0</ele><time>2026-04-19T08:01:55.418Z</time></trkpt><trkpt lat="44.9482769" lon="7.3898971"><ele>303.6666666666667</ele><time>2026-04-19T08:01:56.418Z</time></trkpt><trkpt lat="44.9483757" lon="7.3900978"><ele>302.3333333333333</ele><time>2026-04-19T08:01:57.419Z</time></trkpt><trkpt lat="44.9484759" lon="7.3903021"><ele>301.0</ele><time>2026-04-19T08:01:58.419Z</time></trkpt><trkpt lat="44.9485762" lon="7.390507"><ele>300.3333333333333</ele><time>2026-04-19T08:01:59.419Z</time></trkpt><trkpt lat="44.9486757" lon="7.3907149"><ele>299.6666666666667</ele><time>2026-04-19T08:02:00.418Z</time></trkpt><trkpt lat="44.9487767" lon="7.3909207"><ele>299.0</ele><time>2026-04-19T08:02:01.419Z</time></trkpt><trkpt lat="44.9488746" lon="7.3911289"><ele>299.0</ele><time>2026-04-19T08:02:02.419Z</time></trkpt><trkpt lat="44.9489782" lon="7.3913345"><ele>299.0</ele><time>2026-04-19T08:02:03.419Z</time></trkpt><trkpt lat="44.9490789" lon="7.3915367"><ele>299.0</ele><time>2026-04-19T08:02:04.419Z</time></trkpt><trkpt lat="44.9491747" lon="7.3917246"><ele>299.0</ele><time>2026-04-19T08:02:05.419Z</time></trkpt><trkpt lat="44.9492633" lon="7.3919094"><ele>299.0</ele><time>2026-04-19T08:02:06.419Z</time></trkpt><trkpt lat="44.9493505" lon="7.3920845"><ele>299.0</ele><time>2026-04-19T08:02:07.419Z</time></trkpt><trkpt lat="44.9494277" lon="7.3922519"><ele>299.0</ele><time>2026-04-19T08:02:08.418Z</time></trkpt><trkpt lat="44.9494979" lon="7.3924152"><ele>299.0</ele><time>2026-04-19T08:02:09.419Z</time></trkpt><trkpt lat="44.9495597" lon="7.3925654"><ele>299.0</ele><time>2026-04-19T08:02:10.419Z</time></trkpt><trkpt lat="44.9496095" lon="7.3927141"><ele>299.0</ele><time>2026-04-19T08:02:11.419Z</time></trkpt><trkpt lat="44.949643" lon="7.3928603"><ele>299.0</ele><time>2026-04-19T08:02:12.419Z</time></trkpt><trkpt lat="44.9496618" lon="7.3929999"><ele>299.0</ele><time>2026-04-19T08:02:13.419Z</time></trkpt><trkpt lat="44.9496942" lon="7.3931308"><ele>299.0</ele><time>2026-04-19T08:02:14.419Z</time></trkpt><trkpt lat="44.9497432" lon="7.3932386"><ele>299.0</ele><time>2026-04-19T08:02:15.419Z</time></trkpt><trkpt lat="44.9498206" lon="7.3933162"><ele>299.0</ele><time>2026-04-19T08:02:16.419Z</time></trkpt><trkpt lat="44.9499138" lon="7.3934023"><ele>299.0</ele><time>2026-04-19T08:02:17.419Z</time></trkpt><trkpt lat="44.9500116" lon="7.3935198"><ele>299.0</ele><time>2026-04-19T08:02:18.418Z</time></trkpt><trkpt lat="44.950104" lon="7.3936682"><ele>299.0</ele><time>2026-04-19T08:02:19.418Z</time></trkpt><trkpt lat="44.9501888" lon="7.3938288"><ele>299.0</ele><time>2026-04-19T08:02:20.419Z</time></trkpt><trkpt lat="44.9502796" lon="7.3940049"><ele>299.0</ele><time>2026-04-19T08:02:21.419Z</time></trkpt><trkpt lat="44.9503733" lon="7.3941972"><ele>299.0</ele><time>2026-04-19T08:02:22.418Z</time></trkpt><trkpt lat="44.9504706" lon="7.3943913"><ele>299.0</ele><time>2026-04-19T08:02:23.419Z</time></trkpt><trkpt lat="44.9505699" lon="7.3945921"><ele>298.33333333333337</ele><time>2026-04-19T08:02:24.419Z</time></trkpt><trkpt lat="44.9506695" lon="7.3947985"><ele>297.6666666666667</ele><time>2026-04-19T08:02:25.419Z</time></trkpt><trkpt lat="44.9507696" lon="7.3950092"><ele>297.0</ele><time>2026-04-19T08:02:26.418Z</time></trkpt><trkpt lat="44.950873" lon="7.3952264"><ele>297.0</ele><time>2026-04-19T08:02:27.419Z</time></trkpt><trkpt lat="44.9509784" lon="7.3954448"><ele>297.0</ele><time>2026-04-19T08:02:28.419Z</time></trkpt><trkpt lat="44.9510896" lon="7.3956686"><ele>297.0</ele><time>2026-04-19T08:02:29.419Z</time></trkpt><trkpt lat="44.9512005" lon="7.3958944"><ele>297.0</ele><time>2026-04-19T08:02:30.419Z</time></trkpt><trkpt lat="44.9513171" lon="7.3961261"><ele>297.0</ele><time>2026-04-19T08:02:31.419Z</time></trkpt><trkpt lat="44.9514335" lon="7.3963582"><ele>297.0</ele><time>2026-04-19T08:02:32.418Z</time></trkpt><trkpt lat="44.9515486" lon="7.3965953"><ele>296.6666666666667</ele><time>2026-04-19T08:02:33.419Z</time></trkpt><trkpt lat="44.9516648" lon="7.3968383"><ele>296.33333333333337</ele><time>2026-04-19T08:02:34.419Z</time></trkpt><trkpt lat="44.9517774" lon="7.3970791"><ele>296.0</ele><time>2026-04-19T08:02:35.418Z</time></trkpt><trkpt lat="44.9518909" lon="7.3973215"><ele>295.6666666666667</ele><time>2026-04-19T08:02:36.419Z</time></trkpt><trkpt lat="44.9520078" lon="7.3975616"><ele>295.3333333333333</ele><time>2026-04-19T08:02:37.419Z</time></trkpt><trkpt lat="44.9521262" lon="7.3978056"><ele>295.0</ele><time>2026-04-19T08:02:38.419Z</time></trkpt><trkpt lat="44.9522416" lon="7.3980519"><ele>295.0</ele><time>2026-04-19T08:02:39.419Z</time></trkpt><trkpt lat="44.9523619" lon="7.3982956"><ele>295.0</ele><time>2026-04-19T08:02:40.418Z</time></trkpt><trkpt lat="44.9524812" lon="7.3985432"><ele>295.0</ele><time>2026-04-19T08:02:41.419Z</time></trkpt><trkpt lat="44.9525994" lon="7.3987888"><ele>294.0</ele><time>2026-04-19T08:02:42.418Z</time></trkpt><trkpt lat="44.9527207" lon="7.3990357"><ele>293.0</ele><time>2026-04-19T08:02:43.419Z</time></trkpt><trkpt lat="44.9528443" lon="7.3992814"><ele>292.0</ele><time>2026-04-19T08:02:44.419Z</time></trkpt><trkpt lat="44.9529696" lon="7.3995286"><ele>292.0</ele><time>2026-04-19T08:02:45.419Z</time></trkpt><trkpt lat="44.9530896" lon="7.3997755"><ele>292.0</ele><time>2026-04-19T08:02:46.419Z</time></trkpt><trkpt lat="44.9532123" lon="7.4000209"><ele>292.0</ele><time>2026-04-19T08:02:47.419Z</time></trkpt><trkpt lat="44.9533288" lon="7.4002708"><ele>292.0</ele><time>2026-04-19T08:02:48.418Z</time></trkpt><trkpt lat="44.9534477" lon="7.4005136"><ele>292.0</ele><time>2026-04-19T08:02:49.419Z</time></trkpt><trkpt lat="44.9535638" lon="7.4007575"><ele>292.0</ele><time>2026-04-19T08:02:50.418Z</time></trkpt><trkpt lat="44.9536821" lon="7.4010018"><ele>292.0</ele><time>2026-04-19T08:02:51.419Z</time></trkpt><trkpt lat="44.9538" lon="7.4012491"><ele>292.0</ele><time>2026-04-19T08:02:52.419Z</time></trkpt><trkpt lat="44.953917" lon="7.4014952"><ele>292.0</ele><time>2026-04-19T08:02:53.418Z</time></trkpt><trkpt lat="44.9540317" lon="7.4017415"><ele>292.0</ele><time>2026-04-19T08:02:54.419Z</time></trkpt><trkpt lat="44.9541475" lon="7.4019822"><ele>292.0</ele><time>2026-04-19T08:02:55.418Z</time></trkpt><trkpt lat="44.9542643" lon="7.4022253"><ele>292.0</ele><time>2026-04-19T08:02:56.419Z</time></trkpt><trkpt lat="44.9543781" lon="7.4024622"><ele>291.0</ele><time>2026-04-19T08:02:57.418Z</time></trkpt><trkpt lat="44.9544959" lon="7.4027019"><ele>290.0</ele><time>2026-04-19T08:02:58.418Z</time></trkpt><trkpt lat="44.9546124" lon="7.4029426"><ele>289.0</ele><time>2026-04-19T08:02:59.419Z</time></trkpt><trkpt lat="44.9547301" lon="7.40318"><ele>288.66666666666663</ele><time>2026-04-19T08:03:00.418Z</time></trkpt><trkpt lat="44.9548419" lon="7.4034145"><ele>288.3333333333333</ele><time>2026-04-19T08:03:01.419Z</time></trkpt><trkpt lat="44.954957" lon="7.40365"><ele>288.0</ele><time>2026-04-19T08:03:02.418Z</time></trkpt><trkpt lat="44.9550679" lon="7.4038838"><ele>288.0</ele><time>2026-04-19T08:03:03.418Z</time></trkpt><trkpt lat="44.9551769" lon="7.4041139"><ele>288.0</ele><time>2026-04-19T08:03:04.419Z</time></trkpt><trkpt lat="44.9552916" lon="7.4043381"><ele>288.0</ele><time>2026-04-19T08:03:05.419Z</time></trkpt><trkpt lat="44.9554035" lon="7.4045586"><ele>288.0</ele><time>2026-04-19T08:03:06.419Z</time></trkpt><trkpt lat="44.9555061" lon="7.4047731"><ele>288.0</ele><time>2026-04-19T08:03:07.419Z</time></trkpt><trkpt lat="44.9556109" lon="7.4049824"><ele>288.0</ele><time>2026-04-19T08:03:08.419Z</time></trkpt><trkpt lat="44.9557136" lon="7.4051851"><ele>288.0</ele><time>2026-04-19T08:03:09.419Z</time></trkpt><trkpt lat="44.9558101" lon="7.4053855"><ele>288.0</ele><time>2026-04-19T08:03:10.419Z</time></trkpt><trkpt lat="44.955904" lon="7.4055792"><ele>288.0</ele><time>2026-04-19T08:03:11.419Z</time></trkpt><trkpt lat="44.9559911" lon="7.4057672"><ele>288.0</ele><time>2026-04-19T08:03:12.419Z</time></trkpt><trkpt lat="44.9560779" lon="7.4059378"><ele>288.0</ele><time>2026-04-19T08:03:13.418Z</time></trkpt><trkpt lat="44.9561546" lon="7.406107"><ele>288.0</ele><time>2026-04-19T08:03:14.419Z</time></trkpt><trkpt lat="44.9562236" lon="7.40626"><ele>288.0</ele><time>2026-04-19T08:03:15.419Z</time></trkpt><trkpt lat="44.9562803" lon="7.4063998"><ele>288.0</ele><time>2026-04-19T08:03:16.419Z</time></trkpt><trkpt lat="44.9563136" lon="7.4065318"><ele>288.0</ele><time>2026-04-19T08:03:17.419Z</time></trkpt><trkpt lat="44.9563418" lon="7.406663"><ele>288.0</ele><time>2026-04-19T08:03:18.419Z</time></trkpt><trkpt lat="44.9563815" lon="7.4067728"><ele>288.0</ele><time>2026-04-19T08:03:19.419Z</time></trkpt><trkpt lat="44.956439" lon="7.4068574"><ele>288.0</ele><time>2026-04-19T08:03:20.418Z</time></trkpt><trkpt lat="44.9565148" lon="7.4069403"><ele>288.0</ele><time>2026-04-19T08:03:21.419Z</time></trkpt><trkpt lat="44.9565996" lon="7.4070305"><ele>288.0</ele><time>2026-04-19T08:03:22.419Z</time></trkpt><trkpt lat="44.9566809" lon="7.4071555"><ele>288.0</ele><time>2026-04-19T08:03:23.418Z</time></trkpt><trkpt lat="44.9567488" lon="7.4072985"><ele>288.0</ele><time>2026-04-19T08:03:24.419Z</time></trkpt><trkpt lat="44.9568227" lon="7.4074543"><ele>287.75</ele><time>2026-04-19T08:03:25.419Z</time></trkpt><trkpt lat="44.9568936" lon="7.407602"><ele>287.5</ele><time>2026-04-19T08:03:26.419Z</time></trkpt><trkpt lat="44.9569706" lon="7.4077422"><ele>287.25</ele><time>2026-04-19T08:03:27.419Z</time></trkpt><trkpt lat="44.9570375" lon="7.407872"><ele>287.0</ele><time>2026-04-19T08:03:28.418Z</time></trkpt><trkpt lat="44.9570979" lon="7.4079958"><ele>287.0</ele><time>2026-04-19T08:03:29.419Z</time></trkpt><trkpt lat="44.9571478" lon="7.4081075"><ele>287.0</ele><time>2026-04-19T08:03:30.419Z</time></trkpt><trkpt lat="44.9571914" lon="7.4082144"><ele>287.0</ele><time>2026-04-19T08:03:31.419Z</time></trkpt><trkpt lat="44.9572334" lon="7.4083117"><ele>287.0</ele><time>2026-04-19T08:03:32.419Z</time></trkpt><trkpt lat="44.9573336" lon="7.408394"><ele>287.0</ele><time>2026-04-19T08:03:34.418Z</time></trkpt><trkpt lat="44.9574446" lon="7.4083154"><ele>287.0</ele><time>2026-04-19T08:03:36.418Z</time></trkpt><trkpt lat="44.9574741" lon="7.4082208"><ele>287.0</ele><time>2026-04-19T08:03:37.419Z</time></trkpt><trkpt lat="44.9574913" lon="7.4080866"><ele>287.0</ele><time>2026-04-19T08:03:38.419Z</time></trkpt><trkpt lat="44.9575287" lon="7.407932"><ele>287.0</ele><time>2026-04-19T08:03:39.419Z</time></trkpt><trkpt lat="44.9575793" lon="7.4077879"><ele>287.0</ele><time>2026-04-19T08:03:40.419Z</time></trkpt><trkpt lat="44.9576325" lon="7.4076397"><ele>287.0</ele><time>2026-04-19T08:03:41.418Z</time></trkpt><trkpt lat="44.9576807" lon="7.4074759"><ele>287.0</ele><time>2026-04-19T08:03:42.419Z</time></trkpt><trkpt lat="44.9577172" lon="7.4072886"><ele>287.0</ele><time>2026-04-19T08:03:43.419Z</time></trkpt><trkpt lat="44.9577431" lon="7.4070862"><ele>287.0</ele><time>2026-04-19T08:03:44.419Z</time></trkpt><trkpt lat="44.9577641" lon="7.4068678"><ele>287.0</ele><time>2026-04-19T08:03:45.419Z</time></trkpt><trkpt lat="44.9577914" lon="7.406637"><ele>287.0</ele><time>2026-04-19T08:03:46.419Z</time></trkpt><trkpt lat="44.9578328" lon="7.4064024"><ele>287.0</ele><time>2026-04-19T08:03:47.419Z</time></trkpt><trkpt lat="44.9578964" lon="7.4061746"><ele>287.33333333333337</ele><time>2026-04-19T08:03:48.418Z</time></trkpt><trkpt lat="44.9579838" lon="7.4059625"><ele>287.6666666666667</ele><time>2026-04-19T08:03:49.419Z</time></trkpt><trkpt lat="44.9580886" lon="7.4057638"><ele>288.0</ele><time>2026-04-19T08:03:50.418Z</time></trkpt><trkpt lat="44.9582143" lon="7.4055902"><ele>289.0</ele><time>2026-04-19T08:03:51.419Z</time></trkpt><trkpt lat="44.9583488" lon="7.4054217"><ele>290.0</ele><time>2026-04-19T08:03:52.419Z</time></trkpt><trkpt lat="44.9584873" lon="7.4052452"><ele>291.0</ele><time>2026-04-19T08:03:53.419Z</time></trkpt><trkpt lat="44.9586281" lon="7.405066"><ele>291.0</ele><time>2026-04-19T08:03:54.419Z</time></trkpt><trkpt lat="44.9587759" lon="7.4048872"><ele>291.0</ele><time>2026-04-19T08:03:55.419Z</time></trkpt><trkpt lat="44.9589149" lon="7.404701"><ele>291.0</ele><time>2026-04-19T08:03:56.419Z</time></trkpt><trkpt lat="44.9590573" lon="7.4045092"><ele>291.6666666666667</ele><time>2026-04-19T08:03:57.419Z</time></trkpt><trkpt lat="44.9591937" lon="7.4043277"><ele>292.33333333333337</ele><time>2026-04-19T08:03:58.419Z</time></trkpt><trkpt lat="44.9593307" lon="7.4041603"><ele>293.0</ele><time>2026-04-19T08:03:59.419Z</time></trkpt><trkpt lat="44.9594631" lon="7.4039921"><ele>293.33333333333337</ele><time>2026-04-19T08:04:00.418Z</time></trkpt><trkpt lat="44.9595929" lon="7.4038259"><ele>293.6666666666667</ele><time>2026-04-19T08:04:01.419Z</time></trkpt><trkpt lat="44.9597232" lon="7.4036595"><ele>294.0</ele><time>2026-04-19T08:04:02.418Z</time></trkpt><trkpt lat="44.9598504" lon="7.4034907"><ele>294.0</ele><time>2026-04-19T08:04:03.418Z</time></trkpt><trkpt lat="44.9599819" lon="7.4033177"><ele>294.0</ele><time>2026-04-19T08:04:04.419Z</time></trkpt><trkpt lat="44.9601077" lon="7.403144"><ele>294.0</ele><time>2026-04-19T08:04:05.419Z</time></trkpt><trkpt lat="44.9602396" lon="7.4029763"><ele>293.3333333333333</ele><time>2026-04-19T08:04:06.418Z</time></trkpt><trkpt lat="44.9603717" lon="7.4028074"><ele>292.66666666666663</ele><time>2026-04-19T08:04:07.419Z</time></trkpt><trkpt lat="44.9605013" lon="7.4026373"><ele>292.0</ele><time>2026-04-19T08:04:08.419Z</time></trkpt><trkpt lat="44.960636" lon="7.4024722"><ele>292.0</ele><time>2026-04-19T08:04:09.419Z</time></trkpt><trkpt lat="44.9607654" lon="7.4023068"><ele>292.0</ele><time>2026-04-19T08:04:10.419Z</time></trkpt><trkpt lat="44.9608937" lon="7.4021407"><ele>292.0</ele><time>2026-04-19T08:04:11.418Z</time></trkpt><trkpt lat="44.9610221" lon="7.4019725"><ele>293.0</ele><time>2026-04-19T08:04:12.419Z</time></trkpt><trkpt lat="44.9611526" lon="7.4017999"><ele>294.0</ele><time>2026-04-19T08:04:13.418Z</time></trkpt><trkpt lat="44.9612892" lon="7.4016182"><ele>295.0</ele><time>2026-04-19T08:04:14.419Z</time></trkpt><trkpt lat="44.9614243" lon="7.4014424"><ele>295.3333333333333</ele><time>2026-04-19T08:04:15.419Z</time></trkpt><trkpt lat="44.9615684" lon="7.4012657"><ele>295.6666666666667</ele><time>2026-04-19T08:04:16.419Z</time></trkpt><trkpt lat="44.9617121" lon="7.4010908"><ele>296.0</ele><time>2026-04-19T08:04:17.419Z</time></trkpt><trkpt lat="44.9618546" lon="7.400909"><ele>296.6666666666667</ele><time>2026-04-19T08:04:18.419Z</time></trkpt><trkpt lat="44.9619944" lon="7.4007208"><ele>297.3333333333333</ele><time>2026-04-19T08:04:19.419Z</time></trkpt><trkpt lat="44.962134" lon="7.4005295"><ele>298.0</ele><time>2026-04-19T08:04:20.419Z</time></trkpt><trkpt lat="44.9622761" lon="7.4003431"><ele>298.0</ele><time>2026-04-19T08:04:21.419Z</time></trkpt><trkpt lat="44.9624197" lon="7.4001609"><ele>298.0</ele><time>2026-04-19T08:04:22.419Z</time></trkpt><trkpt lat="44.9625628" lon="7.3999734"><ele>298.0</ele><time>2026-04-19T08:04:23.418Z</time></trkpt><trkpt lat="44.9627028" lon="7.3997878"><ele>298.66666666666663</ele><time>2026-04-19T08:04:24.419Z</time></trkpt><trkpt lat="44.9628431" lon="7.3996058"><ele>299.3333333333333</ele><time>2026-04-19T08:04:25.419Z</time></trkpt><trkpt lat="44.9629855" lon="7.3994191"><ele>300.0</ele><time>2026-04-19T08:04:26.419Z</time></trkpt><trkpt lat="44.9631224" lon="7.399233"><ele>300.0</ele><time>2026-04-19T08:04:27.418Z</time></trkpt><trkpt lat="44.9632648" lon="7.3990518"><ele>300.0</ele><time>2026-04-19T08:04:28.419Z</time></trkpt><trkpt lat="44.963403" lon="7.3988684"><ele>300.0</ele><time>2026-04-19T08:04:29.419Z</time></trkpt><trkpt lat="44.9635386" lon="7.3986833"><ele>300.0</ele><time>2026-04-19T08:04:30.418Z</time></trkpt><trkpt lat="44.9636774" lon="7.3985041"><ele>300.0</ele><time>2026-04-19T08:04:31.418Z</time></trkpt><trkpt lat="44.9638166" lon="7.3983282"><ele>300.0</ele><time>2026-04-19T08:04:32.419Z</time></trkpt><trkpt lat="44.9639571" lon="7.3981457"><ele>300.6666666666667</ele><time>2026-04-19T08:04:33.419Z</time></trkpt><trkpt lat="44.964098" lon="7.3979616"><ele>301.33333333333337</ele><time>2026-04-19T08:04:34.419Z</time></trkpt><trkpt lat="44.9642389" lon="7.3977742"><ele>302.0</ele><time>2026-04-19T08:04:35.418Z</time></trkpt><trkpt lat="44.9643773" lon="7.3975887"><ele>302.0</ele><time>2026-04-19T08:04:36.419Z</time></trkpt><trkpt lat="44.9645135" lon="7.397398"><ele>302.0</ele><time>2026-04-19T08:04:37.419Z</time></trkpt><trkpt lat="44.9646541" lon="7.3972161"><ele>302.0</ele><time>2026-04-19T08:04:38.419Z</time></trkpt><trkpt lat="44.9647916" lon="7.3970366"><ele>303.0</ele><time>2026-04-19T08:04:39.418Z</time></trkpt><trkpt lat="44.9649215" lon="7.3968643"><ele>304.0</ele><time>2026-04-19T08:04:40.419Z</time></trkpt><trkpt lat="44.9650496" lon="7.3966942"><ele>305.0</ele><time>2026-04-19T08:04:41.419Z</time></trkpt><trkpt lat="44.9651726" lon="7.3965334"><ele>305.0</ele><time>2026-04-19T08:04:42.419Z</time></trkpt><trkpt lat="44.9652905" lon="7.396374"><ele>305.0</ele><time>2026-04-19T08:04:43.419Z</time></trkpt><trkpt lat="44.9654058" lon="7.3962242"><ele>305.0</ele><time>2026-04-19T08:04:44.418Z</time></trkpt><trkpt lat="44.9655233" lon="7.3960759"><ele>305.33333333333337</ele><time>2026-04-19T08:04:45.419Z</time></trkpt><trkpt lat="44.9656409" lon="7.3959254"><ele>305.6666666666667</ele><time>2026-04-19T08:04:46.419Z</time></trkpt><trkpt lat="44.9657582" lon="7.3957742"><ele>306.0</ele><time>2026-04-19T08:04:47.419Z</time></trkpt><trkpt lat="44.9658758" lon="7.3956195"><ele>307.3333333333333</ele><time>2026-04-19T08:04:48.419Z</time></trkpt><trkpt lat="44.9659889" lon="7.3954734"><ele>308.66666666666663</ele><time>2026-04-19T08:04:49.419Z</time></trkpt><trkpt lat="44.9661012" lon="7.3953222"><ele>310.0</ele><time>2026-04-19T08:04:50.419Z</time></trkpt><trkpt lat="44.966217" lon="7.3951701"><ele>310.0</ele><time>2026-04-19T08:04:51.418Z</time></trkpt><trkpt lat="44.9663309" lon="7.3950163"><ele>310.0</ele><time>2026-04-19T08:04:52.419Z</time></trkpt><trkpt lat="44.9664357" lon="7.3948694"><ele>310.0</ele><time>2026-04-19T08:04:53.419Z</time></trkpt><trkpt lat="44.9665414" lon="7.3947266"><ele>310.0</ele><time>2026-04-19T08:04:54.419Z</time></trkpt><trkpt lat="44.9666526" lon="7.3945862"><ele>310.0</ele><time>2026-04-19T08:04:55.419Z</time></trkpt><trkpt lat="44.9667603" lon="7.3944455"><ele>310.0</ele><time>2026-04-19T08:04:56.419Z</time></trkpt><trkpt lat="44.9668661" lon="7.3943001"><ele>310.0</ele><time>2026-04-19T08:04:57.419Z</time></trkpt><trkpt lat="44.9669742" lon="7.3941562"><ele>310.0</ele><time>2026-04-19T08:04:58.419Z</time></trkpt><trkpt lat="44.9670856" lon="7.3940138"><ele>310.0</ele><time>2026-04-19T08:04:59.419Z</time></trkpt><trkpt lat="44.9671961" lon="7.3938632"><ele>310.0</ele><time>2026-04-19T08:05:00.419Z</time></trkpt><trkpt lat="44.9673031" lon="7.393716"><ele>310.0</ele><time>2026-04-19T08:05:01.419Z</time></trkpt><trkpt lat="44.9674146" lon="7.3935692"><ele>310.0</ele><time>2026-04-19T08:05:02.419Z</time></trkpt><trkpt lat="44.9675281" lon="7.3934275"><ele>310.0</ele><time>2026-04-19T08:05:03.419Z</time></trkpt><trkpt lat="44.9676439" lon="7.3932785"><ele>310.0</ele><time>2026-04-19T08:05:04.419Z</time></trkpt><trkpt lat="44.9677647" lon="7.393132"><ele>310.0</ele><time>2026-04-19T08:05:05.419Z</time></trkpt><trkpt lat="44.9678858" lon="7.3929772"><ele>310.0</ele><time>2026-04-19T08:05:06.419Z</time></trkpt><trkpt lat="44.9680101" lon="7.3928265"><ele>310.66666666666663</ele><time>2026-04-19T08:05:07.419Z</time></trkpt><trkpt lat="44.9681316" lon="7.3926673"><ele>311.3333333333333</ele><time>2026-04-19T08:05:08.419Z</time></trkpt><trkpt lat="44.9682488" lon="7.3925201"><ele>312.0</ele><time>2026-04-19T08:05:09.419Z</time></trkpt><trkpt lat="44.9683571" lon="7.3923804"><ele>312.0</ele><time>2026-04-19T08:05:10.419Z</time></trkpt><trkpt lat="44.9684629" lon="7.3922438"><ele>312.0</ele><time>2026-04-19T08:05:11.419Z</time></trkpt><trkpt lat="44.9685648" lon="7.3921136"><ele>312.0</ele><time>2026-04-19T08:05:12.419Z</time></trkpt><trkpt lat="44.9686596" lon="7.3919852"><ele>312.0</ele><time>2026-04-19T08:05:13.419Z</time></trkpt><trkpt lat="44.9687479" lon="7.3918662"><ele>312.2</ele><time>2026-04-19T08:05:14.418Z</time></trkpt><trkpt lat="44.9688311" lon="7.3917518"><ele>312.4</ele><time>2026-04-19T08:05:15.418Z</time></trkpt><trkpt lat="44.9689091" lon="7.3916406"><ele>312.6</ele><time>2026-04-19T08:05:16.419Z</time></trkpt><trkpt lat="44.9689854" lon="7.3915408"><ele>312.8</ele><time>2026-04-19T08:05:17.419Z</time></trkpt><trkpt lat="44.9690721" lon="7.3914665"><ele>313.0</ele><time>2026-04-19T08:05:18.419Z</time></trkpt><trkpt lat="44.9691624" lon="7.3913894"><ele>313.5</ele><time>2026-04-19T08:05:19.419Z</time></trkpt><trkpt lat="44.9692469" lon="7.3913019"><ele>314.0</ele><time>2026-04-19T08:05:20.419Z</time></trkpt><trkpt lat="44.9693229" lon="7.3911791"><ele>314.5</ele><time>2026-04-19T08:05:21.419Z</time></trkpt><trkpt lat="44.9694033" lon="7.391035"><ele>315.0</ele><time>2026-04-19T08:05:22.418Z</time></trkpt><trkpt lat="44.9694971" lon="7.3908863"><ele>315.0</ele><time>2026-04-19T08:05:23.418Z</time></trkpt><trkpt lat="44.969602" lon="7.3907364"><ele>315.0</ele><time>2026-04-19T08:05:24.419Z</time></trkpt><trkpt lat="44.9697156" lon="7.3905912"><ele>315.0</ele><time>2026-04-19T08:05:25.419Z</time></trkpt><trkpt lat="44.9698355" lon="7.3904317"><ele>315.3333333333333</ele><time>2026-04-19T08:05:26.419Z</time></trkpt><trkpt lat="44.9699572" lon="7.3902691"><ele>315.66666666666663</ele><time>2026-04-19T08:05:27.419Z</time></trkpt><trkpt lat="44.9700852" lon="7.390115"><ele>316.0</ele><time>2026-04-19T08:05:28.418Z</time></trkpt><trkpt lat="44.9702155" lon="7.3899485"><ele>316.0</ele><time>2026-04-19T08:05:29.418Z</time></trkpt><trkpt lat="44.9703415" lon="7.3897804"><ele>316.0</ele><time>2026-04-19T08:05:30.419Z</time></trkpt><trkpt lat="44.9704688" lon="7.3896187"><ele>316.0</ele><time>2026-04-19T08:05:31.418Z</time></trkpt><trkpt lat="44.9705919" lon="7.38945"><ele>316.66666666666663</ele><time>2026-04-19T08:05:32.419Z</time></trkpt><trkpt lat="44.970718" lon="7.3892837"><ele>317.3333333333333</ele><time>2026-04-19T08:05:33.419Z</time></trkpt><trkpt lat="44.9708455" lon="7.389114"><ele>318.0</ele><time>2026-04-19T08:05:34.419Z</time></trkpt><trkpt lat="44.9709739" lon="7.3889488"><ele>319.0</ele><time>2026-04-19T08:05:35.418Z</time></trkpt><trkpt lat="44.9710997" lon="7.3887818"><ele>320.0</ele><time>2026-04-19T08:05:36.419Z</time></trkpt><trkpt lat="44.9712244" lon="7.3886141"><ele>321.0</ele><time>2026-04-19T08:05:37.419Z</time></trkpt><trkpt lat="44.9713487" lon="7.3884496"><ele>321.0</ele><time>2026-04-19T08:05:38.418Z</time></trkpt><trkpt lat="44.9714736" lon="7.3882861"><ele>321.0</ele><time>2026-04-19T08:05:39.419Z</time></trkpt><trkpt lat="44.9715977" lon="7.3881185"><ele>321.0</ele><time>2026-04-19T08:05:40.418Z</time></trkpt><trkpt lat="44.9717251" lon="7.3879506"><ele>322.0</ele><time>2026-04-19T08:05:41.419Z</time></trkpt><trkpt lat="44.9718481" lon="7.3877862"><ele>323.0</ele><time>2026-04-19T08:05:42.419Z</time></trkpt><trkpt lat="44.9719706" lon="7.3876291"><ele>324.0</ele><time>2026-04-19T08:05:43.419Z</time></trkpt><trkpt lat="44.9720917" lon="7.387476"><ele>324.0</ele><time>2026-04-19T08:05:44.419Z</time></trkpt><trkpt lat="44.9722058" lon="7.387324"><ele>324.0</ele><time>2026-04-19T08:05:45.418Z</time></trkpt><trkpt lat="44.9723188" lon="7.3871718"><ele>324.0</ele><time>2026-04-19T08:05:46.419Z</time></trkpt><trkpt lat="44.9724339" lon="7.3870243"><ele>326.0</ele><time>2026-04-19T08:05:47.419Z</time></trkpt><trkpt lat="44.972549" lon="7.3868725"><ele>328.0</ele><time>2026-04-19T08:05:48.418Z</time></trkpt><trkpt lat="44.9726669" lon="7.3867205"><ele>330.0</ele><time>2026-04-19T08:05:49.419Z</time></trkpt><trkpt lat="44.9727864" lon="7.386567"><ele>330.0</ele><time>2026-04-19T08:05:50.419Z</time></trkpt><trkpt lat="44.9729045" lon="7.3864106"><ele>330.0</ele><time>2026-04-19T08:05:51.419Z</time></trkpt><trkpt lat="44.9730232" lon="7.3862547"><ele>330.0</ele><time>2026-04-19T08:05:52.419Z</time></trkpt><trkpt lat="44.9731422" lon="7.3861001"><ele>330.3333333333333</ele><time>2026-04-19T08:05:53.418Z</time></trkpt><trkpt lat="44.9732603" lon="7.385945"><ele>330.66666666666663</ele><time>2026-04-19T08:05:54.419Z</time></trkpt><trkpt lat="44.973376" lon="7.3857878"><ele>331.0</ele><time>2026-04-19T08:05:55.419Z</time></trkpt><trkpt lat="44.9734934" lon="7.3856331"><ele>331.66666666666663</ele><time>2026-04-19T08:05:56.419Z</time></trkpt><trkpt lat="44.9736133" lon="7.3854762"><ele>332.3333333333333</ele><time>2026-04-19T08:05:57.418Z</time></trkpt><trkpt lat="44.9737326" lon="7.385317"><ele>333.0</ele><time>2026-04-19T08:05:58.418Z</time></trkpt><trkpt lat="44.9738501" lon="7.3851658"><ele>333.0</ele><time>2026-04-19T08:05:59.418Z</time></trkpt><trkpt lat="44.9739708" lon="7.3850094"><ele>333.0</ele><time>2026-04-19T08:06:00.419Z</time></trkpt><trkpt lat="44.9740903" lon="7.3848471"><ele>333.0</ele><time>2026-04-19T08:06:01.419Z</time></trkpt><trkpt lat="44.9742101" lon="7.3846871"><ele>333.3333333333333</ele><time>2026-04-19T08:06:02.419Z</time></trkpt><trkpt lat="44.9743266" lon="7.3845234"><ele>333.66666666666663</ele><time>2026-04-19T08:06:03.418Z</time></trkpt><trkpt lat="44.9744451" lon="7.3843638"><ele>334.0</ele><time>2026-04-19T08:06:04.419Z</time></trkpt><trkpt lat="44.9745691" lon="7.3842099"><ele>334.0</ele><time>2026-04-19T08:06:05.419Z</time></trkpt><trkpt lat="44.9746896" lon="7.3840516"><ele>334.0</ele><time>2026-04-19T08:06:06.419Z</time></trkpt><trkpt lat="44.9748064" lon="7.3839013"><ele>334.0</ele><time>2026-04-19T08:06:07.418Z</time></trkpt><trkpt lat="44.9749168" lon="7.3837581"><ele>334.75</ele><time>2026-04-19T08:06:08.419Z</time></trkpt><trkpt lat="44.9750174" lon="7.3836162"><ele>335.5</ele><time>2026-04-19T08:06:09.418Z</time></trkpt><trkpt lat="44.9751126" lon="7.3834903"><ele>336.25</ele><time>2026-04-19T08:06:10.419Z</time></trkpt><trkpt lat="44.9752002" lon="7.3833785"><ele>337.0</ele><time>2026-04-19T08:06:11.418Z</time></trkpt><trkpt lat="44.9752843" lon="7.3832731"><ele>337.0</ele><time>2026-04-19T08:06:12.419Z</time></trkpt><trkpt lat="44.9753631" lon="7.3831681"><ele>337.0</ele><time>2026-04-19T08:06:13.419Z</time></trkpt><trkpt lat="44.9754521" lon="7.3830775"><ele>337.0</ele><time>2026-04-19T08:06:14.419Z</time></trkpt><trkpt lat="44.9755367" lon="7.3829847"><ele>337.0</ele><time>2026-04-19T08:06:15.419Z</time></trkpt><trkpt lat="44.9756135" lon="7.3828713"><ele>337.0</ele><time>2026-04-19T08:06:16.419Z</time></trkpt><trkpt lat="44.9756918" lon="7.3827452"><ele>337.5</ele><time>2026-04-19T08:06:17.419Z</time></trkpt><trkpt lat="44.9757767" lon="7.3826138"><ele>338.0</ele><time>2026-04-19T08:06:18.419Z</time></trkpt><trkpt lat="44.9758681" lon="7.3824913"><ele>338.5</ele><time>2026-04-19T08:06:19.418Z</time></trkpt><trkpt lat="44.9759603" lon="7.382378"><ele>339.0</ele><time>2026-04-19T08:06:20.418Z</time></trkpt><trkpt lat="44.9760457" lon="7.3822666"><ele>339.4</ele><time>2026-04-19T08:06:21.419Z</time></trkpt><trkpt lat="44.9761275" lon="7.3821658"><ele>339.79999999999995</ele><time>2026-04-19T08:06:22.419Z</time></trkpt><trkpt lat="44.9762028" lon="7.3820764"><ele>340.20000000000005</ele><time>2026-04-19T08:06:23.419Z</time></trkpt><trkpt lat="44.9762687" lon="7.3819839"><ele>340.6</ele><time>2026-04-19T08:06:24.418Z</time></trkpt><trkpt lat="44.9763391" lon="7.381899"><ele>341.0</ele><time>2026-04-19T08:06:25.418Z</time></trkpt><trkpt lat="44.9764105" lon="7.3818037"><ele>341.0</ele><time>2026-04-19T08:06:26.419Z</time></trkpt><trkpt lat="44.9764855" lon="7.3817016"><ele>341.0</ele><time>2026-04-19T08:06:27.419Z</time></trkpt><trkpt lat="44.9765688" lon="7.3815977"><ele>341.0</ele><time>2026-04-19T08:06:28.419Z</time></trkpt><trkpt lat="44.9766563" lon="7.3814831"><ele>341.0</ele><time>2026-04-19T08:06:29.419Z</time></trkpt><trkpt lat="44.9767473" lon="7.3813566"><ele>341.75</ele><time>2026-04-19T08:06:30.419Z</time></trkpt><trkpt lat="44.9768419" lon="7.3812346"><ele>342.5</ele><time>2026-04-19T08:06:31.419Z</time></trkpt><trkpt lat="44.9769372" lon="7.3811069"><ele>343.25</ele><time>2026-04-19T08:06:32.419Z</time></trkpt><trkpt lat="44.9770382" lon="7.3809806"><ele>344.0</ele><time>2026-04-19T08:06:33.419Z</time></trkpt><trkpt lat="44.9771408" lon="7.3808486"><ele>344.0</ele><time>2026-04-19T08:06:34.419Z</time></trkpt><trkpt lat="44.9772373" lon="7.380705"><ele>344.0</ele><time>2026-04-19T08:06:35.419Z</time></trkpt><trkpt lat="44.9773438" lon="7.3805713"><ele>344.0</ele><time>2026-04-19T08:06:36.418Z</time></trkpt><trkpt lat="44.9774526" lon="7.3804326"><ele>344.0</ele><time>2026-04-19T08:06:37.419Z</time></trkpt><trkpt lat="44.9775606" lon="7.3802991"><ele>345.25</ele><time>2026-04-19T08:06:38.419Z</time></trkpt><trkpt lat="44.9776649" lon="7.3801674"><ele>346.5</ele><time>2026-04-19T08:06:39.419Z</time></trkpt><trkpt lat="44.9777662" lon="7.3800378"><ele>347.75</ele><time>2026-04-19T08:06:40.419Z</time></trkpt><trkpt lat="44.9778652" lon="7.3799093"><ele>349.0</ele><time>2026-04-19T08:06:41.419Z</time></trkpt><trkpt lat="44.9779549" lon="7.3797894"><ele>349.5</ele><time>2026-04-19T08:06:42.419Z</time></trkpt><trkpt lat="44.9780474" lon="7.3796792"><ele>350.0</ele><time>2026-04-19T08:06:43.419Z</time></trkpt><trkpt lat="44.9781356" lon="7.3795695"><ele>350.5</ele><time>2026-04-19T08:06:44.418Z</time></trkpt><trkpt lat="44.9782188" lon="7.3794665"><ele>351.0</ele><time>2026-04-19T08:06:45.419Z</time></trkpt><trkpt lat="44.9782957" lon="7.3793607"><ele>351.20000000000005</ele><time>2026-04-19T08:06:46.419Z</time></trkpt><trkpt lat="44.9783718" lon="7.379266"><ele>351.40000000000003</ele><time>2026-04-19T08:06:47.418Z</time></trkpt><trkpt lat="44.9784473" lon="7.3791735"><ele>351.6</ele><time>2026-04-19T08:06:48.419Z</time></trkpt><trkpt lat="44.9785126" lon="7.3790825"><ele>351.8</ele><time>2026-04-19T08:06:49.419Z</time></trkpt><trkpt lat="44.9785813" lon="7.3789947"><ele>352.0</ele><time>2026-04-19T08:06:50.419Z</time></trkpt><trkpt lat="44.9786564" lon="7.3788976"><ele>352.40000000000003</ele><time>2026-04-19T08:06:51.419Z</time></trkpt><trkpt lat="44.9787316" lon="7.3788014"><ele>352.8</ele><time>2026-04-19T08:06:52.419Z</time></trkpt><trkpt lat="44.9788086" lon="7.3786963"><ele>353.2</ele><time>2026-04-19T08:06:53.419Z</time></trkpt><trkpt lat="44.9788886" lon="7.3785863"><ele>353.6</ele><time>2026-04-19T08:06:54.418Z</time></trkpt><trkpt lat="44.978973" lon="7.3784751"><ele>354.0</ele><time>2026-04-19T08:06:55.419Z</time></trkpt><trkpt lat="44.979057" lon="7.378362"><ele>354.0</ele><time>2026-04-19T08:06:56.419Z</time></trkpt><trkpt lat="44.9791361" lon="7.3782598"><ele>354.0</ele><time>2026-04-19T08:06:57.419Z</time></trkpt><trkpt lat="44.9792076" lon="7.3781623"><ele>354.0</ele><time>2026-04-19T08:06:58.419Z</time></trkpt><trkpt lat="44.9792691" lon="7.3780832"><ele>354.0</ele><time>2026-04-19T08:06:59.419Z</time></trkpt><trkpt lat="44.9793199" lon="7.3780237"><ele>354.0</ele><time>2026-04-19T08:07:00.419Z</time></trkpt><trkpt lat="44.9793956" lon="7.3779259"><ele>355.4</ele><time>2026-04-19T08:07:02.419Z</time></trkpt><trkpt lat="44.9794865" lon="7.3777998"><ele>356.79999999999995</ele><time>2026-04-19T08:07:04.419Z</time></trkpt><trkpt lat="44.979548" lon="7.3777197"><ele>358.20000000000005</ele><time>2026-04-19T08:07:05.419Z</time></trkpt><trkpt lat="44.979622" lon="7.3776366"><ele>359.6</ele><time>2026-04-19T08:07:06.419Z</time></trkpt><trkpt lat="44.979694" lon="7.3775463"><ele>361.0</ele><time>2026-04-19T08:07:07.419Z</time></trkpt><trkpt lat="44.9797703" lon="7.3774504"><ele>361.0</ele><time>2026-04-19T08:07:08.418Z</time></trkpt><trkpt lat="44.9798442" lon="7.3773523"><ele>361.0</ele><time>2026-04-19T08:07:09.419Z</time></trkpt><trkpt lat="44.9799233" lon="7.3772494"><ele>361.0</ele><time>2026-04-19T08:07:10.419Z</time></trkpt><trkpt lat="44.9800016" lon="7.3771514"><ele>361.0</ele><time>2026-04-19T08:07:11.419Z</time></trkpt><trkpt lat="44.9800804" lon="7.3770519"><ele>361.0</ele><time>2026-04-19T08:07:12.418Z</time></trkpt><trkpt lat="44.9801555" lon="7.376952"><ele>361.8</ele><time>2026-04-19T08:07:13.419Z</time></trkpt><trkpt lat="44.9802317" lon="7.3768545"><ele>362.6</ele><time>2026-04-19T08:07:14.418Z</time></trkpt><trkpt lat="44.9803093" lon="7.3767561"><ele>363.4</ele><time>2026-04-19T08:07:15.419Z</time></trkpt><trkpt lat="44.980386" lon="7.3766535"><ele>364.2</ele><time>2026-04-19T08:07:16.419Z</time></trkpt><trkpt lat="44.9804632" lon="7.3765516"><ele>365.0</ele><time>2026-04-19T08:07:17.418Z</time></trkpt><trkpt lat="44.9805391" lon="7.3764523"><ele>365.0</ele><time>2026-04-19T08:07:18.419Z</time></trkpt><trkpt lat="44.9806103" lon="7.3763608"><ele>365.0</ele><time>2026-04-19T08:07:19.419Z</time></trkpt><trkpt lat="44.9806751" lon="7.376276"><ele>365.0</ele><time>2026-04-19T08:07:20.418Z</time></trkpt><trkpt lat="44.9807377" lon="7.3762004"><ele>365.0</ele><time>2026-04-19T08:07:21.419Z</time></trkpt><trkpt lat="44.9807919" lon="7.3761344"><ele>365.0</ele><time>2026-04-19T08:07:22.419Z</time></trkpt><trkpt lat="44.9808776" lon="7.3760219"><ele>366.0</ele><time>2026-04-19T08:07:24.418Z</time></trkpt><trkpt lat="44.9809788" lon="7.3759451"><ele>367.0</ele><time>2026-04-19T08:07:26.419Z</time></trkpt><trkpt lat="44.9810426" lon="7.3759282"><ele>368.0</ele><time>2026-04-19T08:07:27.418Z</time></trkpt><trkpt lat="44.981113" lon="7.3759062"><ele>369.0</ele><time>2026-04-19T08:07:28.419Z</time></trkpt><trkpt lat="44.981191" lon="7.3758961"><ele>370.0</ele><time>2026-04-19T08:07:29.419Z</time></trkpt><trkpt lat="44.9812756" lon="7.3758947"><ele>371.0</ele><time>2026-04-19T08:07:30.419Z</time></trkpt><trkpt lat="44.9813592" lon="7.3758955"><ele>371.0</ele><time>2026-04-19T08:07:31.418Z</time></trkpt><trkpt lat="44.9814507" lon="7.3759237"><ele>371.0</ele><time>2026-04-19T08:07:32.419Z</time></trkpt><trkpt lat="44.9815405" lon="7.3759632"><ele>371.0</ele><time>2026-04-19T08:07:33.419Z</time></trkpt><trkpt lat="44.9816445" lon="7.3759827"><ele>371.0</ele><time>2026-04-19T08:07:34.419Z</time></trkpt><trkpt lat="44.981752" lon="7.3760005"><ele>371.0</ele><time>2026-04-19T08:07:35.419Z</time></trkpt><trkpt lat="44.9818577" lon="7.3760072"><ele>371.6</ele><time>2026-04-19T08:07:36.419Z</time></trkpt><trkpt lat="44.9819591" lon="7.3760282"><ele>372.20000000000005</ele><time>2026-04-19T08:07:37.419Z</time></trkpt><trkpt lat="44.9820604" lon="7.3760113"><ele>372.79999999999995</ele><time>2026-04-19T08:07:38.418Z</time></trkpt><trkpt lat="44.9821726" lon="7.3760021"><ele>373.4</ele><time>2026-04-19T08:07:39.419Z</time></trkpt><trkpt lat="44.9822743" lon="7.375975"><ele>374.0</ele><time>2026-04-19T08:07:40.418Z</time></trkpt><trkpt lat="44.9823693" lon="7.3759715"><ele>374.0</ele><time>2026-04-19T08:07:41.418Z</time></trkpt><trkpt lat="44.9824615" lon="7.3759681"><ele>374.0</ele><time>2026-04-19T08:07:42.419Z</time></trkpt><trkpt lat="44.9825427" lon="7.3759751"><ele>374.0</ele><time>2026-04-19T08:07:43.419Z</time></trkpt><trkpt lat="44.9826176" lon="7.3759848"><ele>374.0</ele><time>2026-04-19T08:07:44.418Z</time></trkpt><trkpt lat="44.9826815" lon="7.375959"><ele>374.0</ele><time>2026-04-19T08:07:45.419Z</time></trkpt><trkpt lat="44.9827435" lon="7.3759046"><ele>374.0</ele><time>2026-04-19T08:07:46.419Z</time></trkpt><trkpt lat="44.9827944" lon="7.3758381"><ele>375.0</ele><time>2026-04-19T08:07:47.419Z</time></trkpt><trkpt lat="44.9828236" lon="7.3756772"><ele>376.0</ele><time>2026-04-19T08:07:49.419Z</time></trkpt><trkpt lat="44.9828322" lon="7.375507"><ele>377.0</ele><time>2026-04-19T08:07:51.419Z</time></trkpt><trkpt lat="44.9828456" lon="7.3753746"><ele>378.0</ele><time>2026-04-19T08:07:53.419Z</time></trkpt><trkpt lat="44.9829096" lon="7.3752746"><ele>379.0</ele><time>2026-04-19T08:07:55.419Z</time></trkpt><trkpt lat="44.982987" lon="7.3751812"><ele>379.0</ele><time>2026-04-19T08:07:57.419Z</time></trkpt><trkpt lat="44.9830349" lon="7.3751067"><ele>379.0</ele><time>2026-04-19T08:07:59.419Z</time></trkpt><trkpt lat="44.9830929" lon="7.3749935"><ele>379.0</ele><time>2026-04-19T08:08:06.418Z</time></trkpt><trkpt lat="44.9831677" lon="7.3748858"><ele>379.0</ele><time>2026-04-19T08:08:08.419Z</time></trkpt><trkpt lat="44.9832789" lon="7.3748767"><ele>379.0</ele><time>2026-04-19T08:08:10.418Z</time></trkpt><trkpt lat="44.9833428" lon="7.3749065"><ele>377.79999999999995</ele><time>2026-04-19T08:08:11.419Z</time></trkpt><trkpt lat="44.9834048" lon="7.3749451"><ele>376.59999999999997</ele><time>2026-04-19T08:08:12.419Z</time></trkpt><trkpt lat="44.9835156" lon="7.3749893"><ele>375.4</ele><time>2026-04-19T08:08:14.418Z</time></trkpt><trkpt lat="44.9836075" lon="7.3749081"><ele>374.2</ele><time>2026-04-19T08:08:16.419Z</time></trkpt><trkpt lat="44.9836604" lon="7.3748212"><ele>373.0</ele><time>2026-04-19T08:08:17.419Z</time></trkpt><trkpt lat="44.9837174" lon="7.374725"><ele>373.0</ele><time>2026-04-19T08:08:18.419Z</time></trkpt><trkpt lat="44.9837582" lon="7.3746175"><ele>373.0</ele><time>2026-04-19T08:08:19.419Z</time></trkpt><trkpt lat="44.9837816" lon="7.3745148"><ele>373.0</ele><time>2026-04-19T08:08:20.419Z</time></trkpt><trkpt lat="44.9838147" lon="7.3744139"><ele>373.0</ele><time>2026-04-19T08:08:21.419Z</time></trkpt><trkpt lat="44.9838562" lon="7.3743346"><ele>373.0</ele><time>2026-04-19T08:08:22.419Z</time></trkpt><trkpt lat="44.9839653" lon="7.3742651"><ele>373.0</ele><time>2026-04-19T08:08:24.419Z</time></trkpt><trkpt lat="44.9840422" lon="7.3742537"><ele>373.0</ele><time>2026-04-19T08:08:25.418Z</time></trkpt><trkpt lat="44.984126" lon="7.3742438"><ele>373.0</ele><time>2026-04-19T08:08:26.419Z</time></trkpt><trkpt lat="44.9842137" lon="7.3742522"><ele>373.0</ele><time>2026-04-19T08:08:27.418Z</time></trkpt><trkpt lat="44.9843242" lon="7.3742628"><ele>373.0</ele><time>2026-04-19T08:08:28.419Z</time></trkpt><trkpt lat="44.9844078" lon="7.3742681"><ele>373.0</ele><time>2026-04-19T08:08:29.419Z</time></trkpt><trkpt lat="44.9845063" lon="7.3742579"><ele>373.0</ele><time>2026-04-19T08:08:30.418Z</time></trkpt><trkpt lat="44.9846034" lon="7.3742598"><ele>373.0</ele><time>2026-04-19T08:08:31.419Z</time></trkpt><trkpt lat="44.9847059" lon="7.3742581"><ele>373.0</ele><time>2026-04-19T08:08:32.419Z</time></trkpt><trkpt lat="44.9847943" lon="7.3742449"><ele>373.0</ele><time>2026-04-19T08:08:33.419Z</time></trkpt><trkpt lat="44.9848731" lon="7.3742439"><ele>373.0</ele><time>2026-04-19T08:08:34.419Z</time></trkpt><trkpt lat="44.9849411" lon="7.374238"><ele>373.0</ele><time>2026-04-19T08:08:35.419Z</time></trkpt><trkpt lat="44.9850278" lon="7.374152"><ele>373.59999999999997</ele><time>2026-04-19T08:08:37.418Z</time></trkpt><trkpt lat="44.9850813" lon="7.3740443"><ele>374.2</ele><time>2026-04-19T08:08:38.419Z</time></trkpt><trkpt lat="44.985141" lon="7.3739314"><ele>374.8</ele><time>2026-04-19T08:08:39.418Z</time></trkpt><trkpt lat="44.9851925" lon="7.3737895"><ele>375.4</ele><time>2026-04-19T08:08:40.419Z</time></trkpt><trkpt lat="44.985249" lon="7.3736426"><ele>376.0</ele><time>2026-04-19T08:08:41.419Z</time></trkpt><trkpt lat="44.9853042" lon="7.3734995"><ele>376.75</ele><time>2026-04-19T08:08:42.418Z</time></trkpt><trkpt lat="44.9853596" lon="7.3733318"><ele>377.5</ele><time>2026-04-19T08:08:43.418Z</time></trkpt><trkpt lat="44.9854262" lon="7.3731648"><ele>378.25</ele><time>2026-04-19T08:08:44.419Z</time></trkpt><trkpt lat="44.9854945" lon="7.3729903"><ele>379.0</ele><time>2026-04-19T08:08:45.419Z</time></trkpt><trkpt lat="44.9855604" lon="7.3727994"><ele>379.3333333333333</ele><time>2026-04-19T08:08:46.419Z</time></trkpt><trkpt lat="44.9856291" lon="7.3726044"><ele>379.6666666666667</ele><time>2026-04-19T08:08:47.419Z</time></trkpt><trkpt lat="44.9856933" lon="7.3724066"><ele>380.0</ele><time>2026-04-19T08:08:48.418Z</time></trkpt><trkpt lat="44.9857585" lon="7.3722241"><ele>379.75</ele><time>2026-04-19T08:08:49.419Z</time></trkpt><trkpt lat="44.985818" lon="7.3720427"><ele>379.5</ele><time>2026-04-19T08:08:50.419Z</time></trkpt><trkpt lat="44.9858745" lon="7.3718714"><ele>379.25</ele><time>2026-04-19T08:08:51.419Z</time></trkpt><trkpt lat="44.9859277" lon="7.3717027"><ele>379.0</ele><time>2026-04-19T08:08:52.419Z</time></trkpt><trkpt lat="44.9859719" lon="7.3715372"><ele>380.25</ele><time>2026-04-19T08:08:53.419Z</time></trkpt><trkpt lat="44.9860033" lon="7.3713749"><ele>381.5</ele><time>2026-04-19T08:08:54.419Z</time></trkpt><trkpt lat="44.9860298" lon="7.3712122"><ele>382.75</ele><time>2026-04-19T08:08:55.418Z</time></trkpt><trkpt lat="44.9860555" lon="7.3710487"><ele>384.0</ele><time>2026-04-19T08:08:56.419Z</time></trkpt><trkpt lat="44.9860852" lon="7.3708809"><ele>384.25</ele><time>2026-04-19T08:08:57.418Z</time></trkpt><trkpt lat="44.9861209" lon="7.3707148"><ele>384.5</ele><time>2026-04-19T08:08:58.419Z</time></trkpt><trkpt lat="44.9861516" lon="7.3705567"><ele>384.75</ele><time>2026-04-19T08:08:59.419Z</time></trkpt><trkpt lat="44.986181" lon="7.3703945"><ele>385.0</ele><time>2026-04-19T08:09:00.418Z</time></trkpt><trkpt lat="44.9862079" lon="7.3702396"><ele>385.0</ele><time>2026-04-19T08:09:01.418Z</time></trkpt><trkpt lat="44.9862358" lon="7.3700928"><ele>385.0</ele><time>2026-04-19T08:09:02.418Z</time></trkpt><trkpt lat="44.9862676" lon="7.3699526"><ele>385.0</ele><time>2026-04-19T08:09:03.418Z</time></trkpt><trkpt lat="44.9863091" lon="7.3698172"><ele>385.0</ele><time>2026-04-19T08:09:04.417Z</time></trkpt><trkpt lat="44.9863727" lon="7.36968"><ele>385.0</ele><time>2026-04-19T08:09:05.418Z</time></trkpt><trkpt lat="44.9864504" lon="7.3695495"><ele>385.0</ele><time>2026-04-19T08:09:06.418Z</time></trkpt><trkpt lat="44.9865404" lon="7.3694282"><ele>385.0</ele><time>2026-04-19T08:09:07.418Z</time></trkpt><trkpt lat="44.9866389" lon="7.3693132"><ele>385.0</ele><time>2026-04-19T08:09:08.417Z</time></trkpt><trkpt lat="44.9867481" lon="7.3692029"><ele>385.0</ele><time>2026-04-19T08:09:09.417Z</time></trkpt><trkpt lat="44.9868683" lon="7.3691067"><ele>385.75</ele><time>2026-04-19T08:09:10.418Z</time></trkpt><trkpt lat="44.9869955" lon="7.369001"><ele>386.5</ele><time>2026-04-19T08:09:11.417Z</time></trkpt><trkpt lat="44.9871173" lon="7.3689027"><ele>387.25</ele><time>2026-04-19T08:09:12.418Z</time></trkpt><trkpt lat="44.9872232" lon="7.3688229"><ele>388.0</ele><time>2026-04-19T08:09:13.418Z</time></trkpt><trkpt lat="44.9873125" lon="7.3687558"><ele>388.0</ele><time>2026-04-19T08:09:14.418Z</time></trkpt><trkpt lat="44.9873928" lon="7.3686822"><ele>388.0</ele><time>2026-04-19T08:09:15.418Z</time></trkpt><trkpt lat="44.9874732" lon="7.3686087"><ele>388.0</ele><time>2026-04-19T08:09:16.418Z</time></trkpt><trkpt lat="44.9875554" lon="7.3685335"><ele>388.0</ele><time>2026-04-19T08:09:17.418Z</time></trkpt><trkpt lat="44.987636" lon="7.3684576"><ele>388.0</ele><time>2026-04-19T08:09:18.418Z</time></trkpt><trkpt lat="44.987719" lon="7.3683823"><ele>389.59999999999997</ele><time>2026-04-19T08:09:19.418Z</time></trkpt><trkpt lat="44.9878071" lon="7.3682997"><ele>391.2</ele><time>2026-04-19T08:09:20.418Z</time></trkpt><trkpt lat="44.9878964" lon="7.3682142"><ele>392.8</ele><time>2026-04-19T08:09:21.418Z</time></trkpt><trkpt lat="44.9879907" lon="7.3681269"><ele>394.4</ele><time>2026-04-19T08:09:22.418Z</time></trkpt><trkpt lat="44.9880864" lon="7.3680241"><ele>396.0</ele><time>2026-04-19T08:09:23.418Z</time></trkpt><trkpt lat="44.9881845" lon="7.3679202"><ele>396.0</ele><time>2026-04-19T08:09:24.418Z</time></trkpt><trkpt lat="44.9882795" lon="7.3678195"><ele>396.0</ele><time>2026-04-19T08:09:25.418Z</time></trkpt><trkpt lat="44.9883815" lon="7.3677046"><ele>396.0</ele><time>2026-04-19T08:09:26.417Z</time></trkpt><trkpt lat="44.9884777" lon="7.3675781"><ele>396.0</ele><time>2026-04-19T08:09:27.417Z</time></trkpt><trkpt lat="44.9885699" lon="7.3674489"><ele>399.0</ele><time>2026-04-19T08:09:28.418Z</time></trkpt><trkpt lat="44.9886574" lon="7.3673116"><ele>402.0</ele><time>2026-04-19T08:09:29.418Z</time></trkpt><trkpt lat="44.988746" lon="7.3671711"><ele>405.0</ele><time>2026-04-19T08:09:30.418Z</time></trkpt><trkpt lat="44.9888368" lon="7.3670354"><ele>408.0</ele><time>2026-04-19T08:09:31.418Z</time></trkpt><trkpt lat="44.9889299" lon="7.3668987"><ele>408.0</ele><time>2026-04-19T08:09:32.418Z</time></trkpt><trkpt lat="44.9890195" lon="7.3667669"><ele>408.0</ele><time>2026-04-19T08:09:33.418Z</time></trkpt><trkpt lat="44.989107" lon="7.3666398"><ele>408.0</ele><time>2026-04-19T08:09:34.417Z</time></trkpt><trkpt lat="44.9891961" lon="7.3665153"><ele>408.0</ele><time>2026-04-19T08:09:35.417Z</time></trkpt><trkpt lat="44.9892854" lon="7.3663989"><ele>409.25</ele><time>2026-04-19T08:09:36.418Z</time></trkpt><trkpt lat="44.9893838" lon="7.3662974"><ele>410.5</ele><time>2026-04-19T08:09:37.418Z</time></trkpt><trkpt lat="44.9894855" lon="7.3662155"><ele>411.75</ele><time>2026-04-19T08:09:38.418Z</time></trkpt><trkpt lat="44.9895923" lon="7.3661581"><ele>413.0</ele><time>2026-04-19T08:09:39.418Z</time></trkpt><trkpt lat="44.9897079" lon="7.3661035"><ele>413.0</ele><time>2026-04-19T08:09:40.417Z</time></trkpt><trkpt lat="44.9898243" lon="7.3660391"><ele>413.0</ele><time>2026-04-19T08:09:41.418Z</time></trkpt><trkpt lat="44.9899535" lon="7.3659557"><ele>413.0</ele><time>2026-04-19T08:09:42.417Z</time></trkpt><trkpt lat="44.9901042" lon="7.3658626"><ele>413.0</ele><time>2026-04-19T08:09:43.417Z</time></trkpt><trkpt lat="44.9902779" lon="7.3657578"><ele>414.0</ele><time>2026-04-19T08:09:44.418Z</time></trkpt><trkpt lat="44.9904725" lon="7.3656253"><ele>415.0</ele><time>2026-04-19T08:09:45.418Z</time></trkpt><trkpt lat="44.9906743" lon="7.3654899"><ele>416.0</ele><time>2026-04-19T08:09:46.417Z</time></trkpt><trkpt lat="44.9908628" lon="7.3653638"><ele>418.0</ele><time>2026-04-19T08:09:47.418Z</time></trkpt><trkpt lat="44.9910425" lon="7.3652602"><ele>420.0</ele><time>2026-04-19T08:09:48.418Z</time></trkpt><trkpt lat="44.991222" lon="7.3651794"><ele>422.0</ele><time>2026-04-19T08:09:49.418Z</time></trkpt><trkpt lat="44.9913992" lon="7.3650981"><ele>422.0</ele><time>2026-04-19T08:09:50.418Z</time></trkpt><trkpt lat="44.9915697" lon="7.3650257"><ele>422.0</ele><time>2026-04-19T08:09:51.418Z</time></trkpt><trkpt lat="44.9917342" lon="7.3649684"><ele>422.0</ele><time>2026-04-19T08:09:52.418Z</time></trkpt><trkpt lat="44.9918951" lon="7.3649183"><ele>423.66666666666663</ele><time>2026-04-19T08:09:53.417Z</time></trkpt><trkpt lat="44.9920585" lon="7.3648823"><ele>425.33333333333337</ele><time>2026-04-19T08:09:54.418Z</time></trkpt><trkpt lat="44.9922162" lon="7.3648501"><ele>427.0</ele><time>2026-04-19T08:09:55.418Z</time></trkpt><trkpt lat="44.9923694" lon="7.36483"><ele>428.0</ele><time>2026-04-19T08:09:56.418Z</time></trkpt><trkpt lat="44.9925298" lon="7.3648213"><ele>429.0</ele><time>2026-04-19T08:09:57.418Z</time></trkpt><trkpt lat="44.9926863" lon="7.3648215"><ele>430.0</ele><time>2026-04-19T08:09:58.417Z</time></trkpt><trkpt lat="44.9928407" lon="7.3648109"><ele>430.0</ele><time>2026-04-19T08:09:59.418Z</time></trkpt><trkpt lat="44.9929867" lon="7.3647972"><ele>430.0</ele><time>2026-04-19T08:10:00.418Z</time></trkpt><trkpt lat="44.9931247" lon="7.3647442"><ele>430.0</ele><time>2026-04-19T08:10:01.418Z</time></trkpt><trkpt lat="44.9932695" lon="7.3646718"><ele>430.0</ele><time>2026-04-19T08:10:02.418Z</time></trkpt><trkpt lat="44.9934084" lon="7.3646014"><ele>429.25</ele><time>2026-04-19T08:10:03.418Z</time></trkpt><trkpt lat="44.9935508" lon="7.364533"><ele>428.5</ele><time>2026-04-19T08:10:04.418Z</time></trkpt><trkpt lat="44.9936878" lon="7.3644577"><ele>427.75</ele><time>2026-04-19T08:10:05.418Z</time></trkpt><trkpt lat="44.9938274" lon="7.3643938"><ele>427.0</ele><time>2026-04-19T08:10:06.418Z</time></trkpt><trkpt lat="44.9939652" lon="7.3643362"><ele>427.0</ele><time>2026-04-19T08:10:07.418Z</time></trkpt><trkpt lat="44.9941119" lon="7.3642949"><ele>427.0</ele><time>2026-04-19T08:10:08.418Z</time></trkpt><trkpt lat="44.9942575" lon="7.3642614"><ele>427.0</ele><time>2026-04-19T08:10:09.418Z</time></trkpt><trkpt lat="44.9944027" lon="7.3642264"><ele>427.0</ele><time>2026-04-19T08:10:10.418Z</time></trkpt><trkpt lat="44.9945556" lon="7.3642037"><ele>429.75</ele><time>2026-04-19T08:10:11.417Z</time></trkpt><trkpt lat="44.9947082" lon="7.3641805"><ele>432.5</ele><time>2026-04-19T08:10:12.417Z</time></trkpt><trkpt lat="44.9948593" lon="7.3641711"><ele>435.25</ele><time>2026-04-19T08:10:13.418Z</time></trkpt><trkpt lat="44.9949886" lon="7.3641612"><ele>438.0</ele><time>2026-04-19T08:10:14.418Z</time></trkpt><trkpt lat="44.9951043" lon="7.3641375"><ele>439.75</ele><time>2026-04-19T08:10:15.418Z</time></trkpt><trkpt lat="44.9951928" lon="7.364041"><ele>441.5</ele><time>2026-04-19T08:10:16.418Z</time></trkpt><trkpt lat="44.9952706" lon="7.3639099"><ele>443.25</ele><time>2026-04-19T08:10:17.418Z</time></trkpt><trkpt lat="44.9953489" lon="7.3637694"><ele>445.0</ele><time>2026-04-19T08:10:18.418Z</time></trkpt><trkpt lat="44.9954198" lon="7.3636337"><ele>445.0</ele><time>2026-04-19T08:10:19.417Z</time></trkpt><trkpt lat="44.9954977" lon="7.3635018"><ele>445.0</ele><time>2026-04-19T08:10:20.418Z</time></trkpt><trkpt lat="44.9955852" lon="7.3634004"><ele>445.0</ele><time>2026-04-19T08:10:21.418Z</time></trkpt><trkpt lat="44.9956938" lon="7.3633314"><ele>445.0</ele><time>2026-04-19T08:10:22.418Z</time></trkpt><trkpt lat="44.9958105" lon="7.3632743"><ele>449.0</ele><time>2026-04-19T08:10:23.417Z</time></trkpt><trkpt lat="44.9959399" lon="7.3632346"><ele>453.0</ele><time>2026-04-19T08:10:24.418Z</time></trkpt><trkpt lat="44.9960723" lon="7.3631999"><ele>457.0</ele><time>2026-04-19T08:10:25.418Z</time></trkpt><trkpt lat="44.9961929" lon="7.3631708"><ele>461.0</ele><time>2026-04-19T08:10:26.418Z</time></trkpt><trkpt lat="44.9963017" lon="7.3631069"><ele>459.25</ele><time>2026-04-19T08:10:27.418Z</time></trkpt><trkpt lat="44.996389" lon="7.3629975"><ele>457.5</ele><time>2026-04-19T08:10:28.418Z</time></trkpt><trkpt lat="44.9964721" lon="7.3628614"><ele>455.75</ele><time>2026-04-19T08:10:29.418Z</time></trkpt><trkpt lat="44.9965441" lon="7.3627137"><ele>454.0</ele><time>2026-04-19T08:10:30.417Z</time></trkpt><trkpt lat="44.9966204" lon="7.3625846"><ele>456.6</ele><time>2026-04-19T08:10:31.418Z</time></trkpt><trkpt lat="44.996685" lon="7.362486"><ele>459.2</ele><time>2026-04-19T08:10:32.418Z</time></trkpt><trkpt lat="44.9968026" lon="7.3624741"><ele>461.80000000000007</ele><time>2026-04-19T08:10:34.417Z</time></trkpt><trkpt lat="44.9968433" lon="7.3626163"><ele>464.40000000000003</ele><time>2026-04-19T08:10:36.417Z</time></trkpt><trkpt lat="44.9968226" lon="7.3627176"><ele>467.0</ele><time>2026-04-19T08:10:37.417Z</time></trkpt><trkpt lat="44.9967937" lon="7.3628347"><ele>466.99999999999994</ele><time>2026-04-19T08:10:38.417Z</time></trkpt><trkpt lat="44.9967669" lon="7.3629534"><ele>467.0</ele><time>2026-04-19T08:10:39.418Z</time></trkpt><trkpt lat="44.9967414" lon="7.3630708"><ele>467.0</ele><time>2026-04-19T08:10:40.418Z</time></trkpt><trkpt lat="44.9967195" lon="7.363181"><ele>467.0</ele><time>2026-04-19T08:10:41.417Z</time></trkpt><trkpt lat="44.9966931" lon="7.3632822"><ele>466.99999999999994</ele><time>2026-04-19T08:10:42.417Z</time></trkpt><trkpt lat="44.9966938" lon="7.3633807"><ele>467.0</ele><time>2026-04-19T08:10:43.417Z</time></trkpt><trkpt lat="44.9967706" lon="7.3634806"><ele>469.0</ele><time>2026-04-19T08:10:45.418Z</time></trkpt><trkpt lat="44.9968375" lon="7.3634551"><ele>471.00000000000006</ele><time>2026-04-19T08:10:46.418Z</time></trkpt><trkpt lat="44.9969077" lon="7.3633842"><ele>473.00000000000006</ele><time>2026-04-19T08:10:47.418Z</time></trkpt><trkpt lat="44.9969751" lon="7.363281"><ele>475.0</ele><time>2026-04-19T08:10:48.418Z</time></trkpt><trkpt lat="44.9970428" lon="7.3631672"><ele>477.0</ele><time>2026-04-19T08:10:49.418Z</time></trkpt><trkpt lat="44.997125" lon="7.3630721"><ele>476.25</ele><time>2026-04-19T08:10:50.418Z</time></trkpt><trkpt lat="44.9972207" lon="7.3630033"><ele>475.5</ele><time>2026-04-19T08:10:51.418Z</time></trkpt><trkpt lat="44.997333" lon="7.3629632"><ele>474.75</ele><time>2026-04-19T08:10:52.418Z</time></trkpt><trkpt lat="44.9974506" lon="7.362946"><ele>474.0</ele><time>2026-04-19T08:10:53.418Z</time></trkpt><trkpt lat="44.9975764" lon="7.3629378"><ele>474.0</ele><time>2026-04-19T08:10:54.418Z</time></trkpt><trkpt lat="44.9976979" lon="7.3629262"><ele>474.0</ele><time>2026-04-19T08:10:55.418Z</time></trkpt><trkpt lat="44.9978155" lon="7.3629205"><ele>474.0</ele><time>2026-04-19T08:10:56.418Z</time></trkpt><trkpt lat="44.9979298" lon="7.3629166"><ele>474.0</ele><time>2026-04-19T08:10:57.418Z</time></trkpt><trkpt lat="44.9980315" lon="7.362946"><ele>474.0</ele><time>2026-04-19T08:10:58.417Z</time></trkpt><trkpt lat="44.9981196" lon="7.3630164"><ele>474.0</ele><time>2026-04-19T08:10:59.417Z</time></trkpt><trkpt lat="44.9981835" lon="7.363106"><ele>474.0</ele><time>2026-04-19T08:11:00.418Z</time></trkpt><trkpt lat="44.9982291" lon="7.3632309"><ele>474.0</ele><time>2026-04-19T08:11:01.417Z</time></trkpt><trkpt lat="44.9982266" lon="7.363361"><ele>474.0</ele><time>2026-04-19T08:11:02.418Z</time></trkpt><trkpt lat="44.9981833" lon="7.3634976"><ele>476.4</ele><time>2026-04-19T08:11:03.417Z</time></trkpt><trkpt lat="44.9981289" lon="7.3636144"><ele>478.79999999999995</ele><time>2026-04-19T08:11:04.418Z</time></trkpt><trkpt lat="44.9980665" lon="7.3637333"><ele>481.20000000000005</ele><time>2026-04-19T08:11:05.417Z</time></trkpt><trkpt lat="44.9980115" lon="7.3638582"><ele>483.6</ele><time>2026-04-19T08:11:06.418Z</time></trkpt><trkpt lat="44.9979669" lon="7.3639815"><ele>486.0</ele><time>2026-04-19T08:11:07.417Z</time></trkpt><trkpt lat="44.9979461" lon="7.3641107"><ele>487.5</ele><time>2026-04-19T08:11:08.418Z</time></trkpt><trkpt lat="44.9979506" lon="7.3642671"><ele>489.0</ele><time>2026-04-19T08:11:09.418Z</time></trkpt><trkpt lat="44.9979778" lon="7.3644291"><ele>490.5</ele><time>2026-04-19T08:11:10.418Z</time></trkpt><trkpt lat="44.9980314" lon="7.3646032"><ele>492.0</ele><time>2026-04-19T08:11:11.418Z</time></trkpt><trkpt lat="44.9980896" lon="7.3647751"><ele>493.25</ele><time>2026-04-19T08:11:12.418Z</time></trkpt><trkpt lat="44.9981531" lon="7.3649385"><ele>494.5</ele><time>2026-04-19T08:11:13.418Z</time></trkpt><trkpt lat="44.9982124" lon="7.3650995"><ele>495.75</ele><time>2026-04-19T08:11:14.418Z</time></trkpt><trkpt lat="44.9982755" lon="7.3652619"><ele>497.0</ele><time>2026-04-19T08:11:15.417Z</time></trkpt><trkpt lat="44.998339" lon="7.3654124"><ele>499.6</ele><time>2026-04-19T08:11:16.418Z</time></trkpt><trkpt lat="44.9984118" lon="7.365531"><ele>502.20000000000005</ele><time>2026-04-19T08:11:17.417Z</time></trkpt><trkpt lat="44.9984968" lon="7.3656296"><ele>504.8</ele><time>2026-04-19T08:11:18.418Z</time></trkpt><trkpt lat="44.9985935" lon="7.3656801"><ele>507.4</ele><time>2026-04-19T08:11:19.418Z</time></trkpt><trkpt lat="44.9986933" lon="7.3656856"><ele>510.0</ele><time>2026-04-19T08:11:20.418Z</time></trkpt><trkpt lat="44.9988051" lon="7.3656464"><ele>510.0</ele><time>2026-04-19T08:11:21.418Z</time></trkpt><trkpt lat="44.9989232" lon="7.3655737"><ele>510.0</ele><time>2026-04-19T08:11:22.417Z</time></trkpt><trkpt lat="44.99904" lon="7.3655081"><ele>510.0</ele><time>2026-04-19T08:11:23.418Z</time></trkpt><trkpt lat="44.9991608" lon="7.3654482"><ele>510.0</ele><time>2026-04-19T08:11:24.418Z</time></trkpt><trkpt lat="44.9992798" lon="7.3654097"><ele>510.75</ele><time>2026-04-19T08:11:25.418Z</time></trkpt><trkpt lat="44.9994061" lon="7.3653782"><ele>511.5</ele><time>2026-04-19T08:11:26.418Z</time></trkpt><trkpt lat="44.9995297" lon="7.3653485"><ele>512.25</ele><time>2026-04-19T08:11:27.418Z</time></trkpt><trkpt lat="44.999643" lon="7.3653111"><ele>513.0</ele><time>2026-04-19T08:11:28.418Z</time></trkpt><trkpt lat="44.9997555" lon="7.3652988"><ele>513.0</ele><time>2026-04-19T08:11:29.418Z</time></trkpt><trkpt lat="44.9998684" lon="7.3653142"><ele>513.0</ele><time>2026-04-19T08:11:30.417Z</time></trkpt><trkpt lat="44.9999762" lon="7.3653444"><ele>513.0</ele><time>2026-04-19T08:11:31.418Z</time></trkpt><trkpt lat="45.0000836" lon="7.3654159"><ele>513.0</ele><time>2026-04-19T08:11:32.418Z</time></trkpt><trkpt lat="45.0001836" lon="7.3654862"><ele>515.4</ele><time>2026-04-19T08:11:33.418Z</time></trkpt><trkpt lat="45.000291" lon="7.365548"><ele>517.8</ele><time>2026-04-19T08:11:34.418Z</time></trkpt><trkpt lat="45.0003915" lon="7.3655997"><ele>520.2</ele><time>2026-04-19T08:11:35.417Z</time></trkpt><trkpt lat="45.0004891" lon="7.3656174"><ele>522.6</ele><time>2026-04-19T08:11:36.418Z</time></trkpt><trkpt lat="45.000593" lon="7.3656253"><ele>525.0</ele><time>2026-04-19T08:11:37.418Z</time></trkpt><trkpt lat="45.0006997" lon="7.3655812"><ele>525.0</ele><time>2026-04-19T08:11:38.417Z</time></trkpt><trkpt lat="45.0008025" lon="7.3654819"><ele>525.0</ele><time>2026-04-19T08:11:39.418Z</time></trkpt><trkpt lat="45.0008922" lon="7.365343"><ele>525.0</ele><time>2026-04-19T08:11:40.417Z</time></trkpt><trkpt lat="45.0009617" lon="7.3651668"><ele>525.0</ele><time>2026-04-19T08:11:41.417Z</time></trkpt><trkpt lat="45.0010399" lon="7.3650225"><ele>525.0</ele><time>2026-04-19T08:11:42.418Z</time></trkpt><trkpt lat="45.0011281" lon="7.3649007"><ele>525.0</ele><time>2026-04-19T08:11:43.418Z</time></trkpt><trkpt lat="45.0012289" lon="7.3647976"><ele>525.0</ele><time>2026-04-19T08:11:44.418Z</time></trkpt><trkpt lat="45.0013445" lon="7.3647109"><ele>525.0</ele><time>2026-04-19T08:11:45.417Z</time></trkpt><trkpt lat="45.00147" lon="7.3646334"><ele>525.0</ele><time>2026-04-19T08:11:46.418Z</time></trkpt><trkpt lat="45.0015987" lon="7.3645676"><ele>525.0</ele><time>2026-04-19T08:11:47.418Z</time></trkpt><trkpt lat="45.0017246" lon="7.364508"><ele>525.0</ele><time>2026-04-19T08:11:48.417Z</time></trkpt><trkpt lat="45.0018473" lon="7.364455"><ele>525.0</ele><time>2026-04-19T08:11:49.418Z</time></trkpt><trkpt lat="45.0019615" lon="7.3644055"><ele>525.0</ele><time>2026-04-19T08:11:50.417Z</time></trkpt><trkpt lat="45.0020758" lon="7.364359"><ele>525.0</ele><time>2026-04-19T08:11:51.418Z</time></trkpt><trkpt lat="45.0021747" lon="7.3643027"><ele>525.0</ele><time>2026-04-19T08:11:52.418Z</time></trkpt><trkpt lat="45.0022547" lon="7.3642286"><ele>525.0</ele><time>2026-04-19T08:11:53.418Z</time></trkpt><trkpt lat="45.0023045" lon="7.3641198"><ele>525.0</ele><time>2026-04-19T08:11:54.418Z</time></trkpt><trkpt lat="45.0023228" lon="7.3639701"><ele>525.25</ele><time>2026-04-19T08:11:55.418Z</time></trkpt><trkpt lat="45.002302" lon="7.3638099"><ele>525.5</ele><time>2026-04-19T08:11:56.418Z</time></trkpt><trkpt lat="45.0022505" lon="7.3636731"><ele>525.75</ele><time>2026-04-19T08:11:57.418Z</time></trkpt><trkpt lat="45.0021758" lon="7.3635543"><ele>526.0</ele><time>2026-04-19T08:11:58.418Z</time></trkpt><trkpt lat="45.0020888" lon="7.363434"><ele>526.0</ele><time>2026-04-19T08:11:59.418Z</time></trkpt><trkpt lat="45.0020151" lon="7.36333"><ele>526.0</ele><time>2026-04-19T08:12:00.418Z</time></trkpt><trkpt lat="45.0019611" lon="7.3632253"><ele>526.0</ele><time>2026-04-19T08:12:01.418Z</time></trkpt><trkpt lat="45.0019287" lon="7.3631128"><ele>526.0</ele><time>2026-04-19T08:12:02.418Z</time></trkpt><trkpt lat="45.0019207" lon="7.3629759"><ele>526.0</ele><time>2026-04-19T08:12:03.418Z</time></trkpt><trkpt lat="45.0019375" lon="7.3628264"><ele>526.8</ele><time>2026-04-19T08:12:04.417Z</time></trkpt><trkpt lat="45.0019679" lon="7.3626764"><ele>527.6</ele><time>2026-04-19T08:12:05.417Z</time></trkpt><trkpt lat="45.0020125" lon="7.3625348"><ele>528.4</ele><time>2026-04-19T08:12:06.418Z</time></trkpt><trkpt lat="45.0020785" lon="7.3624192"><ele>529.2</ele><time>2026-04-19T08:12:07.418Z</time></trkpt><trkpt lat="45.0021679" lon="7.3623258"><ele>530.0</ele><time>2026-04-19T08:12:08.418Z</time></trkpt><trkpt lat="45.0022831" lon="7.3622504"><ele>530.75</ele><time>2026-04-19T08:12:09.417Z</time></trkpt><trkpt lat="45.0024076" lon="7.3621862"><ele>531.5</ele><time>2026-04-19T08:12:10.417Z</time></trkpt><trkpt lat="45.0025477" lon="7.3621128"><ele>532.25</ele><time>2026-04-19T08:12:11.418Z</time></trkpt><trkpt lat="45.0026976" lon="7.3620347"><ele>533.0</ele><time>2026-04-19T08:12:12.418Z</time></trkpt><trkpt lat="45.0028567" lon="7.3619624"><ele>533.0</ele><time>2026-04-19T08:12:13.418Z</time></trkpt><trkpt lat="45.0030127" lon="7.3618929"><ele>533.0</ele><time>2026-04-19T08:12:14.418Z</time></trkpt><trkpt lat="45.0031692" lon="7.3618182"><ele>533.0</ele><time>2026-04-19T08:12:15.417Z</time></trkpt><trkpt lat="45.0033259" lon="7.3617422"><ele>539.0</ele><time>2026-04-19T08:12:16.418Z</time></trkpt><trkpt lat="45.0034821" lon="7.3616595"><ele>545.0</ele><time>2026-04-19T08:12:17.418Z</time></trkpt><trkpt lat="45.0036349" lon="7.36158"><ele>551.0</ele><time>2026-04-19T08:12:18.418Z</time></trkpt><trkpt lat="45.0037911" lon="7.3615047"><ele>551.0</ele><time>2026-04-19T08:12:19.417Z</time></trkpt><trkpt lat="45.0039439" lon="7.3614393"><ele>551.0</ele><time>2026-04-19T08:12:20.418Z</time></trkpt><trkpt lat="45.0040958" lon="7.3613799"><ele>551.0</ele><time>2026-04-19T08:12:21.418Z</time></trkpt><trkpt lat="45.0042505" lon="7.3613292"><ele>551.6666666666666</ele><time>2026-04-19T08:12:22.418Z</time></trkpt><trkpt lat="45.0044046" lon="7.3612864"><ele>552.3333333333334</ele><time>2026-04-19T08:12:23.418Z</time></trkpt><trkpt lat="45.0045605" lon="7.3612504"><ele>553.0</ele><time>2026-04-19T08:12:24.418Z</time></trkpt><trkpt lat="45.0047074" lon="7.361216"><ele>553.0</ele><time>2026-04-19T08:12:25.418Z</time></trkpt><trkpt lat="45.0048403" lon="7.3611815"><ele>553.0</ele><time>2026-04-19T08:12:26.417Z</time></trkpt><trkpt lat="45.0049543" lon="7.3611555"><ele>553.0</ele><time>2026-04-19T08:12:27.418Z</time></trkpt><trkpt lat="45.0050497" lon="7.3611341"><ele>553.0</ele><time>2026-04-19T08:12:28.418Z</time></trkpt><trkpt lat="45.0051245" lon="7.3611166"><ele>553.0</ele><time>2026-04-19T08:12:29.418Z</time></trkpt><trkpt lat="45.0051781" lon="7.361057"><ele>557.1999999999999</ele><time>2026-04-19T08:12:30.417Z</time></trkpt><trkpt lat="45.0052109" lon="7.360952"><ele>561.4</ele><time>2026-04-19T08:12:31.418Z</time></trkpt><trkpt lat="45.0052098" lon="7.3608228"><ele>565.5999999999999</ele><time>2026-04-19T08:12:32.418Z</time></trkpt><trkpt lat="45.0051656" lon="7.3606817"><ele>569.8</ele><time>2026-04-19T08:12:33.418Z</time></trkpt><trkpt lat="45.005093" lon="7.3605764"><ele>574.0</ele><time>2026-04-19T08:12:34.418Z</time></trkpt><trkpt lat="45.0050123" lon="7.3604813"><ele>572.8</ele><time>2026-04-19T08:12:35.418Z</time></trkpt><trkpt lat="45.0049362" lon="7.3603819"><ele>571.5999999999999</ele><time>2026-04-19T08:12:36.418Z</time></trkpt><trkpt lat="45.0048787" lon="7.3602754"><ele>570.4</ele><time>2026-04-19T08:12:37.417Z</time></trkpt><trkpt lat="45.0048507" lon="7.3601392"><ele>569.1999999999999</ele><time>2026-04-19T08:12:38.418Z</time></trkpt><trkpt lat="45.0048487" lon="7.3599744"><ele>568.0</ele><time>2026-04-19T08:12:39.417Z</time></trkpt><trkpt lat="45.0048514" lon="7.3598215"><ele>571.0</ele><time>2026-04-19T08:12:40.418Z</time></trkpt><trkpt lat="45.0048247" lon="7.3596852"><ele>574.0</ele><time>2026-04-19T08:12:41.418Z</time></trkpt><trkpt lat="45.0047558" lon="7.3595612"><ele>577.0</ele><time>2026-04-19T08:12:42.418Z</time></trkpt><trkpt lat="45.0046591" lon="7.3594892"><ele>580.0</ele><time>2026-04-19T08:12:43.418Z</time></trkpt><trkpt lat="45.0045391" lon="7.3594648"><ele>583.0</ele><time>2026-04-19T08:12:44.417Z</time></trkpt><trkpt lat="45.0044401" lon="7.3594359"><ele>583.0</ele><time>2026-04-19T08:12:45.418Z</time></trkpt><trkpt lat="45.0043531" lon="7.3593965"><ele>583.0</ele><time>2026-04-19T08:12:46.418Z</time></trkpt><trkpt lat="45.0042899" lon="7.3593229"><ele>583.0</ele><time>2026-04-19T08:12:47.418Z</time></trkpt><trkpt lat="45.004258" lon="7.3592305"><ele>583.0</ele><time>2026-04-19T08:12:48.417Z</time></trkpt><trkpt lat="45.0042627" lon="7.3591056"><ele>583.0</ele><time>2026-04-19T08:12:49.418Z</time></trkpt><trkpt lat="45.0042928" lon="7.3589963"><ele>583.0</ele><time>2026-04-19T08:12:50.418Z</time></trkpt><trkpt lat="45.0043471" lon="7.3588977"><ele>583.0</ele><time>2026-04-19T08:12:51.418Z</time></trkpt><trkpt lat="45.0044244" lon="7.3588371"><ele>583.0</ele><time>2026-04-19T08:12:52.418Z</time></trkpt><trkpt lat="45.0045179" lon="7.3588312"><ele>583.0</ele><time>2026-04-19T08:12:53.418Z</time></trkpt><trkpt lat="45.0046206" lon="7.3588689"><ele>583.0</ele><time>2026-04-19T08:12:54.418Z</time></trkpt><trkpt lat="45.0047177" lon="7.3589293"><ele>583.0</ele><time>2026-04-19T08:12:55.417Z</time></trkpt><trkpt lat="45.0048217" lon="7.3590051"><ele>583.0</ele><time>2026-04-19T08:12:56.418Z</time></trkpt><trkpt lat="45.0049247" lon="7.3590739"><ele>583.0</ele><time>2026-04-19T08:12:57.418Z</time></trkpt><trkpt lat="45.0050228" lon="7.3591413"><ele>583.0</ele><time>2026-04-19T08:12:58.418Z</time></trkpt><trkpt lat="45.0051131" lon="7.3592265"><ele>583.0</ele><time>2026-04-19T08:12:59.417Z</time></trkpt><trkpt lat="45.0051896" lon="7.3593411"><ele>583.0</ele><time>2026-04-19T08:13:00.417Z</time></trkpt><trkpt lat="45.0052481" lon="7.3594725"><ele>583.6666666666667</ele><time>2026-04-19T08:13:01.418Z</time></trkpt><trkpt lat="45.0052993" lon="7.3595935"><ele>584.3333333333334</ele><time>2026-04-19T08:13:02.418Z</time></trkpt><trkpt lat="45.0053464" lon="7.3596953"><ele>585.0</ele><time>2026-04-19T08:13:03.417Z</time></trkpt><trkpt lat="45.0054015" lon="7.3597815"><ele>585.6666666666666</ele><time>2026-04-19T08:13:04.418Z</time></trkpt><trkpt lat="45.0054719" lon="7.3598464"><ele>586.3333333333333</ele><time>2026-04-19T08:13:05.418Z</time></trkpt><trkpt lat="45.005559" lon="7.3598758"><ele>587.0</ele><time>2026-04-19T08:13:06.418Z</time></trkpt><trkpt lat="45.0056497" lon="7.359897"><ele>587.0</ele><time>2026-04-19T08:13:07.417Z</time></trkpt><trkpt lat="45.0057559" lon="7.3598939"><ele>587.0</ele><time>2026-04-19T08:13:08.418Z</time></trkpt><trkpt lat="45.0058667" lon="7.3598671"><ele>587.0</ele><time>2026-04-19T08:13:09.418Z</time></trkpt><trkpt lat="45.0059835" lon="7.3598266"><ele>587.0</ele><time>2026-04-19T08:13:10.418Z</time></trkpt><trkpt lat="45.006103" lon="7.3597582"><ele>596.0</ele><time>2026-04-19T08:13:11.418Z</time></trkpt><trkpt lat="45.0062147" lon="7.3596899"><ele>605.0</ele><time>2026-04-19T08:13:12.418Z</time></trkpt><trkpt lat="45.0063237" lon="7.3596031"><ele>614.0</ele><time>2026-04-19T08:13:13.418Z</time></trkpt><trkpt lat="45.0064238" lon="7.3595111"><ele>623.0</ele><time>2026-04-19T08:13:14.418Z</time></trkpt><trkpt lat="45.006538" lon="7.3594209"><ele>623.0</ele><time>2026-04-19T08:13:15.418Z</time></trkpt><trkpt lat="45.0066345" lon="7.3593242"><ele>623.0</ele><time>2026-04-19T08:13:16.418Z</time></trkpt><trkpt lat="45.0067206" lon="7.3592335"><ele>623.0</ele><time>2026-04-19T08:13:17.418Z</time></trkpt><trkpt lat="45.0067971" lon="7.3591516"><ele>623.0</ele><time>2026-04-19T08:13:18.418Z</time></trkpt><trkpt lat="45.0068686" lon="7.3590874"><ele>623.0</ele><time>2026-04-19T08:13:19.418Z</time></trkpt><trkpt lat="45.0069307" lon="7.3590304"><ele>623.5</ele><time>2026-04-19T08:13:20.418Z</time></trkpt><trkpt lat="45.0069994" lon="7.3589778"><ele>624.0</ele><time>2026-04-19T08:13:21.417Z</time></trkpt><trkpt lat="45.0070693" lon="7.3589218"><ele>624.5</ele><time>2026-04-19T08:13:22.418Z</time></trkpt><trkpt lat="45.0071372" lon="7.3588519"><ele>625.0</ele><time>2026-04-19T08:13:23.418Z</time></trkpt><trkpt lat="45.0072016" lon="7.3587757"><ele>625.5</ele><time>2026-04-19T08:13:24.418Z</time></trkpt><trkpt lat="45.007268" lon="7.3586942"><ele>626.0</ele><time>2026-04-19T08:13:25.417Z</time></trkpt><trkpt lat="45.0073276" lon="7.3586011"><ele>623.8</ele><time>2026-04-19T08:13:26.417Z</time></trkpt><trkpt lat="45.0073837" lon="7.3584958"><ele>621.6</ele><time>2026-04-19T08:13:27.417Z</time></trkpt><trkpt lat="45.0074399" lon="7.3583839"><ele>619.4</ele><time>2026-04-19T08:13:28.418Z</time></trkpt><trkpt lat="45.0074998" lon="7.3582771"><ele>617.2</ele><time>2026-04-19T08:13:29.418Z</time></trkpt><trkpt lat="45.0075589" lon="7.3581658"><ele>615.0</ele><time>2026-04-19T08:13:30.418Z</time></trkpt><trkpt lat="45.0076119" lon="7.3580498"><ele>616.0</ele><time>2026-04-19T08:13:31.418Z</time></trkpt><trkpt lat="45.0076532" lon="7.3579203"><ele>617.0</ele><time>2026-04-19T08:13:32.418Z</time></trkpt><trkpt lat="45.0076848" lon="7.357781"><ele>618.0</ele><time>2026-04-19T08:13:33.417Z</time></trkpt><trkpt lat="45.0077113" lon="7.3576379"><ele>619.0</ele><time>2026-04-19T08:13:34.418Z</time></trkpt><trkpt lat="45.0077339" lon="7.357501"><ele>620.0</ele><time>2026-04-19T08:13:35.418Z</time></trkpt><trkpt lat="45.0077528" lon="7.3573582"><ele>620.0</ele><time>2026-04-19T08:13:36.418Z</time></trkpt><trkpt lat="45.0077654" lon="7.3572183"><ele>620.0</ele><time>2026-04-19T08:13:37.418Z</time></trkpt><trkpt lat="45.0077911" lon="7.3570916"><ele>620.0</ele><time>2026-04-19T08:13:38.418Z</time></trkpt><trkpt lat="45.0078311" lon="7.3569732"><ele>620.0</ele><time>2026-04-19T08:13:39.418Z</time></trkpt><trkpt lat="45.0078813" lon="7.3568859"><ele>620.0</ele><time>2026-04-19T08:13:40.418Z</time></trkpt><trkpt lat="45.0079684" lon="7.3568348"><ele>620.6</ele><time>2026-04-19T08:13:41.418Z</time></trkpt><trkpt lat="45.008063" lon="7.3568254"><ele>621.2</ele><time>2026-04-19T08:13:42.418Z</time></trkpt><trkpt lat="45.0081678" lon="7.3568097"><ele>621.8</ele><time>2026-04-19T08:13:43.418Z</time></trkpt><trkpt lat="45.0082662" lon="7.356793"><ele>622.4</ele><time>2026-04-19T08:13:44.418Z</time></trkpt><trkpt lat="45.0083618" lon="7.3567583"><ele>623.0</ele><time>2026-04-19T08:13:45.418Z</time></trkpt><trkpt lat="45.0084579" lon="7.3567278"><ele>618.8</ele><time>2026-04-19T08:13:46.417Z</time></trkpt><trkpt lat="45.0085554" lon="7.3566889"><ele>614.5999999999999</ele><time>2026-04-19T08:13:47.417Z</time></trkpt><trkpt lat="45.0086539" lon="7.356661"><ele>610.4000000000001</ele><time>2026-04-19T08:13:48.418Z</time></trkpt><trkpt lat="45.0087553" lon="7.3566857"><ele>606.2</ele><time>2026-04-19T08:13:49.418Z</time></trkpt><trkpt lat="45.0088674" lon="7.3567492"><ele>602.0</ele><time>2026-04-19T08:13:50.417Z</time></trkpt><trkpt lat="45.0089579" lon="7.3568137"><ele>602.0</ele><time>2026-04-19T08:13:51.418Z</time></trkpt><trkpt lat="45.0090505" lon="7.3568553"><ele>602.0</ele><time>2026-04-19T08:13:52.418Z</time></trkpt><trkpt lat="45.0091352" lon="7.3568532"><ele>602.0</ele><time>2026-04-19T08:13:53.417Z</time></trkpt><trkpt lat="45.0092289" lon="7.3568182"><ele>602.0</ele><time>2026-04-19T08:13:54.418Z</time></trkpt><trkpt lat="45.0093125" lon="7.356748"><ele>602.0</ele><time>2026-04-19T08:13:55.417Z</time></trkpt><trkpt lat="45.009391" lon="7.3566522"><ele>601.0</ele><time>2026-04-19T08:13:56.418Z</time></trkpt><trkpt lat="45.0094675" lon="7.3565515"><ele>600.0</ele><time>2026-04-19T08:13:57.417Z</time></trkpt><trkpt lat="45.0095325" lon="7.3564461"><ele>599.0</ele><time>2026-04-19T08:13:58.418Z</time></trkpt><trkpt lat="45.0095966" lon="7.3563502"><ele>598.0</ele><time>2026-04-19T08:13:59.418Z</time></trkpt><trkpt lat="45.0096523" lon="7.3562734"><ele>597.0</ele><time>2026-04-19T08:14:00.418Z</time></trkpt><trkpt lat="45.0097168" lon="7.356234"><ele>596.0</ele><time>2026-04-19T08:14:01.417Z</time></trkpt><trkpt lat="45.0097885" lon="7.3562475"><ele>596.0</ele><time>2026-04-19T08:14:02.418Z</time></trkpt><trkpt lat="45.0098448" lon="7.3563209"><ele>596.0</ele><time>2026-04-19T08:14:03.417Z</time></trkpt><trkpt lat="45.0098775" lon="7.3565071"><ele>596.0</ele><time>2026-04-19T08:14:05.418Z</time></trkpt><trkpt lat="45.0098753" lon="7.3566207"><ele>596.0</ele><time>2026-04-19T08:14:06.418Z</time></trkpt><trkpt lat="45.0098834" lon="7.3567331"><ele>596.0</ele><time>2026-04-19T08:14:07.417Z</time></trkpt><trkpt lat="45.0099051" lon="7.3568538"><ele>594.8</ele><time>2026-04-19T08:14:08.418Z</time></trkpt><trkpt lat="45.0099379" lon="7.3569778"><ele>593.6</ele><time>2026-04-19T08:14:09.418Z</time></trkpt><trkpt lat="45.0099867" lon="7.3570986"><ele>592.4</ele><time>2026-04-19T08:14:10.418Z</time></trkpt><trkpt lat="45.0100526" lon="7.357217"><ele>591.2</ele><time>2026-04-19T08:14:11.418Z</time></trkpt><trkpt lat="45.0101249" lon="7.3573298"><ele>590.0</ele><time>2026-04-19T08:14:12.418Z</time></trkpt><trkpt lat="45.0102053" lon="7.3574135"><ele>586.0</ele><time>2026-04-19T08:14:13.417Z</time></trkpt><trkpt lat="45.0102871" lon="7.3574867"><ele>582.0</ele><time>2026-04-19T08:14:14.417Z</time></trkpt><trkpt lat="45.010369" lon="7.3575317"><ele>578.0</ele><time>2026-04-19T08:14:15.418Z</time></trkpt><trkpt lat="45.0104624" lon="7.3575625"><ele>574.0</ele><time>2026-04-19T08:14:16.418Z</time></trkpt><trkpt lat="45.0105677" lon="7.3575847"><ele>570.0</ele><time>2026-04-19T08:14:17.418Z</time></trkpt><trkpt lat="45.0106854" lon="7.3575876"><ele>570.0</ele><time>2026-04-19T08:14:18.418Z</time></trkpt><trkpt lat="45.0108165" lon="7.3575935"><ele>570.0</ele><time>2026-04-19T08:14:19.418Z</time></trkpt><trkpt lat="45.010912" lon="7.357673"><ele>570.0</ele><time>2026-04-19T08:14:20.418Z</time></trkpt><trkpt lat="45.010965" lon="7.3578025"><ele>570.0</ele><time>2026-04-19T08:14:21.418Z</time></trkpt><trkpt lat="45.010995" lon="7.3579394"><ele>570.0</ele><time>2026-04-19T08:14:22.418Z</time></trkpt><trkpt lat="45.0110205" lon="7.3580823"><ele>567.0</ele><time>2026-04-19T08:14:23.418Z</time></trkpt><trkpt lat="45.0110521" lon="7.3582233"><ele>564.0</ele><time>2026-04-19T08:14:24.418Z</time></trkpt><trkpt lat="45.011112" lon="7.358373"><ele>561.0</ele><time>2026-04-19T08:14:25.418Z</time></trkpt><trkpt lat="45.0111803" lon="7.3585176"><ele>558.0</ele><time>2026-04-19T08:14:26.418Z</time></trkpt><trkpt lat="45.011254" lon="7.3586562"><ele>558.0</ele><time>2026-04-19T08:14:27.418Z</time></trkpt><trkpt lat="45.0113456" lon="7.3587932"><ele>558.0</ele><time>2026-04-19T08:14:28.418Z</time></trkpt><trkpt lat="45.0114398" lon="7.3589097"><ele>558.0</ele><time>2026-04-19T08:14:29.418Z</time></trkpt><trkpt lat="45.0115458" lon="7.3590095"><ele>558.0</ele><time>2026-04-19T08:14:30.418Z</time></trkpt><trkpt lat="45.0116627" lon="7.3590981"><ele>557.75</ele><time>2026-04-19T08:14:31.418Z</time></trkpt><trkpt lat="45.0117891" lon="7.3591864"><ele>557.5</ele><time>2026-04-19T08:14:32.418Z</time></trkpt><trkpt lat="45.0119126" lon="7.3592832"><ele>557.25</ele><time>2026-04-19T08:14:33.418Z</time></trkpt><trkpt lat="45.0120293" lon="7.3593811"><ele>557.0</ele><time>2026-04-19T08:14:34.418Z</time></trkpt><trkpt lat="45.0121527" lon="7.3594712"><ele>557.0</ele><time>2026-04-19T08:14:35.417Z</time></trkpt><trkpt lat="45.0122713" lon="7.3595495"><ele>557.0</ele><time>2026-04-19T08:14:36.417Z</time></trkpt><trkpt lat="45.0123893" lon="7.359622"><ele>557.0</ele><time>2026-04-19T08:14:37.418Z</time></trkpt><trkpt lat="45.0124984" lon="7.359696"><ele>557.0</ele><time>2026-04-19T08:14:38.418Z</time></trkpt><trkpt lat="45.0126068" lon="7.3597848"><ele>555.75</ele><time>2026-04-19T08:14:39.418Z</time></trkpt><trkpt lat="45.0126968" lon="7.3598916"><ele>554.5</ele><time>2026-04-19T08:14:40.418Z</time></trkpt><trkpt lat="45.0127792" lon="7.3600232"><ele>553.25</ele><time>2026-04-19T08:14:41.417Z</time></trkpt><trkpt lat="45.0128457" lon="7.3601552"><ele>552.0</ele><time>2026-04-19T08:14:42.418Z</time></trkpt><trkpt lat="45.0129145" lon="7.3602596"><ele>552.0</ele><time>2026-04-19T08:14:43.417Z</time></trkpt><trkpt lat="45.013006" lon="7.3603472"><ele>552.0</ele><time>2026-04-19T08:14:44.418Z</time></trkpt><trkpt lat="45.0131072" lon="7.3603943"><ele>552.0</ele><time>2026-04-19T08:14:45.417Z</time></trkpt><trkpt lat="45.0132269" lon="7.3604572"><ele>552.0</ele><time>2026-04-19T08:14:46.418Z</time></trkpt><trkpt lat="45.0133412" lon="7.3605159"><ele>551.25</ele><time>2026-04-19T08:14:47.418Z</time></trkpt><trkpt lat="45.013451" lon="7.3605938"><ele>550.5</ele><time>2026-04-19T08:14:48.418Z</time></trkpt><trkpt lat="45.0135535" lon="7.3606854"><ele>549.75</ele><time>2026-04-19T08:14:49.418Z</time></trkpt><trkpt lat="45.013647" lon="7.3608057"><ele>549.0</ele><time>2026-04-19T08:14:50.418Z</time></trkpt><trkpt lat="45.0137202" lon="7.3609325"><ele>549.0</ele><time>2026-04-19T08:14:51.418Z</time></trkpt><trkpt lat="45.0137938" lon="7.3610284"><ele>549.0</ele><time>2026-04-19T08:14:52.418Z</time></trkpt><trkpt lat="45.0138895" lon="7.3611047"><ele>549.0</ele><time>2026-04-19T08:14:53.417Z</time></trkpt><trkpt lat="45.014004" lon="7.3611832"><ele>549.0</ele><time>2026-04-19T08:14:54.418Z</time></trkpt><trkpt lat="45.014137" lon="7.3612422"><ele>551.25</ele><time>2026-04-19T08:14:55.417Z</time></trkpt><trkpt lat="45.0142531" lon="7.3613149"><ele>553.5</ele><time>2026-04-19T08:14:56.418Z</time></trkpt><trkpt lat="45.0143621" lon="7.3613746"><ele>555.75</ele><time>2026-04-19T08:14:57.418Z</time></trkpt><trkpt lat="45.014485" lon="7.3613913"><ele>558.0</ele><time>2026-04-19T08:14:58.417Z</time></trkpt><trkpt lat="45.0146071" lon="7.3613839"><ele>558.0</ele><time>2026-04-19T08:14:59.418Z</time></trkpt><trkpt lat="45.014733" lon="7.3613681"><ele>558.0</ele><time>2026-04-19T08:15:00.418Z</time></trkpt><trkpt lat="45.0148412" lon="7.3613426"><ele>558.0</ele><time>2026-04-19T08:15:01.417Z</time></trkpt><trkpt lat="45.014928" lon="7.3613284"><ele>558.0</ele><time>2026-04-19T08:15:02.417Z</time></trkpt><trkpt lat="45.0150173" lon="7.3613217"><ele>558.0</ele><time>2026-04-19T08:15:03.418Z</time></trkpt><trkpt lat="45.0151056" lon="7.3613705"><ele>554.8</ele><time>2026-04-19T08:15:04.417Z</time></trkpt><trkpt lat="45.0151765" lon="7.3614682"><ele>551.5999999999999</ele><time>2026-04-19T08:15:05.418Z</time></trkpt><trkpt lat="45.0152177" lon="7.3615971"><ele>548.4000000000001</ele><time>2026-04-19T08:15:06.418Z</time></trkpt><trkpt lat="45.0152616" lon="7.3617403"><ele>545.2</ele><time>2026-04-19T08:15:07.418Z</time></trkpt><trkpt lat="45.0152941" lon="7.361889"><ele>542.0</ele><time>2026-04-19T08:15:08.418Z</time></trkpt><trkpt lat="45.0153097" lon="7.3620473"><ele>538.8000000000001</ele><time>2026-04-19T08:15:09.418Z</time></trkpt><trkpt lat="45.0153218" lon="7.3622041"><ele>535.6</ele><time>2026-04-19T08:15:10.417Z</time></trkpt><trkpt lat="45.0153403" lon="7.3623526"><ele>532.4000000000001</ele><time>2026-04-19T08:15:11.418Z</time></trkpt><trkpt lat="45.0153852" lon="7.3624895"><ele>529.2</ele><time>2026-04-19T08:15:12.418Z</time></trkpt><trkpt lat="45.0154482" lon="7.3625933"><ele>526.0</ele><time>2026-04-19T08:15:13.417Z</time></trkpt><trkpt lat="45.0155249" lon="7.3626694"><ele>526.0</ele><time>2026-04-19T08:15:14.417Z</time></trkpt><trkpt lat="45.0156115" lon="7.3627575"><ele>526.0</ele><time>2026-04-19T08:15:15.418Z</time></trkpt><trkpt lat="45.0156876" lon="7.362801"><ele>526.0</ele><time>2026-04-19T08:15:16.418Z</time></trkpt><trkpt lat="45.0157638" lon="7.3628132"><ele>526.0</ele><time>2026-04-19T08:15:17.418Z</time></trkpt><trkpt lat="45.0158517" lon="7.3627584"><ele>526.0</ele><time>2026-04-19T08:15:18.418Z</time></trkpt><trkpt lat="45.0159428" lon="7.3626766"><ele>527.0</ele><time>2026-04-19T08:15:19.418Z</time></trkpt><trkpt lat="45.0160279" lon="7.3625945"><ele>528.0</ele><time>2026-04-19T08:15:20.418Z</time></trkpt><trkpt lat="45.0161189" lon="7.3625236"><ele>529.0</ele><time>2026-04-19T08:15:21.418Z</time></trkpt><trkpt lat="45.0161933" lon="7.3624832"><ele>530.0</ele><time>2026-04-19T08:15:22.418Z</time></trkpt><trkpt lat="45.0162613" lon="7.3624969"><ele>531.0</ele><time>2026-04-19T08:15:23.418Z</time></trkpt><trkpt lat="45.0163116" lon="7.3625803"><ele>532.0</ele><time>2026-04-19T08:15:24.418Z</time></trkpt><trkpt lat="45.016337" lon="7.3626976"><ele>532.0</ele><time>2026-04-19T08:15:25.418Z</time></trkpt><trkpt lat="45.0163664" lon="7.3628239"><ele>532.0</ele><time>2026-04-19T08:15:26.417Z</time></trkpt><trkpt lat="45.0163979" lon="7.362961"><ele>532.0</ele><time>2026-04-19T08:15:27.417Z</time></trkpt><trkpt lat="45.0164395" lon="7.3631132"><ele>532.0</ele><time>2026-04-19T08:15:28.418Z</time></trkpt><trkpt lat="45.0164711" lon="7.3632664"><ele>532.0</ele><time>2026-04-19T08:15:29.418Z</time></trkpt><trkpt lat="45.0165076" lon="7.3634176"><ele>529.2</ele><time>2026-04-19T08:15:30.417Z</time></trkpt><trkpt lat="45.0165437" lon="7.3635691"><ele>526.4000000000001</ele><time>2026-04-19T08:15:31.417Z</time></trkpt><trkpt lat="45.0165755" lon="7.3637204"><ele>523.5999999999999</ele><time>2026-04-19T08:15:32.418Z</time></trkpt><trkpt lat="45.0165958" lon="7.3638672"><ele>520.8</ele><time>2026-04-19T08:15:33.417Z</time></trkpt><trkpt lat="45.0165997" lon="7.3640253"><ele>518.0</ele><time>2026-04-19T08:15:34.418Z</time></trkpt><trkpt lat="45.0165936" lon="7.3641673"><ele>516.1999999999999</ele><time>2026-04-19T08:15:35.418Z</time></trkpt><trkpt lat="45.0166043" lon="7.3643069"><ele>514.4</ele><time>2026-04-19T08:15:36.418Z</time></trkpt><trkpt lat="45.0166507" lon="7.3644338"><ele>512.5999999999999</ele><time>2026-04-19T08:15:37.418Z</time></trkpt><trkpt lat="45.0167185" lon="7.364531"><ele>510.79999999999995</ele><time>2026-04-19T08:15:38.418Z</time></trkpt><trkpt lat="45.016799" lon="7.3646058"><ele>509.0</ele><time>2026-04-19T08:15:39.417Z</time></trkpt><trkpt lat="45.0168875" lon="7.364637"><ele>509.0</ele><time>2026-04-19T08:15:40.418Z</time></trkpt><trkpt lat="45.0169751" lon="7.3646529"><ele>509.0</ele><time>2026-04-19T08:15:41.417Z</time></trkpt><trkpt lat="45.0170898" lon="7.3646187"><ele>509.0</ele><time>2026-04-19T08:15:42.418Z</time></trkpt><trkpt lat="45.0171847" lon="7.3645684"><ele>509.0</ele><time>2026-04-19T08:15:43.418Z</time></trkpt><trkpt lat="45.0172621" lon="7.3644804"><ele>509.0</ele><time>2026-04-19T08:15:44.418Z</time></trkpt><trkpt lat="45.0173174" lon="7.3643752"><ele>509.0</ele><time>2026-04-19T08:15:45.418Z</time></trkpt><trkpt lat="45.0173497" lon="7.3642576"><ele>509.0</ele><time>2026-04-19T08:15:46.418Z</time></trkpt><trkpt lat="45.0173592" lon="7.3641196"><ele>509.0</ele><time>2026-04-19T08:15:47.418Z</time></trkpt><trkpt lat="45.01736" lon="7.3639785"><ele>509.0</ele><time>2026-04-19T08:15:48.418Z</time></trkpt><trkpt lat="45.0173731" lon="7.3638355"><ele>509.0</ele><time>2026-04-19T08:15:49.418Z</time></trkpt><trkpt lat="45.0174216" lon="7.3637065"><ele>506.4</ele><time>2026-04-19T08:15:50.418Z</time></trkpt><trkpt lat="45.0175018" lon="7.3635925"><ele>503.79999999999995</ele><time>2026-04-19T08:15:51.418Z</time></trkpt><trkpt lat="45.017573" lon="7.3634982"><ele>501.20000000000005</ele><time>2026-04-19T08:15:52.418Z</time></trkpt><trkpt lat="45.0176234" lon="7.363411"><ele>498.6</ele><time>2026-04-19T08:15:53.418Z</time></trkpt><trkpt lat="45.0176447" lon="7.3632978"><ele>496.0</ele><time>2026-04-19T08:15:54.418Z</time></trkpt><trkpt lat="45.0176574" lon="7.3631694"><ele>496.0</ele><time>2026-04-19T08:15:55.417Z</time></trkpt><trkpt lat="45.0176702" lon="7.3630458"><ele>496.0</ele><time>2026-04-19T08:15:56.417Z</time></trkpt><trkpt lat="45.0176916" lon="7.3629248"><ele>496.0</ele><time>2026-04-19T08:15:57.418Z</time></trkpt><trkpt lat="45.0177418" lon="7.3627945"><ele>496.0</ele><time>2026-04-19T08:15:58.417Z</time></trkpt><trkpt lat="45.0178173" lon="7.3626636"><ele>496.0</ele><time>2026-04-19T08:15:59.417Z</time></trkpt><trkpt lat="45.0179033" lon="7.3625428"><ele>496.75</ele><time>2026-04-19T08:16:00.418Z</time></trkpt><trkpt lat="45.0179856" lon="7.3624327"><ele>497.5</ele><time>2026-04-19T08:16:01.418Z</time></trkpt><trkpt lat="45.0180698" lon="7.362327"><ele>498.25</ele><time>2026-04-19T08:16:02.418Z</time></trkpt><trkpt lat="45.0181544" lon="7.3622127"><ele>499.0</ele><time>2026-04-19T08:16:03.418Z</time></trkpt><trkpt lat="45.0182487" lon="7.3621073"><ele>498.0</ele><time>2026-04-19T08:16:04.418Z</time></trkpt><trkpt lat="45.0183599" lon="7.3620555"><ele>497.0</ele><time>2026-04-19T08:16:05.418Z</time></trkpt><trkpt lat="45.0184734" lon="7.3620319"><ele>496.0</ele><time>2026-04-19T08:16:06.417Z</time></trkpt><trkpt lat="45.0185916" lon="7.3620602"><ele>495.0</ele><time>2026-04-19T08:16:07.418Z</time></trkpt><trkpt lat="45.0187095" lon="7.3621088"><ele>495.0</ele><time>2026-04-19T08:16:08.417Z</time></trkpt><trkpt lat="45.0188183" lon="7.3621592"><ele>495.0</ele><time>2026-04-19T08:16:09.418Z</time></trkpt><trkpt lat="45.0189269" lon="7.362196"><ele>495.0</ele><time>2026-04-19T08:16:10.418Z</time></trkpt><trkpt lat="45.0190281" lon="7.3622078"><ele>495.0</ele><time>2026-04-19T08:16:11.417Z</time></trkpt><trkpt lat="45.0191332" lon="7.3622063"><ele>495.0</ele><time>2026-04-19T08:16:12.418Z</time></trkpt><trkpt lat="45.0192404" lon="7.3621669"><ele>491.5</ele><time>2026-04-19T08:16:13.418Z</time></trkpt><trkpt lat="45.0193407" lon="7.362091"><ele>488.0</ele><time>2026-04-19T08:16:14.418Z</time></trkpt><trkpt lat="45.0194384" lon="7.3619806"><ele>484.5</ele><time>2026-04-19T08:16:15.418Z</time></trkpt><trkpt lat="45.019543" lon="7.3618619"><ele>481.0</ele><time>2026-04-19T08:16:16.418Z</time></trkpt><trkpt lat="45.0196355" lon="7.3617609"><ele>481.0</ele><time>2026-04-19T08:16:17.418Z</time></trkpt><trkpt lat="45.01972" lon="7.361664"><ele>481.0</ele><time>2026-04-19T08:16:18.418Z</time></trkpt><trkpt lat="45.0198046" lon="7.3615624"><ele>481.0</ele><time>2026-04-19T08:16:19.418Z</time></trkpt><trkpt lat="45.0199037" lon="7.3614775"><ele>481.0</ele><time>2026-04-19T08:16:20.418Z</time></trkpt><trkpt lat="45.0199895" lon="7.3613829"><ele>481.0</ele><time>2026-04-19T08:16:21.418Z</time></trkpt><trkpt lat="45.0200691" lon="7.3612874"><ele>479.4</ele><time>2026-04-19T08:16:22.418Z</time></trkpt><trkpt lat="45.0201392" lon="7.3611869"><ele>477.8</ele><time>2026-04-19T08:16:23.418Z</time></trkpt><trkpt lat="45.0202024" lon="7.3610678"><ele>476.19999999999993</ele><time>2026-04-19T08:16:24.417Z</time></trkpt><trkpt lat="45.0202595" lon="7.3609593"><ele>474.59999999999997</ele><time>2026-04-19T08:16:25.416Z</time></trkpt><trkpt lat="45.0203128" lon="7.360852"><ele>473.0</ele><time>2026-04-19T08:16:26.417Z</time></trkpt><trkpt lat="45.0203684" lon="7.360739"><ele>473.0</ele><time>2026-04-19T08:16:27.417Z</time></trkpt><trkpt lat="45.0204332" lon="7.3606369"><ele>472.99999999999994</ele><time>2026-04-19T08:16:28.417Z</time></trkpt><trkpt lat="45.0205036" lon="7.3605435"><ele>472.99999999999994</ele><time>2026-04-19T08:16:29.417Z</time></trkpt><trkpt lat="45.0205831" lon="7.3604551"><ele>473.0</ele><time>2026-04-19T08:16:30.417Z</time></trkpt><trkpt lat="45.0206687" lon="7.3603716"><ele>473.0</ele><time>2026-04-19T08:16:31.417Z</time></trkpt><trkpt lat="45.0207629" lon="7.3602823"><ele>472.5</ele><time>2026-04-19T08:16:32.417Z</time></trkpt><trkpt lat="45.0208676" lon="7.3601881"><ele>472.0</ele><time>2026-04-19T08:16:33.417Z</time></trkpt><trkpt lat="45.0209732" lon="7.3600811"><ele>471.5</ele><time>2026-04-19T08:16:34.416Z</time></trkpt><trkpt lat="45.0210794" lon="7.3599867"><ele>471.0</ele><time>2026-04-19T08:16:35.417Z</time></trkpt><trkpt lat="45.0211758" lon="7.3598851"><ele>471.0</ele><time>2026-04-19T08:16:36.417Z</time></trkpt><trkpt lat="45.0212659" lon="7.3597748"><ele>471.0</ele><time>2026-04-19T08:16:37.417Z</time></trkpt><trkpt lat="45.0213451" lon="7.3596495"><ele>471.0</ele><time>2026-04-19T08:16:38.417Z</time></trkpt><trkpt lat="45.0213959" lon="7.3595118"><ele>471.0</ele><time>2026-04-19T08:16:39.417Z</time></trkpt><trkpt lat="45.0214291" lon="7.3593593"><ele>473.4</ele><time>2026-04-19T08:16:40.417Z</time></trkpt><trkpt lat="45.0214373" lon="7.3592069"><ele>475.8</ele><time>2026-04-19T08:16:41.416Z</time></trkpt><trkpt lat="45.0214216" lon="7.3590573"><ele>478.19999999999993</ele><time>2026-04-19T08:16:42.417Z</time></trkpt><trkpt lat="45.0214029" lon="7.3588994"><ele>480.59999999999997</ele><time>2026-04-19T08:16:43.417Z</time></trkpt><trkpt lat="45.0213785" lon="7.3587443"><ele>483.0</ele><time>2026-04-19T08:16:44.417Z</time></trkpt><trkpt lat="45.021364" lon="7.3585822"><ele>484.0</ele><time>2026-04-19T08:16:45.417Z</time></trkpt><trkpt lat="45.0213701" lon="7.358415"><ele>485.0</ele><time>2026-04-19T08:16:46.417Z</time></trkpt><trkpt lat="45.0213939" lon="7.3582544"><ele>486.0</ele><time>2026-04-19T08:16:47.417Z</time></trkpt><trkpt lat="45.0214501" lon="7.3581078"><ele>487.0</ele><time>2026-04-19T08:16:48.417Z</time></trkpt><trkpt lat="45.0215141" lon="7.3579756"><ele>490.0</ele><time>2026-04-19T08:16:49.417Z</time></trkpt><trkpt lat="45.0215831" lon="7.3578468"><ele>493.0</ele><time>2026-04-19T08:16:50.417Z</time></trkpt><trkpt lat="45.0216537" lon="7.3577237"><ele>496.0</ele><time>2026-04-19T08:16:51.417Z</time></trkpt><trkpt lat="45.0217345" lon="7.357599"><ele>499.0</ele><time>2026-04-19T08:16:52.417Z</time></trkpt><trkpt lat="45.0218091" lon="7.3574796"><ele>496.0</ele><time>2026-04-19T08:16:53.417Z</time></trkpt><trkpt lat="45.0218854" lon="7.3573645"><ele>493.0</ele><time>2026-04-19T08:16:54.417Z</time></trkpt><trkpt lat="45.0219557" lon="7.3572527"><ele>490.0</ele><time>2026-04-19T08:16:55.417Z</time></trkpt><trkpt lat="45.0220127" lon="7.3571482"><ele>487.0</ele><time>2026-04-19T08:16:56.417Z</time></trkpt><trkpt lat="45.0220581" lon="7.3570455"><ele>484.0</ele><time>2026-04-19T08:16:57.417Z</time></trkpt><trkpt lat="45.022102" lon="7.3569448"><ele>484.00000000000006</ele><time>2026-04-19T08:16:58.417Z</time></trkpt><trkpt lat="45.0221355" lon="7.3568336"><ele>484.0</ele><time>2026-04-19T08:16:59.416Z</time></trkpt><trkpt lat="45.0221631" lon="7.356718"><ele>484.0</ele><time>2026-04-19T08:17:00.416Z</time></trkpt><trkpt lat="45.0221901" lon="7.3565975"><ele>484.0</ele><time>2026-04-19T08:17:01.417Z</time></trkpt><trkpt lat="45.022217" lon="7.3564787"><ele>484.00000000000006</ele><time>2026-04-19T08:17:02.416Z</time></trkpt><trkpt lat="45.0222453" lon="7.3563598"><ele>484.0</ele><time>2026-04-19T08:17:03.416Z</time></trkpt><trkpt lat="45.0222834" lon="7.3562378"><ele>481.25</ele><time>2026-04-19T08:17:04.416Z</time></trkpt><trkpt lat="45.0223223" lon="7.3560938"><ele>478.5</ele><time>2026-04-19T08:17:05.416Z</time></trkpt><trkpt lat="45.0223768" lon="7.3559333"><ele>475.75</ele><time>2026-04-19T08:17:06.417Z</time></trkpt><trkpt lat="45.0224354" lon="7.3557782"><ele>473.0</ele><time>2026-04-19T08:17:07.417Z</time></trkpt><trkpt lat="45.0224974" lon="7.3556342"><ele>478.25</ele><time>2026-04-19T08:17:08.416Z</time></trkpt><trkpt lat="45.0225664" lon="7.3554939"><ele>483.5</ele><time>2026-04-19T08:17:09.417Z</time></trkpt><trkpt lat="45.0226358" lon="7.3553577"><ele>488.75</ele><time>2026-04-19T08:17:10.417Z</time></trkpt><trkpt lat="45.0227222" lon="7.3552482"><ele>494.0</ele><time>2026-04-19T08:17:11.417Z</time></trkpt><trkpt lat="45.0228159" lon="7.3551433"><ele>494.0</ele><time>2026-04-19T08:17:12.417Z</time></trkpt><trkpt lat="45.0229162" lon="7.3550667"><ele>494.0</ele><time>2026-04-19T08:17:13.417Z</time></trkpt><trkpt lat="45.0230242" lon="7.3550195"><ele>494.0</ele><time>2026-04-19T08:17:14.416Z</time></trkpt><trkpt lat="45.0231446" lon="7.3549873"><ele>494.0</ele><time>2026-04-19T08:17:15.416Z</time></trkpt><trkpt lat="45.0232678" lon="7.3549774"><ele>487.5</ele><time>2026-04-19T08:17:16.417Z</time></trkpt><trkpt lat="45.023399" lon="7.3549895"><ele>481.0</ele><time>2026-04-19T08:17:17.416Z</time></trkpt><trkpt lat="45.0235341" lon="7.3550171"><ele>474.5</ele><time>2026-04-19T08:17:18.417Z</time></trkpt><trkpt lat="45.0236552" lon="7.3550161"><ele>468.0</ele><time>2026-04-19T08:17:19.417Z</time></trkpt><trkpt lat="45.0237839" lon="7.3550161"><ele>468.0</ele><time>2026-04-19T08:17:20.417Z</time></trkpt><trkpt lat="45.0239147" lon="7.3550128"><ele>468.0</ele><time>2026-04-19T08:17:21.417Z</time></trkpt><trkpt lat="45.0240481" lon="7.3550142"><ele>468.0</ele><time>2026-04-19T08:17:22.416Z</time></trkpt><trkpt lat="45.0241918" lon="7.3550121"><ele>468.0</ele><time>2026-04-19T08:17:23.417Z</time></trkpt><trkpt lat="45.0243322" lon="7.3550208"><ele>467.0</ele><time>2026-04-19T08:17:24.417Z</time></trkpt><trkpt lat="45.0244792" lon="7.3550319"><ele>466.0</ele><time>2026-04-19T08:17:25.417Z</time></trkpt><trkpt lat="45.0246241" lon="7.3550338"><ele>465.0</ele><time>2026-04-19T08:17:26.417Z</time></trkpt><trkpt lat="45.0247677" lon="7.3550405"><ele>464.0</ele><time>2026-04-19T08:17:27.417Z</time></trkpt><trkpt lat="45.0249065" lon="7.3550489"><ele>464.75</ele><time>2026-04-19T08:17:28.417Z</time></trkpt><trkpt lat="45.0250365" lon="7.3550549"><ele>465.5</ele><time>2026-04-19T08:17:29.417Z</time></trkpt><trkpt lat="45.0251603" lon="7.3550605"><ele>466.25</ele><time>2026-04-19T08:17:30.416Z</time></trkpt><trkpt lat="45.025281" lon="7.355067"><ele>467.0</ele><time>2026-04-19T08:17:31.417Z</time></trkpt><trkpt lat="45.025399" lon="7.3550715"><ele>467.0</ele><time>2026-04-19T08:17:32.417Z</time></trkpt><trkpt lat="45.0255223" lon="7.3550755"><ele>467.00000000000006</ele><time>2026-04-19T08:17:33.416Z</time></trkpt><trkpt lat="45.0256388" lon="7.3550877"><ele>467.00000000000006</ele><time>2026-04-19T08:17:34.416Z</time></trkpt><trkpt lat="45.0257415" lon="7.3550926"><ele>467.0</ele><time>2026-04-19T08:17:35.416Z</time></trkpt><trkpt lat="45.0258413" lon="7.3550952"><ele>467.0</ele><time>2026-04-19T08:17:36.416Z</time></trkpt><trkpt lat="45.0259445" lon="7.3550956"><ele>467.40000000000003</ele><time>2026-04-19T08:17:37.417Z</time></trkpt><trkpt lat="45.02604" lon="7.3550998"><ele>467.80000000000007</ele><time>2026-04-19T08:17:38.417Z</time></trkpt><trkpt lat="45.0261432" lon="7.3551146"><ele>468.2</ele><time>2026-04-19T08:17:39.417Z</time></trkpt><trkpt lat="45.0262416" lon="7.3551363"><ele>468.6</ele><time>2026-04-19T08:17:40.417Z</time></trkpt><trkpt lat="45.026341" lon="7.355162"><ele>469.0</ele><time>2026-04-19T08:17:41.416Z</time></trkpt><trkpt lat="45.0264439" lon="7.3551871"><ele>469.0</ele><time>2026-04-19T08:17:42.417Z</time></trkpt><trkpt lat="45.0265456" lon="7.3552215"><ele>469.0</ele><time>2026-04-19T08:17:43.416Z</time></trkpt><trkpt lat="45.0266419" lon="7.3552442"><ele>469.0</ele><time>2026-04-19T08:17:44.417Z</time></trkpt><trkpt lat="45.0267384" lon="7.3552603"><ele>469.0</ele><time>2026-04-19T08:17:45.416Z</time></trkpt><trkpt lat="45.0268346" lon="7.3552733"><ele>469.0</ele><time>2026-04-19T08:17:46.417Z</time></trkpt><trkpt lat="45.0269296" lon="7.35527"><ele>469.6</ele><time>2026-04-19T08:17:47.417Z</time></trkpt><trkpt lat="45.0270299" lon="7.3552741"><ele>470.2</ele><time>2026-04-19T08:17:48.417Z</time></trkpt><trkpt lat="45.0271433" lon="7.3552548"><ele>470.80000000000007</ele><time>2026-04-19T08:17:49.417Z</time></trkpt><trkpt lat="45.0272562" lon="7.3552313"><ele>471.40000000000003</ele><time>2026-04-19T08:17:50.417Z</time></trkpt><trkpt lat="45.0273686" lon="7.3551966"><ele>472.0</ele><time>2026-04-19T08:17:51.416Z</time></trkpt><trkpt lat="45.0274841" lon="7.3551572"><ele>472.25</ele><time>2026-04-19T08:17:52.417Z</time></trkpt><trkpt lat="45.0276106" lon="7.3551162"><ele>472.5</ele><time>2026-04-19T08:17:53.417Z</time></trkpt><trkpt lat="45.0277349" lon="7.3550642"><ele>472.75</ele><time>2026-04-19T08:17:54.417Z</time></trkpt><trkpt lat="45.0278583" lon="7.355017"><ele>473.0</ele><time>2026-04-19T08:17:55.417Z</time></trkpt><trkpt lat="45.027987" lon="7.3549653"><ele>473.0</ele><time>2026-04-19T08:17:56.417Z</time></trkpt><trkpt lat="45.0281213" lon="7.3549134"><ele>473.0</ele><time>2026-04-19T08:17:57.417Z</time></trkpt><trkpt lat="45.0282476" lon="7.3548569"><ele>473.0</ele><time>2026-04-19T08:17:58.416Z</time></trkpt><trkpt lat="45.0283762" lon="7.3548034"><ele>473.0</ele><time>2026-04-19T08:17:59.416Z</time></trkpt><trkpt lat="45.0285067" lon="7.354754"><ele>473.75</ele><time>2026-04-19T08:18:00.417Z</time></trkpt><trkpt lat="45.0286371" lon="7.3547138"><ele>474.5</ele><time>2026-04-19T08:18:01.417Z</time></trkpt><trkpt lat="45.028772" lon="7.3546921"><ele>475.25</ele><time>2026-04-19T08:18:02.416Z</time></trkpt><trkpt lat="45.0289069" lon="7.3546712"><ele>476.0</ele><time>2026-04-19T08:18:03.417Z</time></trkpt><trkpt lat="45.0290415" lon="7.354658"><ele>476.75</ele><time>2026-04-19T08:18:04.416Z</time></trkpt><trkpt lat="45.0291768" lon="7.3546333"><ele>477.5</ele><time>2026-04-19T08:18:05.417Z</time></trkpt><trkpt lat="45.0293105" lon="7.3546013"><ele>478.25</ele><time>2026-04-19T08:18:06.417Z</time></trkpt><trkpt lat="45.0294416" lon="7.3545818"><ele>479.0</ele><time>2026-04-19T08:18:07.416Z</time></trkpt><trkpt lat="45.0295758" lon="7.3545628"><ele>479.0</ele><time>2026-04-19T08:18:08.417Z</time></trkpt><trkpt lat="45.0297066" lon="7.3545367"><ele>479.0</ele><time>2026-04-19T08:18:09.417Z</time></trkpt><trkpt lat="45.0298387" lon="7.3545105"><ele>479.0</ele><time>2026-04-19T08:18:10.416Z</time></trkpt><trkpt lat="45.029966" lon="7.3544735"><ele>479.0</ele><time>2026-04-19T08:18:11.416Z</time></trkpt><trkpt lat="45.0300909" lon="7.3544189"><ele>479.5</ele><time>2026-04-19T08:18:12.416Z</time></trkpt><trkpt lat="45.0302054" lon="7.3543306"><ele>480.0</ele><time>2026-04-19T08:18:13.417Z</time></trkpt><trkpt lat="45.0303168" lon="7.3542132"><ele>480.5</ele><time>2026-04-19T08:18:14.417Z</time></trkpt><trkpt lat="45.0304246" lon="7.3540815"><ele>481.0</ele><time>2026-04-19T08:18:15.417Z</time></trkpt><trkpt lat="45.0305328" lon="7.3539415"><ele>481.0</ele><time>2026-04-19T08:18:16.417Z</time></trkpt><trkpt lat="45.0306448" lon="7.3537895"><ele>481.0</ele><time>2026-04-19T08:18:17.417Z</time></trkpt><trkpt lat="45.0307532" lon="7.3536457"><ele>481.0</ele><time>2026-04-19T08:18:18.416Z</time></trkpt><trkpt lat="45.0308629" lon="7.3535055"><ele>481.75</ele><time>2026-04-19T08:18:19.417Z</time></trkpt><trkpt lat="45.0309687" lon="7.3533628"><ele>482.5</ele><time>2026-04-19T08:18:20.416Z</time></trkpt><trkpt lat="45.0310711" lon="7.3532336"><ele>483.25</ele><time>2026-04-19T08:18:21.417Z</time></trkpt><trkpt lat="45.0311701" lon="7.353115"><ele>484.0</ele><time>2026-04-19T08:18:22.417Z</time></trkpt><trkpt lat="45.0312754" lon="7.3530057"><ele>484.0</ele><time>2026-04-19T08:18:23.417Z</time></trkpt><trkpt lat="45.0313862" lon="7.3529147"><ele>484.0</ele><time>2026-04-19T08:18:24.417Z</time></trkpt><trkpt lat="45.0315014" lon="7.3528479"><ele>484.0</ele><time>2026-04-19T08:18:25.417Z</time></trkpt><trkpt lat="45.0316199" lon="7.3528106"><ele>484.0</ele><time>2026-04-19T08:18:26.417Z</time></trkpt><trkpt lat="45.0317455" lon="7.3528003"><ele>485.25</ele><time>2026-04-19T08:18:27.417Z</time></trkpt><trkpt lat="45.0318694" lon="7.3528207"><ele>486.5</ele><time>2026-04-19T08:18:28.416Z</time></trkpt><trkpt lat="45.0319867" lon="7.3528574"><ele>487.75</ele><time>2026-04-19T08:18:29.417Z</time></trkpt><trkpt lat="45.0321045" lon="7.3528954"><ele>489.0</ele><time>2026-04-19T08:18:30.417Z</time></trkpt><trkpt lat="45.0322221" lon="7.3529423"><ele>489.0</ele><time>2026-04-19T08:18:31.417Z</time></trkpt><trkpt lat="45.0323457" lon="7.3529907"><ele>489.0</ele><time>2026-04-19T08:18:32.416Z</time></trkpt><trkpt lat="45.0324709" lon="7.3530349"><ele>489.0</ele><time>2026-04-19T08:18:33.417Z</time></trkpt><trkpt lat="45.0325907" lon="7.3530826"><ele>489.0</ele><time>2026-04-19T08:18:34.417Z</time></trkpt><trkpt lat="45.0327112" lon="7.3531288"><ele>489.0</ele><time>2026-04-19T08:18:35.416Z</time></trkpt><trkpt lat="45.0328293" lon="7.3531767"><ele>489.0</ele><time>2026-04-19T08:18:36.417Z</time></trkpt><trkpt lat="45.0329313" lon="7.3532134"><ele>489.0</ele><time>2026-04-19T08:18:37.416Z</time></trkpt><trkpt lat="45.03302" lon="7.3532385"><ele>489.0</ele><time>2026-04-19T08:18:38.417Z</time></trkpt><trkpt lat="45.0330968" lon="7.3532642"><ele>489.0</ele><time>2026-04-19T08:18:39.417Z</time></trkpt><trkpt lat="45.0331634" lon="7.353306"><ele>489.0</ele><time>2026-04-19T08:18:40.417Z</time></trkpt><trkpt lat="45.0332299" lon="7.3533375"><ele>489.0</ele><time>2026-04-19T08:18:41.417Z</time></trkpt><trkpt lat="45.0333608" lon="7.3533203"><ele>489.0</ele><time>2026-04-19T08:18:43.416Z</time></trkpt><trkpt lat="45.0334383" lon="7.3532943"><ele>489.0</ele><time>2026-04-19T08:18:44.416Z</time></trkpt><trkpt lat="45.0335248" lon="7.3532718"><ele>489.0</ele><time>2026-04-19T08:18:45.416Z</time></trkpt><trkpt lat="45.0336157" lon="7.3532475"><ele>489.2</ele><time>2026-04-19T08:18:46.417Z</time></trkpt><trkpt lat="45.0337086" lon="7.3532258"><ele>489.4</ele><time>2026-04-19T08:18:47.417Z</time></trkpt><trkpt lat="45.033808" lon="7.3531961"><ele>489.6</ele><time>2026-04-19T08:18:48.417Z</time></trkpt><trkpt lat="45.0339167" lon="7.3531654"><ele>489.8</ele><time>2026-04-19T08:18:49.417Z</time></trkpt><trkpt lat="45.0340273" lon="7.3531346"><ele>490.0</ele><time>2026-04-19T08:18:50.417Z</time></trkpt><trkpt lat="45.0341418" lon="7.3531044"><ele>490.0</ele><time>2026-04-19T08:18:51.417Z</time></trkpt><trkpt lat="45.0342611" lon="7.353069"><ele>490.0</ele><time>2026-04-19T08:18:52.417Z</time></trkpt><trkpt lat="45.0343801" lon="7.3530297"><ele>490.0</ele><time>2026-04-19T08:18:53.417Z</time></trkpt><trkpt lat="45.034507" lon="7.3529875"><ele>490.0</ele><time>2026-04-19T08:18:54.416Z</time></trkpt><trkpt lat="45.034638" lon="7.352954"><ele>490.75</ele><time>2026-04-19T08:18:55.417Z</time></trkpt><trkpt lat="45.0347649" lon="7.3529208"><ele>491.5</ele><time>2026-04-19T08:18:56.417Z</time></trkpt><trkpt lat="45.0348943" lon="7.3528828"><ele>492.25</ele><time>2026-04-19T08:18:57.417Z</time></trkpt><trkpt lat="45.0350261" lon="7.3528466"><ele>493.0</ele><time>2026-04-19T08:18:58.417Z</time></trkpt><trkpt lat="45.035175" lon="7.3528086"><ele>493.5</ele><time>2026-04-19T08:18:59.417Z</time></trkpt><trkpt lat="45.0353089" lon="7.3527715"><ele>494.0</ele><time>2026-04-19T08:19:00.417Z</time></trkpt><trkpt lat="45.0354472" lon="7.3527366"><ele>494.5</ele><time>2026-04-19T08:19:01.416Z</time></trkpt><trkpt lat="45.035582" lon="7.3527006"><ele>495.0</ele><time>2026-04-19T08:19:02.417Z</time></trkpt><trkpt lat="45.0357147" lon="7.3526786"><ele>496.5</ele><time>2026-04-19T08:19:03.416Z</time></trkpt><trkpt lat="45.0358441" lon="7.3526731"><ele>498.0</ele><time>2026-04-19T08:19:04.417Z</time></trkpt><trkpt lat="45.0359652" lon="7.352691"><ele>499.5</ele><time>2026-04-19T08:19:05.417Z</time></trkpt><trkpt lat="45.0360859" lon="7.3527052"><ele>501.0</ele><time>2026-04-19T08:19:06.417Z</time></trkpt><trkpt lat="45.0362004" lon="7.3527147"><ele>501.0</ele><time>2026-04-19T08:19:07.417Z</time></trkpt><trkpt lat="45.0363174" lon="7.3527317"><ele>501.0</ele><time>2026-04-19T08:19:08.417Z</time></trkpt><trkpt lat="45.0364329" lon="7.3527556"><ele>501.0</ele><time>2026-04-19T08:19:09.417Z</time></trkpt><trkpt lat="45.0365588" lon="7.3527648"><ele>501.0</ele><time>2026-04-19T08:19:10.417Z</time></trkpt><trkpt lat="45.0366754" lon="7.35277"><ele>502.25</ele><time>2026-04-19T08:19:11.417Z</time></trkpt><trkpt lat="45.0367981" lon="7.3527644"><ele>503.5</ele><time>2026-04-19T08:19:12.417Z</time></trkpt><trkpt lat="45.0369223" lon="7.3527671"><ele>504.75</ele><time>2026-04-19T08:19:13.417Z</time></trkpt><trkpt lat="45.0370501" lon="7.3527811"><ele>506.0</ele><time>2026-04-19T08:19:14.417Z</time></trkpt><trkpt lat="45.037169" lon="7.3528017"><ele>506.0</ele><time>2026-04-19T08:19:15.417Z</time></trkpt><trkpt lat="45.0372788" lon="7.3528222"><ele>506.0</ele><time>2026-04-19T08:19:16.417Z</time></trkpt><trkpt lat="45.0373826" lon="7.3528367"><ele>506.0</ele><time>2026-04-19T08:19:17.417Z</time></trkpt><trkpt lat="45.0374788" lon="7.3528529"><ele>506.0</ele><time>2026-04-19T08:19:18.417Z</time></trkpt><trkpt lat="45.0375646" lon="7.3528653"><ele>506.0</ele><time>2026-04-19T08:19:19.417Z</time></trkpt><trkpt lat="45.0376624" lon="7.3528583"><ele>506.6</ele><time>2026-04-19T08:19:20.416Z</time></trkpt><trkpt lat="45.0377571" lon="7.3528583"><ele>507.20000000000005</ele><time>2026-04-19T08:19:21.417Z</time></trkpt><trkpt lat="45.0378566" lon="7.3528403"><ele>507.79999999999995</ele><time>2026-04-19T08:19:22.416Z</time></trkpt><trkpt lat="45.0379572" lon="7.3528143"><ele>508.4</ele><time>2026-04-19T08:19:23.417Z</time></trkpt><trkpt lat="45.0380627" lon="7.352794"><ele>509.0</ele><time>2026-04-19T08:19:24.417Z</time></trkpt><trkpt lat="45.0381665" lon="7.3527683"><ele>509.0</ele><time>2026-04-19T08:19:25.416Z</time></trkpt><trkpt lat="45.0382707" lon="7.3527509"><ele>509.0</ele><time>2026-04-19T08:19:26.417Z</time></trkpt><trkpt lat="45.0383728" lon="7.3527381"><ele>509.0</ele><time>2026-04-19T08:19:27.417Z</time></trkpt><trkpt lat="45.0384782" lon="7.3527241"><ele>509.0</ele><time>2026-04-19T08:19:28.417Z</time></trkpt><trkpt lat="45.038578" lon="7.3527228"><ele>509.0</ele><time>2026-04-19T08:19:29.417Z</time></trkpt><trkpt lat="45.0386875" lon="7.3527129"><ele>509.0</ele><time>2026-04-19T08:19:30.417Z</time></trkpt><trkpt lat="45.0387868" lon="7.3527062"><ele>509.0</ele><time>2026-04-19T08:19:31.417Z</time></trkpt><trkpt lat="45.0388962" lon="7.3527112"><ele>509.0</ele><time>2026-04-19T08:19:32.416Z</time></trkpt><trkpt lat="45.0389937" lon="7.3527202"><ele>509.0</ele><time>2026-04-19T08:19:33.416Z</time></trkpt><trkpt lat="45.0390916" lon="7.3527118"><ele>509.0</ele><time>2026-04-19T08:19:34.416Z</time></trkpt><trkpt lat="45.0391808" lon="7.3526974"><ele>508.99999999999994</ele><time>2026-04-19T08:19:35.416Z</time></trkpt><trkpt lat="45.0392596" lon="7.3526989"><ele>509.0</ele><time>2026-04-19T08:19:36.417Z</time></trkpt><trkpt lat="45.039336" lon="7.3526997"><ele>509.0</ele><time>2026-04-19T08:19:37.417Z</time></trkpt><trkpt lat="45.0394053" lon="7.3526956"><ele>509.0</ele><time>2026-04-19T08:19:38.417Z</time></trkpt><trkpt lat="45.0394747" lon="7.3527086"><ele>508.99999999999994</ele><time>2026-04-19T08:19:39.417Z</time></trkpt><trkpt lat="45.0395411" lon="7.3527122"><ele>509.0</ele><time>2026-04-19T08:19:40.417Z</time></trkpt><trkpt lat="45.0396492" lon="7.352708"><ele>509.0</ele><time>2026-04-19T08:19:42.416Z</time></trkpt><trkpt lat="45.0397689" lon="7.3526941"><ele>509.0</ele><time>2026-04-19T08:19:44.417Z</time></trkpt><trkpt lat="45.039849" lon="7.3526977"><ele>509.0</ele><time>2026-04-19T08:19:46.417Z</time></trkpt><trkpt lat="45.0399134" lon="7.3526805"><ele>509.0</ele><time>2026-04-19T08:19:48.417Z</time></trkpt><trkpt lat="45.0399944" lon="7.3526753"><ele>509.0</ele><time>2026-04-19T08:19:50.417Z</time></trkpt><trkpt lat="45.0401042" lon="7.3526812"><ele>508.49999999999994</ele><time>2026-04-19T08:19:52.416Z</time></trkpt><trkpt lat="45.0402235" lon="7.3526769"><ele>508.0</ele><time>2026-04-19T08:19:54.416Z</time></trkpt><trkpt lat="45.0402974" lon="7.3526614"><ele>507.5</ele><time>2026-04-19T08:19:55.417Z</time></trkpt><trkpt lat="45.040374" lon="7.3526552"><ele>507.0</ele><time>2026-04-19T08:19:56.417Z</time></trkpt><trkpt lat="45.0404512" lon="7.3526587"><ele>506.49999999999994</ele><time>2026-04-19T08:19:57.416Z</time></trkpt><trkpt lat="45.0405239" lon="7.3526568"><ele>506.0</ele><time>2026-04-19T08:19:58.416Z</time></trkpt><trkpt lat="45.0406037" lon="7.3526467"><ele>505.99999999999994</ele><time>2026-04-19T08:19:59.417Z</time></trkpt><trkpt lat="45.0406854" lon="7.3526305"><ele>506.0</ele><time>2026-04-19T08:20:00.417Z</time></trkpt><trkpt lat="45.0407699" lon="7.3526077"><ele>506.0</ele><time>2026-04-19T08:20:01.417Z</time></trkpt><trkpt lat="45.0408533" lon="7.3525834"><ele>506.0</ele><time>2026-04-19T08:20:02.417Z</time></trkpt><trkpt lat="45.0409361" lon="7.3525599"><ele>505.99999999999994</ele><time>2026-04-19T08:20:03.416Z</time></trkpt><trkpt lat="45.0410175" lon="7.3525444"><ele>506.0</ele><time>2026-04-19T08:20:04.417Z</time></trkpt><trkpt lat="45.0411186" lon="7.35253"><ele>506.16666666666663</ele><time>2026-04-19T08:20:06.417Z</time></trkpt><trkpt lat="45.0412222" lon="7.352584"><ele>506.3333333333333</ele><time>2026-04-19T08:20:18.417Z</time></trkpt><trkpt lat="45.0412901" lon="7.3526687"><ele>506.5</ele><time>2026-04-19T08:20:21.417Z</time></trkpt><trkpt lat="45.0413272" lon="7.3527453"><ele>506.66666666666663</ele><time>2026-04-19T08:20:23.417Z</time></trkpt><trkpt lat="45.0413792" lon="7.3528045"><ele>506.8333333333333</ele><time>2026-04-19T08:20:27.417Z</time></trkpt><trkpt lat="45.0414402" lon="7.3527513"><ele>507.0</ele><time>2026-04-19T08:20:34.417Z</time></trkpt><trkpt lat="45.0415279" lon="7.3526685"><ele>507.0</ele><time>2026-04-19T08:20:36.417Z</time></trkpt><trkpt lat="45.0415985" lon="7.3526257"><ele>507.00000000000006</ele><time>2026-04-19T08:20:38.417Z</time></trkpt><trkpt lat="45.0416969" lon="7.3525884"><ele>507.00000000000006</ele><time>2026-04-19T08:20:40.417Z</time></trkpt><trkpt lat="45.0417658" lon="7.3525776"><ele>507.0</ele><time>2026-04-19T08:20:41.416Z</time></trkpt><trkpt lat="45.0418831" lon="7.3525825"><ele>507.0</ele><time>2026-04-19T08:20:43.417Z</time></trkpt><trkpt lat="45.0419777" lon="7.3525758"><ele>507.6</ele><time>2026-04-19T08:20:45.416Z</time></trkpt><trkpt lat="45.0420414" lon="7.3525024"><ele>508.20000000000005</ele><time>2026-04-19T08:20:47.417Z</time></trkpt><trkpt lat="45.0419783" lon="7.3524165"><ele>508.8</ele><time>2026-04-19T08:20:50.417Z</time></trkpt><trkpt lat="45.0418668" lon="7.3524358"><ele>509.4</ele><time>2026-04-19T08:20:52.417Z</time></trkpt><trkpt lat="45.0417609" lon="7.3524877"><ele>510.0</ele><time>2026-04-19T08:20:54.417Z</time></trkpt><trkpt lat="45.0416467" lon="7.3525225"><ele>509.4</ele><time>2026-04-19T08:20:56.417Z</time></trkpt><trkpt lat="45.041542" lon="7.3525619"><ele>508.8</ele><time>2026-04-19T08:20:58.417Z</time></trkpt><trkpt lat="45.0414472" lon="7.3525832"><ele>508.20000000000005</ele><time>2026-04-19T08:21:00.417Z</time></trkpt><trkpt lat="45.0413449" lon="7.3526321"><ele>507.6</ele><time>2026-04-19T08:21:02.416Z</time></trkpt><trkpt lat="45.0412901" lon="7.3527577"><ele>507.0</ele><time>2026-04-19T08:21:04.416Z</time></trkpt><trkpt lat="45.0412522" lon="7.3529025"><ele>507.0</ele><time>2026-04-19T08:21:06.417Z</time></trkpt><trkpt lat="45.041224" lon="7.3529877"><ele>507.0</ele><time>2026-04-19T08:21:07.417Z</time></trkpt><trkpt lat="45.0411986" lon="7.3530712"><ele>507.0</ele><time>2026-04-19T08:21:08.417Z</time></trkpt><trkpt lat="45.0411769" lon="7.3531675"><ele>507.0</ele><time>2026-04-19T08:21:09.416Z</time></trkpt><trkpt lat="45.0411397" lon="7.3532457"><ele>507.0</ele><time>2026-04-19T08:21:10.417Z</time></trkpt><trkpt lat="45.0410797" lon="7.3534032"><ele>507.0</ele><time>2026-04-19T08:21:12.417Z</time></trkpt><trkpt lat="45.0410474" lon="7.3534805"><ele>507.0</ele><time>2026-04-19T08:21:13.417Z</time></trkpt><trkpt lat="45.0410181" lon="7.3535599"><ele>507.0</ele><time>2026-04-19T08:21:14.417Z</time></trkpt><trkpt lat="45.040956" lon="7.3537206"><ele>507.0</ele><time>2026-04-19T08:21:16.417Z</time></trkpt><trkpt lat="45.0409166" lon="7.3538078"><ele>507.0</ele><time>2026-04-19T08:21:17.417Z</time></trkpt><trkpt lat="45.0408804" lon="7.3539018"><ele>507.0</ele><time>2026-04-19T08:21:18.417Z</time></trkpt><trkpt lat="45.0408396" lon="7.3539971"><ele>507.0</ele><time>2026-04-19T08:21:19.417Z</time></trkpt><trkpt lat="45.040792" lon="7.3541023"><ele>506.5</ele><time>2026-04-19T08:21:20.417Z</time></trkpt><trkpt lat="45.0407524" lon="7.3542041"><ele>506.0</ele><time>2026-04-19T08:21:21.416Z</time></trkpt><trkpt lat="45.0407098" lon="7.354303"><ele>505.5</ele><time>2026-04-19T08:21:22.417Z</time></trkpt><trkpt lat="45.0406744" lon="7.3543989"><ele>505.0</ele><time>2026-04-19T08:21:23.416Z</time></trkpt><trkpt lat="45.0406348" lon="7.3544922"><ele>504.5</ele><time>2026-04-19T08:21:24.417Z</time></trkpt><trkpt lat="45.0405959" lon="7.354574"><ele>504.0</ele><time>2026-04-19T08:21:25.416Z</time></trkpt><trkpt lat="45.0405629" lon="7.3546572"><ele>503.8333333333333</ele><time>2026-04-19T08:21:26.417Z</time></trkpt><trkpt lat="45.0405308" lon="7.3547461"><ele>503.66666666666663</ele><time>2026-04-19T08:21:27.417Z</time></trkpt><trkpt lat="45.0405014" lon="7.354856"><ele>503.5</ele><time>2026-04-19T08:21:28.417Z</time></trkpt><trkpt lat="45.0404761" lon="7.3549678"><ele>503.3333333333333</ele><time>2026-04-19T08:21:29.416Z</time></trkpt><trkpt lat="45.0404463" lon="7.3550953"><ele>503.16666666666663</ele><time>2026-04-19T08:21:30.416Z</time></trkpt><trkpt lat="45.0404259" lon="7.3552424"><ele>503.0</ele><time>2026-04-19T08:21:31.416Z</time></trkpt><trkpt lat="45.0404094" lon="7.3554034"><ele>502.0</ele><time>2026-04-19T08:21:32.417Z</time></trkpt><trkpt lat="45.0403991" lon="7.3555673"><ele>501.0</ele><time>2026-04-19T08:21:33.416Z</time></trkpt><trkpt lat="45.0403976" lon="7.35574"><ele>500.0</ele><time>2026-04-19T08:21:34.417Z</time></trkpt><trkpt lat="45.0403962" lon="7.3559205"><ele>499.0</ele><time>2026-04-19T08:21:35.416Z</time></trkpt><trkpt lat="45.0403945" lon="7.3561025"><ele>499.0</ele><time>2026-04-19T08:21:36.417Z</time></trkpt><trkpt lat="45.040393" lon="7.3562904"><ele>499.0</ele><time>2026-04-19T08:21:37.417Z</time></trkpt><trkpt lat="45.0403914" lon="7.3564797"><ele>499.0</ele><time>2026-04-19T08:21:38.417Z</time></trkpt><trkpt lat="45.0403896" lon="7.3566656"><ele>499.0</ele><time>2026-04-19T08:21:39.417Z</time></trkpt><trkpt lat="45.0403915" lon="7.3568475"><ele>498.5</ele><time>2026-04-19T08:21:40.417Z</time></trkpt><trkpt lat="45.0404014" lon="7.3570244"><ele>498.0</ele><time>2026-04-19T08:21:41.417Z</time></trkpt><trkpt lat="45.0404216" lon="7.3571964"><ele>497.5</ele><time>2026-04-19T08:21:42.417Z</time></trkpt><trkpt lat="45.0404537" lon="7.3573734"><ele>497.0</ele><time>2026-04-19T08:21:43.416Z</time></trkpt><trkpt lat="45.0404903" lon="7.3575566"><ele>496.25</ele><time>2026-04-19T08:21:44.417Z</time></trkpt><trkpt lat="45.0405361" lon="7.3577452"><ele>495.5</ele><time>2026-04-19T08:21:45.417Z</time></trkpt><trkpt lat="45.0405847" lon="7.3579335"><ele>494.75</ele><time>2026-04-19T08:21:46.416Z</time></trkpt><trkpt lat="45.040633" lon="7.3581125"><ele>494.0</ele><time>2026-04-19T08:21:47.417Z</time></trkpt><trkpt lat="45.0406845" lon="7.3582985"><ele>493.5</ele><time>2026-04-19T08:21:48.416Z</time></trkpt><trkpt lat="45.0407324" lon="7.3584767"><ele>493.0</ele><time>2026-04-19T08:21:49.417Z</time></trkpt><trkpt lat="45.0407807" lon="7.3586482"><ele>492.5</ele><time>2026-04-19T08:21:50.416Z</time></trkpt><trkpt lat="45.0408228" lon="7.3588131"><ele>492.0</ele><time>2026-04-19T08:21:51.417Z</time></trkpt><trkpt lat="45.0408644" lon="7.3589733"><ele>493.5</ele><time>2026-04-19T08:21:52.417Z</time></trkpt><trkpt lat="45.0409102" lon="7.3591315"><ele>495.0</ele><time>2026-04-19T08:21:53.416Z</time></trkpt><trkpt lat="45.0409515" lon="7.3592834"><ele>496.5</ele><time>2026-04-19T08:21:54.417Z</time></trkpt><trkpt lat="45.0409915" lon="7.3594323"><ele>498.0</ele><time>2026-04-19T08:21:55.417Z</time></trkpt><trkpt lat="45.0410284" lon="7.3595704"><ele>498.0</ele><time>2026-04-19T08:21:56.417Z</time></trkpt><trkpt lat="45.0410636" lon="7.359698"><ele>498.0</ele><time>2026-04-19T08:21:57.417Z</time></trkpt><trkpt lat="45.0410943" lon="7.35982"><ele>498.0</ele><time>2026-04-19T08:21:58.417Z</time></trkpt><trkpt lat="45.0411267" lon="7.3599397"><ele>498.0</ele><time>2026-04-19T08:21:59.416Z</time></trkpt><trkpt lat="45.0411551" lon="7.3600542"><ele>498.0</ele><time>2026-04-19T08:22:00.417Z</time></trkpt><trkpt lat="45.0411796" lon="7.3601689"><ele>498.0</ele><time>2026-04-19T08:22:01.417Z</time></trkpt><trkpt lat="45.0411989" lon="7.3602828"><ele>498.0</ele><time>2026-04-19T08:22:02.417Z</time></trkpt><trkpt lat="45.0412147" lon="7.3603918"><ele>498.0</ele><time>2026-04-19T08:22:03.417Z</time></trkpt><trkpt lat="45.0412323" lon="7.3605013"><ele>498.0</ele><time>2026-04-19T08:22:04.416Z</time></trkpt><trkpt lat="45.0412476" lon="7.3606081"><ele>498.0</ele><time>2026-04-19T08:22:05.416Z</time></trkpt><trkpt lat="45.0412598" lon="7.3607153"><ele>498.0</ele><time>2026-04-19T08:22:06.417Z</time></trkpt><trkpt lat="45.0412614" lon="7.3608309"><ele>498.0</ele><time>2026-04-19T08:22:07.417Z</time></trkpt><trkpt lat="45.0412528" lon="7.3609541"><ele>498.0</ele><time>2026-04-19T08:22:08.417Z</time></trkpt><trkpt lat="45.0412474" lon="7.3610724"><ele>498.0</ele><time>2026-04-19T08:22:09.417Z</time></trkpt><trkpt lat="45.0412405" lon="7.3611873"><ele>498.0</ele><time>2026-04-19T08:22:10.417Z</time></trkpt><trkpt lat="45.0412541" lon="7.3612948"><ele>498.0</ele><time>2026-04-19T08:22:11.417Z</time></trkpt><trkpt lat="45.0412914" lon="7.3613904"><ele>498.0</ele><time>2026-04-19T08:22:12.417Z</time></trkpt><trkpt lat="45.0413385" lon="7.361483"><ele>498.0</ele><time>2026-04-19T08:22:13.417Z</time></trkpt><trkpt lat="45.0413701" lon="7.3615879"><ele>497.5</ele><time>2026-04-19T08:22:14.417Z</time></trkpt><trkpt lat="45.0413863" lon="7.3617023"><ele>497.0</ele><time>2026-04-19T08:22:15.417Z</time></trkpt><trkpt lat="45.0414051" lon="7.3618187"><ele>496.5</ele><time>2026-04-19T08:22:16.417Z</time></trkpt><trkpt lat="45.0414265" lon="7.3619421"><ele>496.0</ele><time>2026-04-19T08:22:17.417Z</time></trkpt><trkpt lat="45.041444" lon="7.3620711"><ele>495.5</ele><time>2026-04-19T08:22:18.417Z</time></trkpt><trkpt lat="45.0414595" lon="7.3622077"><ele>495.0</ele><time>2026-04-19T08:22:19.416Z</time></trkpt><trkpt lat="45.0414799" lon="7.3623456"><ele>494.8</ele><time>2026-04-19T08:22:20.417Z</time></trkpt><trkpt lat="45.0414988" lon="7.362485"><ele>494.6</ele><time>2026-04-19T08:22:21.417Z</time></trkpt><trkpt lat="45.041516" lon="7.3626178"><ele>494.4</ele><time>2026-04-19T08:22:22.417Z</time></trkpt><trkpt lat="45.0415327" lon="7.3627541"><ele>494.2</ele><time>2026-04-19T08:22:23.417Z</time></trkpt><trkpt lat="45.0415504" lon="7.3628854"><ele>494.0</ele><time>2026-04-19T08:22:24.417Z</time></trkpt><trkpt lat="45.0415649" lon="7.3630129"><ele>493.8333333333333</ele><time>2026-04-19T08:22:25.417Z</time></trkpt><trkpt lat="45.0415759" lon="7.3631367"><ele>493.66666666666663</ele><time>2026-04-19T08:22:26.417Z</time></trkpt><trkpt lat="45.0415892" lon="7.3632621"><ele>493.5</ele><time>2026-04-19T08:22:27.416Z</time></trkpt><trkpt lat="45.0416036" lon="7.3633758"><ele>493.33333333333337</ele><time>2026-04-19T08:22:28.417Z</time></trkpt><trkpt lat="45.0416117" lon="7.3634798"><ele>493.1666666666667</ele><time>2026-04-19T08:22:29.416Z</time></trkpt><trkpt lat="45.0416152" lon="7.3635818"><ele>493.0</ele><time>2026-04-19T08:22:30.417Z</time></trkpt><trkpt lat="45.0416107" lon="7.3636898"><ele>493.00000000000006</ele><time>2026-04-19T08:22:31.416Z</time></trkpt><trkpt lat="45.0415941" lon="7.3637952"><ele>493.0</ele><time>2026-04-19T08:22:32.416Z</time></trkpt><trkpt lat="45.0415929" lon="7.3638999"><ele>493.0</ele><time>2026-04-19T08:22:33.417Z</time></trkpt><trkpt lat="45.0416108" lon="7.364002"><ele>493.0</ele><time>2026-04-19T08:22:34.416Z</time></trkpt><trkpt lat="45.0416464" lon="7.3640983"><ele>493.00000000000006</ele><time>2026-04-19T08:22:35.417Z</time></trkpt><trkpt lat="45.0416864" lon="7.3642106"><ele>493.0</ele><time>2026-04-19T08:22:36.417Z</time></trkpt><trkpt lat="45.0417219" lon="7.364326"><ele>492.59999999999997</ele><time>2026-04-19T08:22:37.417Z</time></trkpt><trkpt lat="45.0417436" lon="7.3644525"><ele>492.19999999999993</ele><time>2026-04-19T08:22:38.416Z</time></trkpt><trkpt lat="45.0417614" lon="7.3645906"><ele>491.8</ele><time>2026-04-19T08:22:39.416Z</time></trkpt><trkpt lat="45.0417725" lon="7.3647336"><ele>491.4</ele><time>2026-04-19T08:22:40.417Z</time></trkpt><trkpt lat="45.041791" lon="7.364882"><ele>491.0</ele><time>2026-04-19T08:22:41.417Z</time></trkpt><trkpt lat="45.0418071" lon="7.36503"><ele>490.4</ele><time>2026-04-19T08:22:42.417Z</time></trkpt><trkpt lat="45.0418223" lon="7.3651781"><ele>489.8</ele><time>2026-04-19T08:22:43.417Z</time></trkpt><trkpt lat="45.0418376" lon="7.3653296"><ele>489.19999999999993</ele><time>2026-04-19T08:22:44.417Z</time></trkpt><trkpt lat="45.0418544" lon="7.3654829"><ele>488.59999999999997</ele><time>2026-04-19T08:22:45.416Z</time></trkpt><trkpt lat="45.041871" lon="7.3656402"><ele>488.0</ele><time>2026-04-19T08:22:46.417Z</time></trkpt><trkpt lat="45.0418951" lon="7.3658055"><ele>487.75</ele><time>2026-04-19T08:22:47.416Z</time></trkpt><trkpt lat="45.0419149" lon="7.3659711"><ele>487.5</ele><time>2026-04-19T08:22:48.417Z</time></trkpt><trkpt lat="45.0419339" lon="7.3661362"><ele>487.25</ele><time>2026-04-19T08:22:49.417Z</time></trkpt><trkpt lat="45.0419582" lon="7.3662925"><ele>487.0</ele><time>2026-04-19T08:22:50.416Z</time></trkpt><trkpt lat="45.0419841" lon="7.3664493"><ele>486.8</ele><time>2026-04-19T08:22:51.417Z</time></trkpt><trkpt lat="45.0420062" lon="7.3666045"><ele>486.6</ele><time>2026-04-19T08:22:52.417Z</time></trkpt><trkpt lat="45.0420293" lon="7.3667548"><ele>486.40000000000003</ele><time>2026-04-19T08:22:53.417Z</time></trkpt><trkpt lat="45.0420542" lon="7.3669085"><ele>486.20000000000005</ele><time>2026-04-19T08:22:54.417Z</time></trkpt><trkpt lat="45.0420726" lon="7.3670621"><ele>486.0</ele><time>2026-04-19T08:22:55.417Z</time></trkpt><trkpt lat="45.0420919" lon="7.3672124"><ele>486.0</ele><time>2026-04-19T08:22:56.417Z</time></trkpt><trkpt lat="45.0421111" lon="7.3673605"><ele>486.0</ele><time>2026-04-19T08:22:57.417Z</time></trkpt><trkpt lat="45.0421259" lon="7.3674939"><ele>486.0</ele><time>2026-04-19T08:22:58.417Z</time></trkpt><trkpt lat="45.0421334" lon="7.3676104"><ele>486.0</ele><time>2026-04-19T08:22:59.417Z</time></trkpt><trkpt lat="45.0421256" lon="7.3677274"><ele>486.0</ele><time>2026-04-19T08:23:00.417Z</time></trkpt><trkpt lat="45.0420943" lon="7.367835"><ele>486.0</ele><time>2026-04-19T08:23:01.417Z</time></trkpt><trkpt lat="45.0420648" lon="7.3679461"><ele>486.0</ele><time>2026-04-19T08:23:02.417Z</time></trkpt><trkpt lat="45.0420474" lon="7.3680616"><ele>486.0</ele><time>2026-04-19T08:23:03.417Z</time></trkpt><trkpt lat="45.0420612" lon="7.3681813"><ele>486.0</ele><time>2026-04-19T08:23:04.417Z</time></trkpt><trkpt lat="45.0420969" lon="7.3683022"><ele>486.0</ele><time>2026-04-19T08:23:05.417Z</time></trkpt><trkpt lat="45.0421504" lon="7.368396"><ele>486.0</ele><time>2026-04-19T08:23:06.417Z</time></trkpt><trkpt lat="45.0422096" lon="7.3685162"><ele>486.0</ele><time>2026-04-19T08:23:07.416Z</time></trkpt><trkpt lat="45.0422518" lon="7.3686566"><ele>486.0</ele><time>2026-04-19T08:23:08.417Z</time></trkpt><trkpt lat="45.0422767" lon="7.368812"><ele>486.0</ele><time>2026-04-19T08:23:09.416Z</time></trkpt><trkpt lat="45.042293" lon="7.3689861"><ele>486.0</ele><time>2026-04-19T08:23:10.417Z</time></trkpt><trkpt lat="45.0423067" lon="7.3691713"><ele>486.0</ele><time>2026-04-19T08:23:11.417Z</time></trkpt><trkpt lat="45.042319" lon="7.3693554"><ele>486.0</ele><time>2026-04-19T08:23:12.417Z</time></trkpt><trkpt lat="45.0423165" lon="7.3695478"><ele>486.0</ele><time>2026-04-19T08:23:13.417Z</time></trkpt><trkpt lat="45.0423028" lon="7.3697511"><ele>486.0</ele><time>2026-04-19T08:23:14.417Z</time></trkpt><trkpt lat="45.0422759" lon="7.3699589"><ele>485.0</ele><time>2026-04-19T08:23:15.417Z</time></trkpt><trkpt lat="45.0422352" lon="7.3701561"><ele>484.0</ele><time>2026-04-19T08:23:16.417Z</time></trkpt><trkpt lat="45.0421867" lon="7.370349"><ele>483.0</ele><time>2026-04-19T08:23:17.417Z</time></trkpt><trkpt lat="45.042129" lon="7.3705216"><ele>482.0</ele><time>2026-04-19T08:23:18.417Z</time></trkpt><trkpt lat="45.0420717" lon="7.3707029"><ele>481.0</ele><time>2026-04-19T08:23:19.417Z</time></trkpt><trkpt lat="45.0420116" lon="7.3708892"><ele>480.0</ele><time>2026-04-19T08:23:20.416Z</time></trkpt><trkpt lat="45.0419521" lon="7.3710713"><ele>479.0</ele><time>2026-04-19T08:23:21.417Z</time></trkpt><trkpt lat="45.0418942" lon="7.3712606"><ele>478.0</ele><time>2026-04-19T08:23:22.417Z</time></trkpt><trkpt lat="45.0418339" lon="7.3714506"><ele>476.33333333333337</ele><time>2026-04-19T08:23:23.417Z</time></trkpt><trkpt lat="45.0417706" lon="7.3716449"><ele>474.66666666666663</ele><time>2026-04-19T08:23:24.417Z</time></trkpt><trkpt lat="45.0417081" lon="7.3718427"><ele>473.0</ele><time>2026-04-19T08:23:25.417Z</time></trkpt><trkpt lat="45.0416405" lon="7.3720423"><ele>474.0</ele><time>2026-04-19T08:23:26.417Z</time></trkpt><trkpt lat="45.0415726" lon="7.372247"><ele>475.0</ele><time>2026-04-19T08:23:27.417Z</time></trkpt><trkpt lat="45.0415019" lon="7.372461"><ele>476.0</ele><time>2026-04-19T08:23:28.416Z</time></trkpt><trkpt lat="45.0414308" lon="7.3726732"><ele>476.0</ele><time>2026-04-19T08:23:29.417Z</time></trkpt><trkpt lat="45.0413601" lon="7.3728811"><ele>476.0</ele><time>2026-04-19T08:23:30.417Z</time></trkpt><trkpt lat="45.0412895" lon="7.3730902"><ele>476.0</ele><time>2026-04-19T08:23:31.417Z</time></trkpt><trkpt lat="45.0412215" lon="7.3732954"><ele>475.0</ele><time>2026-04-19T08:23:32.417Z</time></trkpt><trkpt lat="45.0411517" lon="7.3734974"><ele>474.0</ele><time>2026-04-19T08:23:33.417Z</time></trkpt><trkpt lat="45.0410813" lon="7.3737001"><ele>473.0</ele><time>2026-04-19T08:23:34.417Z</time></trkpt><trkpt lat="45.0410109" lon="7.3738966"><ele>471.66666666666663</ele><time>2026-04-19T08:23:35.417Z</time></trkpt><trkpt lat="45.0409438" lon="7.3740993"><ele>470.33333333333337</ele><time>2026-04-19T08:23:36.417Z</time></trkpt><trkpt lat="45.0408767" lon="7.3742987"><ele>469.0</ele><time>2026-04-19T08:23:37.417Z</time></trkpt><trkpt lat="45.0408175" lon="7.3744938"><ele>469.33333333333337</ele><time>2026-04-19T08:23:38.417Z</time></trkpt><trkpt lat="45.0407714" lon="7.3746976"><ele>469.66666666666663</ele><time>2026-04-19T08:23:39.417Z</time></trkpt><trkpt lat="45.0407355" lon="7.3749059"><ele>470.0</ele><time>2026-04-19T08:23:40.417Z</time></trkpt><trkpt lat="45.0407211" lon="7.3751217"><ele>470.0</ele><time>2026-04-19T08:23:41.416Z</time></trkpt><trkpt lat="45.0407451" lon="7.3753436"><ele>470.0</ele><time>2026-04-19T08:23:42.417Z</time></trkpt><trkpt lat="45.0407905" lon="7.3755588"><ele>470.0</ele><time>2026-04-19T08:23:43.416Z</time></trkpt><trkpt lat="45.0408531" lon="7.3757796"><ele>468.25</ele><time>2026-04-19T08:23:44.416Z</time></trkpt><trkpt lat="45.0409039" lon="7.3759964"><ele>466.5</ele><time>2026-04-19T08:23:45.417Z</time></trkpt><trkpt lat="45.0409452" lon="7.376169"><ele>464.75</ele><time>2026-04-19T08:23:46.416Z</time></trkpt><trkpt lat="45.0409755" lon="7.3763264"><ele>463.0</ele><time>2026-04-19T08:23:47.417Z</time></trkpt><trkpt lat="45.0409966" lon="7.3764866"><ele>463.0</ele><time>2026-04-19T08:23:48.416Z</time></trkpt><trkpt lat="45.0410201" lon="7.3766572"><ele>463.0</ele><time>2026-04-19T08:23:49.416Z</time></trkpt><trkpt lat="45.0410404" lon="7.3768513"><ele>463.0</ele><time>2026-04-19T08:23:50.417Z</time></trkpt><trkpt lat="45.0410494" lon="7.3770636"><ele>463.0</ele><time>2026-04-19T08:23:51.417Z</time></trkpt><trkpt lat="45.041049" lon="7.3772821"><ele>462.6666666666667</ele><time>2026-04-19T08:23:52.417Z</time></trkpt><trkpt lat="45.0410315" lon="7.3775089"><ele>462.33333333333337</ele><time>2026-04-19T08:23:53.417Z</time></trkpt><trkpt lat="45.0410039" lon="7.3777483"><ele>462.0</ele><time>2026-04-19T08:23:54.417Z</time></trkpt><trkpt lat="45.0409679" lon="7.3779963"><ele>461.33333333333337</ele><time>2026-04-19T08:23:55.417Z</time></trkpt><trkpt lat="45.0409246" lon="7.378259"><ele>460.6666666666667</ele><time>2026-04-19T08:23:56.416Z</time></trkpt><trkpt lat="45.0408821" lon="7.3785252"><ele>460.0</ele><time>2026-04-19T08:23:57.417Z</time></trkpt><trkpt lat="45.0408407" lon="7.3787991"><ele>458.33333333333337</ele><time>2026-04-19T08:23:58.417Z</time></trkpt><trkpt lat="45.040798" lon="7.3790807"><ele>456.66666666666663</ele><time>2026-04-19T08:23:59.417Z</time></trkpt><trkpt lat="45.040754" lon="7.3793643"><ele>455.0</ele><time>2026-04-19T08:24:00.417Z</time></trkpt><trkpt lat="45.0407089" lon="7.3796493"><ele>454.3333333333333</ele><time>2026-04-19T08:24:01.417Z</time></trkpt><trkpt lat="45.0406645" lon="7.3799292"><ele>453.66666666666663</ele><time>2026-04-19T08:24:02.417Z</time></trkpt><trkpt lat="45.0406166" lon="7.3802099"><ele>453.0</ele><time>2026-04-19T08:24:03.416Z</time></trkpt><trkpt lat="45.0405547" lon="7.380484"><ele>452.33333333333337</ele><time>2026-04-19T08:24:04.417Z</time></trkpt><trkpt lat="45.0404671" lon="7.3807521"><ele>451.6666666666667</ele><time>2026-04-19T08:24:05.417Z</time></trkpt><trkpt lat="45.0403818" lon="7.3810156"><ele>451.0</ele><time>2026-04-19T08:24:06.417Z</time></trkpt><trkpt lat="45.0402915" lon="7.381281"><ele>451.0</ele><time>2026-04-19T08:24:07.416Z</time></trkpt><trkpt lat="45.0401993" lon="7.3815523"><ele>451.0</ele><time>2026-04-19T08:24:08.417Z</time></trkpt><trkpt lat="45.0401066" lon="7.3818212"><ele>451.0</ele><time>2026-04-19T08:24:09.417Z</time></trkpt><trkpt lat="45.0400152" lon="7.3820901"><ele>451.0</ele><time>2026-04-19T08:24:10.416Z</time></trkpt><trkpt lat="45.0399193" lon="7.382359"><ele>451.0</ele><time>2026-04-19T08:24:11.417Z</time></trkpt><trkpt lat="45.0398233" lon="7.3826303"><ele>451.0</ele><time>2026-04-19T08:24:12.417Z</time></trkpt><trkpt lat="45.0397294" lon="7.3829045"><ele>449.6666666666667</ele><time>2026-04-19T08:24:13.417Z</time></trkpt><trkpt lat="45.0396367" lon="7.383178"><ele>448.33333333333337</ele><time>2026-04-19T08:24:14.417Z</time></trkpt><trkpt lat="45.039544" lon="7.3834534"><ele>447.0</ele><time>2026-04-19T08:24:15.417Z</time></trkpt><trkpt lat="45.0394491" lon="7.383726"><ele>446.33333333333337</ele><time>2026-04-19T08:24:16.417Z</time></trkpt><trkpt lat="45.0393557" lon="7.383987"><ele>445.6666666666667</ele><time>2026-04-19T08:24:17.417Z</time></trkpt><trkpt lat="45.0392675" lon="7.3842413"><ele>445.0</ele><time>2026-04-19T08:24:18.416Z</time></trkpt><trkpt lat="45.0391831" lon="7.384487"><ele>444.0</ele><time>2026-04-19T08:24:19.417Z</time></trkpt><trkpt lat="45.0391009" lon="7.3847331"><ele>443.0</ele><time>2026-04-19T08:24:20.416Z</time></trkpt><trkpt lat="45.0390178" lon="7.3849695"><ele>442.0</ele><time>2026-04-19T08:24:21.417Z</time></trkpt><trkpt lat="45.0389283" lon="7.3852008"><ele>442.0</ele><time>2026-04-19T08:24:22.417Z</time></trkpt><trkpt lat="45.0388148" lon="7.3854051"><ele>442.0</ele><time>2026-04-19T08:24:23.416Z</time></trkpt><trkpt lat="45.0386819" lon="7.3855897"><ele>442.0</ele><time>2026-04-19T08:24:24.417Z</time></trkpt><trkpt lat="45.0385392" lon="7.3857647"><ele>441.33333333333337</ele><time>2026-04-19T08:24:25.417Z</time></trkpt><trkpt lat="45.0383838" lon="7.3859158"><ele>440.66666666666663</ele><time>2026-04-19T08:24:26.417Z</time></trkpt><trkpt lat="45.0382207" lon="7.3860631"><ele>440.0</ele><time>2026-04-19T08:24:27.417Z</time></trkpt><trkpt lat="45.0380515" lon="7.3862039"><ele>439.3333333333333</ele><time>2026-04-19T08:24:28.416Z</time></trkpt><trkpt lat="45.037881" lon="7.3863389"><ele>438.66666666666663</ele><time>2026-04-19T08:24:29.416Z</time></trkpt><trkpt lat="45.0377093" lon="7.3864903"><ele>438.0</ele><time>2026-04-19T08:24:30.416Z</time></trkpt><trkpt lat="45.0375369" lon="7.3866442"><ele>439.0</ele><time>2026-04-19T08:24:31.416Z</time></trkpt><trkpt lat="45.0373622" lon="7.3868006"><ele>440.0</ele><time>2026-04-19T08:24:32.416Z</time></trkpt><trkpt lat="45.0371882" lon="7.386952"><ele>441.0</ele><time>2026-04-19T08:24:33.416Z</time></trkpt><trkpt lat="45.0370086" lon="7.3871071"><ele>438.33333333333337</ele><time>2026-04-19T08:24:34.415Z</time></trkpt><trkpt lat="45.0368314" lon="7.3872696"><ele>435.6666666666667</ele><time>2026-04-19T08:24:35.415Z</time></trkpt><trkpt lat="45.0366563" lon="7.3874316"><ele>433.0</ele><time>2026-04-19T08:24:36.416Z</time></trkpt><trkpt lat="45.0364807" lon="7.3875928"><ele>433.0</ele><time>2026-04-19T08:24:37.416Z</time></trkpt><trkpt lat="45.0363155" lon="7.3877756"><ele>433.0</ele><time>2026-04-19T08:24:38.416Z</time></trkpt><trkpt lat="45.0361685" lon="7.3879807"><ele>433.0</ele><time>2026-04-19T08:24:39.416Z</time></trkpt><trkpt lat="45.0360403" lon="7.3882044"><ele>432.0</ele><time>2026-04-19T08:24:40.416Z</time></trkpt><trkpt lat="45.035931" lon="7.3884472"><ele>431.0</ele><time>2026-04-19T08:24:41.416Z</time></trkpt><trkpt lat="45.0358537" lon="7.3887124"><ele>430.0</ele><time>2026-04-19T08:24:42.416Z</time></trkpt><trkpt lat="45.0357857" lon="7.3889876"><ele>428.33333333333337</ele><time>2026-04-19T08:24:43.416Z</time></trkpt><trkpt lat="45.0357376" lon="7.3892759"><ele>426.66666666666663</ele><time>2026-04-19T08:24:44.416Z</time></trkpt><trkpt lat="45.0357093" lon="7.389579"><ele>425.0</ele><time>2026-04-19T08:24:45.415Z</time></trkpt><trkpt lat="45.0356979" lon="7.389882"><ele>423.3333333333333</ele><time>2026-04-19T08:24:46.415Z</time></trkpt><trkpt lat="45.0357061" lon="7.3901863"><ele>421.66666666666663</ele><time>2026-04-19T08:24:47.416Z</time></trkpt><trkpt lat="45.0357277" lon="7.390502"><ele>420.0</ele><time>2026-04-19T08:24:48.416Z</time></trkpt><trkpt lat="45.0357581" lon="7.3908044"><ele>420.33333333333337</ele><time>2026-04-19T08:24:49.416Z</time></trkpt><trkpt lat="45.0357924" lon="7.3910848"><ele>420.6666666666667</ele><time>2026-04-19T08:24:50.416Z</time></trkpt><trkpt lat="45.035809" lon="7.3913558"><ele>421.0</ele><time>2026-04-19T08:24:51.415Z</time></trkpt><trkpt lat="45.0358339" lon="7.3916117"><ele>421.0</ele><time>2026-04-19T08:24:52.416Z</time></trkpt><trkpt lat="45.03586" lon="7.3918529"><ele>421.0</ele><time>2026-04-19T08:24:53.416Z</time></trkpt><trkpt lat="45.0358886" lon="7.3920782"><ele>421.0</ele><time>2026-04-19T08:24:54.415Z</time></trkpt><trkpt lat="45.0359383" lon="7.3922856"><ele>420.33333333333337</ele><time>2026-04-19T08:24:55.416Z</time></trkpt><trkpt lat="45.0360027" lon="7.3925005"><ele>419.66666666666663</ele><time>2026-04-19T08:24:56.416Z</time></trkpt><trkpt lat="45.0360804" lon="7.3927083"><ele>419.0</ele><time>2026-04-19T08:24:57.416Z</time></trkpt><trkpt lat="45.0361759" lon="7.3928978"><ele>417.66666666666663</ele><time>2026-04-19T08:24:58.415Z</time></trkpt><trkpt lat="45.0362872" lon="7.3930822"><ele>416.33333333333337</ele><time>2026-04-19T08:24:59.416Z</time></trkpt><trkpt lat="45.036409" lon="7.3932631"><ele>415.0</ele><time>2026-04-19T08:25:00.416Z</time></trkpt><trkpt lat="45.0365347" lon="7.3934314"><ele>414.5</ele><time>2026-04-19T08:25:01.416Z</time></trkpt><trkpt lat="45.0366551" lon="7.3935893"><ele>414.0</ele><time>2026-04-19T08:25:02.416Z</time></trkpt><trkpt lat="45.0367627" lon="7.3937297"><ele>413.5</ele><time>2026-04-19T08:25:03.416Z</time></trkpt><trkpt lat="45.0368535" lon="7.3938635"><ele>413.0</ele><time>2026-04-19T08:25:04.416Z</time></trkpt><trkpt lat="45.0369379" lon="7.3939868"><ele>413.0</ele><time>2026-04-19T08:25:05.416Z</time></trkpt><trkpt lat="45.0370184" lon="7.3941124"><ele>413.0</ele><time>2026-04-19T08:25:06.416Z</time></trkpt><trkpt lat="45.037093" lon="7.3942546"><ele>413.0</ele><time>2026-04-19T08:25:07.416Z</time></trkpt><trkpt lat="45.0371553" lon="7.3944127"><ele>413.0</ele><time>2026-04-19T08:25:08.415Z</time></trkpt><trkpt lat="45.0372132" lon="7.3945865"><ele>412.5</ele><time>2026-04-19T08:25:09.416Z</time></trkpt><trkpt lat="45.0372519" lon="7.3947673"><ele>412.0</ele><time>2026-04-19T08:25:10.416Z</time></trkpt><trkpt lat="45.0372812" lon="7.3949668"><ele>411.5</ele><time>2026-04-19T08:25:11.415Z</time></trkpt><trkpt lat="45.0372996" lon="7.3951777"><ele>411.0</ele><time>2026-04-19T08:25:12.416Z</time></trkpt><trkpt lat="45.0373065" lon="7.3953903"><ele>411.0</ele><time>2026-04-19T08:25:13.415Z</time></trkpt><trkpt lat="45.0372874" lon="7.3956017"><ele>411.0</ele><time>2026-04-19T08:25:14.415Z</time></trkpt><trkpt lat="45.0372456" lon="7.3958182"><ele>411.0</ele><time>2026-04-19T08:25:15.416Z</time></trkpt><trkpt lat="45.037193" lon="7.3960359"><ele>411.0</ele><time>2026-04-19T08:25:16.416Z</time></trkpt><trkpt lat="45.0371237" lon="7.3962451"><ele>411.0</ele><time>2026-04-19T08:25:17.415Z</time></trkpt><trkpt lat="45.0370493" lon="7.3964398"><ele>411.0</ele><time>2026-04-19T08:25:18.416Z</time></trkpt><trkpt lat="45.0369797" lon="7.3966175"><ele>411.0</ele><time>2026-04-19T08:25:19.415Z</time></trkpt><trkpt lat="45.0369209" lon="7.3967642"><ele>411.0</ele><time>2026-04-19T08:25:20.416Z</time></trkpt><trkpt lat="45.036876" lon="7.3968835"><ele>411.0</ele><time>2026-04-19T08:25:21.416Z</time></trkpt><trkpt lat="45.0368398" lon="7.3969865"><ele>411.0</ele><time>2026-04-19T08:25:22.416Z</time></trkpt><trkpt lat="45.0368054" lon="7.3970698"><ele>411.0</ele><time>2026-04-19T08:25:23.416Z</time></trkpt><trkpt lat="45.0367776" lon="7.3971559"><ele>411.0</ele><time>2026-04-19T08:25:24.415Z</time></trkpt><trkpt lat="45.0367447" lon="7.3972341"><ele>411.75</ele><time>2026-04-19T08:25:25.416Z</time></trkpt><trkpt lat="45.036707" lon="7.3973543"><ele>412.5</ele><time>2026-04-19T08:25:26.416Z</time></trkpt><trkpt lat="45.0366505" lon="7.3974994"><ele>413.25</ele><time>2026-04-19T08:25:27.416Z</time></trkpt><trkpt lat="45.036579" lon="7.3976734"><ele>414.0</ele><time>2026-04-19T08:25:28.416Z</time></trkpt><trkpt lat="45.0364877" lon="7.3978687"><ele>411.33333333333337</ele><time>2026-04-19T08:25:29.416Z</time></trkpt><trkpt lat="45.0363972" lon="7.3980702"><ele>408.6666666666667</ele><time>2026-04-19T08:25:30.416Z</time></trkpt><trkpt lat="45.0363079" lon="7.3982854"><ele>406.0</ele><time>2026-04-19T08:25:31.416Z</time></trkpt><trkpt lat="45.0362193" lon="7.3985262"><ele>406.0</ele><time>2026-04-19T08:25:32.415Z</time></trkpt><trkpt lat="45.0361411" lon="7.3987871"><ele>406.0</ele><time>2026-04-19T08:25:33.415Z</time></trkpt><trkpt lat="45.0360676" lon="7.3990625"><ele>406.0</ele><time>2026-04-19T08:25:34.415Z</time></trkpt><trkpt lat="45.035994" lon="7.3993564"><ele>406.33333333333337</ele><time>2026-04-19T08:25:35.416Z</time></trkpt><trkpt lat="45.0359241" lon="7.3996517"><ele>406.66666666666663</ele><time>2026-04-19T08:25:36.416Z</time></trkpt><trkpt lat="45.0358607" lon="7.399937"><ele>407.0</ele><time>2026-04-19T08:25:37.416Z</time></trkpt><trkpt lat="45.0357975" lon="7.4002082"><ele>404.66666666666663</ele><time>2026-04-19T08:25:38.416Z</time></trkpt><trkpt lat="45.0357404" lon="7.4004633"><ele>402.33333333333337</ele><time>2026-04-19T08:25:39.416Z</time></trkpt><trkpt lat="45.0356859" lon="7.4007155"><ele>400.0</ele><time>2026-04-19T08:25:40.416Z</time></trkpt><trkpt lat="45.0356273" lon="7.4009592"><ele>400.0</ele><time>2026-04-19T08:25:41.416Z</time></trkpt><trkpt lat="45.0355697" lon="7.4012004"><ele>400.0</ele><time>2026-04-19T08:25:42.416Z</time></trkpt><trkpt lat="45.0355174" lon="7.4014264"><ele>400.0</ele><time>2026-04-19T08:25:43.415Z</time></trkpt><trkpt lat="45.0354687" lon="7.4016399"><ele>399.75</ele><time>2026-04-19T08:25:44.416Z</time></trkpt><trkpt lat="45.0354254" lon="7.4018341"><ele>399.5</ele><time>2026-04-19T08:25:45.416Z</time></trkpt><trkpt lat="45.0353842" lon="7.4020239"><ele>399.25</ele><time>2026-04-19T08:25:46.416Z</time></trkpt><trkpt lat="45.0353449" lon="7.4022072"><ele>399.0</ele><time>2026-04-19T08:25:47.416Z</time></trkpt><trkpt lat="45.0353035" lon="7.4023956"><ele>398.75</ele><time>2026-04-19T08:25:48.416Z</time></trkpt><trkpt lat="45.0352594" lon="7.4025869"><ele>398.5</ele><time>2026-04-19T08:25:49.416Z</time></trkpt><trkpt lat="45.0352135" lon="7.4027867"><ele>398.25</ele><time>2026-04-19T08:25:50.416Z</time></trkpt><trkpt lat="45.0351665" lon="7.4029948"><ele>398.0</ele><time>2026-04-19T08:25:51.415Z</time></trkpt><trkpt lat="45.0351123" lon="7.4031977"><ele>398.66666666666663</ele><time>2026-04-19T08:25:52.416Z</time></trkpt><trkpt lat="45.0350425" lon="7.4033978"><ele>399.33333333333337</ele><time>2026-04-19T08:25:53.415Z</time></trkpt><trkpt lat="45.0349575" lon="7.403586"><ele>400.0</ele><time>2026-04-19T08:25:54.416Z</time></trkpt><trkpt lat="45.0348398" lon="7.4037587"><ele>399.0</ele><time>2026-04-19T08:25:55.416Z</time></trkpt><trkpt lat="45.0347083" lon="7.4039232"><ele>398.0</ele><time>2026-04-19T08:25:56.416Z</time></trkpt><trkpt lat="45.0345692" lon="7.4040709"><ele>397.0</ele><time>2026-04-19T08:25:57.416Z</time></trkpt><trkpt lat="45.0344339" lon="7.4042179"><ele>397.0</ele><time>2026-04-19T08:25:58.415Z</time></trkpt><trkpt lat="45.0343112" lon="7.4043788"><ele>397.0</ele><time>2026-04-19T08:25:59.416Z</time></trkpt><trkpt lat="45.0341925" lon="7.4045675"><ele>397.0</ele><time>2026-04-19T08:26:00.415Z</time></trkpt><trkpt lat="45.0341059" lon="7.4047739"><ele>395.6666666666667</ele><time>2026-04-19T08:26:01.416Z</time></trkpt><trkpt lat="45.0340412" lon="7.4050126"><ele>394.33333333333337</ele><time>2026-04-19T08:26:02.416Z</time></trkpt><trkpt lat="45.0339883" lon="7.4052582"><ele>393.0</ele><time>2026-04-19T08:26:03.415Z</time></trkpt><trkpt lat="45.0339666" lon="7.4055051"><ele>393.0</ele><time>2026-04-19T08:26:04.416Z</time></trkpt><trkpt lat="45.0339661" lon="7.4057637"><ele>393.0</ele><time>2026-04-19T08:26:05.416Z</time></trkpt><trkpt lat="45.0340065" lon="7.4060032"><ele>393.0</ele><time>2026-04-19T08:26:06.416Z</time></trkpt><trkpt lat="45.0340765" lon="7.4062219"><ele>397.33333333333337</ele><time>2026-04-19T08:26:07.416Z</time></trkpt><trkpt lat="45.0341738" lon="7.4064227"><ele>401.6666666666667</ele><time>2026-04-19T08:26:08.416Z</time></trkpt><trkpt lat="45.0342842" lon="7.4066102"><ele>406.0</ele><time>2026-04-19T08:26:09.415Z</time></trkpt><trkpt lat="45.0344029" lon="7.4068006"><ele>406.0</ele><time>2026-04-19T08:26:10.416Z</time></trkpt><trkpt lat="45.03452" lon="7.4069986"><ele>406.0</ele><time>2026-04-19T08:26:11.416Z</time></trkpt><trkpt lat="45.0346327" lon="7.4071939"><ele>406.0</ele><time>2026-04-19T08:26:12.416Z</time></trkpt><trkpt lat="45.034757" lon="7.4073954"><ele>407.33333333333337</ele><time>2026-04-19T08:26:13.416Z</time></trkpt><trkpt lat="45.0348754" lon="7.407594"><ele>408.66666666666663</ele><time>2026-04-19T08:26:14.416Z</time></trkpt><trkpt lat="45.0349873" lon="7.4077924"><ele>410.0</ele><time>2026-04-19T08:26:15.416Z</time></trkpt><trkpt lat="45.0350894" lon="7.4079961"><ele>410.0</ele><time>2026-04-19T08:26:16.415Z</time></trkpt><trkpt lat="45.0351743" lon="7.4082112"><ele>410.0</ele><time>2026-04-19T08:26:17.416Z</time></trkpt><trkpt lat="45.0352464" lon="7.4084286"><ele>410.0</ele><time>2026-04-19T08:26:18.416Z</time></trkpt><trkpt lat="45.0353141" lon="7.4086519"><ele>411.66666666666663</ele><time>2026-04-19T08:26:19.415Z</time></trkpt><trkpt lat="45.0353778" lon="7.4088825"><ele>413.33333333333337</ele><time>2026-04-19T08:26:20.416Z</time></trkpt><trkpt lat="45.0354535" lon="7.4091069"><ele>415.0</ele><time>2026-04-19T08:26:21.416Z</time></trkpt><trkpt lat="45.0355439" lon="7.4093247"><ele>415.0</ele><time>2026-04-19T08:26:22.416Z</time></trkpt><trkpt lat="45.0356482" lon="7.409524"><ele>415.0</ele><time>2026-04-19T08:26:23.416Z</time></trkpt><trkpt lat="45.0357646" lon="7.4097186"><ele>415.0</ele><time>2026-04-19T08:26:24.416Z</time></trkpt><trkpt lat="45.035893" lon="7.4098991"><ele>409.33333333333337</ele><time>2026-04-19T08:26:25.416Z</time></trkpt><trkpt lat="45.03604" lon="7.4100647"><ele>403.66666666666663</ele><time>2026-04-19T08:26:26.415Z</time></trkpt><trkpt lat="45.0361954" lon="7.4102207"><ele>398.0</ele><time>2026-04-19T08:26:27.416Z</time></trkpt><trkpt lat="45.036358" lon="7.4103534"><ele>398.0</ele><time>2026-04-19T08:26:28.416Z</time></trkpt><trkpt lat="45.0365344" lon="7.4104796"><ele>398.0</ele><time>2026-04-19T08:26:29.415Z</time></trkpt><trkpt lat="45.0367205" lon="7.4105811"><ele>398.0</ele><time>2026-04-19T08:26:30.415Z</time></trkpt><trkpt lat="45.0369181" lon="7.4106541"><ele>399.0</ele><time>2026-04-19T08:26:31.416Z</time></trkpt><trkpt lat="45.0371187" lon="7.4107064"><ele>400.0</ele><time>2026-04-19T08:26:32.416Z</time></trkpt><trkpt lat="45.0373193" lon="7.4107288"><ele>401.0</ele><time>2026-04-19T08:26:33.415Z</time></trkpt><trkpt lat="45.0375298" lon="7.4107397"><ele>401.0</ele><time>2026-04-19T08:26:34.416Z</time></trkpt><trkpt lat="45.0377347" lon="7.4107471"><ele>401.0</ele><time>2026-04-19T08:26:35.416Z</time></trkpt><trkpt lat="45.0379403" lon="7.4107584"><ele>401.0</ele><time>2026-04-19T08:26:36.416Z</time></trkpt><trkpt lat="45.0381406" lon="7.4107996"><ele>400.3333333333333</ele><time>2026-04-19T08:26:37.416Z</time></trkpt><trkpt lat="45.0383394" lon="7.4108502"><ele>399.66666666666663</ele><time>2026-04-19T08:26:38.415Z</time></trkpt><trkpt lat="45.0385324" lon="7.4109011"><ele>399.0</ele><time>2026-04-19T08:26:39.416Z</time></trkpt><trkpt lat="45.038733" lon="7.4109552"><ele>399.0</ele><time>2026-04-19T08:26:40.416Z</time></trkpt><trkpt lat="45.0389298" lon="7.4110065"><ele>399.0</ele><time>2026-04-19T08:26:41.415Z</time></trkpt><trkpt lat="45.0391306" lon="7.4110612"><ele>399.0</ele><time>2026-04-19T08:26:42.416Z</time></trkpt><trkpt lat="45.0393296" lon="7.4111249"><ele>397.0</ele><time>2026-04-19T08:26:43.416Z</time></trkpt><trkpt lat="45.0395232" lon="7.4112044"><ele>395.0</ele><time>2026-04-19T08:26:44.415Z</time></trkpt><trkpt lat="45.0397052" lon="7.4112986"><ele>393.0</ele><time>2026-04-19T08:26:45.416Z</time></trkpt><trkpt lat="45.0398822" lon="7.4114138"><ele>395.66666666666663</ele><time>2026-04-19T08:26:46.416Z</time></trkpt><trkpt lat="45.0400533" lon="7.4115229"><ele>398.3333333333333</ele><time>2026-04-19T08:26:47.416Z</time></trkpt><trkpt lat="45.0402204" lon="7.4116158"><ele>401.0</ele><time>2026-04-19T08:26:48.415Z</time></trkpt><trkpt lat="45.0403818" lon="7.4117022"><ele>401.0</ele><time>2026-04-19T08:26:49.415Z</time></trkpt><trkpt lat="45.0405433" lon="7.4117747"><ele>401.0</ele><time>2026-04-19T08:26:50.416Z</time></trkpt><trkpt lat="45.0406943" lon="7.411851"><ele>401.0</ele><time>2026-04-19T08:26:51.416Z</time></trkpt><trkpt lat="45.0408411" lon="7.4119279"><ele>401.25</ele><time>2026-04-19T08:26:52.416Z</time></trkpt><trkpt lat="45.0409756" lon="7.4119932"><ele>401.5</ele><time>2026-04-19T08:26:53.416Z</time></trkpt><trkpt lat="45.0411064" lon="7.4120836"><ele>401.75</ele><time>2026-04-19T08:26:54.415Z</time></trkpt><trkpt lat="45.0412096" lon="7.4121904"><ele>402.0</ele><time>2026-04-19T08:26:55.415Z</time></trkpt><trkpt lat="45.0412891" lon="7.4123303"><ele>402.0</ele><time>2026-04-19T08:26:56.416Z</time></trkpt><trkpt lat="45.0413504" lon="7.4124913"><ele>402.0</ele><time>2026-04-19T08:26:57.415Z</time></trkpt><trkpt lat="45.0413851" lon="7.4126648"><ele>402.0</ele><time>2026-04-19T08:26:58.416Z</time></trkpt><trkpt lat="45.0414071" lon="7.4128542"><ele>402.0</ele><time>2026-04-19T08:26:59.416Z</time></trkpt><trkpt lat="45.0414024" lon="7.4130511"><ele>404.75</ele><time>2026-04-19T08:27:00.416Z</time></trkpt><trkpt lat="45.0413764" lon="7.4132443"><ele>407.5</ele><time>2026-04-19T08:27:01.415Z</time></trkpt><trkpt lat="45.041348" lon="7.4134244"><ele>410.25</ele><time>2026-04-19T08:27:02.416Z</time></trkpt><trkpt lat="45.041325" lon="7.4135979"><ele>413.0</ele><time>2026-04-19T08:27:03.415Z</time></trkpt><trkpt lat="45.0413063" lon="7.4137551"><ele>412.49999999999994</ele><time>2026-04-19T08:27:04.415Z</time></trkpt><trkpt lat="45.0412972" lon="7.4138763"><ele>412.0</ele><time>2026-04-19T08:27:05.416Z</time></trkpt><trkpt lat="45.0412872" lon="7.4139897"><ele>411.5</ele><time>2026-04-19T08:27:06.415Z</time></trkpt><trkpt lat="45.0412786" lon="7.4140913"><ele>411.0</ele><time>2026-04-19T08:27:07.416Z</time></trkpt><trkpt lat="45.0412605" lon="7.4142428"><ele>410.49999999999994</ele><time>2026-04-19T08:27:09.416Z</time></trkpt><trkpt lat="45.0412551" lon="7.4143401"><ele>410.0</ele><time>2026-04-19T08:27:11.416Z</time></trkpt><trkpt lat="45.0412467" lon="7.4144311"><ele>409.99999999999994</ele><time>2026-04-19T08:27:14.416Z</time></trkpt><trkpt lat="45.0412579" lon="7.4145285"><ele>410.0</ele><time>2026-04-19T08:27:38.416Z</time></trkpt><trkpt lat="45.0412584" lon="7.4146285"><ele>410.0</ele><time>2026-04-19T08:27:40.416Z</time></trkpt><trkpt lat="45.0412475" lon="7.4147595"><ele>410.0</ele><time>2026-04-19T08:28:01.416Z</time></trkpt><trkpt lat="45.0412503" lon="7.4149236"><ele>409.99999999999994</ele><time>2026-04-19T08:28:03.416Z</time></trkpt><trkpt lat="45.0412523" lon="7.4150204"><ele>410.0</ele><time>2026-04-19T08:28:04.416Z</time></trkpt><trkpt lat="45.0412659" lon="7.4151235"><ele>409.16666666666663</ele><time>2026-04-19T08:28:05.415Z</time></trkpt><trkpt lat="45.0412759" lon="7.4152381"><ele>408.3333333333333</ele><time>2026-04-19T08:28:06.416Z</time></trkpt><trkpt lat="45.0412833" lon="7.4153557"><ele>407.5</ele><time>2026-04-19T08:28:07.416Z</time></trkpt><trkpt lat="45.0412749" lon="7.4154759"><ele>406.66666666666663</ele><time>2026-04-19T08:28:08.415Z</time></trkpt><trkpt lat="45.0412508" lon="7.4155783"><ele>405.8333333333333</ele><time>2026-04-19T08:28:09.415Z</time></trkpt><trkpt lat="45.0411997" lon="7.4156857"><ele>405.0</ele><time>2026-04-19T08:28:10.416Z</time></trkpt><trkpt lat="45.0411448" lon="7.4157925"><ele>404.0</ele><time>2026-04-19T08:28:11.415Z</time></trkpt><trkpt lat="45.0410819" lon="7.4158815"><ele>403.0</ele><time>2026-04-19T08:28:12.416Z</time></trkpt><trkpt lat="45.0410154" lon="7.415969"><ele>402.0</ele><time>2026-04-19T08:28:13.415Z</time></trkpt><trkpt lat="45.0409538" lon="7.4160569"><ele>401.0</ele><time>2026-04-19T08:28:14.416Z</time></trkpt><trkpt lat="45.0409027" lon="7.4161328"><ele>400.0</ele><time>2026-04-19T08:28:15.416Z</time></trkpt><trkpt lat="45.0408546" lon="7.4162615"><ele>399.0</ele><time>2026-04-19T08:28:17.415Z</time></trkpt><trkpt lat="45.040886" lon="7.4163916"><ele>397.6</ele><time>2026-04-19T08:28:19.415Z</time></trkpt><trkpt lat="45.0409306" lon="7.4164724"><ele>396.2</ele><time>2026-04-19T08:28:20.415Z</time></trkpt><trkpt lat="45.0409976" lon="7.4165823"><ele>394.8</ele><time>2026-04-19T08:28:21.416Z</time></trkpt><trkpt lat="45.0410627" lon="7.4167037"><ele>393.40000000000003</ele><time>2026-04-19T08:28:22.415Z</time></trkpt><trkpt lat="45.0411236" lon="7.4168356"><ele>392.0</ele><time>2026-04-19T08:28:23.416Z</time></trkpt><trkpt lat="45.0411776" lon="7.4169941"><ele>392.25</ele><time>2026-04-19T08:28:24.416Z</time></trkpt><trkpt lat="45.0412218" lon="7.41717"><ele>392.5</ele><time>2026-04-19T08:28:25.416Z</time></trkpt><trkpt lat="45.041252" lon="7.4173609"><ele>392.75</ele><time>2026-04-19T08:28:26.416Z</time></trkpt><trkpt lat="45.0412689" lon="7.4175628"><ele>393.0</ele><time>2026-04-19T08:28:27.416Z</time></trkpt><trkpt lat="45.0412778" lon="7.4177782"><ele>392.33333333333337</ele><time>2026-04-19T08:28:28.415Z</time></trkpt><trkpt lat="45.0412931" lon="7.417997"><ele>391.6666666666667</ele><time>2026-04-19T08:28:29.416Z</time></trkpt><trkpt lat="45.0413108" lon="7.4182148"><ele>391.0</ele><time>2026-04-19T08:28:30.415Z</time></trkpt><trkpt lat="45.0413298" lon="7.4184389"><ele>391.0</ele><time>2026-04-19T08:28:31.416Z</time></trkpt><trkpt lat="45.041345" lon="7.4186638"><ele>391.0</ele><time>2026-04-19T08:28:32.416Z</time></trkpt><trkpt lat="45.0413668" lon="7.418894"><ele>391.0</ele><time>2026-04-19T08:28:33.416Z</time></trkpt><trkpt lat="45.041382" lon="7.4191222"><ele>389.6666666666667</ele><time>2026-04-19T08:28:34.415Z</time></trkpt><trkpt lat="45.0413983" lon="7.4193434"><ele>388.33333333333337</ele><time>2026-04-19T08:28:35.415Z</time></trkpt><trkpt lat="45.0414133" lon="7.4195661"><ele>387.0</ele><time>2026-04-19T08:28:36.416Z</time></trkpt><trkpt lat="45.0414318" lon="7.4197898"><ele>387.0</ele><time>2026-04-19T08:28:37.415Z</time></trkpt><trkpt lat="45.0414528" lon="7.4200101"><ele>387.0</ele><time>2026-04-19T08:28:38.416Z</time></trkpt><trkpt lat="45.0414757" lon="7.4202266"><ele>387.0</ele><time>2026-04-19T08:28:39.416Z</time></trkpt><trkpt lat="45.0414957" lon="7.4204503"><ele>389.0</ele><time>2026-04-19T08:28:40.416Z</time></trkpt><trkpt lat="45.0415064" lon="7.4206773"><ele>391.0</ele><time>2026-04-19T08:28:41.416Z</time></trkpt><trkpt lat="45.0415017" lon="7.4209024"><ele>393.0</ele><time>2026-04-19T08:28:42.416Z</time></trkpt><trkpt lat="45.0414704" lon="7.4211288"><ele>394.33333333333337</ele><time>2026-04-19T08:28:43.415Z</time></trkpt><trkpt lat="45.0414178" lon="7.4213429"><ele>395.6666666666667</ele><time>2026-04-19T08:28:44.416Z</time></trkpt><trkpt lat="45.0413457" lon="7.4215476"><ele>397.0</ele><time>2026-04-19T08:28:45.416Z</time></trkpt><trkpt lat="45.0412725" lon="7.4217409"><ele>397.0</ele><time>2026-04-19T08:28:46.416Z</time></trkpt><trkpt lat="45.0412002" lon="7.4219186"><ele>397.0</ele><time>2026-04-19T08:28:47.416Z</time></trkpt><trkpt lat="45.0411225" lon="7.4220758"><ele>397.0</ele><time>2026-04-19T08:28:48.416Z</time></trkpt><trkpt lat="45.0410346" lon="7.4222002"><ele>397.0</ele><time>2026-04-19T08:28:49.416Z</time></trkpt><trkpt lat="45.0409637" lon="7.4223008"><ele>399.8</ele><time>2026-04-19T08:28:50.416Z</time></trkpt><trkpt lat="45.0409034" lon="7.4223852"><ele>402.6</ele><time>2026-04-19T08:28:51.416Z</time></trkpt><trkpt lat="45.0408701" lon="7.4224712"><ele>405.40000000000003</ele><time>2026-04-19T08:28:53.416Z</time></trkpt><trkpt lat="45.0410071" lon="7.4225195"><ele>408.20000000000005</ele><time>2026-04-19T08:28:55.416Z</time></trkpt><trkpt lat="45.0411051" lon="7.4224742"><ele>411.0</ele><time>2026-04-19T08:28:56.416Z</time></trkpt><trkpt lat="45.0412002" lon="7.4224062"><ele>411.0</ele><time>2026-04-19T08:28:57.416Z</time></trkpt><trkpt lat="45.0412988" lon="7.4223251"><ele>411.0</ele><time>2026-04-19T08:28:58.416Z</time></trkpt><trkpt lat="45.0413994" lon="7.422221"><ele>411.0</ele><time>2026-04-19T08:28:59.416Z</time></trkpt><trkpt lat="45.0415022" lon="7.4221058"><ele>411.0</ele><time>2026-04-19T08:29:00.415Z</time></trkpt><trkpt lat="45.0416101" lon="7.4219946"><ele>412.5</ele><time>2026-04-19T08:29:01.416Z</time></trkpt><trkpt lat="45.0417197" lon="7.421876"><ele>414.0</ele><time>2026-04-19T08:29:02.416Z</time></trkpt><trkpt lat="45.0418345" lon="7.421754"><ele>415.5</ele><time>2026-04-19T08:29:03.416Z</time></trkpt><trkpt lat="45.0419483" lon="7.4216302"><ele>417.0</ele><time>2026-04-19T08:29:04.415Z</time></trkpt><trkpt lat="45.0420699" lon="7.4215168"><ele>417.0</ele><time>2026-04-19T08:29:05.416Z</time></trkpt><trkpt lat="45.0421812" lon="7.4214167"><ele>417.0</ele><time>2026-04-19T08:29:06.416Z</time></trkpt><trkpt lat="45.0422883" lon="7.4213297"><ele>417.0</ele><time>2026-04-19T08:29:07.416Z</time></trkpt><trkpt lat="45.0423892" lon="7.4212443"><ele>417.0</ele><time>2026-04-19T08:29:08.416Z</time></trkpt><trkpt lat="45.0424971" lon="7.4211507"><ele>419.8</ele><time>2026-04-19T08:29:09.416Z</time></trkpt><trkpt lat="45.042589" lon="7.4210652"><ele>422.6</ele><time>2026-04-19T08:29:10.415Z</time></trkpt><trkpt lat="45.0426748" lon="7.4209877"><ele>425.40000000000003</ele><time>2026-04-19T08:29:11.415Z</time></trkpt><trkpt lat="45.0427725" lon="7.4209343"><ele>428.20000000000005</ele><time>2026-04-19T08:29:12.416Z</time></trkpt><trkpt lat="45.0428675" lon="7.4209135"><ele>431.0</ele><time>2026-04-19T08:29:13.416Z</time></trkpt><trkpt lat="45.0429656" lon="7.420933"><ele>431.0</ele><time>2026-04-19T08:29:14.416Z</time></trkpt><trkpt lat="45.043051" lon="7.4209781"><ele>431.0</ele><time>2026-04-19T08:29:15.416Z</time></trkpt><trkpt lat="45.0431237" lon="7.4210478"><ele>431.0</ele><time>2026-04-19T08:29:16.416Z</time></trkpt><trkpt lat="45.0431735" lon="7.4211566"><ele>431.0</ele><time>2026-04-19T08:29:17.415Z</time></trkpt><trkpt lat="45.0432015" lon="7.4212803"><ele>431.0</ele><time>2026-04-19T08:29:18.415Z</time></trkpt><trkpt lat="45.0432188" lon="7.4214031"><ele>431.3333333333333</ele><time>2026-04-19T08:29:19.416Z</time></trkpt><trkpt lat="45.0432347" lon="7.4215239"><ele>431.66666666666663</ele><time>2026-04-19T08:29:20.415Z</time></trkpt><trkpt lat="45.0432564" lon="7.42165"><ele>432.0</ele><time>2026-04-19T08:29:21.416Z</time></trkpt><trkpt lat="45.0432784" lon="7.4217768"><ele>432.33333333333337</ele><time>2026-04-19T08:29:22.416Z</time></trkpt><trkpt lat="45.0433038" lon="7.4218968"><ele>432.6666666666667</ele><time>2026-04-19T08:29:23.416Z</time></trkpt><trkpt lat="45.043342" lon="7.4220011"><ele>433.0</ele><time>2026-04-19T08:29:24.416Z</time></trkpt><trkpt lat="45.0433892" lon="7.4220926"><ele>431.83333333333337</ele><time>2026-04-19T08:29:25.416Z</time></trkpt><trkpt lat="45.0434447" lon="7.422177"><ele>430.6666666666667</ele><time>2026-04-19T08:29:26.416Z</time></trkpt><trkpt lat="45.0435094" lon="7.4222433"><ele>429.5</ele><time>2026-04-19T08:29:27.415Z</time></trkpt><trkpt lat="45.043577" lon="7.422295"><ele>428.33333333333337</ele><time>2026-04-19T08:29:28.415Z</time></trkpt><trkpt lat="45.0436511" lon="7.4223074"><ele>427.1666666666667</ele><time>2026-04-19T08:29:29.416Z</time></trkpt><trkpt lat="45.0437277" lon="7.4222894"><ele>426.0</ele><time>2026-04-19T08:29:30.415Z</time></trkpt><trkpt lat="45.0438288" lon="7.4222281"><ele>426.0</ele><time>2026-04-19T08:29:31.416Z</time></trkpt><trkpt lat="45.0439318" lon="7.4221779"><ele>426.0</ele><time>2026-04-19T08:29:32.416Z</time></trkpt><trkpt lat="45.0440284" lon="7.4221327"><ele>426.0</ele><time>2026-04-19T08:29:33.416Z</time></trkpt><trkpt lat="45.0441277" lon="7.4220812"><ele>426.0</ele><time>2026-04-19T08:29:34.416Z</time></trkpt><trkpt lat="45.0442283" lon="7.422043"><ele>426.0</ele><time>2026-04-19T08:29:35.416Z</time></trkpt><trkpt lat="45.0443303" lon="7.4220059"><ele>429.75</ele><time>2026-04-19T08:29:36.416Z</time></trkpt><trkpt lat="45.0444428" lon="7.4219662"><ele>433.5</ele><time>2026-04-19T08:29:37.415Z</time></trkpt><trkpt lat="45.0445568" lon="7.4219467"><ele>437.25</ele><time>2026-04-19T08:29:38.416Z</time></trkpt><trkpt lat="45.0446805" lon="7.4219541"><ele>441.0</ele><time>2026-04-19T08:29:39.416Z</time></trkpt><trkpt lat="45.0448207" lon="7.4219834"><ele>440.66666666666663</ele><time>2026-04-19T08:29:40.415Z</time></trkpt><trkpt lat="45.0449681" lon="7.4220137"><ele>440.3333333333333</ele><time>2026-04-19T08:29:41.415Z</time></trkpt><trkpt lat="45.0451155" lon="7.4220327"><ele>440.0</ele><time>2026-04-19T08:29:42.416Z</time></trkpt><trkpt lat="45.0452884" lon="7.4220505"><ele>440.0</ele><time>2026-04-19T08:29:43.416Z</time></trkpt><trkpt lat="45.0454725" lon="7.4220811"><ele>440.0</ele><time>2026-04-19T08:29:44.416Z</time></trkpt><trkpt lat="45.0456636" lon="7.422122"><ele>440.0</ele><time>2026-04-19T08:29:45.416Z</time></trkpt><trkpt lat="45.0458521" lon="7.4221764"><ele>437.66666666666663</ele><time>2026-04-19T08:29:46.416Z</time></trkpt><trkpt lat="45.0460266" lon="7.4222224"><ele>435.33333333333337</ele><time>2026-04-19T08:29:47.416Z</time></trkpt><trkpt lat="45.0461819" lon="7.4222741"><ele>433.0</ele><time>2026-04-19T08:29:48.415Z</time></trkpt><trkpt lat="45.046329" lon="7.4223612"><ele>433.0</ele><time>2026-04-19T08:29:49.415Z</time></trkpt><trkpt lat="45.0464553" lon="7.4224726"><ele>433.0</ele><time>2026-04-19T08:29:50.416Z</time></trkpt><trkpt lat="45.0465767" lon="7.4225847"><ele>433.0</ele><time>2026-04-19T08:29:51.416Z</time></trkpt><trkpt lat="45.0466883" lon="7.4226972"><ele>433.0</ele><time>2026-04-19T08:29:52.415Z</time></trkpt><trkpt lat="45.0468069" lon="7.4228118"><ele>434.5</ele><time>2026-04-19T08:29:53.416Z</time></trkpt><trkpt lat="45.0469275" lon="7.4229204"><ele>436.0</ele><time>2026-04-19T08:29:54.415Z</time></trkpt><trkpt lat="45.0470465" lon="7.4230256"><ele>437.5</ele><time>2026-04-19T08:29:55.416Z</time></trkpt><trkpt lat="45.0471705" lon="7.4231262"><ele>439.0</ele><time>2026-04-19T08:29:56.416Z</time></trkpt><trkpt lat="45.0472929" lon="7.4232208"><ele>440.25</ele><time>2026-04-19T08:29:57.415Z</time></trkpt><trkpt lat="45.0474206" lon="7.423309"><ele>441.5</ele><time>2026-04-19T08:29:58.416Z</time></trkpt><trkpt lat="45.0475519" lon="7.4233969"><ele>442.75</ele><time>2026-04-19T08:29:59.416Z</time></trkpt><trkpt lat="45.0476872" lon="7.4234733"><ele>444.0</ele><time>2026-04-19T08:30:00.416Z</time></trkpt><trkpt lat="45.0478219" lon="7.4235397"><ele>444.0</ele><time>2026-04-19T08:30:01.415Z</time></trkpt><trkpt lat="45.0479618" lon="7.4235968"><ele>444.0</ele><time>2026-04-19T08:30:02.416Z</time></trkpt><trkpt lat="45.0480975" lon="7.423662"><ele>444.0</ele><time>2026-04-19T08:30:03.416Z</time></trkpt><trkpt lat="45.0482244" lon="7.4237503"><ele>444.0</ele><time>2026-04-19T08:30:04.416Z</time></trkpt><trkpt lat="45.0483448" lon="7.4238614"><ele>445.66666666666663</ele><time>2026-04-19T08:30:05.416Z</time></trkpt><trkpt lat="45.0484666" lon="7.4239778"><ele>447.3333333333333</ele><time>2026-04-19T08:30:06.416Z</time></trkpt><trkpt lat="45.048593" lon="7.4241035"><ele>449.0</ele><time>2026-04-19T08:30:07.415Z</time></trkpt><trkpt lat="45.0487184" lon="7.4242283"><ele>449.0</ele><time>2026-04-19T08:30:08.416Z</time></trkpt><trkpt lat="45.0488457" lon="7.4243456"><ele>449.0</ele><time>2026-04-19T08:30:09.416Z</time></trkpt><trkpt lat="45.0489773" lon="7.4244644"><ele>449.0</ele><time>2026-04-19T08:30:10.416Z</time></trkpt><trkpt lat="45.049111" lon="7.4245873"><ele>449.66666666666663</ele><time>2026-04-19T08:30:11.416Z</time></trkpt><trkpt lat="45.0492444" lon="7.4247125"><ele>450.33333333333337</ele><time>2026-04-19T08:30:12.416Z</time></trkpt><trkpt lat="45.0493753" lon="7.4248391"><ele>451.0</ele><time>2026-04-19T08:30:13.416Z</time></trkpt><trkpt lat="45.0495017" lon="7.4249648"><ele>451.0</ele><time>2026-04-19T08:30:14.416Z</time></trkpt><trkpt lat="45.049615" lon="7.4250841"><ele>451.0</ele><time>2026-04-19T08:30:15.416Z</time></trkpt><trkpt lat="45.049723" lon="7.4251979"><ele>451.0</ele><time>2026-04-19T08:30:16.416Z</time></trkpt><trkpt lat="45.049817" lon="7.4253186"><ele>451.0</ele><time>2026-04-19T08:30:17.416Z</time></trkpt><trkpt lat="45.0499099" lon="7.4254458"><ele>451.25</ele><time>2026-04-19T08:30:18.416Z</time></trkpt><trkpt lat="45.0500004" lon="7.4255683"><ele>451.5</ele><time>2026-04-19T08:30:19.416Z</time></trkpt><trkpt lat="45.0500997" lon="7.4256887"><ele>451.75</ele><time>2026-04-19T08:30:20.416Z</time></trkpt><trkpt lat="45.0502159" lon="7.4257893"><ele>452.0</ele><time>2026-04-19T08:30:21.416Z</time></trkpt><trkpt lat="45.0503423" lon="7.4258693"><ele>452.0</ele><time>2026-04-19T08:30:22.416Z</time></trkpt><trkpt lat="45.050465" lon="7.4259442"><ele>452.0</ele><time>2026-04-19T08:30:23.416Z</time></trkpt><trkpt lat="45.0505753" lon="7.4260169"><ele>452.0</ele><time>2026-04-19T08:30:24.416Z</time></trkpt><trkpt lat="45.0506726" lon="7.4260974"><ele>452.0</ele><time>2026-04-19T08:30:25.416Z</time></trkpt><trkpt lat="45.050761" lon="7.4261978"><ele>452.0</ele><time>2026-04-19T08:30:26.415Z</time></trkpt><trkpt lat="45.0508364" lon="7.426323"><ele>452.0</ele><time>2026-04-19T08:30:27.416Z</time></trkpt><trkpt lat="45.050897" lon="7.4264743"><ele>452.0</ele><time>2026-04-19T08:30:28.416Z</time></trkpt><trkpt lat="45.0509343" lon="7.4266393"><ele>452.0</ele><time>2026-04-19T08:30:29.416Z</time></trkpt><trkpt lat="45.0509663" lon="7.4268147"><ele>452.0</ele><time>2026-04-19T08:30:30.415Z</time></trkpt><trkpt lat="45.0509819" lon="7.4269914"><ele>452.0</ele><time>2026-04-19T08:30:31.416Z</time></trkpt><trkpt lat="45.050997" lon="7.4271777"><ele>452.0</ele><time>2026-04-19T08:30:32.416Z</time></trkpt><trkpt lat="45.0510146" lon="7.4273713"><ele>452.0</ele><time>2026-04-19T08:30:33.415Z</time></trkpt><trkpt lat="45.051025" lon="7.4275663"><ele>451.75</ele><time>2026-04-19T08:30:34.416Z</time></trkpt><trkpt lat="45.0510315" lon="7.4277545"><ele>451.5</ele><time>2026-04-19T08:30:35.416Z</time></trkpt><trkpt lat="45.051042" lon="7.4279288"><ele>451.25</ele><time>2026-04-19T08:30:36.416Z</time></trkpt><trkpt lat="45.0510546" lon="7.4280853"><ele>451.0</ele><time>2026-04-19T08:30:37.416Z</time></trkpt><trkpt lat="45.0510647" lon="7.4282089"><ele>451.00000000000006</ele><time>2026-04-19T08:30:38.416Z</time></trkpt><trkpt lat="45.0510695" lon="7.4283102"><ele>451.0</ele><time>2026-04-19T08:30:39.416Z</time></trkpt><trkpt lat="45.0510363" lon="7.4284532"><ele>451.0</ele><time>2026-04-19T08:30:41.416Z</time></trkpt><trkpt lat="45.0509736" lon="7.4284861"><ele>451.0</ele><time>2026-04-19T08:30:42.416Z</time></trkpt><trkpt lat="45.0508827" lon="7.4284915"><ele>451.00000000000006</ele><time>2026-04-19T08:30:43.416Z</time></trkpt><trkpt lat="45.0507918" lon="7.428467"><ele>451.0</ele><time>2026-04-19T08:30:44.416Z</time></trkpt><trkpt lat="45.0506881" lon="7.428426"><ele>450.75</ele><time>2026-04-19T08:30:45.416Z</time></trkpt><trkpt lat="45.0505694" lon="7.428393"><ele>450.5</ele><time>2026-04-19T08:30:46.416Z</time></trkpt><trkpt lat="45.0504472" lon="7.4283605"><ele>450.25</ele><time>2026-04-19T08:30:47.415Z</time></trkpt><trkpt lat="45.0503166" lon="7.4283261"><ele>450.0</ele><time>2026-04-19T08:30:48.416Z</time></trkpt><trkpt lat="45.0501764" lon="7.4283031"><ele>450.0</ele><time>2026-04-19T08:30:49.416Z</time></trkpt><trkpt lat="45.050033" lon="7.4282923"><ele>450.0</ele><time>2026-04-19T08:30:50.416Z</time></trkpt><trkpt lat="45.0498881" lon="7.4282909"><ele>450.0</ele><time>2026-04-19T08:30:51.416Z</time></trkpt><trkpt lat="45.0497449" lon="7.428286"><ele>450.0</ele><time>2026-04-19T08:30:52.416Z</time></trkpt><trkpt lat="45.0496109" lon="7.4282776"><ele>449.0</ele><time>2026-04-19T08:30:53.416Z</time></trkpt><trkpt lat="45.0494828" lon="7.4282806"><ele>448.0</ele><time>2026-04-19T08:30:54.416Z</time></trkpt><trkpt lat="45.0493645" lon="7.4282913"><ele>447.0</ele><time>2026-04-19T08:30:55.415Z</time></trkpt><trkpt lat="45.0492486" lon="7.428334"><ele>446.0</ele><time>2026-04-19T08:30:56.416Z</time></trkpt><trkpt lat="45.0491345" lon="7.4284147"><ele>445.5</ele><time>2026-04-19T08:30:57.415Z</time></trkpt><trkpt lat="45.0490209" lon="7.4285118"><ele>445.0</ele><time>2026-04-19T08:30:58.416Z</time></trkpt><trkpt lat="45.0489086" lon="7.4286268"><ele>444.5</ele><time>2026-04-19T08:30:59.416Z</time></trkpt><trkpt lat="45.0488026" lon="7.4287613"><ele>444.0</ele><time>2026-04-19T08:31:00.416Z</time></trkpt><trkpt lat="45.0486968" lon="7.4289152"><ele>444.0</ele><time>2026-04-19T08:31:01.415Z</time></trkpt><trkpt lat="45.0485892" lon="7.4290752"><ele>444.0</ele><time>2026-04-19T08:31:02.416Z</time></trkpt><trkpt lat="45.0484761" lon="7.4292393"><ele>444.0</ele><time>2026-04-19T08:31:03.416Z</time></trkpt><trkpt lat="45.0483638" lon="7.4294078"><ele>442.33333333333337</ele><time>2026-04-19T08:31:04.415Z</time></trkpt><trkpt lat="45.0482527" lon="7.4295815"><ele>440.6666666666667</ele><time>2026-04-19T08:31:05.416Z</time></trkpt><trkpt lat="45.048142" lon="7.4297569"><ele>439.0</ele><time>2026-04-19T08:31:06.416Z</time></trkpt><trkpt lat="45.048025" lon="7.4299337"><ele>439.0</ele><time>2026-04-19T08:31:07.416Z</time></trkpt><trkpt lat="45.047913" lon="7.4301137"><ele>439.0</ele><time>2026-04-19T08:31:08.416Z</time></trkpt><trkpt lat="45.0478123" lon="7.4303004"><ele>439.0</ele><time>2026-04-19T08:31:09.415Z</time></trkpt><trkpt lat="45.0477267" lon="7.4304961"><ele>439.0</ele><time>2026-04-19T08:31:10.416Z</time></trkpt><trkpt lat="45.0476626" lon="7.4307067"><ele>439.0</ele><time>2026-04-19T08:31:11.416Z</time></trkpt><trkpt lat="45.0476126" lon="7.4309229"><ele>439.0</ele><time>2026-04-19T08:31:12.416Z</time></trkpt><trkpt lat="45.0475766" lon="7.4311424"><ele>438.75</ele><time>2026-04-19T08:31:13.415Z</time></trkpt><trkpt lat="45.0475449" lon="7.4313538"><ele>438.5</ele><time>2026-04-19T08:31:14.416Z</time></trkpt><trkpt lat="45.0475147" lon="7.431553"><ele>438.25</ele><time>2026-04-19T08:31:15.416Z</time></trkpt><trkpt lat="45.0474903" lon="7.4317376"><ele>438.0</ele><time>2026-04-19T08:31:16.416Z</time></trkpt><trkpt lat="45.0474688" lon="7.4319148"><ele>437.25</ele><time>2026-04-19T08:31:17.415Z</time></trkpt><trkpt lat="45.0474508" lon="7.432093"><ele>436.5</ele><time>2026-04-19T08:31:18.415Z</time></trkpt><trkpt lat="45.0474233" lon="7.4322797"><ele>435.75</ele><time>2026-04-19T08:31:19.416Z</time></trkpt><trkpt lat="45.0473972" lon="7.4324699"><ele>435.0</ele><time>2026-04-19T08:31:20.416Z</time></trkpt><trkpt lat="45.0473678" lon="7.4326649"><ele>434.66666666666663</ele><time>2026-04-19T08:31:21.415Z</time></trkpt><trkpt lat="45.0473607" lon="7.4328789"><ele>434.3333333333333</ele><time>2026-04-19T08:31:22.415Z</time></trkpt><trkpt lat="45.0473742" lon="7.4330961"><ele>434.0</ele><time>2026-04-19T08:31:23.415Z</time></trkpt><trkpt lat="45.047395" lon="7.4333182"><ele>434.0</ele><time>2026-04-19T08:31:24.415Z</time></trkpt><trkpt lat="45.0474171" lon="7.4335428"><ele>434.0</ele><time>2026-04-19T08:31:25.415Z</time></trkpt><trkpt lat="45.0474377" lon="7.4337647"><ele>434.0</ele><time>2026-04-19T08:31:26.414Z</time></trkpt><trkpt lat="45.0474601" lon="7.4339851"><ele>434.0</ele><time>2026-04-19T08:31:27.415Z</time></trkpt><trkpt lat="45.047478" lon="7.4341877"><ele>434.0</ele><time>2026-04-19T08:31:28.415Z</time></trkpt><trkpt lat="45.0474873" lon="7.4343692"><ele>434.0</ele><time>2026-04-19T08:31:29.415Z</time></trkpt><trkpt lat="45.0474713" lon="7.4345168"><ele>434.0</ele><time>2026-04-19T08:31:30.415Z</time></trkpt><trkpt lat="45.0474127" lon="7.4346362"><ele>432.75</ele><time>2026-04-19T08:31:31.415Z</time></trkpt><trkpt lat="45.0473253" lon="7.4347469"><ele>431.5</ele><time>2026-04-19T08:31:32.414Z</time></trkpt><trkpt lat="45.0472164" lon="7.4348319"><ele>430.25</ele><time>2026-04-19T08:31:33.415Z</time></trkpt><trkpt lat="45.0470879" lon="7.434877"><ele>429.0</ele><time>2026-04-19T08:31:34.415Z</time></trkpt><trkpt lat="45.0469333" lon="7.4348946"><ele>429.0</ele><time>2026-04-19T08:31:35.414Z</time></trkpt><trkpt lat="45.0467857" lon="7.4348975"><ele>429.0</ele><time>2026-04-19T08:31:36.415Z</time></trkpt><trkpt lat="45.0466499" lon="7.4349"><ele>429.0</ele><time>2026-04-19T08:31:37.415Z</time></trkpt><trkpt lat="45.0465228" lon="7.434919"><ele>429.0</ele><time>2026-04-19T08:31:38.415Z</time></trkpt><trkpt lat="45.0464119" lon="7.4349803"><ele>429.0</ele><time>2026-04-19T08:31:39.415Z</time></trkpt><trkpt lat="45.0463202" lon="7.4350735"><ele>429.0</ele><time>2026-04-19T08:31:40.415Z</time></trkpt><trkpt lat="45.046253" lon="7.435212"><ele>429.0</ele><time>2026-04-19T08:31:41.415Z</time></trkpt><trkpt lat="45.0462022" lon="7.4354015"><ele>429.0</ele><time>2026-04-19T08:31:42.415Z</time></trkpt><trkpt lat="45.0461853" lon="7.4356003"><ele>429.0</ele><time>2026-04-19T08:31:43.415Z</time></trkpt><trkpt lat="45.0461988" lon="7.4358047"><ele>429.0</ele><time>2026-04-19T08:31:44.415Z</time></trkpt><trkpt lat="45.0462127" lon="7.4360185"><ele>429.0</ele><time>2026-04-19T08:31:45.415Z</time></trkpt><trkpt lat="45.0462107" lon="7.4362388"><ele>427.33333333333337</ele><time>2026-04-19T08:31:46.415Z</time></trkpt><trkpt lat="45.0462003" lon="7.4364797"><ele>425.6666666666667</ele><time>2026-04-19T08:31:47.415Z</time></trkpt><trkpt lat="45.0461707" lon="7.4367247"><ele>424.0</ele><time>2026-04-19T08:31:48.415Z</time></trkpt><trkpt lat="45.0461231" lon="7.4369702"><ele>423.33333333333337</ele><time>2026-04-19T08:31:49.414Z</time></trkpt><trkpt lat="45.0460625" lon="7.4372028"><ele>422.66666666666663</ele><time>2026-04-19T08:31:50.414Z</time></trkpt><trkpt lat="45.0459998" lon="7.4374516"><ele>422.0</ele><time>2026-04-19T08:31:51.415Z</time></trkpt><trkpt lat="45.0459275" lon="7.4376949"><ele>422.0</ele><time>2026-04-19T08:31:52.415Z</time></trkpt><trkpt lat="45.0458542" lon="7.4379419"><ele>422.0</ele><time>2026-04-19T08:31:53.415Z</time></trkpt><trkpt lat="45.0457773" lon="7.4381852"><ele>422.0</ele><time>2026-04-19T08:31:54.415Z</time></trkpt><trkpt lat="45.0456945" lon="7.4384306"><ele>421.66666666666663</ele><time>2026-04-19T08:31:55.415Z</time></trkpt><trkpt lat="45.0456223" lon="7.4386844"><ele>421.33333333333337</ele><time>2026-04-19T08:31:56.415Z</time></trkpt><trkpt lat="45.0455546" lon="7.4389412"><ele>421.0</ele><time>2026-04-19T08:31:57.415Z</time></trkpt><trkpt lat="45.0454798" lon="7.4391779"><ele>421.0</ele><time>2026-04-19T08:31:58.415Z</time></trkpt><trkpt lat="45.0453909" lon="7.4394036"><ele>421.0</ele><time>2026-04-19T08:31:59.414Z</time></trkpt><trkpt lat="45.0452958" lon="7.439626"><ele>421.0</ele><time>2026-04-19T08:32:00.415Z</time></trkpt><trkpt lat="45.0452005" lon="7.4398418"><ele>422.0</ele><time>2026-04-19T08:32:01.414Z</time></trkpt><trkpt lat="45.0451119" lon="7.4400589"><ele>423.0</ele><time>2026-04-19T08:32:02.414Z</time></trkpt><trkpt lat="45.0450201" lon="7.440269"><ele>424.0</ele><time>2026-04-19T08:32:03.415Z</time></trkpt><trkpt lat="45.0449321" lon="7.4404773"><ele>421.33333333333337</ele><time>2026-04-19T08:32:04.415Z</time></trkpt><trkpt lat="45.0448509" lon="7.4406704"><ele>418.66666666666663</ele><time>2026-04-19T08:32:05.414Z</time></trkpt><trkpt lat="45.0447829" lon="7.4408717"><ele>416.0</ele><time>2026-04-19T08:32:06.414Z</time></trkpt><trkpt lat="45.0447293" lon="7.4410882"><ele>417.66666666666663</ele><time>2026-04-19T08:32:07.414Z</time></trkpt><trkpt lat="45.0446748" lon="7.4413144"><ele>419.33333333333337</ele><time>2026-04-19T08:32:08.415Z</time></trkpt><trkpt lat="45.0446038" lon="7.4415464"><ele>421.0</ele><time>2026-04-19T08:32:09.415Z</time></trkpt><trkpt lat="45.0444926" lon="7.4417606"><ele>421.0</ele><time>2026-04-19T08:32:10.414Z</time></trkpt><trkpt lat="45.0443625" lon="7.4419419"><ele>421.0</ele><time>2026-04-19T08:32:11.415Z</time></trkpt><trkpt lat="45.0442295" lon="7.4421152"><ele>421.0</ele><time>2026-04-19T08:32:12.415Z</time></trkpt><trkpt lat="45.0440967" lon="7.4423083"><ele>419.33333333333337</ele><time>2026-04-19T08:32:13.415Z</time></trkpt><trkpt lat="45.0439641" lon="7.4425052"><ele>417.66666666666663</ele><time>2026-04-19T08:32:14.415Z</time></trkpt><trkpt lat="45.0438314" lon="7.4426986"><ele>416.0</ele><time>2026-04-19T08:32:15.414Z</time></trkpt><trkpt lat="45.0436974" lon="7.4428884"><ele>419.3333333333333</ele><time>2026-04-19T08:32:16.415Z</time></trkpt><trkpt lat="45.0435707" lon="7.443077"><ele>422.66666666666663</ele><time>2026-04-19T08:32:17.415Z</time></trkpt><trkpt lat="45.0434486" lon="7.4432617"><ele>426.0</ele><time>2026-04-19T08:32:18.415Z</time></trkpt><trkpt lat="45.0433291" lon="7.4434445"><ele>424.66666666666663</ele><time>2026-04-19T08:32:19.415Z</time></trkpt><trkpt lat="45.0432214" lon="7.4436352"><ele>423.3333333333333</ele><time>2026-04-19T08:32:20.414Z</time></trkpt><trkpt lat="45.0431379" lon="7.443842"><ele>422.0</ele><time>2026-04-19T08:32:21.415Z</time></trkpt><trkpt lat="45.0431005" lon="7.4440686"><ele>422.0</ele><time>2026-04-19T08:32:22.415Z</time></trkpt><trkpt lat="45.0430825" lon="7.4442948"><ele>422.0</ele><time>2026-04-19T08:32:23.415Z</time></trkpt><trkpt lat="45.04309" lon="7.4445215"><ele>422.0</ele><time>2026-04-19T08:32:24.415Z</time></trkpt><trkpt lat="45.0431098" lon="7.4447512"><ele>423.0</ele><time>2026-04-19T08:32:25.415Z</time></trkpt><trkpt lat="45.0431286" lon="7.4449658"><ele>424.0</ele><time>2026-04-19T08:32:26.415Z</time></trkpt><trkpt lat="45.0431396" lon="7.4451816"><ele>425.0</ele><time>2026-04-19T08:32:27.414Z</time></trkpt><trkpt lat="45.0431544" lon="7.4453922"><ele>425.0</ele><time>2026-04-19T08:32:28.415Z</time></trkpt><trkpt lat="45.0431565" lon="7.4455922"><ele>425.0</ele><time>2026-04-19T08:32:29.415Z</time></trkpt><trkpt lat="45.0431586" lon="7.4457842"><ele>425.0</ele><time>2026-04-19T08:32:30.414Z</time></trkpt><trkpt lat="45.0431593" lon="7.4459665"><ele>425.0</ele><time>2026-04-19T08:32:31.414Z</time></trkpt><trkpt lat="45.0431336" lon="7.4461338"><ele>425.0</ele><time>2026-04-19T08:32:32.414Z</time></trkpt><trkpt lat="45.0430796" lon="7.4462791"><ele>425.0</ele><time>2026-04-19T08:32:33.415Z</time></trkpt><trkpt lat="45.042998" lon="7.4464043"><ele>425.0</ele><time>2026-04-19T08:32:34.415Z</time></trkpt><trkpt lat="45.0429168" lon="7.4465334"><ele>425.0</ele><time>2026-04-19T08:32:35.415Z</time></trkpt><trkpt lat="45.0428431" lon="7.4466764"><ele>425.75</ele><time>2026-04-19T08:32:36.415Z</time></trkpt><trkpt lat="45.0427677" lon="7.4468315"><ele>426.5</ele><time>2026-04-19T08:32:37.414Z</time></trkpt><trkpt lat="45.0426579" lon="7.4469616"><ele>427.25</ele><time>2026-04-19T08:32:38.415Z</time></trkpt><trkpt lat="45.0425219" lon="7.447046"><ele>428.0</ele><time>2026-04-19T08:32:39.415Z</time></trkpt><trkpt lat="45.0423769" lon="7.4471218"><ele>427.0</ele><time>2026-04-19T08:32:40.415Z</time></trkpt><trkpt lat="45.0422264" lon="7.4472055"><ele>426.0</ele><time>2026-04-19T08:32:41.415Z</time></trkpt><trkpt lat="45.0420799" lon="7.4472949"><ele>425.0</ele><time>2026-04-19T08:32:42.415Z</time></trkpt><trkpt lat="45.0419325" lon="7.4473946"><ele>425.0</ele><time>2026-04-19T08:32:43.415Z</time></trkpt><trkpt lat="45.0417913" lon="7.4474848"><ele>425.0</ele><time>2026-04-19T08:32:44.415Z</time></trkpt><trkpt lat="45.0416566" lon="7.4475865"><ele>425.0</ele><time>2026-04-19T08:32:45.414Z</time></trkpt><trkpt lat="45.0415379" lon="7.4477207"><ele>420.66666666666663</ele><time>2026-04-19T08:32:46.415Z</time></trkpt><trkpt lat="45.0414341" lon="7.4478986"><ele>416.33333333333337</ele><time>2026-04-19T08:32:47.415Z</time></trkpt><trkpt lat="45.0413414" lon="7.4480974"><ele>412.0</ele><time>2026-04-19T08:32:48.414Z</time></trkpt><trkpt lat="45.0412565" lon="7.4483137"><ele>411.6666666666667</ele><time>2026-04-19T08:32:49.415Z</time></trkpt><trkpt lat="45.0411892" lon="7.448541"><ele>411.33333333333337</ele><time>2026-04-19T08:32:50.414Z</time></trkpt><trkpt lat="45.0411379" lon="7.4487749"><ele>411.0</ele><time>2026-04-19T08:32:51.415Z</time></trkpt><trkpt lat="45.0410951" lon="7.449017"><ele>410.33333333333337</ele><time>2026-04-19T08:32:52.414Z</time></trkpt><trkpt lat="45.0410654" lon="7.4492683"><ele>409.6666666666667</ele><time>2026-04-19T08:32:53.415Z</time></trkpt><trkpt lat="45.0410452" lon="7.4495247"><ele>409.0</ele><time>2026-04-19T08:32:54.415Z</time></trkpt><trkpt lat="45.0410295" lon="7.4497832"><ele>408.33333333333337</ele><time>2026-04-19T08:32:55.415Z</time></trkpt><trkpt lat="45.0410147" lon="7.4500447"><ele>407.66666666666663</ele><time>2026-04-19T08:32:56.415Z</time></trkpt><trkpt lat="45.0410085" lon="7.4503043"><ele>407.0</ele><time>2026-04-19T08:32:57.414Z</time></trkpt><trkpt lat="45.0410039" lon="7.4505581"><ele>406.3333333333333</ele><time>2026-04-19T08:32:58.414Z</time></trkpt><trkpt lat="45.0410003" lon="7.4508134"><ele>405.66666666666663</ele><time>2026-04-19T08:32:59.415Z</time></trkpt><trkpt lat="45.0409887" lon="7.4510709"><ele>405.0</ele><time>2026-04-19T08:33:00.415Z</time></trkpt><trkpt lat="45.0409777" lon="7.4513347"><ele>403.66666666666663</ele><time>2026-04-19T08:33:01.414Z</time></trkpt><trkpt lat="45.0409626" lon="7.4515971"><ele>402.3333333333333</ele><time>2026-04-19T08:33:02.415Z</time></trkpt><trkpt lat="45.0409479" lon="7.4518601"><ele>401.0</ele><time>2026-04-19T08:33:03.415Z</time></trkpt><trkpt lat="45.0409258" lon="7.452125"><ele>400.0</ele><time>2026-04-19T08:33:04.414Z</time></trkpt><trkpt lat="45.0408971" lon="7.4523898"><ele>399.0</ele><time>2026-04-19T08:33:05.415Z</time></trkpt><trkpt lat="45.0408561" lon="7.4526453"><ele>398.0</ele><time>2026-04-19T08:33:06.415Z</time></trkpt><trkpt lat="45.0407902" lon="7.4528985"><ele>394.0</ele><time>2026-04-19T08:33:07.415Z</time></trkpt><trkpt lat="45.0406982" lon="7.4531352"><ele>390.0</ele><time>2026-04-19T08:33:08.415Z</time></trkpt><trkpt lat="45.0405959" lon="7.4533604"><ele>386.0</ele><time>2026-04-19T08:33:09.414Z</time></trkpt><trkpt lat="45.0404899" lon="7.4535924"><ele>387.66666666666663</ele><time>2026-04-19T08:33:10.415Z</time></trkpt><trkpt lat="45.0403883" lon="7.4538267"><ele>389.33333333333337</ele><time>2026-04-19T08:33:11.414Z</time></trkpt><trkpt lat="45.0402874" lon="7.4540487"><ele>391.0</ele><time>2026-04-19T08:33:12.415Z</time></trkpt><trkpt lat="45.0401954" lon="7.4542764"><ele>391.0</ele><time>2026-04-19T08:33:13.414Z</time></trkpt><trkpt lat="45.0401058" lon="7.4544803"><ele>391.0</ele><time>2026-04-19T08:33:14.415Z</time></trkpt><trkpt lat="45.0400258" lon="7.4546775"><ele>391.0</ele><time>2026-04-19T08:33:15.415Z</time></trkpt><trkpt lat="45.0399448" lon="7.454873"><ele>392.0</ele><time>2026-04-19T08:33:16.415Z</time></trkpt><trkpt lat="45.0398652" lon="7.4550818"><ele>393.0</ele><time>2026-04-19T08:33:17.415Z</time></trkpt><trkpt lat="45.0397931" lon="7.4553047"><ele>394.0</ele><time>2026-04-19T08:33:18.415Z</time></trkpt><trkpt lat="45.0397293" lon="7.4555334"><ele>394.0</ele><time>2026-04-19T08:33:19.414Z</time></trkpt><trkpt lat="45.0396805" lon="7.4557643"><ele>394.0</ele><time>2026-04-19T08:33:20.415Z</time></trkpt><trkpt lat="45.0396514" lon="7.4560023"><ele>394.0</ele><time>2026-04-19T08:33:21.415Z</time></trkpt><trkpt lat="45.0396399" lon="7.4562345"><ele>395.6666666666667</ele><time>2026-04-19T08:33:22.415Z</time></trkpt><trkpt lat="45.0396392" lon="7.4564647"><ele>397.33333333333337</ele><time>2026-04-19T08:33:23.415Z</time></trkpt><trkpt lat="45.0396509" lon="7.456701"><ele>399.0</ele><time>2026-04-19T08:33:24.415Z</time></trkpt><trkpt lat="45.0396653" lon="7.4569396"><ele>399.66666666666663</ele><time>2026-04-19T08:33:25.415Z</time></trkpt><trkpt lat="45.0396874" lon="7.4571815"><ele>400.3333333333333</ele><time>2026-04-19T08:33:26.415Z</time></trkpt><trkpt lat="45.0397098" lon="7.4574133"><ele>401.0</ele><time>2026-04-19T08:33:27.415Z</time></trkpt><trkpt lat="45.039732" lon="7.4576323"><ele>401.0</ele><time>2026-04-19T08:33:28.415Z</time></trkpt><trkpt lat="45.0397658" lon="7.4578468"><ele>401.0</ele><time>2026-04-19T08:33:29.415Z</time></trkpt><trkpt lat="45.0398066" lon="7.4580627"><ele>401.0</ele><time>2026-04-19T08:33:30.415Z</time></trkpt><trkpt lat="45.0398521" lon="7.4582704"><ele>402.0</ele><time>2026-04-19T08:33:31.415Z</time></trkpt><trkpt lat="45.0399087" lon="7.4584697"><ele>403.0</ele><time>2026-04-19T08:33:32.415Z</time></trkpt><trkpt lat="45.0399663" lon="7.4586643"><ele>404.0</ele><time>2026-04-19T08:33:33.414Z</time></trkpt><trkpt lat="45.0400321" lon="7.4588597"><ele>399.5</ele><time>2026-04-19T08:33:34.414Z</time></trkpt><trkpt lat="45.0400884" lon="7.4590512"><ele>395.0</ele><time>2026-04-19T08:33:35.415Z</time></trkpt><trkpt lat="45.0401443" lon="7.4592422"><ele>390.5</ele><time>2026-04-19T08:33:36.415Z</time></trkpt><trkpt lat="45.0402019" lon="7.4594399"><ele>386.0</ele><time>2026-04-19T08:33:37.415Z</time></trkpt><trkpt lat="45.0402629" lon="7.4596521"><ele>385.0</ele><time>2026-04-19T08:33:38.415Z</time></trkpt><trkpt lat="45.0403136" lon="7.4598683"><ele>384.0</ele><time>2026-04-19T08:33:39.415Z</time></trkpt><trkpt lat="45.0403529" lon="7.4600942"><ele>383.0</ele><time>2026-04-19T08:33:40.415Z</time></trkpt><trkpt lat="45.0403827" lon="7.4603308"><ele>382.0</ele><time>2026-04-19T08:33:41.415Z</time></trkpt><trkpt lat="45.0404065" lon="7.4605734"><ele>381.0</ele><time>2026-04-19T08:33:42.415Z</time></trkpt><trkpt lat="45.0404219" lon="7.4608136"><ele>380.0</ele><time>2026-04-19T08:33:43.415Z</time></trkpt><trkpt lat="45.0404321" lon="7.4610487"><ele>380.0</ele><time>2026-04-19T08:33:44.415Z</time></trkpt><trkpt lat="45.0404438" lon="7.4612813"><ele>380.0</ele><time>2026-04-19T08:33:45.415Z</time></trkpt><trkpt lat="45.0404592" lon="7.4615057"><ele>380.0</ele><time>2026-04-19T08:33:46.414Z</time></trkpt><trkpt lat="45.0404756" lon="7.4617329"><ele>379.33333333333337</ele><time>2026-04-19T08:33:47.415Z</time></trkpt><trkpt lat="45.0404946" lon="7.4619542"><ele>378.6666666666667</ele><time>2026-04-19T08:33:48.415Z</time></trkpt><trkpt lat="45.0405143" lon="7.462167"><ele>378.0</ele><time>2026-04-19T08:33:49.415Z</time></trkpt><trkpt lat="45.0405446" lon="7.4623669"><ele>377.75</ele><time>2026-04-19T08:33:50.415Z</time></trkpt><trkpt lat="45.0405786" lon="7.4625695"><ele>377.5</ele><time>2026-04-19T08:33:51.415Z</time></trkpt><trkpt lat="45.0406109" lon="7.462766"><ele>377.25</ele><time>2026-04-19T08:33:52.415Z</time></trkpt><trkpt lat="45.0406411" lon="7.4629593"><ele>377.0</ele><time>2026-04-19T08:33:53.415Z</time></trkpt><trkpt lat="45.0406812" lon="7.4631474"><ele>377.0</ele><time>2026-04-19T08:33:54.415Z</time></trkpt><trkpt lat="45.0407168" lon="7.4633321"><ele>377.0</ele><time>2026-04-19T08:33:55.415Z</time></trkpt><trkpt lat="45.0407565" lon="7.4635203"><ele>377.0</ele><time>2026-04-19T08:33:56.414Z</time></trkpt><trkpt lat="45.0407924" lon="7.4637119"><ele>377.0</ele><time>2026-04-19T08:33:57.415Z</time></trkpt><trkpt lat="45.0408284" lon="7.4638931"><ele>377.0</ele><time>2026-04-19T08:33:58.414Z</time></trkpt><trkpt lat="45.0408634" lon="7.4640607"><ele>377.0</ele><time>2026-04-19T08:33:59.415Z</time></trkpt><trkpt lat="45.0408967" lon="7.4642132"><ele>377.0</ele><time>2026-04-19T08:34:00.415Z</time></trkpt><trkpt lat="45.0409232" lon="7.464333"><ele>377.0</ele><time>2026-04-19T08:34:01.415Z</time></trkpt><trkpt lat="45.0409407" lon="7.464434"><ele>377.0</ele><time>2026-04-19T08:34:02.415Z</time></trkpt><trkpt lat="45.0409576" lon="7.4645256"><ele>376.6</ele><time>2026-04-19T08:34:03.415Z</time></trkpt><trkpt lat="45.0409867" lon="7.464713"><ele>376.20000000000005</ele><time>2026-04-19T08:34:05.415Z</time></trkpt><trkpt lat="45.0410115" lon="7.464836"><ele>375.8</ele><time>2026-04-19T08:34:06.415Z</time></trkpt><trkpt lat="45.0410435" lon="7.4649757"><ele>375.4</ele><time>2026-04-19T08:34:07.414Z</time></trkpt><trkpt lat="45.0410778" lon="7.4651334"><ele>375.0</ele><time>2026-04-19T08:34:08.415Z</time></trkpt><trkpt lat="45.0411152" lon="7.4653042"><ele>375.0</ele><time>2026-04-19T08:34:09.414Z</time></trkpt><trkpt lat="45.04115" lon="7.4654875"><ele>375.0</ele><time>2026-04-19T08:34:10.414Z</time></trkpt><trkpt lat="45.0411899" lon="7.465675"><ele>375.0</ele><time>2026-04-19T08:34:11.415Z</time></trkpt><trkpt lat="45.0412297" lon="7.4658713"><ele>375.0</ele><time>2026-04-19T08:34:12.414Z</time></trkpt><trkpt lat="45.0412608" lon="7.4660781"><ele>374.6666666666667</ele><time>2026-04-19T08:34:13.415Z</time></trkpt><trkpt lat="45.0412937" lon="7.4662906"><ele>374.33333333333337</ele><time>2026-04-19T08:34:14.415Z</time></trkpt><trkpt lat="45.0413251" lon="7.4665153"><ele>374.0</ele><time>2026-04-19T08:34:15.415Z</time></trkpt><trkpt lat="45.0413644" lon="7.4667388"><ele>374.0</ele><time>2026-04-19T08:34:16.415Z</time></trkpt><trkpt lat="45.0414038" lon="7.4669645"><ele>374.0</ele><time>2026-04-19T08:34:17.415Z</time></trkpt><trkpt lat="45.0414459" lon="7.4672038"><ele>374.0</ele><time>2026-04-19T08:34:18.415Z</time></trkpt><trkpt lat="45.0414829" lon="7.4674391"><ele>374.33333333333337</ele><time>2026-04-19T08:34:19.414Z</time></trkpt><trkpt lat="45.041524" lon="7.4676786"><ele>374.6666666666667</ele><time>2026-04-19T08:34:20.415Z</time></trkpt><trkpt lat="45.0415636" lon="7.4679206"><ele>375.0</ele><time>2026-04-19T08:34:21.415Z</time></trkpt><trkpt lat="45.0416007" lon="7.4681678"><ele>375.0</ele><time>2026-04-19T08:34:22.415Z</time></trkpt><trkpt lat="45.0416467" lon="7.46841"><ele>375.0</ele><time>2026-04-19T08:34:23.414Z</time></trkpt><trkpt lat="45.0416985" lon="7.468649"><ele>375.0</ele><time>2026-04-19T08:34:24.415Z</time></trkpt><trkpt lat="45.041765" lon="7.4688829"><ele>375.0</ele><time>2026-04-19T08:34:25.415Z</time></trkpt><trkpt lat="45.0418407" lon="7.4691107"><ele>375.0</ele><time>2026-04-19T08:34:26.415Z</time></trkpt><trkpt lat="45.0419277" lon="7.4693323"><ele>375.0</ele><time>2026-04-19T08:34:27.415Z</time></trkpt><trkpt lat="45.0420166" lon="7.4695551"><ele>373.6666666666667</ele><time>2026-04-19T08:34:28.415Z</time></trkpt><trkpt lat="45.0421195" lon="7.4697798"><ele>372.33333333333337</ele><time>2026-04-19T08:34:29.415Z</time></trkpt><trkpt lat="45.0422094" lon="7.4700144"><ele>371.0</ele><time>2026-04-19T08:34:30.415Z</time></trkpt><trkpt lat="45.0422874" lon="7.4702582"><ele>371.0</ele><time>2026-04-19T08:34:31.415Z</time></trkpt><trkpt lat="45.0423511" lon="7.4705114"><ele>371.0</ele><time>2026-04-19T08:34:32.415Z</time></trkpt><trkpt lat="45.0424012" lon="7.4707685"><ele>371.0</ele><time>2026-04-19T08:34:33.415Z</time></trkpt><trkpt lat="45.0424403" lon="7.4710296"><ele>370.6666666666667</ele><time>2026-04-19T08:34:34.415Z</time></trkpt><trkpt lat="45.0424763" lon="7.4712873"><ele>370.3333333333333</ele><time>2026-04-19T08:34:35.414Z</time></trkpt><trkpt lat="45.0425105" lon="7.4715421"><ele>370.0</ele><time>2026-04-19T08:34:36.415Z</time></trkpt><trkpt lat="45.0425463" lon="7.471795"><ele>370.0</ele><time>2026-04-19T08:34:37.415Z</time></trkpt><trkpt lat="45.0425847" lon="7.4720454"><ele>370.0</ele><time>2026-04-19T08:34:38.415Z</time></trkpt><trkpt lat="45.042627" lon="7.4722941"><ele>370.0</ele><time>2026-04-19T08:34:39.415Z</time></trkpt><trkpt lat="45.0426706" lon="7.4725423"><ele>369.3333333333333</ele><time>2026-04-19T08:34:40.415Z</time></trkpt><trkpt lat="45.0427179" lon="7.4727887"><ele>368.6666666666667</ele><time>2026-04-19T08:34:41.414Z</time></trkpt><trkpt lat="45.0427682" lon="7.4730405"><ele>368.0</ele><time>2026-04-19T08:34:42.415Z</time></trkpt><trkpt lat="45.0428195" lon="7.4732859"><ele>368.0</ele><time>2026-04-19T08:34:43.414Z</time></trkpt><trkpt lat="45.0428718" lon="7.4735217"><ele>368.0</ele><time>2026-04-19T08:34:44.415Z</time></trkpt><trkpt lat="45.0429239" lon="7.4737462"><ele>368.0</ele><time>2026-04-19T08:34:45.415Z</time></trkpt><trkpt lat="45.042978" lon="7.4739657"><ele>367.0</ele><time>2026-04-19T08:34:46.415Z</time></trkpt><trkpt lat="45.0430315" lon="7.474181"><ele>366.0</ele><time>2026-04-19T08:34:47.415Z</time></trkpt><trkpt lat="45.0430836" lon="7.4743924"><ele>365.0</ele><time>2026-04-19T08:34:48.415Z</time></trkpt><trkpt lat="45.0431324" lon="7.4746026"><ele>364.6666666666667</ele><time>2026-04-19T08:34:49.415Z</time></trkpt><trkpt lat="45.0431798" lon="7.4748167"><ele>364.3333333333333</ele><time>2026-04-19T08:34:50.414Z</time></trkpt><trkpt lat="45.0432295" lon="7.4750309"><ele>364.0</ele><time>2026-04-19T08:34:51.415Z</time></trkpt><trkpt lat="45.0432796" lon="7.4752447"><ele>364.3333333333333</ele><time>2026-04-19T08:34:52.415Z</time></trkpt><trkpt lat="45.0433321" lon="7.4754597"><ele>364.6666666666667</ele><time>2026-04-19T08:34:53.415Z</time></trkpt><trkpt lat="45.0433855" lon="7.4756746"><ele>365.0</ele><time>2026-04-19T08:34:54.415Z</time></trkpt><trkpt lat="45.0434388" lon="7.4758909"><ele>365.0</ele><time>2026-04-19T08:34:55.415Z</time></trkpt><trkpt lat="45.043495" lon="7.476116"><ele>365.0</ele><time>2026-04-19T08:34:56.415Z</time></trkpt><trkpt lat="45.0435482" lon="7.4763394"><ele>365.0</ele><time>2026-04-19T08:34:57.415Z</time></trkpt><trkpt lat="45.0436044" lon="7.4765645"><ele>364.6666666666667</ele><time>2026-04-19T08:34:58.415Z</time></trkpt><trkpt lat="45.0436561" lon="7.476792"><ele>364.3333333333333</ele><time>2026-04-19T08:34:59.415Z</time></trkpt><trkpt lat="45.043705" lon="7.477019"><ele>364.0</ele><time>2026-04-19T08:35:00.415Z</time></trkpt><trkpt lat="45.043753" lon="7.4772468"><ele>364.0</ele><time>2026-04-19T08:35:01.415Z</time></trkpt><trkpt lat="45.043797" lon="7.4774736"><ele>364.0</ele><time>2026-04-19T08:35:02.415Z</time></trkpt><trkpt lat="45.0438348" lon="7.4777014"><ele>364.0</ele><time>2026-04-19T08:35:03.415Z</time></trkpt><trkpt lat="45.0438772" lon="7.4779167"><ele>364.0</ele><time>2026-04-19T08:35:04.415Z</time></trkpt><trkpt lat="45.0439185" lon="7.4781313"><ele>364.0</ele><time>2026-04-19T08:35:05.415Z</time></trkpt><trkpt lat="45.0439542" lon="7.478338"><ele>364.0</ele><time>2026-04-19T08:35:06.415Z</time></trkpt><trkpt lat="45.0439907" lon="7.4785382"><ele>364.0</ele><time>2026-04-19T08:35:07.415Z</time></trkpt><trkpt lat="45.0440307" lon="7.478744"><ele>364.0</ele><time>2026-04-19T08:35:08.415Z</time></trkpt><trkpt lat="45.0440749" lon="7.4789504"><ele>364.0</ele><time>2026-04-19T08:35:09.414Z</time></trkpt><trkpt lat="45.0441276" lon="7.4791616"><ele>363.66666666666663</ele><time>2026-04-19T08:35:10.414Z</time></trkpt><trkpt lat="45.0441891" lon="7.4793776"><ele>363.3333333333333</ele><time>2026-04-19T08:35:11.415Z</time></trkpt><trkpt lat="45.0442603" lon="7.4795917"><ele>363.0</ele><time>2026-04-19T08:35:12.415Z</time></trkpt><trkpt lat="45.0443378" lon="7.4798001"><ele>362.3333333333333</ele><time>2026-04-19T08:35:13.415Z</time></trkpt><trkpt lat="45.0444193" lon="7.4800014"><ele>361.66666666666663</ele><time>2026-04-19T08:35:14.415Z</time></trkpt><trkpt lat="45.0444993" lon="7.4802013"><ele>361.0</ele><time>2026-04-19T08:35:15.414Z</time></trkpt><trkpt lat="45.044579" lon="7.480401"><ele>360.3333333333333</ele><time>2026-04-19T08:35:16.415Z</time></trkpt><trkpt lat="45.0446581" lon="7.4805959"><ele>359.6666666666667</ele><time>2026-04-19T08:35:17.415Z</time></trkpt><trkpt lat="45.0447374" lon="7.4807907"><ele>359.0</ele><time>2026-04-19T08:35:18.415Z</time></trkpt><trkpt lat="45.0448141" lon="7.4809796"><ele>359.0</ele><time>2026-04-19T08:35:19.414Z</time></trkpt><trkpt lat="45.0448824" lon="7.4811638"><ele>359.0</ele><time>2026-04-19T08:35:20.415Z</time></trkpt><trkpt lat="45.0449524" lon="7.48133"><ele>359.0</ele><time>2026-04-19T08:35:21.414Z</time></trkpt><trkpt lat="45.045017" lon="7.4814876"><ele>359.0</ele><time>2026-04-19T08:35:22.415Z</time></trkpt><trkpt lat="45.0450851" lon="7.4816403"><ele>359.0</ele><time>2026-04-19T08:35:23.415Z</time></trkpt><trkpt lat="45.0451466" lon="7.4817908"><ele>359.0</ele><time>2026-04-19T08:35:24.415Z</time></trkpt><trkpt lat="45.0452028" lon="7.4819264"><ele>359.0</ele><time>2026-04-19T08:35:25.415Z</time></trkpt><trkpt lat="45.0452537" lon="7.4820562"><ele>359.0</ele><time>2026-04-19T08:35:26.415Z</time></trkpt><trkpt lat="45.045305" lon="7.4821502"><ele>359.0</ele><time>2026-04-19T08:35:27.415Z</time></trkpt><trkpt lat="45.0453747" lon="7.482257"><ele>358.8571428571429</ele><time>2026-04-19T08:35:29.415Z</time></trkpt><trkpt lat="45.045427" lon="7.4823234"><ele>358.7142857142857</ele><time>2026-04-19T08:35:31.415Z</time></trkpt><trkpt lat="45.0454686" lon="7.4823944"><ele>358.57142857142856</ele><time>2026-04-19T08:35:33.414Z</time></trkpt><trkpt lat="45.0454934" lon="7.4824992"><ele>358.42857142857144</ele><time>2026-04-19T08:35:35.415Z</time></trkpt><trkpt lat="45.045538" lon="7.4826217"><ele>358.2857142857143</ele><time>2026-04-19T08:35:37.415Z</time></trkpt><trkpt lat="45.0455786" lon="7.4826912"><ele>358.14285714285717</ele><time>2026-04-19T08:35:38.415Z</time></trkpt><trkpt lat="45.0456224" lon="7.4827639"><ele>358.0</ele><time>2026-04-19T08:35:39.415Z</time></trkpt><trkpt lat="45.0456672" lon="7.4828523"><ele>358.2</ele><time>2026-04-19T08:35:40.415Z</time></trkpt><trkpt lat="45.0457084" lon="7.4829653"><ele>358.4</ele><time>2026-04-19T08:35:41.415Z</time></trkpt><trkpt lat="45.0457535" lon="7.4830971"><ele>358.59999999999997</ele><time>2026-04-19T08:35:42.414Z</time></trkpt><trkpt lat="45.0458082" lon="7.4832429"><ele>358.79999999999995</ele><time>2026-04-19T08:35:43.414Z</time></trkpt><trkpt lat="45.0458728" lon="7.4834074"><ele>359.0</ele><time>2026-04-19T08:35:44.415Z</time></trkpt><trkpt lat="45.0459353" lon="7.4835911"><ele>359.6666666666667</ele><time>2026-04-19T08:35:45.415Z</time></trkpt><trkpt lat="45.0459965" lon="7.483787"><ele>360.3333333333333</ele><time>2026-04-19T08:35:46.415Z</time></trkpt><trkpt lat="45.0460562" lon="7.4839951"><ele>361.0</ele><time>2026-04-19T08:35:47.415Z</time></trkpt><trkpt lat="45.0461153" lon="7.4841954"><ele>361.0</ele><time>2026-04-19T08:35:48.415Z</time></trkpt><trkpt lat="45.0461736" lon="7.4843873"><ele>361.0</ele><time>2026-04-19T08:35:49.415Z</time></trkpt><trkpt lat="45.0462334" lon="7.4845717"><ele>361.0</ele><time>2026-04-19T08:35:50.415Z</time></trkpt><trkpt lat="45.0462905" lon="7.484751"><ele>361.0</ele><time>2026-04-19T08:35:51.415Z</time></trkpt><trkpt lat="45.0463414" lon="7.4849192"><ele>360.4</ele><time>2026-04-19T08:35:52.415Z</time></trkpt><trkpt lat="45.0463916" lon="7.4850827"><ele>359.8</ele><time>2026-04-19T08:35:53.415Z</time></trkpt><trkpt lat="45.0464371" lon="7.4852292"><ele>359.2</ele><time>2026-04-19T08:35:54.415Z</time></trkpt><trkpt lat="45.0464763" lon="7.485358"><ele>358.59999999999997</ele><time>2026-04-19T08:35:55.415Z</time></trkpt><trkpt lat="45.0465147" lon="7.4854716"><ele>358.0</ele><time>2026-04-19T08:35:56.414Z</time></trkpt><trkpt lat="45.0465498" lon="7.4855738"><ele>358.0</ele><time>2026-04-19T08:35:57.414Z</time></trkpt><trkpt lat="45.04658" lon="7.4856688"><ele>358.0</ele><time>2026-04-19T08:35:58.415Z</time></trkpt><trkpt lat="45.0466101" lon="7.485772"><ele>358.0</ele><time>2026-04-19T08:35:59.415Z</time></trkpt><trkpt lat="45.0466465" lon="7.4858776"><ele>358.0</ele><time>2026-04-19T08:36:00.414Z</time></trkpt><trkpt lat="45.0466876" lon="7.4859942"><ele>358.0</ele><time>2026-04-19T08:36:01.414Z</time></trkpt><trkpt lat="45.0467277" lon="7.4861236"><ele>358.0</ele><time>2026-04-19T08:36:02.414Z</time></trkpt><trkpt lat="45.0467686" lon="7.4862563"><ele>358.4</ele><time>2026-04-19T08:36:03.415Z</time></trkpt><trkpt lat="45.0468098" lon="7.4863971"><ele>358.79999999999995</ele><time>2026-04-19T08:36:04.415Z</time></trkpt><trkpt lat="45.0468533" lon="7.4865381"><ele>359.2</ele><time>2026-04-19T08:36:05.415Z</time></trkpt><trkpt lat="45.0468986" lon="7.4866753"><ele>359.6</ele><time>2026-04-19T08:36:06.414Z</time></trkpt><trkpt lat="45.0469419" lon="7.4868044"><ele>360.0</ele><time>2026-04-19T08:36:07.415Z</time></trkpt><trkpt lat="45.0469792" lon="7.4869219"><ele>360.0</ele><time>2026-04-19T08:36:08.415Z</time></trkpt><trkpt lat="45.0470151" lon="7.48704"><ele>360.0</ele><time>2026-04-19T08:36:09.415Z</time></trkpt><trkpt lat="45.0470483" lon="7.4871526"><ele>360.0</ele><time>2026-04-19T08:36:10.414Z</time></trkpt><trkpt lat="45.0470828" lon="7.487264"><ele>360.0</ele><time>2026-04-19T08:36:11.415Z</time></trkpt><trkpt lat="45.0471201" lon="7.4873807"><ele>360.0</ele><time>2026-04-19T08:36:12.415Z</time></trkpt><trkpt lat="45.0471603" lon="7.4875022"><ele>360.0</ele><time>2026-04-19T08:36:13.415Z</time></trkpt><trkpt lat="45.0472001" lon="7.4876234"><ele>360.0</ele><time>2026-04-19T08:36:14.415Z</time></trkpt><trkpt lat="45.0472351" lon="7.487742"><ele>360.0</ele><time>2026-04-19T08:36:15.414Z</time></trkpt><trkpt lat="45.0472725" lon="7.4878476"><ele>360.0</ele><time>2026-04-19T08:36:16.415Z</time></trkpt><trkpt lat="45.0473015" lon="7.4879457"><ele>360.0</ele><time>2026-04-19T08:36:17.415Z</time></trkpt><trkpt lat="45.0473264" lon="7.4880325"><ele>360.0</ele><time>2026-04-19T08:36:18.415Z</time></trkpt><trkpt lat="45.047368" lon="7.4881902"><ele>360.0</ele><time>2026-04-19T08:36:20.415Z</time></trkpt><trkpt lat="45.0473929" lon="7.4883577"><ele>359.8333333333333</ele><time>2026-04-19T08:36:22.414Z</time></trkpt><trkpt lat="45.0473936" lon="7.488448"><ele>359.6666666666667</ele><time>2026-04-19T08:36:23.414Z</time></trkpt><trkpt lat="45.0473926" lon="7.4885374"><ele>359.5</ele><time>2026-04-19T08:36:24.415Z</time></trkpt><trkpt lat="45.0474099" lon="7.4886239"><ele>359.33333333333337</ele><time>2026-04-19T08:36:25.415Z</time></trkpt><trkpt lat="45.0474861" lon="7.4887622"><ele>359.1666666666667</ele><time>2026-04-19T08:36:27.414Z</time></trkpt><trkpt lat="45.0475461" lon="7.4888504"><ele>359.0</ele><time>2026-04-19T08:36:28.415Z</time></trkpt><trkpt lat="45.0475934" lon="7.4889579"><ele>359.0</ele><time>2026-04-19T08:36:29.414Z</time></trkpt><trkpt lat="45.0476363" lon="7.4890799"><ele>359.0</ele><time>2026-04-19T08:36:30.415Z</time></trkpt><trkpt lat="45.0476827" lon="7.4892148"><ele>359.0</ele><time>2026-04-19T08:36:31.415Z</time></trkpt><trkpt lat="45.0477275" lon="7.4893545"><ele>359.0</ele><time>2026-04-19T08:36:32.415Z</time></trkpt><trkpt lat="45.0477786" lon="7.4895011"><ele>359.0</ele><time>2026-04-19T08:36:33.415Z</time></trkpt><trkpt lat="45.0478273" lon="7.4896569"><ele>358.75</ele><time>2026-04-19T08:36:34.415Z</time></trkpt><trkpt lat="45.0478794" lon="7.4898169"><ele>358.5</ele><time>2026-04-19T08:36:35.415Z</time></trkpt><trkpt lat="45.0479343" lon="7.489984"><ele>358.25</ele><time>2026-04-19T08:36:36.415Z</time></trkpt><trkpt lat="45.0479845" lon="7.4901517"><ele>358.0</ele><time>2026-04-19T08:36:37.415Z</time></trkpt><trkpt lat="45.0480356" lon="7.490317"><ele>357.5</ele><time>2026-04-19T08:36:38.414Z</time></trkpt><trkpt lat="45.048087" lon="7.4904796"><ele>357.0</ele><time>2026-04-19T08:36:39.414Z</time></trkpt><trkpt lat="45.0481364" lon="7.4906391"><ele>356.5</ele><time>2026-04-19T08:36:40.415Z</time></trkpt><trkpt lat="45.0481862" lon="7.4908002"><ele>356.0</ele><time>2026-04-19T08:36:41.415Z</time></trkpt><trkpt lat="45.0482384" lon="7.4909635"><ele>356.0</ele><time>2026-04-19T08:36:42.415Z</time></trkpt><trkpt lat="45.0482875" lon="7.4911247"><ele>356.0</ele><time>2026-04-19T08:36:43.415Z</time></trkpt><trkpt lat="45.0483384" lon="7.4912851"><ele>356.0</ele><time>2026-04-19T08:36:44.415Z</time></trkpt><trkpt lat="45.0483891" lon="7.4914473"><ele>356.0</ele><time>2026-04-19T08:36:45.415Z</time></trkpt><trkpt lat="45.0484388" lon="7.4916087"><ele>355.75</ele><time>2026-04-19T08:36:46.415Z</time></trkpt><trkpt lat="45.0484899" lon="7.4917643"><ele>355.5</ele><time>2026-04-19T08:36:47.415Z</time></trkpt><trkpt lat="45.0485376" lon="7.491913"><ele>355.25</ele><time>2026-04-19T08:36:48.415Z</time></trkpt><trkpt lat="45.0485858" lon="7.4920685"><ele>355.0</ele><time>2026-04-19T08:36:49.415Z</time></trkpt><trkpt lat="45.0486343" lon="7.4922206"><ele>355.0</ele><time>2026-04-19T08:36:50.415Z</time></trkpt><trkpt lat="45.0486865" lon="7.4923747"><ele>355.0</ele><time>2026-04-19T08:36:51.415Z</time></trkpt><trkpt lat="45.0487372" lon="7.4925278"><ele>355.0</ele><time>2026-04-19T08:36:52.415Z</time></trkpt><trkpt lat="45.0487849" lon="7.4926883"><ele>355.0</ele><time>2026-04-19T08:36:53.415Z</time></trkpt><trkpt lat="45.048832" lon="7.4928515"><ele>354.75</ele><time>2026-04-19T08:36:54.415Z</time></trkpt><trkpt lat="45.0488839" lon="7.4930182"><ele>354.5</ele><time>2026-04-19T08:36:55.415Z</time></trkpt><trkpt lat="45.0489382" lon="7.4931845"><ele>354.25</ele><time>2026-04-19T08:36:56.415Z</time></trkpt><trkpt lat="45.0489955" lon="7.4933514"><ele>354.0</ele><time>2026-04-19T08:36:57.415Z</time></trkpt><trkpt lat="45.0490558" lon="7.4935058"><ele>354.0</ele><time>2026-04-19T08:36:58.415Z</time></trkpt><trkpt lat="45.0491211" lon="7.4936455"><ele>354.0</ele><time>2026-04-19T08:36:59.414Z</time></trkpt><trkpt lat="45.0491943" lon="7.4937753"><ele>354.0</ele><time>2026-04-19T08:37:00.415Z</time></trkpt><trkpt lat="45.0492809" lon="7.4938948"><ele>354.0</ele><time>2026-04-19T08:37:01.415Z</time></trkpt><trkpt lat="45.0493781" lon="7.4940119"><ele>352.75</ele><time>2026-04-19T08:37:02.415Z</time></trkpt><trkpt lat="45.049482" lon="7.4941273"><ele>351.5</ele><time>2026-04-19T08:37:03.414Z</time></trkpt><trkpt lat="45.0495922" lon="7.4942498"><ele>350.25</ele><time>2026-04-19T08:37:04.415Z</time></trkpt><trkpt lat="45.0497034" lon="7.4943757"><ele>349.0</ele><time>2026-04-19T08:37:05.414Z</time></trkpt><trkpt lat="45.0498168" lon="7.4945075"><ele>349.0</ele><time>2026-04-19T08:37:06.414Z</time></trkpt><trkpt lat="45.0499332" lon="7.4946376"><ele>349.0</ele><time>2026-04-19T08:37:07.415Z</time></trkpt><trkpt lat="45.0500481" lon="7.4947646"><ele>349.0</ele><time>2026-04-19T08:37:08.415Z</time></trkpt><trkpt lat="45.050157" lon="7.4948845"><ele>349.0</ele><time>2026-04-19T08:37:09.415Z</time></trkpt><trkpt lat="45.0502576" lon="7.4950028"><ele>348.75</ele><time>2026-04-19T08:37:10.414Z</time></trkpt><trkpt lat="45.0503611" lon="7.4951133"><ele>348.5</ele><time>2026-04-19T08:37:11.415Z</time></trkpt><trkpt lat="45.0504617" lon="7.4952259"><ele>348.25</ele><time>2026-04-19T08:37:12.415Z</time></trkpt><trkpt lat="45.0505603" lon="7.4953393"><ele>348.0</ele><time>2026-04-19T08:37:13.414Z</time></trkpt><trkpt lat="45.0506532" lon="7.4954494"><ele>348.5</ele><time>2026-04-19T08:37:14.415Z</time></trkpt><trkpt lat="45.0507493" lon="7.4955578"><ele>349.0</ele><time>2026-04-19T08:37:15.415Z</time></trkpt><trkpt lat="45.05085" lon="7.4956686"><ele>349.5</ele><time>2026-04-19T08:37:16.415Z</time></trkpt><trkpt lat="45.0509504" lon="7.4957744"><ele>350.0</ele><time>2026-04-19T08:37:17.415Z</time></trkpt><trkpt lat="45.0510464" lon="7.4958754"><ele>350.0</ele><time>2026-04-19T08:37:18.415Z</time></trkpt><trkpt lat="45.0511354" lon="7.4959757"><ele>350.0</ele><time>2026-04-19T08:37:19.415Z</time></trkpt><trkpt lat="45.0512261" lon="7.4960775"><ele>350.0</ele><time>2026-04-19T08:37:20.414Z</time></trkpt><trkpt lat="45.0513168" lon="7.4961791"><ele>350.0</ele><time>2026-04-19T08:37:21.415Z</time></trkpt><trkpt lat="45.0514111" lon="7.4962832"><ele>350.0</ele><time>2026-04-19T08:37:22.414Z</time></trkpt><trkpt lat="45.0515083" lon="7.4963988"><ele>350.0</ele><time>2026-04-19T08:37:23.415Z</time></trkpt><trkpt lat="45.0516072" lon="7.4965183"><ele>350.0</ele><time>2026-04-19T08:37:24.415Z</time></trkpt><trkpt lat="45.0517105" lon="7.49663"><ele>350.0</ele><time>2026-04-19T08:37:25.415Z</time></trkpt><trkpt lat="45.0518138" lon="7.4967449"><ele>350.75</ele><time>2026-04-19T08:37:26.415Z</time></trkpt><trkpt lat="45.051915" lon="7.496871"><ele>351.5</ele><time>2026-04-19T08:37:27.415Z</time></trkpt><trkpt lat="45.0520047" lon="7.4970122"><ele>352.25</ele><time>2026-04-19T08:37:28.415Z</time></trkpt><trkpt lat="45.0520903" lon="7.4971631"><ele>353.0</ele><time>2026-04-19T08:37:29.415Z</time></trkpt><trkpt lat="45.0521719" lon="7.4973303"><ele>353.0</ele><time>2026-04-19T08:37:30.415Z</time></trkpt><trkpt lat="45.0522464" lon="7.4974956"><ele>353.0</ele><time>2026-04-19T08:37:31.415Z</time></trkpt><trkpt lat="45.0523184" lon="7.4976712"><ele>353.0</ele><time>2026-04-19T08:37:32.415Z</time></trkpt><trkpt lat="45.052387" lon="7.49785"><ele>353.0</ele><time>2026-04-19T08:37:33.414Z</time></trkpt><trkpt lat="45.0524567" lon="7.4980326"><ele>353.0</ele><time>2026-04-19T08:37:34.415Z</time></trkpt><trkpt lat="45.0525256" lon="7.4982067"><ele>353.0</ele><time>2026-04-19T08:37:35.415Z</time></trkpt><trkpt lat="45.0525921" lon="7.4983813"><ele>353.0</ele><time>2026-04-19T08:37:36.415Z</time></trkpt><trkpt lat="45.0526573" lon="7.4985575"><ele>353.0</ele><time>2026-04-19T08:37:37.415Z</time></trkpt><trkpt lat="45.0527192" lon="7.4987403"><ele>353.25</ele><time>2026-04-19T08:37:38.415Z</time></trkpt><trkpt lat="45.0527734" lon="7.4989268"><ele>353.5</ele><time>2026-04-19T08:37:39.415Z</time></trkpt><trkpt lat="45.0528197" lon="7.4991186"><ele>353.75</ele><time>2026-04-19T08:37:40.415Z</time></trkpt><trkpt lat="45.0528557" lon="7.4993188"><ele>354.0</ele><time>2026-04-19T08:37:41.414Z</time></trkpt><trkpt lat="45.0528769" lon="7.4995283"><ele>353.3333333333333</ele><time>2026-04-19T08:37:42.415Z</time></trkpt><trkpt lat="45.0528863" lon="7.4997429"><ele>352.66666666666663</ele><time>2026-04-19T08:37:43.415Z</time></trkpt><trkpt lat="45.0528802" lon="7.4999666"><ele>352.0</ele><time>2026-04-19T08:37:44.415Z</time></trkpt><trkpt lat="45.0528645" lon="7.5001851"><ele>352.0</ele><time>2026-04-19T08:37:45.414Z</time></trkpt><trkpt lat="45.0528449" lon="7.5003902"><ele>352.0</ele><time>2026-04-19T08:37:46.414Z</time></trkpt><trkpt lat="45.0528204" lon="7.500589"><ele>352.0</ele><time>2026-04-19T08:37:47.415Z</time></trkpt><trkpt lat="45.052796" lon="7.5007709"><ele>352.0</ele><time>2026-04-19T08:37:48.415Z</time></trkpt><trkpt lat="45.0527705" lon="7.5009385"><ele>351.75</ele><time>2026-04-19T08:37:49.415Z</time></trkpt><trkpt lat="45.0527447" lon="7.5011048"><ele>351.5</ele><time>2026-04-19T08:37:50.415Z</time></trkpt><trkpt lat="45.0527223" lon="7.5012776"><ele>351.25</ele><time>2026-04-19T08:37:51.415Z</time></trkpt><trkpt lat="45.0526977" lon="7.5014645"><ele>351.0</ele><time>2026-04-19T08:37:52.415Z</time></trkpt><trkpt lat="45.0526697" lon="7.5016532"><ele>350.5</ele><time>2026-04-19T08:37:53.415Z</time></trkpt><trkpt lat="45.0526408" lon="7.5018505"><ele>350.0</ele><time>2026-04-19T08:37:54.415Z</time></trkpt><trkpt lat="45.0526044" lon="7.502055"><ele>349.5</ele><time>2026-04-19T08:37:55.415Z</time></trkpt><trkpt lat="45.05257" lon="7.5022629"><ele>349.0</ele><time>2026-04-19T08:37:56.414Z</time></trkpt><trkpt lat="45.0525359" lon="7.5024623"><ele>348.75</ele><time>2026-04-19T08:37:57.415Z</time></trkpt><trkpt lat="45.0525048" lon="7.5026518"><ele>348.5</ele><time>2026-04-19T08:37:58.415Z</time></trkpt><trkpt lat="45.0524757" lon="7.5028414"><ele>348.25</ele><time>2026-04-19T08:37:59.415Z</time></trkpt><trkpt lat="45.0524485" lon="7.5030349"><ele>348.0</ele><time>2026-04-19T08:38:00.414Z</time></trkpt><trkpt lat="45.0524156" lon="7.5032267"><ele>346.75</ele><time>2026-04-19T08:38:01.415Z</time></trkpt><trkpt lat="45.052388" lon="7.5034191"><ele>345.5</ele><time>2026-04-19T08:38:02.415Z</time></trkpt><trkpt lat="45.052369" lon="7.5036095"><ele>344.25</ele><time>2026-04-19T08:38:03.414Z</time></trkpt><trkpt lat="45.0523636" lon="7.5037933"><ele>343.0</ele><time>2026-04-19T08:38:04.414Z</time></trkpt><trkpt lat="45.0523789" lon="7.5039696"><ele>343.25</ele><time>2026-04-19T08:38:05.414Z</time></trkpt><trkpt lat="45.0524197" lon="7.5041425"><ele>343.5</ele><time>2026-04-19T08:38:06.413Z</time></trkpt><trkpt lat="45.0524847" lon="7.504305"><ele>343.75</ele><time>2026-04-19T08:38:07.414Z</time></trkpt><trkpt lat="45.0525757" lon="7.504464"><ele>344.0</ele><time>2026-04-19T08:38:08.414Z</time></trkpt><trkpt lat="45.0526757" lon="7.5046154"><ele>344.0</ele><time>2026-04-19T08:38:09.414Z</time></trkpt><trkpt lat="45.0527899" lon="7.5047684"><ele>344.0</ele><time>2026-04-19T08:38:10.413Z</time></trkpt><trkpt lat="45.0529027" lon="7.5049154"><ele>344.0</ele><time>2026-04-19T08:38:11.414Z</time></trkpt><trkpt lat="45.0530131" lon="7.5050605"><ele>344.0</ele><time>2026-04-19T08:38:12.414Z</time></trkpt><trkpt lat="45.0531183" lon="7.5052019"><ele>344.0</ele><time>2026-04-19T08:38:13.414Z</time></trkpt><trkpt lat="45.0532286" lon="7.5053414"><ele>344.0</ele><time>2026-04-19T08:38:14.413Z</time></trkpt><trkpt lat="45.0533373" lon="7.5054798"><ele>344.0</ele><time>2026-04-19T08:38:15.413Z</time></trkpt><trkpt lat="45.0534431" lon="7.5056189"><ele>344.0</ele><time>2026-04-19T08:38:16.414Z</time></trkpt><trkpt lat="45.0535492" lon="7.5057568"><ele>344.0</ele><time>2026-04-19T08:38:17.414Z</time></trkpt><trkpt lat="45.0536552" lon="7.5058967"><ele>344.0</ele><time>2026-04-19T08:38:18.414Z</time></trkpt><trkpt lat="45.0537643" lon="7.5060371"><ele>344.0</ele><time>2026-04-19T08:38:19.413Z</time></trkpt><trkpt lat="45.053876" lon="7.5061767"><ele>343.6666666666667</ele><time>2026-04-19T08:38:20.414Z</time></trkpt><trkpt lat="45.0539914" lon="7.5063214"><ele>343.3333333333333</ele><time>2026-04-19T08:38:21.414Z</time></trkpt><trkpt lat="45.0541041" lon="7.5064748"><ele>343.0</ele><time>2026-04-19T08:38:22.414Z</time></trkpt><trkpt lat="45.0542161" lon="7.5066256"><ele>343.66666666666663</ele><time>2026-04-19T08:38:23.414Z</time></trkpt><trkpt lat="45.0543291" lon="7.5067769"><ele>344.3333333333333</ele><time>2026-04-19T08:38:24.414Z</time></trkpt><trkpt lat="45.0544445" lon="7.5069301"><ele>345.0</ele><time>2026-04-19T08:38:25.413Z</time></trkpt><trkpt lat="45.0545588" lon="7.5070812"><ele>345.0</ele><time>2026-04-19T08:38:26.414Z</time></trkpt><trkpt lat="45.0546735" lon="7.5072336"><ele>345.0</ele><time>2026-04-19T08:38:27.414Z</time></trkpt><trkpt lat="45.0547888" lon="7.5073867"><ele>345.0</ele><time>2026-04-19T08:38:28.413Z</time></trkpt><trkpt lat="45.0549109" lon="7.5075408"><ele>346.6666666666667</ele><time>2026-04-19T08:38:29.414Z</time></trkpt><trkpt lat="45.055031" lon="7.5076956"><ele>348.33333333333337</ele><time>2026-04-19T08:38:30.413Z</time></trkpt><trkpt lat="45.0551522" lon="7.5078474"><ele>350.0</ele><time>2026-04-19T08:38:31.414Z</time></trkpt><trkpt lat="45.0552785" lon="7.5079985"><ele>350.0</ele><time>2026-04-19T08:38:32.414Z</time></trkpt><trkpt lat="45.0554041" lon="7.5081537"><ele>350.0</ele><time>2026-04-19T08:38:33.414Z</time></trkpt><trkpt lat="45.0555272" lon="7.5083171"><ele>350.0</ele><time>2026-04-19T08:38:34.414Z</time></trkpt><trkpt lat="45.0556523" lon="7.5084773"><ele>350.0</ele><time>2026-04-19T08:38:35.414Z</time></trkpt><trkpt lat="45.0557742" lon="7.5086405"><ele>350.0</ele><time>2026-04-19T08:38:36.414Z</time></trkpt><trkpt lat="45.0558974" lon="7.5088012"><ele>350.0</ele><time>2026-04-19T08:38:37.413Z</time></trkpt><trkpt lat="45.056023" lon="7.5089627"><ele>351.33333333333337</ele><time>2026-04-19T08:38:38.414Z</time></trkpt><trkpt lat="45.056146" lon="7.5091197"><ele>352.6666666666667</ele><time>2026-04-19T08:38:39.414Z</time></trkpt><trkpt lat="45.0562631" lon="7.5092728"><ele>354.0</ele><time>2026-04-19T08:38:40.414Z</time></trkpt><trkpt lat="45.0563771" lon="7.5094178"><ele>354.0</ele><time>2026-04-19T08:38:41.414Z</time></trkpt><trkpt lat="45.056489" lon="7.5095585"><ele>354.0</ele><time>2026-04-19T08:38:42.414Z</time></trkpt><trkpt lat="45.056595" lon="7.5096945"><ele>354.0</ele><time>2026-04-19T08:38:43.414Z</time></trkpt><trkpt lat="45.0566988" lon="7.5098281"><ele>354.0</ele><time>2026-04-19T08:38:44.414Z</time></trkpt><trkpt lat="45.0568089" lon="7.5099576"><ele>356.25</ele><time>2026-04-19T08:38:45.414Z</time></trkpt><trkpt lat="45.0569238" lon="7.5100815"><ele>358.5</ele><time>2026-04-19T08:38:46.413Z</time></trkpt><trkpt lat="45.0570389" lon="7.5102028"><ele>360.75</ele><time>2026-04-19T08:38:47.414Z</time></trkpt><trkpt lat="45.0571601" lon="7.510337"><ele>363.0</ele><time>2026-04-19T08:38:48.414Z</time></trkpt><trkpt lat="45.0572812" lon="7.5104671"><ele>363.0</ele><time>2026-04-19T08:38:49.414Z</time></trkpt><trkpt lat="45.0574061" lon="7.5106027"><ele>363.0</ele><time>2026-04-19T08:38:50.414Z</time></trkpt><trkpt lat="45.0575354" lon="7.5107338"><ele>363.0</ele><time>2026-04-19T08:38:51.414Z</time></trkpt><trkpt lat="45.0576675" lon="7.5108642"><ele>363.3333333333333</ele><time>2026-04-19T08:38:52.413Z</time></trkpt><trkpt lat="45.0578014" lon="7.5109964"><ele>363.66666666666663</ele><time>2026-04-19T08:38:53.414Z</time></trkpt><trkpt lat="45.0579421" lon="7.5111077"><ele>364.0</ele><time>2026-04-19T08:38:54.413Z</time></trkpt><trkpt lat="45.0580839" lon="7.5112293"><ele>361.66666666666663</ele><time>2026-04-19T08:38:55.414Z</time></trkpt><trkpt lat="45.0582278" lon="7.51136"><ele>359.3333333333333</ele><time>2026-04-19T08:38:56.414Z</time></trkpt><trkpt lat="45.0583761" lon="7.5114865"><ele>357.0</ele><time>2026-04-19T08:38:57.414Z</time></trkpt><trkpt lat="45.0585234" lon="7.5116198"><ele>357.0</ele><time>2026-04-19T08:38:58.414Z</time></trkpt><trkpt lat="45.0586649" lon="7.5117507"><ele>357.0</ele><time>2026-04-19T08:38:59.414Z</time></trkpt><trkpt lat="45.0588052" lon="7.5118824"><ele>357.0</ele><time>2026-04-19T08:39:00.414Z</time></trkpt><trkpt lat="45.058943" lon="7.5120128"><ele>356.6666666666667</ele><time>2026-04-19T08:39:01.414Z</time></trkpt><trkpt lat="45.059077" lon="7.512141"><ele>356.33333333333337</ele><time>2026-04-19T08:39:02.413Z</time></trkpt><trkpt lat="45.0592091" lon="7.512272"><ele>356.0</ele><time>2026-04-19T08:39:03.414Z</time></trkpt><trkpt lat="45.0593381" lon="7.5124024"><ele>355.6666666666667</ele><time>2026-04-19T08:39:04.414Z</time></trkpt><trkpt lat="45.0594644" lon="7.5125434"><ele>355.3333333333333</ele><time>2026-04-19T08:39:05.413Z</time></trkpt><trkpt lat="45.0595807" lon="7.5127046"><ele>355.0</ele><time>2026-04-19T08:39:06.413Z</time></trkpt><trkpt lat="45.0596887" lon="7.5128809"><ele>355.75</ele><time>2026-04-19T08:39:07.414Z</time></trkpt><trkpt lat="45.0597905" lon="7.5130545"><ele>356.5</ele><time>2026-04-19T08:39:08.413Z</time></trkpt><trkpt lat="45.0598771" lon="7.5132239"><ele>357.25</ele><time>2026-04-19T08:39:09.414Z</time></trkpt><trkpt lat="45.0599479" lon="7.5133769"><ele>358.0</ele><time>2026-04-19T08:39:10.414Z</time></trkpt><trkpt lat="45.0600093" lon="7.5135233"><ele>358.0</ele><time>2026-04-19T08:39:11.413Z</time></trkpt><trkpt lat="45.0600567" lon="7.5136564"><ele>358.0</ele><time>2026-04-19T08:39:12.413Z</time></trkpt><trkpt lat="45.0600954" lon="7.5137733"><ele>358.0</ele><time>2026-04-19T08:39:13.414Z</time></trkpt><trkpt lat="45.060129" lon="7.5138894"><ele>358.0</ele><time>2026-04-19T08:39:14.414Z</time></trkpt><trkpt lat="45.0601495" lon="7.5140008"><ele>358.0</ele><time>2026-04-19T08:39:15.414Z</time></trkpt><trkpt lat="45.060167" lon="7.5141117"><ele>358.0</ele><time>2026-04-19T08:39:16.413Z</time></trkpt><trkpt lat="45.0601735" lon="7.5142277"><ele>357.0</ele><time>2026-04-19T08:39:17.414Z</time></trkpt><trkpt lat="45.0601653" lon="7.5143529"><ele>356.0</ele><time>2026-04-19T08:39:18.414Z</time></trkpt><trkpt lat="45.0601653" lon="7.5144774"><ele>355.0</ele><time>2026-04-19T08:39:19.414Z</time></trkpt><trkpt lat="45.0601793" lon="7.5146078"><ele>354.0</ele><time>2026-04-19T08:39:20.414Z</time></trkpt><trkpt lat="45.060195" lon="7.5147483"><ele>353.0</ele><time>2026-04-19T08:39:21.414Z</time></trkpt><trkpt lat="45.0602089" lon="7.5148856"><ele>352.59999999999997</ele><time>2026-04-19T08:39:22.414Z</time></trkpt><trkpt lat="45.0602139" lon="7.5150188"><ele>352.2</ele><time>2026-04-19T08:39:23.414Z</time></trkpt><trkpt lat="45.0602136" lon="7.5151551"><ele>351.8</ele><time>2026-04-19T08:39:24.414Z</time></trkpt><trkpt lat="45.0602089" lon="7.5153037"><ele>351.4</ele><time>2026-04-19T08:39:25.414Z</time></trkpt><trkpt lat="45.0601968" lon="7.515461"><ele>351.0</ele><time>2026-04-19T08:39:26.414Z</time></trkpt><trkpt lat="45.0601816" lon="7.5156203"><ele>350.25</ele><time>2026-04-19T08:39:27.413Z</time></trkpt><trkpt lat="45.0601631" lon="7.5157786"><ele>349.5</ele><time>2026-04-19T08:39:28.413Z</time></trkpt><trkpt lat="45.0601451" lon="7.5159465"><ele>348.75</ele><time>2026-04-19T08:39:29.414Z</time></trkpt><trkpt lat="45.0601261" lon="7.5161151"><ele>348.0</ele><time>2026-04-19T08:39:30.413Z</time></trkpt><trkpt lat="45.0601128" lon="7.5162816"><ele>348.0</ele><time>2026-04-19T08:39:31.414Z</time></trkpt><trkpt lat="45.0601022" lon="7.5164546"><ele>348.0</ele><time>2026-04-19T08:39:32.414Z</time></trkpt><trkpt lat="45.0600899" lon="7.5166219"><ele>348.0</ele><time>2026-04-19T08:39:33.414Z</time></trkpt><trkpt lat="45.0600807" lon="7.5167919"><ele>348.0</ele><time>2026-04-19T08:39:34.414Z</time></trkpt><trkpt lat="45.0600761" lon="7.5169685"><ele>348.0</ele><time>2026-04-19T08:39:35.413Z</time></trkpt><trkpt lat="45.0600771" lon="7.5171452"><ele>348.0</ele><time>2026-04-19T08:39:36.414Z</time></trkpt><trkpt lat="45.0600839" lon="7.5173179"><ele>348.0</ele><time>2026-04-19T08:39:37.414Z</time></trkpt><trkpt lat="45.0600943" lon="7.5174822"><ele>348.0</ele><time>2026-04-19T08:39:38.414Z</time></trkpt><trkpt lat="45.0601066" lon="7.5176449"><ele>348.0</ele><time>2026-04-19T08:39:39.414Z</time></trkpt><trkpt lat="45.0601229" lon="7.5177917"><ele>348.0</ele><time>2026-04-19T08:39:40.414Z</time></trkpt><trkpt lat="45.0601338" lon="7.5179353"><ele>348.0</ele><time>2026-04-19T08:39:41.413Z</time></trkpt><trkpt lat="45.0601409" lon="7.5180698"><ele>348.0</ele><time>2026-04-19T08:39:42.414Z</time></trkpt><trkpt lat="45.0601486" lon="7.5181911"><ele>348.0</ele><time>2026-04-19T08:39:43.413Z</time></trkpt><trkpt lat="45.0601545" lon="7.5182892"><ele>347.85714285714283</ele><time>2026-04-19T08:39:44.414Z</time></trkpt><trkpt lat="45.0601625" lon="7.5183817"><ele>347.7142857142857</ele><time>2026-04-19T08:39:45.414Z</time></trkpt><trkpt lat="45.0601691" lon="7.5184753"><ele>347.57142857142856</ele><time>2026-04-19T08:39:46.413Z</time></trkpt><trkpt lat="45.0601644" lon="7.5185814"><ele>347.42857142857144</ele><time>2026-04-19T08:39:47.413Z</time></trkpt><trkpt lat="45.0601595" lon="7.5186785"><ele>347.2857142857143</ele><time>2026-04-19T08:39:48.414Z</time></trkpt><trkpt lat="45.060161" lon="7.5187685"><ele>347.14285714285717</ele><time>2026-04-19T08:39:49.414Z</time></trkpt><trkpt lat="45.0601771" lon="7.5188628"><ele>347.0</ele><time>2026-04-19T08:39:50.414Z</time></trkpt><trkpt lat="45.0602079" lon="7.5189667"><ele>347.0</ele><time>2026-04-19T08:39:51.414Z</time></trkpt><trkpt lat="45.0602349" lon="7.5190803"><ele>347.0</ele><time>2026-04-19T08:39:52.414Z</time></trkpt><trkpt lat="45.0602587" lon="7.5192084"><ele>347.0</ele><time>2026-04-19T08:39:53.413Z</time></trkpt><trkpt lat="45.060277" lon="7.5193473"><ele>347.0</ele><time>2026-04-19T08:39:54.414Z</time></trkpt><trkpt lat="45.0602932" lon="7.5194846"><ele>347.0</ele><time>2026-04-19T08:39:55.414Z</time></trkpt><trkpt lat="45.060314" lon="7.5196188"><ele>346.8</ele><time>2026-04-19T08:39:56.414Z</time></trkpt><trkpt lat="45.0603342" lon="7.5197534"><ele>346.6</ele><time>2026-04-19T08:39:57.414Z</time></trkpt><trkpt lat="45.0603524" lon="7.5198897"><ele>346.40000000000003</ele><time>2026-04-19T08:39:58.414Z</time></trkpt><trkpt lat="45.0603688" lon="7.5200274"><ele>346.20000000000005</ele><time>2026-04-19T08:39:59.413Z</time></trkpt><trkpt lat="45.0603866" lon="7.5201678"><ele>346.0</ele><time>2026-04-19T08:40:00.414Z</time></trkpt><trkpt lat="45.0603964" lon="7.5203096"><ele>346.20000000000005</ele><time>2026-04-19T08:40:01.414Z</time></trkpt><trkpt lat="45.060408" lon="7.520454"><ele>346.40000000000003</ele><time>2026-04-19T08:40:02.414Z</time></trkpt><trkpt lat="45.0604189" lon="7.5206081"><ele>346.6</ele><time>2026-04-19T08:40:03.414Z</time></trkpt><trkpt lat="45.0604335" lon="7.5207713"><ele>346.8</ele><time>2026-04-19T08:40:04.414Z</time></trkpt><trkpt lat="45.0604556" lon="7.5209392"><ele>347.0</ele><time>2026-04-19T08:40:05.414Z</time></trkpt><trkpt lat="45.0604783" lon="7.5211109"><ele>347.5</ele><time>2026-04-19T08:40:06.414Z</time></trkpt><trkpt lat="45.0604989" lon="7.5212903"><ele>348.0</ele><time>2026-04-19T08:40:07.413Z</time></trkpt><trkpt lat="45.0605251" lon="7.5214749"><ele>348.5</ele><time>2026-04-19T08:40:08.414Z</time></trkpt><trkpt lat="45.0605489" lon="7.521672"><ele>349.0</ele><time>2026-04-19T08:40:09.414Z</time></trkpt><trkpt lat="45.0605702" lon="7.5218715"><ele>348.25</ele><time>2026-04-19T08:40:10.413Z</time></trkpt><trkpt lat="45.0605919" lon="7.5220803"><ele>347.5</ele><time>2026-04-19T08:40:11.414Z</time></trkpt><trkpt lat="45.0606122" lon="7.5222875"><ele>346.75</ele><time>2026-04-19T08:40:12.414Z</time></trkpt><trkpt lat="45.0606301" lon="7.5224916"><ele>346.0</ele><time>2026-04-19T08:40:13.413Z</time></trkpt><trkpt lat="45.0606499" lon="7.5227028"><ele>344.3333333333333</ele><time>2026-04-19T08:40:14.414Z</time></trkpt><trkpt lat="45.0606722" lon="7.5229182"><ele>342.6666666666667</ele><time>2026-04-19T08:40:15.413Z</time></trkpt><trkpt lat="45.0606944" lon="7.5231282"><ele>341.0</ele><time>2026-04-19T08:40:16.413Z</time></trkpt><trkpt lat="45.060718" lon="7.5233375"><ele>341.0</ele><time>2026-04-19T08:40:17.414Z</time></trkpt><trkpt lat="45.0607455" lon="7.5235494"><ele>341.0</ele><time>2026-04-19T08:40:18.414Z</time></trkpt><trkpt lat="45.0607706" lon="7.523765"><ele>341.0</ele><time>2026-04-19T08:40:19.414Z</time></trkpt><trkpt lat="45.0607988" lon="7.5239814"><ele>340.6666666666667</ele><time>2026-04-19T08:40:20.413Z</time></trkpt><trkpt lat="45.0608214" lon="7.5241978"><ele>340.3333333333333</ele><time>2026-04-19T08:40:21.414Z</time></trkpt><trkpt lat="45.0608447" lon="7.5244098"><ele>340.0</ele><time>2026-04-19T08:40:22.413Z</time></trkpt><trkpt lat="45.0608685" lon="7.5246238"><ele>339.3333333333333</ele><time>2026-04-19T08:40:23.414Z</time></trkpt><trkpt lat="45.0608948" lon="7.5248418"><ele>338.6666666666667</ele><time>2026-04-19T08:40:24.414Z</time></trkpt><trkpt lat="45.0609206" lon="7.5250596"><ele>338.0</ele><time>2026-04-19T08:40:25.414Z</time></trkpt><trkpt lat="45.0609459" lon="7.5252719"><ele>337.75</ele><time>2026-04-19T08:40:26.414Z</time></trkpt><trkpt lat="45.0609767" lon="7.5254815"><ele>337.5</ele><time>2026-04-19T08:40:27.414Z</time></trkpt><trkpt lat="45.0610105" lon="7.5256841"><ele>337.25</ele><time>2026-04-19T08:40:28.414Z</time></trkpt><trkpt lat="45.061047" lon="7.5258783"><ele>337.0</ele><time>2026-04-19T08:40:29.413Z</time></trkpt><trkpt lat="45.0610892" lon="7.5260688"><ele>336.75</ele><time>2026-04-19T08:40:30.414Z</time></trkpt><trkpt lat="45.0611372" lon="7.5262588"><ele>336.5</ele><time>2026-04-19T08:40:31.414Z</time></trkpt><trkpt lat="45.0611933" lon="7.5264507"><ele>336.25</ele><time>2026-04-19T08:40:32.413Z</time></trkpt><trkpt lat="45.0612609" lon="7.5266419"><ele>336.0</ele><time>2026-04-19T08:40:33.414Z</time></trkpt><trkpt lat="45.0613325" lon="7.5268234"><ele>336.0</ele><time>2026-04-19T08:40:34.414Z</time></trkpt><trkpt lat="45.0614015" lon="7.5269956"><ele>336.0</ele><time>2026-04-19T08:40:35.414Z</time></trkpt><trkpt lat="45.061476" lon="7.5271608"><ele>336.0</ele><time>2026-04-19T08:40:36.414Z</time></trkpt><trkpt lat="45.0615572" lon="7.5273194"><ele>336.0</ele><time>2026-04-19T08:40:37.413Z</time></trkpt><trkpt lat="45.0616381" lon="7.5274741"><ele>336.25</ele><time>2026-04-19T08:40:38.414Z</time></trkpt><trkpt lat="45.0617175" lon="7.5276292"><ele>336.5</ele><time>2026-04-19T08:40:39.414Z</time></trkpt><trkpt lat="45.0617996" lon="7.5277793"><ele>336.75</ele><time>2026-04-19T08:40:40.414Z</time></trkpt><trkpt lat="45.0618841" lon="7.5279218"><ele>337.0</ele><time>2026-04-19T08:40:41.414Z</time></trkpt><trkpt lat="45.0619691" lon="7.5280598"><ele>336.5</ele><time>2026-04-19T08:40:42.413Z</time></trkpt><trkpt lat="45.0620596" lon="7.528199"><ele>336.0</ele><time>2026-04-19T08:40:43.414Z</time></trkpt><trkpt lat="45.0621558" lon="7.5283304"><ele>335.5</ele><time>2026-04-19T08:40:44.413Z</time></trkpt><trkpt lat="45.0622597" lon="7.5284429"><ele>335.0</ele><time>2026-04-19T08:40:45.414Z</time></trkpt><trkpt lat="45.062368" lon="7.5285531"><ele>334.75</ele><time>2026-04-19T08:40:46.413Z</time></trkpt><trkpt lat="45.0624879" lon="7.5286591"><ele>334.5</ele><time>2026-04-19T08:40:47.413Z</time></trkpt><trkpt lat="45.0626077" lon="7.5287649"><ele>334.25</ele><time>2026-04-19T08:40:48.414Z</time></trkpt><trkpt lat="45.0627341" lon="7.528876"><ele>334.0</ele><time>2026-04-19T08:40:49.414Z</time></trkpt><trkpt lat="45.0628608" lon="7.5289796"><ele>334.0</ele><time>2026-04-19T08:40:50.414Z</time></trkpt><trkpt lat="45.0629892" lon="7.5290983"><ele>334.0</ele><time>2026-04-19T08:40:51.414Z</time></trkpt><trkpt lat="45.0631218" lon="7.5292044"><ele>334.0</ele><time>2026-04-19T08:40:52.414Z</time></trkpt><trkpt lat="45.0632632" lon="7.5293174"><ele>333.3333333333333</ele><time>2026-04-19T08:40:53.414Z</time></trkpt><trkpt lat="45.0634047" lon="7.5294144"><ele>332.6666666666667</ele><time>2026-04-19T08:40:54.413Z</time></trkpt><trkpt lat="45.0635392" lon="7.5295084"><ele>332.0</ele><time>2026-04-19T08:40:55.414Z</time></trkpt><trkpt lat="45.0636804" lon="7.5295967"><ele>332.0</ele><time>2026-04-19T08:40:56.414Z</time></trkpt><trkpt lat="45.0638168" lon="7.5296974"><ele>332.0</ele><time>2026-04-19T08:40:57.414Z</time></trkpt><trkpt lat="45.0639457" lon="7.5297936"><ele>332.0</ele><time>2026-04-19T08:40:58.414Z</time></trkpt><trkpt lat="45.0640767" lon="7.5298894"><ele>332.0</ele><time>2026-04-19T08:40:59.414Z</time></trkpt><trkpt lat="45.0642057" lon="7.52999"><ele>332.5</ele><time>2026-04-19T08:41:00.414Z</time></trkpt><trkpt lat="45.0643351" lon="7.5300857"><ele>333.0</ele><time>2026-04-19T08:41:01.413Z</time></trkpt><trkpt lat="45.0644622" lon="7.5301713"><ele>333.5</ele><time>2026-04-19T08:41:02.414Z</time></trkpt><trkpt lat="45.0645912" lon="7.5302655"><ele>334.0</ele><time>2026-04-19T08:41:03.413Z</time></trkpt><trkpt lat="45.0647156" lon="7.5303619"><ele>333.75</ele><time>2026-04-19T08:41:04.413Z</time></trkpt><trkpt lat="45.064841" lon="7.530461"><ele>333.5</ele><time>2026-04-19T08:41:05.414Z</time></trkpt><trkpt lat="45.0649668" lon="7.5305623"><ele>333.25</ele><time>2026-04-19T08:41:06.414Z</time></trkpt><trkpt lat="45.0650924" lon="7.5306558"><ele>333.0</ele><time>2026-04-19T08:41:07.414Z</time></trkpt><trkpt lat="45.065218" lon="7.5307465"><ele>333.0</ele><time>2026-04-19T08:41:08.414Z</time></trkpt><trkpt lat="45.0653396" lon="7.5308351"><ele>333.0</ele><time>2026-04-19T08:41:09.414Z</time></trkpt><trkpt lat="45.065455" lon="7.5309259"><ele>333.0</ele><time>2026-04-19T08:41:10.414Z</time></trkpt><trkpt lat="45.0655669" lon="7.5310084"><ele>333.0</ele><time>2026-04-19T08:41:11.413Z</time></trkpt><trkpt lat="45.0656734" lon="7.5310875"><ele>333.0</ele><time>2026-04-19T08:41:12.414Z</time></trkpt><trkpt lat="45.0657759" lon="7.5311666"><ele>333.0</ele><time>2026-04-19T08:41:13.414Z</time></trkpt><trkpt lat="45.0658747" lon="7.5312439"><ele>333.0</ele><time>2026-04-19T08:41:14.413Z</time></trkpt><trkpt lat="45.0659727" lon="7.5313278"><ele>333.0</ele><time>2026-04-19T08:41:15.414Z</time></trkpt><trkpt lat="45.0660682" lon="7.5314221"><ele>333.2</ele><time>2026-04-19T08:41:16.414Z</time></trkpt><trkpt lat="45.0661541" lon="7.5315246"><ele>333.4</ele><time>2026-04-19T08:41:17.414Z</time></trkpt><trkpt lat="45.0662366" lon="7.5316324"><ele>333.59999999999997</ele><time>2026-04-19T08:41:18.414Z</time></trkpt><trkpt lat="45.0663101" lon="7.531741"><ele>333.79999999999995</ele><time>2026-04-19T08:41:19.414Z</time></trkpt><trkpt lat="45.0663766" lon="7.5318463"><ele>334.0</ele><time>2026-04-19T08:41:20.414Z</time></trkpt><trkpt lat="45.066445" lon="7.5319575"><ele>333.6</ele><time>2026-04-19T08:41:21.414Z</time></trkpt><trkpt lat="45.0665117" lon="7.5320662"><ele>333.2</ele><time>2026-04-19T08:41:22.414Z</time></trkpt><trkpt lat="45.066573" lon="7.5321767"><ele>332.8</ele><time>2026-04-19T08:41:23.413Z</time></trkpt><trkpt lat="45.0666288" lon="7.5323001"><ele>332.40000000000003</ele><time>2026-04-19T08:41:24.414Z</time></trkpt><trkpt lat="45.0666783" lon="7.532423"><ele>332.0</ele><time>2026-04-19T08:41:25.414Z</time></trkpt><trkpt lat="45.0667199" lon="7.5325423"><ele>331.83333333333337</ele><time>2026-04-19T08:41:26.413Z</time></trkpt><trkpt lat="45.0667587" lon="7.5326544"><ele>331.6666666666667</ele><time>2026-04-19T08:41:27.414Z</time></trkpt><trkpt lat="45.0667973" lon="7.5327585"><ele>331.5</ele><time>2026-04-19T08:41:28.414Z</time></trkpt><trkpt lat="45.0668294" lon="7.5328581"><ele>331.3333333333333</ele><time>2026-04-19T08:41:29.414Z</time></trkpt><trkpt lat="45.0668533" lon="7.5329636"><ele>331.16666666666663</ele><time>2026-04-19T08:41:30.414Z</time></trkpt><trkpt lat="45.0668676" lon="7.533076"><ele>331.0</ele><time>2026-04-19T08:41:31.413Z</time></trkpt><trkpt lat="45.0668915" lon="7.533198"><ele>331.0</ele><time>2026-04-19T08:41:32.413Z</time></trkpt><trkpt lat="45.0669147" lon="7.5333372"><ele>331.0</ele><time>2026-04-19T08:41:33.414Z</time></trkpt><trkpt lat="45.066934" lon="7.5334849"><ele>331.0</ele><time>2026-04-19T08:41:34.414Z</time></trkpt><trkpt lat="45.066943" lon="7.533639"><ele>331.0</ele><time>2026-04-19T08:41:35.414Z</time></trkpt><trkpt lat="45.0669492" lon="7.5337954"><ele>331.0</ele><time>2026-04-19T08:41:36.414Z</time></trkpt><trkpt lat="45.0669556" lon="7.5339507"><ele>331.20000000000005</ele><time>2026-04-19T08:41:37.413Z</time></trkpt><trkpt lat="45.0669559" lon="7.5341054"><ele>331.40000000000003</ele><time>2026-04-19T08:41:38.413Z</time></trkpt><trkpt lat="45.0669466" lon="7.5342597"><ele>331.6</ele><time>2026-04-19T08:41:39.414Z</time></trkpt><trkpt lat="45.0669328" lon="7.5344068"><ele>331.8</ele><time>2026-04-19T08:41:40.414Z</time></trkpt><trkpt lat="45.0669165" lon="7.5345553"><ele>332.0</ele><time>2026-04-19T08:41:41.414Z</time></trkpt><trkpt lat="45.0668927" lon="7.5346926"><ele>332.0</ele><time>2026-04-19T08:41:42.414Z</time></trkpt><trkpt lat="45.066872" lon="7.5348291"><ele>332.0</ele><time>2026-04-19T08:41:43.414Z</time></trkpt><trkpt lat="45.0668409" lon="7.5349664"><ele>332.0</ele><time>2026-04-19T08:41:44.414Z</time></trkpt><trkpt lat="45.0668151" lon="7.5351168"><ele>332.0</ele><time>2026-04-19T08:41:45.413Z</time></trkpt><trkpt lat="45.0667863" lon="7.5352648"><ele>332.0</ele><time>2026-04-19T08:41:46.414Z</time></trkpt><trkpt lat="45.0667579" lon="7.5354133"><ele>332.0</ele><time>2026-04-19T08:41:47.414Z</time></trkpt><trkpt lat="45.0667292" lon="7.5355628"><ele>332.0</ele><time>2026-04-19T08:41:48.414Z</time></trkpt><trkpt lat="45.0666971" lon="7.5357152"><ele>332.0</ele><time>2026-04-19T08:41:49.413Z</time></trkpt><trkpt lat="45.0666637" lon="7.5358644"><ele>332.0</ele><time>2026-04-19T08:41:50.414Z</time></trkpt><trkpt lat="45.0666356" lon="7.5360139"><ele>332.0</ele><time>2026-04-19T08:41:51.414Z</time></trkpt><trkpt lat="45.0666062" lon="7.5361526"><ele>331.6666666666667</ele><time>2026-04-19T08:41:52.414Z</time></trkpt><trkpt lat="45.0665809" lon="7.5362647"><ele>331.33333333333337</ele><time>2026-04-19T08:41:53.414Z</time></trkpt><trkpt lat="45.0665651" lon="7.5363605"><ele>331.0</ele><time>2026-04-19T08:41:54.413Z</time></trkpt><trkpt lat="45.0665446" lon="7.5365089"><ele>330.6666666666667</ele><time>2026-04-19T08:41:56.414Z</time></trkpt><trkpt lat="45.0665471" lon="7.536626"><ele>330.3333333333333</ele><time>2026-04-19T08:41:59.414Z</time></trkpt><trkpt lat="45.0665668" lon="7.5367201"><ele>330.0</ele><time>2026-04-19T08:42:09.413Z</time></trkpt><trkpt lat="45.0665844" lon="7.5368187"><ele>330.0</ele><time>2026-04-19T08:42:12.413Z</time></trkpt><trkpt lat="45.0665927" lon="7.5369584"><ele>330.0</ele><time>2026-04-19T08:42:14.414Z</time></trkpt><trkpt lat="45.066547" lon="7.5371147"><ele>330.0</ele><time>2026-04-19T08:42:16.414Z</time></trkpt><trkpt lat="45.0665036" lon="7.5372659"><ele>330.0</ele><time>2026-04-19T08:42:18.414Z</time></trkpt><trkpt lat="45.066469" lon="7.5373424"><ele>330.0</ele><time>2026-04-19T08:42:19.414Z</time></trkpt><trkpt lat="45.0664213" lon="7.5374043"><ele>329.5</ele><time>2026-04-19T08:42:20.414Z</time></trkpt><trkpt lat="45.0663734" lon="7.5374759"><ele>329.0</ele><time>2026-04-19T08:42:21.414Z</time></trkpt><trkpt lat="45.0663321" lon="7.5375664"><ele>328.5</ele><time>2026-04-19T08:42:22.414Z</time></trkpt><trkpt lat="45.0663021" lon="7.5376863"><ele>328.0</ele><time>2026-04-19T08:42:23.414Z</time></trkpt><trkpt lat="45.0662717" lon="7.5378076"><ele>327.5</ele><time>2026-04-19T08:42:24.413Z</time></trkpt><trkpt lat="45.0662394" lon="7.5379229"><ele>327.0</ele><time>2026-04-19T08:42:25.414Z</time></trkpt><trkpt lat="45.0662045" lon="7.5380376"><ele>326.6</ele><time>2026-04-19T08:42:26.413Z</time></trkpt><trkpt lat="45.0661714" lon="7.5381593"><ele>326.20000000000005</ele><time>2026-04-19T08:42:27.414Z</time></trkpt><trkpt lat="45.066134" lon="7.538285"><ele>325.8</ele><time>2026-04-19T08:42:28.414Z</time></trkpt><trkpt lat="45.0660945" lon="7.538408"><ele>325.4</ele><time>2026-04-19T08:42:29.414Z</time></trkpt><trkpt lat="45.0660561" lon="7.5385304"><ele>325.0</ele><time>2026-04-19T08:42:30.414Z</time></trkpt><trkpt lat="45.0660156" lon="7.5386573"><ele>325.4</ele><time>2026-04-19T08:42:31.414Z</time></trkpt><trkpt lat="45.0659722" lon="7.5387898"><ele>325.8</ele><time>2026-04-19T08:42:32.413Z</time></trkpt><trkpt lat="45.0659244" lon="7.5389234"><ele>326.20000000000005</ele><time>2026-04-19T08:42:33.414Z</time></trkpt><trkpt lat="45.0658703" lon="7.5390677"><ele>326.6</ele><time>2026-04-19T08:42:34.414Z</time></trkpt><trkpt lat="45.065813" lon="7.5392165"><ele>327.0</ele><time>2026-04-19T08:42:35.413Z</time></trkpt><trkpt lat="45.0657541" lon="7.539365"><ele>326.5</ele><time>2026-04-19T08:42:36.414Z</time></trkpt><trkpt lat="45.0656892" lon="7.5395167"><ele>326.0</ele><time>2026-04-19T08:42:37.414Z</time></trkpt><trkpt lat="45.0656285" lon="7.5396684"><ele>325.5</ele><time>2026-04-19T08:42:38.414Z</time></trkpt><trkpt lat="45.0655661" lon="7.5398257"><ele>325.0</ele><time>2026-04-19T08:42:39.413Z</time></trkpt><trkpt lat="45.065503" lon="7.5399726"><ele>325.0</ele><time>2026-04-19T08:42:40.414Z</time></trkpt><trkpt lat="45.0654462" lon="7.5401229"><ele>325.0</ele><time>2026-04-19T08:42:41.414Z</time></trkpt><trkpt lat="45.0653877" lon="7.5402634"><ele>325.0</ele><time>2026-04-19T08:42:42.414Z</time></trkpt><trkpt lat="45.0653323" lon="7.5403991"><ele>325.0</ele><time>2026-04-19T08:42:43.414Z</time></trkpt><trkpt lat="45.0652854" lon="7.5405168"><ele>325.0</ele><time>2026-04-19T08:42:44.414Z</time></trkpt><trkpt lat="45.0652499" lon="7.5406236"><ele>324.66666666666663</ele><time>2026-04-19T08:42:45.414Z</time></trkpt><trkpt lat="45.0652061" lon="7.5407015"><ele>324.3333333333333</ele><time>2026-04-19T08:42:46.414Z</time></trkpt><trkpt lat="45.0651534" lon="7.5407756"><ele>324.0</ele><time>2026-04-19T08:42:47.413Z</time></trkpt><trkpt lat="45.0650822" lon="7.5408394"><ele>323.6666666666667</ele><time>2026-04-19T08:42:48.414Z</time></trkpt><trkpt lat="45.0650259" lon="7.5409166"><ele>323.33333333333337</ele><time>2026-04-19T08:42:49.414Z</time></trkpt><trkpt lat="45.0649787" lon="7.5410254"><ele>323.0</ele><time>2026-04-19T08:42:50.414Z</time></trkpt><trkpt lat="45.0649429" lon="7.5411589"><ele>322.5</ele><time>2026-04-19T08:42:51.414Z</time></trkpt><trkpt lat="45.0649035" lon="7.5413223"><ele>322.0</ele><time>2026-04-19T08:42:52.414Z</time></trkpt><trkpt lat="45.0648549" lon="7.54148"><ele>321.5</ele><time>2026-04-19T08:42:53.414Z</time></trkpt><trkpt lat="45.0648013" lon="7.5416456"><ele>321.0</ele><time>2026-04-19T08:42:54.414Z</time></trkpt><trkpt lat="45.0647453" lon="7.541816"><ele>321.0</ele><time>2026-04-19T08:42:55.414Z</time></trkpt><trkpt lat="45.0646889" lon="7.5419945"><ele>321.0</ele><time>2026-04-19T08:42:56.414Z</time></trkpt><trkpt lat="45.0646332" lon="7.5421917"><ele>321.0</ele><time>2026-04-19T08:42:57.414Z</time></trkpt><trkpt lat="45.0645718" lon="7.5424027"><ele>321.0</ele><time>2026-04-19T08:42:58.413Z</time></trkpt><trkpt lat="45.064508" lon="7.5426173"><ele>320.6666666666667</ele><time>2026-04-19T08:42:59.413Z</time></trkpt><trkpt lat="45.0644399" lon="7.5428337"><ele>320.33333333333337</ele><time>2026-04-19T08:43:00.413Z</time></trkpt><trkpt lat="45.0643698" lon="7.5430535"><ele>320.0</ele><time>2026-04-19T08:43:01.413Z</time></trkpt><trkpt lat="45.0643016" lon="7.5432748"><ele>319.0</ele><time>2026-04-19T08:43:02.413Z</time></trkpt><trkpt lat="45.064229" lon="7.5434932"><ele>318.0</ele><time>2026-04-19T08:43:03.413Z</time></trkpt><trkpt lat="45.0641578" lon="7.5437128"><ele>317.0</ele><time>2026-04-19T08:43:04.414Z</time></trkpt><trkpt lat="45.0640865" lon="7.5439306"><ele>316.33333333333337</ele><time>2026-04-19T08:43:05.414Z</time></trkpt><trkpt lat="45.0640201" lon="7.5441471"><ele>315.6666666666667</ele><time>2026-04-19T08:43:06.413Z</time></trkpt><trkpt lat="45.0639506" lon="7.5443651"><ele>315.0</ele><time>2026-04-19T08:43:07.413Z</time></trkpt><trkpt lat="45.0638845" lon="7.5445779"><ele>315.0</ele><time>2026-04-19T08:43:08.414Z</time></trkpt><trkpt lat="45.0638142" lon="7.5447912"><ele>315.0</ele><time>2026-04-19T08:43:09.414Z</time></trkpt><trkpt lat="45.0637382" lon="7.5449927"><ele>315.0</ele><time>2026-04-19T08:43:10.414Z</time></trkpt><trkpt lat="45.0636617" lon="7.5451958"><ele>315.0</ele><time>2026-04-19T08:43:11.414Z</time></trkpt><trkpt lat="45.063583" lon="7.5453995"><ele>315.0</ele><time>2026-04-19T08:43:12.414Z</time></trkpt><trkpt lat="45.0635023" lon="7.5455972"><ele>315.0</ele><time>2026-04-19T08:43:13.414Z</time></trkpt><trkpt lat="45.0634174" lon="7.545798"><ele>315.0</ele><time>2026-04-19T08:43:14.414Z</time></trkpt><trkpt lat="45.0633273" lon="7.5459932"><ele>315.0</ele><time>2026-04-19T08:43:15.414Z</time></trkpt><trkpt lat="45.063239" lon="7.5461903"><ele>315.0</ele><time>2026-04-19T08:43:16.414Z</time></trkpt><trkpt lat="45.0631499" lon="7.5463827"><ele>314.6666666666667</ele><time>2026-04-19T08:43:17.414Z</time></trkpt><trkpt lat="45.0630536" lon="7.5465745"><ele>314.33333333333337</ele><time>2026-04-19T08:43:18.414Z</time></trkpt><trkpt lat="45.0629514" lon="7.5467631"><ele>314.0</ele><time>2026-04-19T08:43:19.414Z</time></trkpt><trkpt lat="45.0628512" lon="7.5469447"><ele>313.0</ele><time>2026-04-19T08:43:20.413Z</time></trkpt><trkpt lat="45.0627564" lon="7.547123"><ele>312.0</ele><time>2026-04-19T08:43:21.414Z</time></trkpt><trkpt lat="45.0626502" lon="7.5473011"><ele>311.0</ele><time>2026-04-19T08:43:22.413Z</time></trkpt><trkpt lat="45.0625453" lon="7.5474751"><ele>311.33333333333337</ele><time>2026-04-19T08:43:23.414Z</time></trkpt><trkpt lat="45.062442" lon="7.5476456"><ele>311.6666666666667</ele><time>2026-04-19T08:43:24.414Z</time></trkpt><trkpt lat="45.0623403" lon="7.5478151"><ele>312.0</ele><time>2026-04-19T08:43:25.414Z</time></trkpt><trkpt lat="45.0622448" lon="7.5479911"><ele>311.0</ele><time>2026-04-19T08:43:26.413Z</time></trkpt><trkpt lat="45.0621529" lon="7.5481679"><ele>310.0</ele><time>2026-04-19T08:43:27.414Z</time></trkpt><trkpt lat="45.062063" lon="7.5483473"><ele>309.0</ele><time>2026-04-19T08:43:28.414Z</time></trkpt><trkpt lat="45.0619766" lon="7.5485289"><ele>309.0</ele><time>2026-04-19T08:43:29.413Z</time></trkpt><trkpt lat="45.0618942" lon="7.5487065"><ele>309.0</ele><time>2026-04-19T08:43:30.414Z</time></trkpt><trkpt lat="45.0618108" lon="7.548874"><ele>309.0</ele><time>2026-04-19T08:43:31.414Z</time></trkpt><trkpt lat="45.0617147" lon="7.5490248"><ele>309.0</ele><time>2026-04-19T08:43:32.414Z</time></trkpt><trkpt lat="45.0616148" lon="7.5491592"><ele>309.0</ele><time>2026-04-19T08:43:33.413Z</time></trkpt><trkpt lat="45.061524" lon="7.5492919"><ele>309.0</ele><time>2026-04-19T08:43:34.414Z</time></trkpt><trkpt lat="45.0614529" lon="7.5494444"><ele>309.0</ele><time>2026-04-19T08:43:35.414Z</time></trkpt><trkpt lat="45.0614033" lon="7.5496233"><ele>309.0</ele><time>2026-04-19T08:43:36.414Z</time></trkpt><trkpt lat="45.0613642" lon="7.5498145"><ele>308.25</ele><time>2026-04-19T08:43:37.414Z</time></trkpt><trkpt lat="45.0613128" lon="7.5500003"><ele>307.5</ele><time>2026-04-19T08:43:38.413Z</time></trkpt><trkpt lat="45.0612465" lon="7.5501831"><ele>306.75</ele><time>2026-04-19T08:43:39.413Z</time></trkpt><trkpt lat="45.0611699" lon="7.5503614"><ele>306.0</ele><time>2026-04-19T08:43:40.414Z</time></trkpt><trkpt lat="45.0610891" lon="7.5505396"><ele>305.6666666666667</ele><time>2026-04-19T08:43:41.414Z</time></trkpt><trkpt lat="45.0610088" lon="7.5507221"><ele>305.33333333333337</ele><time>2026-04-19T08:43:42.414Z</time></trkpt><trkpt lat="45.0609238" lon="7.5509144"><ele>305.0</ele><time>2026-04-19T08:43:43.413Z</time></trkpt><trkpt lat="45.0608387" lon="7.5511127"><ele>305.0</ele><time>2026-04-19T08:43:44.414Z</time></trkpt><trkpt lat="45.0607527" lon="7.5513116"><ele>305.0</ele><time>2026-04-19T08:43:45.414Z</time></trkpt><trkpt lat="45.0606672" lon="7.5515113"><ele>305.0</ele><time>2026-04-19T08:43:46.414Z</time></trkpt><trkpt lat="45.0605775" lon="7.5517141"><ele>305.0</ele><time>2026-04-19T08:43:47.413Z</time></trkpt><trkpt lat="45.0604875" lon="7.5519118"><ele>305.0</ele><time>2026-04-19T08:43:48.414Z</time></trkpt><trkpt lat="45.0603998" lon="7.5521152"><ele>305.0</ele><time>2026-04-19T08:43:49.414Z</time></trkpt><trkpt lat="45.0603166" lon="7.5523173"><ele>304.6666666666667</ele><time>2026-04-19T08:43:50.414Z</time></trkpt><trkpt lat="45.0602342" lon="7.5525144"><ele>304.3333333333333</ele><time>2026-04-19T08:43:51.413Z</time></trkpt><trkpt lat="45.0601489" lon="7.552715"><ele>304.0</ele><time>2026-04-19T08:43:52.413Z</time></trkpt><trkpt lat="45.0600637" lon="7.5529174"><ele>303.3333333333333</ele><time>2026-04-19T08:43:53.414Z</time></trkpt><trkpt lat="45.0599809" lon="7.5531132"><ele>302.6666666666667</ele><time>2026-04-19T08:43:54.414Z</time></trkpt><trkpt lat="45.0598966" lon="7.5533085"><ele>302.0</ele><time>2026-04-19T08:43:55.414Z</time></trkpt><trkpt lat="45.0598093" lon="7.5535042"><ele>302.0</ele><time>2026-04-19T08:43:56.414Z</time></trkpt><trkpt lat="45.0597271" lon="7.553694"><ele>302.0</ele><time>2026-04-19T08:43:57.414Z</time></trkpt><trkpt lat="45.059645" lon="7.553883"><ele>302.0</ele><time>2026-04-19T08:43:58.414Z</time></trkpt><trkpt lat="45.0595592" lon="7.554072"><ele>301.0</ele><time>2026-04-19T08:43:59.414Z</time></trkpt><trkpt lat="45.0594729" lon="7.5542679"><ele>300.0</ele><time>2026-04-19T08:44:00.414Z</time></trkpt><trkpt lat="45.0593862" lon="7.5544685"><ele>299.0</ele><time>2026-04-19T08:44:01.413Z</time></trkpt><trkpt lat="45.0592914" lon="7.55467"><ele>299.0</ele><time>2026-04-19T08:44:02.414Z</time></trkpt><trkpt lat="45.0592023" lon="7.5548695"><ele>299.0</ele><time>2026-04-19T08:44:03.414Z</time></trkpt><trkpt lat="45.0591152" lon="7.5550709"><ele>299.0</ele><time>2026-04-19T08:44:04.414Z</time></trkpt><trkpt lat="45.0590246" lon="7.5552728"><ele>298.6666666666667</ele><time>2026-04-19T08:44:05.414Z</time></trkpt><trkpt lat="45.058935" lon="7.5554758"><ele>298.3333333333333</ele><time>2026-04-19T08:44:06.413Z</time></trkpt><trkpt lat="45.0588458" lon="7.5556816"><ele>298.0</ele><time>2026-04-19T08:44:07.413Z</time></trkpt><trkpt lat="45.0587514" lon="7.5558842"><ele>298.0</ele><time>2026-04-19T08:44:08.414Z</time></trkpt><trkpt lat="45.0586637" lon="7.5560862"><ele>298.0</ele><time>2026-04-19T08:44:09.413Z</time></trkpt><trkpt lat="45.058576" lon="7.5562891"><ele>298.0</ele><time>2026-04-19T08:44:10.414Z</time></trkpt><trkpt lat="45.0584893" lon="7.5564938"><ele>298.0</ele><time>2026-04-19T08:44:11.414Z</time></trkpt><trkpt lat="45.0584007" lon="7.5566958"><ele>298.0</ele><time>2026-04-19T08:44:12.414Z</time></trkpt><trkpt lat="45.0583138" lon="7.5569021"><ele>298.0</ele><time>2026-04-19T08:44:13.413Z</time></trkpt><trkpt lat="45.0582231" lon="7.5571004"><ele>298.0</ele><time>2026-04-19T08:44:14.414Z</time></trkpt><trkpt lat="45.0581358" lon="7.5572988"><ele>298.0</ele><time>2026-04-19T08:44:15.414Z</time></trkpt><trkpt lat="45.0580513" lon="7.5575024"><ele>298.0</ele><time>2026-04-19T08:44:16.414Z</time></trkpt><trkpt lat="45.0579661" lon="7.5577004"><ele>297.66666666666663</ele><time>2026-04-19T08:44:17.414Z</time></trkpt><trkpt lat="45.0578808" lon="7.5579058"><ele>297.3333333333333</ele><time>2026-04-19T08:44:18.414Z</time></trkpt><trkpt lat="45.0577993" lon="7.5581091"><ele>297.0</ele><time>2026-04-19T08:44:19.413Z</time></trkpt><trkpt lat="45.0577211" lon="7.5583138"><ele>297.0</ele><time>2026-04-19T08:44:20.414Z</time></trkpt><trkpt lat="45.0576381" lon="7.5585185"><ele>297.0</ele><time>2026-04-19T08:44:21.414Z</time></trkpt><trkpt lat="45.0575535" lon="7.5587225"><ele>297.0</ele><time>2026-04-19T08:44:22.413Z</time></trkpt><trkpt lat="45.0574669" lon="7.5589157"><ele>296.3333333333333</ele><time>2026-04-19T08:44:23.414Z</time></trkpt><trkpt lat="45.0573784" lon="7.5591174"><ele>295.66666666666663</ele><time>2026-04-19T08:44:24.414Z</time></trkpt><trkpt lat="45.0572897" lon="7.559311"><ele>295.0</ele><time>2026-04-19T08:44:25.414Z</time></trkpt><trkpt lat="45.0571994" lon="7.5595106"><ele>294.5</ele><time>2026-04-19T08:44:26.414Z</time></trkpt><trkpt lat="45.0571187" lon="7.5596994"><ele>294.0</ele><time>2026-04-19T08:44:27.414Z</time></trkpt><trkpt lat="45.0570391" lon="7.5598624"><ele>293.5</ele><time>2026-04-19T08:44:28.413Z</time></trkpt><trkpt lat="45.0569511" lon="7.559997"><ele>293.0</ele><time>2026-04-19T08:44:29.414Z</time></trkpt><trkpt lat="45.0568569" lon="7.5601009"><ele>293.0</ele><time>2026-04-19T08:44:30.413Z</time></trkpt><trkpt lat="45.0567765" lon="7.560187"><ele>293.0</ele><time>2026-04-19T08:44:31.414Z</time></trkpt><trkpt lat="45.056718" lon="7.5602932"><ele>293.0</ele><time>2026-04-19T08:44:32.414Z</time></trkpt><trkpt lat="45.0566762" lon="7.5604306"><ele>293.0</ele><time>2026-04-19T08:44:33.414Z</time></trkpt><trkpt lat="45.0566471" lon="7.5605891"><ele>293.0</ele><time>2026-04-19T08:44:34.413Z</time></trkpt><trkpt lat="45.0566071" lon="7.5607559"><ele>292.5</ele><time>2026-04-19T08:44:35.413Z</time></trkpt><trkpt lat="45.0565449" lon="7.5609235"><ele>292.0</ele><time>2026-04-19T08:44:36.414Z</time></trkpt><trkpt lat="45.0564693" lon="7.5610874"><ele>291.5</ele><time>2026-04-19T08:44:37.414Z</time></trkpt><trkpt lat="45.0563859" lon="7.5612614"><ele>291.0</ele><time>2026-04-19T08:44:38.413Z</time></trkpt><trkpt lat="45.0563049" lon="7.5614513"><ele>291.0</ele><time>2026-04-19T08:44:39.414Z</time></trkpt><trkpt lat="45.0562253" lon="7.5616376"><ele>291.0</ele><time>2026-04-19T08:44:40.414Z</time></trkpt><trkpt lat="45.0561413" lon="7.5618228"><ele>291.0</ele><time>2026-04-19T08:44:41.414Z</time></trkpt><trkpt lat="45.05606" lon="7.562008"><ele>291.0</ele><time>2026-04-19T08:44:42.414Z</time></trkpt><trkpt lat="45.0559727" lon="7.5621991"><ele>291.0</ele><time>2026-04-19T08:44:43.414Z</time></trkpt><trkpt lat="45.0558868" lon="7.562397"><ele>291.0</ele><time>2026-04-19T08:44:44.414Z</time></trkpt><trkpt lat="45.0558014" lon="7.5625975"><ele>291.0</ele><time>2026-04-19T08:44:45.414Z</time></trkpt><trkpt lat="45.0557081" lon="7.5627995"><ele>291.0</ele><time>2026-04-19T08:44:46.413Z</time></trkpt><trkpt lat="45.0556142" lon="7.563011"><ele>291.0</ele><time>2026-04-19T08:44:47.414Z</time></trkpt><trkpt lat="45.0555266" lon="7.5632227"><ele>291.0</ele><time>2026-04-19T08:44:48.414Z</time></trkpt><trkpt lat="45.0554348" lon="7.5634355"><ele>291.0</ele><time>2026-04-19T08:44:49.414Z</time></trkpt><trkpt lat="45.0553432" lon="7.5636457"><ele>291.0</ele><time>2026-04-19T08:44:50.414Z</time></trkpt><trkpt lat="45.0552535" lon="7.5638664"><ele>290.6666666666667</ele><time>2026-04-19T08:44:51.414Z</time></trkpt><trkpt lat="45.0551574" lon="7.5640915"><ele>290.33333333333337</ele><time>2026-04-19T08:44:52.414Z</time></trkpt><trkpt lat="45.0550564" lon="7.5643177"><ele>290.0</ele><time>2026-04-19T08:44:53.414Z</time></trkpt><trkpt lat="45.0549547" lon="7.5645402"><ele>290.0</ele><time>2026-04-19T08:44:54.414Z</time></trkpt><trkpt lat="45.054851" lon="7.5647653"><ele>290.0</ele><time>2026-04-19T08:44:55.414Z</time></trkpt><trkpt lat="45.0547488" lon="7.5649934"><ele>290.0</ele><time>2026-04-19T08:44:56.414Z</time></trkpt><trkpt lat="45.0546471" lon="7.5652253"><ele>289.6666666666667</ele><time>2026-04-19T08:44:57.413Z</time></trkpt><trkpt lat="45.0545444" lon="7.5654589"><ele>289.3333333333333</ele><time>2026-04-19T08:44:58.414Z</time></trkpt><trkpt lat="45.054443" lon="7.5656903"><ele>289.0</ele><time>2026-04-19T08:44:59.414Z</time></trkpt><trkpt lat="45.0543408" lon="7.5659206"><ele>289.0</ele><time>2026-04-19T08:45:00.414Z</time></trkpt><trkpt lat="45.0542388" lon="7.5661546"><ele>289.0</ele><time>2026-04-19T08:45:01.414Z</time></trkpt><trkpt lat="45.0541373" lon="7.5663836"><ele>289.0</ele><time>2026-04-19T08:45:02.413Z</time></trkpt><trkpt lat="45.0540398" lon="7.5666134"><ele>288.66666666666663</ele><time>2026-04-19T08:45:03.413Z</time></trkpt><trkpt lat="45.0539443" lon="7.5668413"><ele>288.3333333333333</ele><time>2026-04-19T08:45:04.414Z</time></trkpt><trkpt lat="45.0538473" lon="7.5670744"><ele>288.0</ele><time>2026-04-19T08:45:05.414Z</time></trkpt><trkpt lat="45.0537538" lon="7.5673062"><ele>288.3333333333333</ele><time>2026-04-19T08:45:06.414Z</time></trkpt><trkpt lat="45.0536653" lon="7.5675428"><ele>288.66666666666663</ele><time>2026-04-19T08:45:07.414Z</time></trkpt><trkpt lat="45.0535818" lon="7.5677809"><ele>289.0</ele><time>2026-04-19T08:45:08.413Z</time></trkpt><trkpt lat="45.0535005" lon="7.5680237"><ele>289.0</ele><time>2026-04-19T08:45:09.413Z</time></trkpt><trkpt lat="45.0534244" lon="7.5682702"><ele>289.0</ele><time>2026-04-19T08:45:10.414Z</time></trkpt><trkpt lat="45.0533499" lon="7.5685172"><ele>289.0</ele><time>2026-04-19T08:45:11.413Z</time></trkpt><trkpt lat="45.0532804" lon="7.5687594"><ele>288.0</ele><time>2026-04-19T08:45:12.414Z</time></trkpt><trkpt lat="45.0532157" lon="7.5690119"><ele>287.0</ele><time>2026-04-19T08:45:13.414Z</time></trkpt><trkpt lat="45.0531539" lon="7.5692645"><ele>286.0</ele><time>2026-04-19T08:45:14.414Z</time></trkpt><trkpt lat="45.0530969" lon="7.5695188"><ele>284.66666666666663</ele><time>2026-04-19T08:45:15.413Z</time></trkpt><trkpt lat="45.0530401" lon="7.5697747"><ele>283.3333333333333</ele><time>2026-04-19T08:45:16.414Z</time></trkpt><trkpt lat="45.0529912" lon="7.5700353"><ele>282.0</ele><time>2026-04-19T08:45:17.414Z</time></trkpt><trkpt lat="45.0529423" lon="7.570296"><ele>283.3333333333333</ele><time>2026-04-19T08:45:18.414Z</time></trkpt><trkpt lat="45.0528987" lon="7.570551"><ele>284.66666666666663</ele><time>2026-04-19T08:45:19.413Z</time></trkpt><trkpt lat="45.0528597" lon="7.5708048"><ele>286.0</ele><time>2026-04-19T08:45:20.414Z</time></trkpt><trkpt lat="45.0528278" lon="7.5710607"><ele>285.66666666666663</ele><time>2026-04-19T08:45:21.414Z</time></trkpt><trkpt lat="45.0528001" lon="7.5713217"><ele>285.3333333333333</ele><time>2026-04-19T08:45:22.414Z</time></trkpt><trkpt lat="45.0527756" lon="7.571579"><ele>285.0</ele><time>2026-04-19T08:45:23.414Z</time></trkpt><trkpt lat="45.0527543" lon="7.571832"><ele>284.6666666666667</ele><time>2026-04-19T08:45:24.414Z</time></trkpt><trkpt lat="45.0527328" lon="7.5720859"><ele>284.33333333333337</ele><time>2026-04-19T08:45:25.414Z</time></trkpt><trkpt lat="45.0527149" lon="7.5723423"><ele>284.0</ele><time>2026-04-19T08:45:26.413Z</time></trkpt><trkpt lat="45.0526997" lon="7.5725888"><ele>284.0</ele><time>2026-04-19T08:45:27.414Z</time></trkpt><trkpt lat="45.0526866" lon="7.5728304"><ele>284.0</ele><time>2026-04-19T08:45:28.414Z</time></trkpt><trkpt lat="45.0526772" lon="7.5730697"><ele>284.0</ele><time>2026-04-19T08:45:29.414Z</time></trkpt><trkpt lat="45.0526693" lon="7.5733041"><ele>283.6666666666667</ele><time>2026-04-19T08:45:30.414Z</time></trkpt><trkpt lat="45.0526602" lon="7.5735348"><ele>283.3333333333333</ele><time>2026-04-19T08:45:31.414Z</time></trkpt><trkpt lat="45.052649" lon="7.5737663"><ele>283.0</ele><time>2026-04-19T08:45:32.414Z</time></trkpt><trkpt lat="45.0526392" lon="7.5739976"><ele>283.0</ele><time>2026-04-19T08:45:33.414Z</time></trkpt><trkpt lat="45.0526348" lon="7.5742234"><ele>283.0</ele><time>2026-04-19T08:45:34.414Z</time></trkpt><trkpt lat="45.052633" lon="7.5744442"><ele>283.0</ele><time>2026-04-19T08:45:35.413Z</time></trkpt><trkpt lat="45.0526236" lon="7.5746613"><ele>283.0</ele><time>2026-04-19T08:45:36.414Z</time></trkpt><trkpt lat="45.0526175" lon="7.5748632"><ele>283.0</ele><time>2026-04-19T08:45:37.414Z</time></trkpt><trkpt lat="45.0526115" lon="7.5750587"><ele>283.0</ele><time>2026-04-19T08:45:38.414Z</time></trkpt><trkpt lat="45.052606" lon="7.5752422"><ele>283.0</ele><time>2026-04-19T08:45:39.414Z</time></trkpt><trkpt lat="45.0525964" lon="7.5754152"><ele>283.2</ele><time>2026-04-19T08:45:40.414Z</time></trkpt><trkpt lat="45.0525875" lon="7.5755765"><ele>283.4</ele><time>2026-04-19T08:45:41.413Z</time></trkpt><trkpt lat="45.0525845" lon="7.5757248"><ele>283.59999999999997</ele><time>2026-04-19T08:45:42.414Z</time></trkpt><trkpt lat="45.0525812" lon="7.5758668"><ele>283.8</ele><time>2026-04-19T08:45:43.414Z</time></trkpt><trkpt lat="45.0525757" lon="7.5759859"><ele>284.0</ele><time>2026-04-19T08:45:44.413Z</time></trkpt><trkpt lat="45.0525716" lon="7.5761081"><ele>284.33333333333337</ele><time>2026-04-19T08:45:45.414Z</time></trkpt><trkpt lat="45.0525687" lon="7.5762219"><ele>284.6666666666667</ele><time>2026-04-19T08:45:46.413Z</time></trkpt><trkpt lat="45.0525638" lon="7.576327"><ele>285.0</ele><time>2026-04-19T08:45:47.414Z</time></trkpt><trkpt lat="45.0525576" lon="7.5764174"><ele>285.3333333333333</ele><time>2026-04-19T08:45:48.414Z</time></trkpt><trkpt lat="45.0525503" lon="7.5765578"><ele>285.66666666666663</ele><time>2026-04-19T08:45:50.414Z</time></trkpt><trkpt lat="45.0525469" lon="7.5766859"><ele>286.0</ele><time>2026-04-19T08:45:53.414Z</time></trkpt><trkpt lat="45.0525407" lon="7.5768371"><ele>286.2</ele><time>2026-04-19T08:46:42.412Z</time></trkpt><trkpt lat="45.0525288" lon="7.5770217"><ele>286.40000000000003</ele><time>2026-04-19T08:46:44.413Z</time></trkpt><trkpt lat="45.0525226" lon="7.5771444"><ele>286.6</ele><time>2026-04-19T08:46:45.413Z</time></trkpt><trkpt lat="45.0525207" lon="7.5772891"><ele>286.8</ele><time>2026-04-19T08:46:46.413Z</time></trkpt><trkpt lat="45.0525177" lon="7.5774426"><ele>287.0</ele><time>2026-04-19T08:46:47.413Z</time></trkpt><trkpt lat="45.0525129" lon="7.5776033"><ele>287.0</ele><time>2026-04-19T08:46:48.413Z</time></trkpt><trkpt lat="45.0525081" lon="7.5777832"><ele>287.0</ele><time>2026-04-19T08:46:49.412Z</time></trkpt><trkpt lat="45.0525061" lon="7.5779803"><ele>287.0</ele><time>2026-04-19T08:46:50.412Z</time></trkpt><trkpt lat="45.0524969" lon="7.5781959"><ele>287.0</ele><time>2026-04-19T08:46:51.413Z</time></trkpt><trkpt lat="45.0524944" lon="7.5784276"><ele>286.6666666666667</ele><time>2026-04-19T08:46:52.413Z</time></trkpt><trkpt lat="45.0524888" lon="7.5786637"><ele>286.3333333333333</ele><time>2026-04-19T08:46:53.413Z</time></trkpt><trkpt lat="45.0524828" lon="7.578908"><ele>286.0</ele><time>2026-04-19T08:46:54.413Z</time></trkpt><trkpt lat="45.0524775" lon="7.57916"><ele>285.3333333333333</ele><time>2026-04-19T08:46:55.412Z</time></trkpt><trkpt lat="45.0524676" lon="7.5794061"><ele>284.6666666666667</ele><time>2026-04-19T08:46:56.413Z</time></trkpt><trkpt lat="45.0524601" lon="7.5796602"><ele>284.0</ele><time>2026-04-19T08:46:57.413Z</time></trkpt><trkpt lat="45.0524472" lon="7.579915"><ele>283.0</ele><time>2026-04-19T08:46:58.413Z</time></trkpt><trkpt lat="45.052428" lon="7.5801663"><ele>282.0</ele><time>2026-04-19T08:46:59.413Z</time></trkpt><trkpt lat="45.052412" lon="7.5804093"><ele>281.0</ele><time>2026-04-19T08:47:00.413Z</time></trkpt><trkpt lat="45.0524034" lon="7.5806422"><ele>280.6666666666667</ele><time>2026-04-19T08:47:01.413Z</time></trkpt><trkpt lat="45.0523969" lon="7.5808787"><ele>280.3333333333333</ele><time>2026-04-19T08:47:02.413Z</time></trkpt><trkpt lat="45.0523884" lon="7.5811092"><ele>280.0</ele><time>2026-04-19T08:47:03.412Z</time></trkpt><trkpt lat="45.0523806" lon="7.5813385"><ele>280.0</ele><time>2026-04-19T08:47:04.413Z</time></trkpt><trkpt lat="45.0523677" lon="7.581569"><ele>280.0</ele><time>2026-04-19T08:47:05.413Z</time></trkpt><trkpt lat="45.0523539" lon="7.5818049"><ele>280.0</ele><time>2026-04-19T08:47:06.413Z</time></trkpt><trkpt lat="45.0523536" lon="7.5820413"><ele>280.3333333333333</ele><time>2026-04-19T08:47:07.413Z</time></trkpt><trkpt lat="45.052344" lon="7.5822782"><ele>280.6666666666667</ele><time>2026-04-19T08:47:08.412Z</time></trkpt><trkpt lat="45.0523353" lon="7.582513"><ele>281.0</ele><time>2026-04-19T08:47:09.412Z</time></trkpt><trkpt lat="45.0523273" lon="7.5827511"><ele>281.0</ele><time>2026-04-19T08:47:10.412Z</time></trkpt><trkpt lat="45.0523197" lon="7.5829884"><ele>281.0</ele><time>2026-04-19T08:47:11.413Z</time></trkpt><trkpt lat="45.0523086" lon="7.5832277"><ele>281.0</ele><time>2026-04-19T08:47:12.413Z</time></trkpt><trkpt lat="45.0523029" lon="7.5834623"><ele>281.0</ele><time>2026-04-19T08:47:13.413Z</time></trkpt><trkpt lat="45.0522896" lon="7.5837018"><ele>281.0</ele><time>2026-04-19T08:47:14.413Z</time></trkpt><trkpt lat="45.0522796" lon="7.5839362"><ele>281.0</ele><time>2026-04-19T08:47:15.413Z</time></trkpt><trkpt lat="45.0522674" lon="7.5841692"><ele>281.0</ele><time>2026-04-19T08:47:16.412Z</time></trkpt><trkpt lat="45.0522617" lon="7.5843895"><ele>281.0</ele><time>2026-04-19T08:47:17.413Z</time></trkpt><trkpt lat="45.0522513" lon="7.584596"><ele>281.0</ele><time>2026-04-19T08:47:18.413Z</time></trkpt><trkpt lat="45.0522394" lon="7.5847895"><ele>281.0</ele><time>2026-04-19T08:47:19.413Z</time></trkpt><trkpt lat="45.0522328" lon="7.5849707"><ele>281.0</ele><time>2026-04-19T08:47:20.413Z</time></trkpt><trkpt lat="45.0522237" lon="7.5851281"><ele>281.0</ele><time>2026-04-19T08:47:21.413Z</time></trkpt><trkpt lat="45.0522142" lon="7.5852686"><ele>281.0</ele><time>2026-04-19T08:47:22.413Z</time></trkpt><trkpt lat="45.0522115" lon="7.585376"><ele>281.0</ele><time>2026-04-19T08:47:23.412Z</time></trkpt><trkpt lat="45.0522134" lon="7.5854705"><ele>281.0</ele><time>2026-04-19T08:47:24.413Z</time></trkpt><trkpt lat="45.0522125" lon="7.5855873"><ele>281.0</ele><time>2026-04-19T08:47:26.412Z</time></trkpt><trkpt lat="45.0522062" lon="7.5857144"><ele>281.0</ele><time>2026-04-19T08:47:29.413Z</time></trkpt><trkpt lat="45.0521957" lon="7.5859054"><ele>281.0</ele><time>2026-04-19T08:48:03.412Z</time></trkpt><trkpt lat="45.0521885" lon="7.5860589"><ele>281.0</ele><time>2026-04-19T08:48:05.413Z</time></trkpt><trkpt lat="45.0521841" lon="7.5861688"><ele>281.0</ele><time>2026-04-19T08:48:06.413Z</time></trkpt><trkpt lat="45.0521853" lon="7.5862935"><ele>281.0</ele><time>2026-04-19T08:48:07.413Z</time></trkpt><trkpt lat="45.0521829" lon="7.5864306"><ele>281.0</ele><time>2026-04-19T08:48:08.413Z</time></trkpt><trkpt lat="45.0521755" lon="7.5865783"><ele>281.0</ele><time>2026-04-19T08:48:09.413Z</time></trkpt><trkpt lat="45.0521722" lon="7.5867381"><ele>281.0</ele><time>2026-04-19T08:48:10.413Z</time></trkpt><trkpt lat="45.0521649" lon="7.5869161"><ele>281.0</ele><time>2026-04-19T08:48:11.412Z</time></trkpt><trkpt lat="45.0521561" lon="7.5870959"><ele>280.5</ele><time>2026-04-19T08:48:12.413Z</time></trkpt><trkpt lat="45.0521478" lon="7.5872754"><ele>280.0</ele><time>2026-04-19T08:48:13.413Z</time></trkpt><trkpt lat="45.0521392" lon="7.5874606"><ele>279.5</ele><time>2026-04-19T08:48:14.412Z</time></trkpt><trkpt lat="45.0521307" lon="7.587658"><ele>279.0</ele><time>2026-04-19T08:48:15.413Z</time></trkpt><trkpt lat="45.0521219" lon="7.587852"><ele>279.0</ele><time>2026-04-19T08:48:16.413Z</time></trkpt><trkpt lat="45.052109" lon="7.5880504"><ele>279.0</ele><time>2026-04-19T08:48:17.412Z</time></trkpt><trkpt lat="45.052096" lon="7.5882623"><ele>279.0</ele><time>2026-04-19T08:48:18.412Z</time></trkpt><trkpt lat="45.0520892" lon="7.588497"><ele>279.6666666666667</ele><time>2026-04-19T08:48:19.412Z</time></trkpt><trkpt lat="45.05209" lon="7.5887481"><ele>280.33333333333337</ele><time>2026-04-19T08:48:20.413Z</time></trkpt><trkpt lat="45.0520887" lon="7.589012"><ele>281.0</ele><time>2026-04-19T08:48:21.412Z</time></trkpt><trkpt lat="45.0520856" lon="7.589279"><ele>281.0</ele><time>2026-04-19T08:48:22.412Z</time></trkpt><trkpt lat="45.0520701" lon="7.5895428"><ele>281.0</ele><time>2026-04-19T08:48:23.413Z</time></trkpt><trkpt lat="45.0520548" lon="7.5897926"><ele>281.0</ele><time>2026-04-19T08:48:24.413Z</time></trkpt><trkpt lat="45.0520429" lon="7.5900533"><ele>281.0</ele><time>2026-04-19T08:48:25.413Z</time></trkpt><trkpt lat="45.052021" lon="7.5903073"><ele>281.0</ele><time>2026-04-19T08:48:26.412Z</time></trkpt><trkpt lat="45.0520046" lon="7.5905617"><ele>281.0</ele><time>2026-04-19T08:48:27.413Z</time></trkpt><trkpt lat="45.051995" lon="7.5908114"><ele>280.6666666666667</ele><time>2026-04-19T08:48:28.413Z</time></trkpt><trkpt lat="45.0519901" lon="7.5910695"><ele>280.3333333333333</ele><time>2026-04-19T08:48:29.413Z</time></trkpt><trkpt lat="45.0519818" lon="7.5913216"><ele>280.0</ele><time>2026-04-19T08:48:30.413Z</time></trkpt><trkpt lat="45.0519702" lon="7.5915661"><ele>280.3333333333333</ele><time>2026-04-19T08:48:31.413Z</time></trkpt><trkpt lat="45.0519628" lon="7.5918181"><ele>280.6666666666667</ele><time>2026-04-19T08:48:32.413Z</time></trkpt><trkpt lat="45.0519542" lon="7.5920682"><ele>281.0</ele><time>2026-04-19T08:48:33.412Z</time></trkpt><trkpt lat="45.051949" lon="7.5923136"><ele>281.0</ele><time>2026-04-19T08:48:34.412Z</time></trkpt><trkpt lat="45.0519399" lon="7.5925583"><ele>281.0</ele><time>2026-04-19T08:48:35.413Z</time></trkpt><trkpt lat="45.05193" lon="7.5928005"><ele>281.0</ele><time>2026-04-19T08:48:36.413Z</time></trkpt><trkpt lat="45.0519187" lon="7.5930265"><ele>281.0</ele><time>2026-04-19T08:48:37.413Z</time></trkpt><trkpt lat="45.0519157" lon="7.5932301"><ele>281.0</ele><time>2026-04-19T08:48:38.413Z</time></trkpt><trkpt lat="45.0519103" lon="7.5934097"><ele>281.0</ele><time>2026-04-19T08:48:39.413Z</time></trkpt><trkpt lat="45.0519087" lon="7.593567"><ele>281.0</ele><time>2026-04-19T08:48:40.413Z</time></trkpt><trkpt lat="45.0519099" lon="7.593702"><ele>280.83333333333337</ele><time>2026-04-19T08:48:41.412Z</time></trkpt><trkpt lat="45.0519044" lon="7.5938186"><ele>280.6666666666667</ele><time>2026-04-19T08:48:42.412Z</time></trkpt><trkpt lat="45.051896" lon="7.5939212"><ele>280.5</ele><time>2026-04-19T08:48:43.413Z</time></trkpt><trkpt lat="45.0518842" lon="7.5940778"><ele>280.3333333333333</ele><time>2026-04-19T08:48:45.413Z</time></trkpt><trkpt lat="45.051882" lon="7.5942012"><ele>280.16666666666663</ele><time>2026-04-19T08:48:47.413Z</time></trkpt><trkpt lat="45.0518753" lon="7.5942956"><ele>280.0</ele><time>2026-04-19T08:48:49.413Z</time></trkpt><trkpt lat="45.0518725" lon="7.5944629"><ele>279.4</ele><time>2026-04-19T08:49:52.413Z</time></trkpt><trkpt lat="45.0518609" lon="7.5946587"><ele>278.8</ele><time>2026-04-19T08:49:54.413Z</time></trkpt><trkpt lat="45.0518582" lon="7.5947845"><ele>278.2</ele><time>2026-04-19T08:49:55.412Z</time></trkpt><trkpt lat="45.0518569" lon="7.5949332"><ele>277.6</ele><time>2026-04-19T08:49:56.413Z</time></trkpt><trkpt lat="45.05185" lon="7.5950918"><ele>277.0</ele><time>2026-04-19T08:49:57.413Z</time></trkpt><trkpt lat="45.0518428" lon="7.5952722"><ele>277.25</ele><time>2026-04-19T08:49:58.413Z</time></trkpt><trkpt lat="45.0518342" lon="7.5954648"><ele>277.5</ele><time>2026-04-19T08:49:59.413Z</time></trkpt><trkpt lat="45.0518283" lon="7.5956668"><ele>277.75</ele><time>2026-04-19T08:50:00.413Z</time></trkpt><trkpt lat="45.0518165" lon="7.5958817"><ele>278.0</ele><time>2026-04-19T08:50:01.413Z</time></trkpt><trkpt lat="45.0518096" lon="7.5961073"><ele>277.6666666666667</ele><time>2026-04-19T08:50:02.413Z</time></trkpt><trkpt lat="45.0518024" lon="7.5963427"><ele>277.3333333333333</ele><time>2026-04-19T08:50:03.413Z</time></trkpt><trkpt lat="45.0517899" lon="7.5965681"><ele>277.0</ele><time>2026-04-19T08:50:04.413Z</time></trkpt><trkpt lat="45.0517792" lon="7.5967967"><ele>276.3333333333333</ele><time>2026-04-19T08:50:05.413Z</time></trkpt><trkpt lat="45.0517725" lon="7.5970234"><ele>275.6666666666667</ele><time>2026-04-19T08:50:06.412Z</time></trkpt><trkpt lat="45.051764" lon="7.5972466"><ele>275.0</ele><time>2026-04-19T08:50:07.412Z</time></trkpt><trkpt lat="45.0517566" lon="7.5974695"><ele>275.0</ele><time>2026-04-19T08:50:08.413Z</time></trkpt><trkpt lat="45.0517467" lon="7.5976983"><ele>275.0</ele><time>2026-04-19T08:50:09.412Z</time></trkpt><trkpt lat="45.0517382" lon="7.5979237"><ele>275.0</ele><time>2026-04-19T08:50:10.412Z</time></trkpt><trkpt lat="45.0517269" lon="7.5981394"><ele>274.75</ele><time>2026-04-19T08:50:11.413Z</time></trkpt><trkpt lat="45.051719" lon="7.5983458"><ele>274.5</ele><time>2026-04-19T08:50:12.413Z</time></trkpt><trkpt lat="45.0517103" lon="7.5985375"><ele>274.25</ele><time>2026-04-19T08:50:13.413Z</time></trkpt><trkpt lat="45.0517096" lon="7.5987177"><ele>274.0</ele><time>2026-04-19T08:50:14.413Z</time></trkpt><trkpt lat="45.0517039" lon="7.598893"><ele>274.0</ele><time>2026-04-19T08:50:15.413Z</time></trkpt><trkpt lat="45.0516993" lon="7.5990648"><ele>274.0</ele><time>2026-04-19T08:50:16.412Z</time></trkpt><trkpt lat="45.0516911" lon="7.5992221"><ele>274.0</ele><time>2026-04-19T08:50:17.412Z</time></trkpt><trkpt lat="45.051686" lon="7.5993684"><ele>274.0</ele><time>2026-04-19T08:50:18.413Z</time></trkpt><trkpt lat="45.0516824" lon="7.5995108"><ele>274.0</ele><time>2026-04-19T08:50:19.412Z</time></trkpt><trkpt lat="45.0516788" lon="7.5996367"><ele>274.16666666666663</ele><time>2026-04-19T08:50:20.412Z</time></trkpt><trkpt lat="45.0516716" lon="7.5997475"><ele>274.3333333333333</ele><time>2026-04-19T08:50:21.413Z</time></trkpt><trkpt lat="45.0516649" lon="7.5998419"><ele>274.5</ele><time>2026-04-19T08:50:22.413Z</time></trkpt><trkpt lat="45.05166" lon="7.5999669"><ele>274.6666666666667</ele><time>2026-04-19T08:50:24.412Z</time></trkpt><trkpt lat="45.0516575" lon="7.600092"><ele>274.83333333333337</ele><time>2026-04-19T08:50:27.413Z</time></trkpt><trkpt lat="45.0516452" lon="7.6002267"><ele>275.0</ele><time>2026-04-19T08:50:44.413Z</time></trkpt><trkpt lat="45.0516453" lon="7.6003573"><ele>274.6</ele><time>2026-04-19T08:50:46.413Z</time></trkpt><trkpt lat="45.0516314" lon="7.600544"><ele>274.2</ele><time>2026-04-19T08:50:48.413Z</time></trkpt><trkpt lat="45.0516292" lon="7.600657"><ele>273.8</ele><time>2026-04-19T08:50:49.413Z</time></trkpt><trkpt lat="45.0516179" lon="7.6007846"><ele>273.4</ele><time>2026-04-19T08:50:50.412Z</time></trkpt><trkpt lat="45.0516059" lon="7.6009213"><ele>273.0</ele><time>2026-04-19T08:50:51.413Z</time></trkpt><trkpt lat="45.0515946" lon="7.601075"><ele>273.0</ele><time>2026-04-19T08:50:52.412Z</time></trkpt><trkpt lat="45.0515858" lon="7.6012269"><ele>273.0</ele><time>2026-04-19T08:50:53.412Z</time></trkpt><trkpt lat="45.0515747" lon="7.6013824"><ele>273.0</ele><time>2026-04-19T08:50:54.413Z</time></trkpt><trkpt lat="45.0515654" lon="7.6015449"><ele>273.0</ele><time>2026-04-19T08:50:55.413Z</time></trkpt><trkpt lat="45.051558" lon="7.6017026"><ele>273.0</ele><time>2026-04-19T08:50:56.412Z</time></trkpt><trkpt lat="45.0515555" lon="7.601851"><ele>273.4</ele><time>2026-04-19T08:50:57.413Z</time></trkpt><trkpt lat="45.0515481" lon="7.6020044"><ele>273.8</ele><time>2026-04-19T08:50:58.413Z</time></trkpt><trkpt lat="45.0515403" lon="7.6021522"><ele>274.2</ele><time>2026-04-19T08:50:59.412Z</time></trkpt><trkpt lat="45.0515342" lon="7.6023024"><ele>274.6</ele><time>2026-04-19T08:51:00.413Z</time></trkpt><trkpt lat="45.0515314" lon="7.6024533"><ele>275.0</ele><time>2026-04-19T08:51:01.412Z</time></trkpt><trkpt lat="45.0515268" lon="7.6026159"><ele>275.0</ele><time>2026-04-19T08:51:02.413Z</time></trkpt><trkpt lat="45.0515196" lon="7.6027759"><ele>275.0</ele><time>2026-04-19T08:51:03.413Z</time></trkpt><trkpt lat="45.0515135" lon="7.6029447"><ele>275.0</ele><time>2026-04-19T08:51:04.413Z</time></trkpt><trkpt lat="45.0515065" lon="7.6031129"><ele>275.0</ele><time>2026-04-19T08:51:05.413Z</time></trkpt><trkpt lat="45.0515003" lon="7.6032896"><ele>274.8</ele><time>2026-04-19T08:51:06.413Z</time></trkpt><trkpt lat="45.051489" lon="7.603454"><ele>274.6</ele><time>2026-04-19T08:51:07.412Z</time></trkpt><trkpt lat="45.0514852" lon="7.6036046"><ele>274.4</ele><time>2026-04-19T08:51:08.412Z</time></trkpt><trkpt lat="45.0514797" lon="7.6037323"><ele>274.2</ele><time>2026-04-19T08:51:09.413Z</time></trkpt><trkpt lat="45.0514734" lon="7.6038436"><ele>274.0</ele><time>2026-04-19T08:51:10.413Z</time></trkpt><trkpt lat="45.0514648" lon="7.6039436"><ele>273.8333333333333</ele><time>2026-04-19T08:51:11.413Z</time></trkpt><trkpt lat="45.0514579" lon="7.6041117"><ele>273.66666666666663</ele><time>2026-04-19T08:51:13.412Z</time></trkpt><trkpt lat="45.0514575" lon="7.6042252"><ele>273.5</ele><time>2026-04-19T08:51:15.413Z</time></trkpt><trkpt lat="45.0514687" lon="7.6043413"><ele>273.3333333333333</ele><time>2026-04-19T08:51:17.412Z</time></trkpt><trkpt lat="45.0514669" lon="7.6044373"><ele>273.1666666666667</ele><time>2026-04-19T08:51:20.413Z</time></trkpt><trkpt lat="45.0514664" lon="7.6045351"><ele>273.0</ele><time>2026-04-19T08:51:56.413Z</time></trkpt><trkpt lat="45.0514576" lon="7.604697"><ele>273.0</ele><time>2026-04-19T08:51:58.413Z</time></trkpt><trkpt lat="45.0514509" lon="7.6048113"><ele>273.0</ele><time>2026-04-19T08:51:59.413Z</time></trkpt><trkpt lat="45.0514431" lon="7.6049315"><ele>273.0</ele><time>2026-04-19T08:52:00.413Z</time></trkpt><trkpt lat="45.0514375" lon="7.605065"><ele>273.0</ele><time>2026-04-19T08:52:01.412Z</time></trkpt><trkpt lat="45.0514325" lon="7.6052163"><ele>273.0</ele><time>2026-04-19T08:52:02.413Z</time></trkpt><trkpt lat="45.0514272" lon="7.605382"><ele>272.75</ele><time>2026-04-19T08:52:03.412Z</time></trkpt><trkpt lat="45.0514196" lon="7.6055524"><ele>272.5</ele><time>2026-04-19T08:52:04.413Z</time></trkpt><trkpt lat="45.0514121" lon="7.6057292"><ele>272.25</ele><time>2026-04-19T08:52:05.412Z</time></trkpt><trkpt lat="45.0514054" lon="7.6059124"><ele>272.0</ele><time>2026-04-19T08:52:06.413Z</time></trkpt><trkpt lat="45.0513985" lon="7.6060995"><ele>271.5</ele><time>2026-04-19T08:52:07.413Z</time></trkpt><trkpt lat="45.0513904" lon="7.6062903"><ele>271.0</ele><time>2026-04-19T08:52:08.413Z</time></trkpt><trkpt lat="45.0513843" lon="7.6064914"><ele>270.5</ele><time>2026-04-19T08:52:09.412Z</time></trkpt><trkpt lat="45.0513773" lon="7.6066867"><ele>270.0</ele><time>2026-04-19T08:52:10.413Z</time></trkpt><trkpt lat="45.05137" lon="7.6068731"><ele>270.5</ele><time>2026-04-19T08:52:11.413Z</time></trkpt><trkpt lat="45.0513627" lon="7.6070481"><ele>271.0</ele><time>2026-04-19T08:52:12.413Z</time></trkpt><trkpt lat="45.0513553" lon="7.6072233"><ele>271.5</ele><time>2026-04-19T08:52:13.413Z</time></trkpt><trkpt lat="45.0513483" lon="7.6073978"><ele>272.0</ele><time>2026-04-19T08:52:14.413Z</time></trkpt><trkpt lat="45.0513393" lon="7.6075773"><ele>272.0</ele><time>2026-04-19T08:52:15.411Z</time></trkpt><trkpt lat="45.0513315" lon="7.6077622"><ele>272.0</ele><time>2026-04-19T08:52:16.412Z</time></trkpt><trkpt lat="45.0513227" lon="7.6079537"><ele>272.0</ele><time>2026-04-19T08:52:17.412Z</time></trkpt><trkpt lat="45.0513152" lon="7.6081526"><ele>272.0</ele><time>2026-04-19T08:52:18.412Z</time></trkpt><trkpt lat="45.0513075" lon="7.6083598"><ele>271.6666666666667</ele><time>2026-04-19T08:52:19.412Z</time></trkpt><trkpt lat="45.0513003" lon="7.6085703"><ele>271.3333333333333</ele><time>2026-04-19T08:52:20.412Z</time></trkpt><trkpt lat="45.0512944" lon="7.6087823"><ele>271.0</ele><time>2026-04-19T08:52:21.412Z</time></trkpt><trkpt lat="45.0512875" lon="7.6090022"><ele>270.0</ele><time>2026-04-19T08:52:22.412Z</time></trkpt><trkpt lat="45.0512811" lon="7.6092228"><ele>269.0</ele><time>2026-04-19T08:52:23.411Z</time></trkpt><trkpt lat="45.0512729" lon="7.6094483"><ele>268.0</ele><time>2026-04-19T08:52:24.412Z</time></trkpt><trkpt lat="45.0512651" lon="7.6096778"><ele>267.66666666666663</ele><time>2026-04-19T08:52:25.412Z</time></trkpt><trkpt lat="45.0512605" lon="7.6099125"><ele>267.3333333333333</ele><time>2026-04-19T08:52:26.412Z</time></trkpt><trkpt lat="45.0512534" lon="7.6101488"><ele>267.0</ele><time>2026-04-19T08:52:27.411Z</time></trkpt><trkpt lat="45.0512437" lon="7.6103761"><ele>267.0</ele><time>2026-04-19T08:52:28.412Z</time></trkpt><trkpt lat="45.0512367" lon="7.6105988"><ele>267.0</ele><time>2026-04-19T08:52:29.412Z</time></trkpt><trkpt lat="45.0512283" lon="7.6108117"><ele>267.0</ele><time>2026-04-19T08:52:30.412Z</time></trkpt><trkpt lat="45.0512215" lon="7.6110158"><ele>267.0</ele><time>2026-04-19T08:52:31.412Z</time></trkpt><trkpt lat="45.0512126" lon="7.6112145"><ele>267.0</ele><time>2026-04-19T08:52:32.411Z</time></trkpt><trkpt lat="45.0512035" lon="7.61141"><ele>267.0</ele><time>2026-04-19T08:52:33.412Z</time></trkpt><trkpt lat="45.0511948" lon="7.611595"><ele>267.0</ele><time>2026-04-19T08:52:34.412Z</time></trkpt><trkpt lat="45.0511858" lon="7.6117751"><ele>267.0</ele><time>2026-04-19T08:52:35.412Z</time></trkpt><trkpt lat="45.0511787" lon="7.6119449"><ele>267.0</ele><time>2026-04-19T08:52:36.412Z</time></trkpt><trkpt lat="45.0511719" lon="7.6121064"><ele>267.0</ele><time>2026-04-19T08:52:37.412Z</time></trkpt><trkpt lat="45.0511642" lon="7.6122636"><ele>267.0</ele><time>2026-04-19T08:52:38.412Z</time></trkpt><trkpt lat="45.0511577" lon="7.6124187"><ele>267.6</ele><time>2026-04-19T08:52:39.412Z</time></trkpt><trkpt lat="45.0511514" lon="7.6125758"><ele>268.2</ele><time>2026-04-19T08:52:40.412Z</time></trkpt><trkpt lat="45.0511465" lon="7.6127417"><ele>268.8</ele><time>2026-04-19T08:52:41.412Z</time></trkpt><trkpt lat="45.0511449" lon="7.6128913"><ele>269.4</ele><time>2026-04-19T08:52:42.412Z</time></trkpt><trkpt lat="45.0511436" lon="7.6130145"><ele>270.0</ele><time>2026-04-19T08:52:43.411Z</time></trkpt><trkpt lat="45.0511385" lon="7.6131321"><ele>270.1666666666667</ele><time>2026-04-19T08:52:44.411Z</time></trkpt><trkpt lat="45.0511367" lon="7.61325"><ele>270.3333333333333</ele><time>2026-04-19T08:52:45.412Z</time></trkpt><trkpt lat="45.0511363" lon="7.6133697"><ele>270.5</ele><time>2026-04-19T08:52:46.412Z</time></trkpt><trkpt lat="45.0511377" lon="7.613487"><ele>270.66666666666663</ele><time>2026-04-19T08:52:47.412Z</time></trkpt><trkpt lat="45.0511373" lon="7.6136036"><ele>270.8333333333333</ele><time>2026-04-19T08:52:48.411Z</time></trkpt><trkpt lat="45.0511382" lon="7.613721"><ele>271.0</ele><time>2026-04-19T08:52:49.412Z</time></trkpt><trkpt lat="45.0511363" lon="7.6138316"><ele>270.6</ele><time>2026-04-19T08:52:50.411Z</time></trkpt><trkpt lat="45.051131" lon="7.6139281"><ele>270.20000000000005</ele><time>2026-04-19T08:52:51.411Z</time></trkpt><trkpt lat="45.0511226" lon="7.6140901"><ele>269.79999999999995</ele><time>2026-04-19T08:52:53.412Z</time></trkpt><trkpt lat="45.0511155" lon="7.6142215"><ele>269.4</ele><time>2026-04-19T08:52:55.411Z</time></trkpt><trkpt lat="45.0511073" lon="7.6143674"><ele>269.0</ele><time>2026-04-19T08:52:57.411Z</time></trkpt><trkpt lat="45.0511004" lon="7.6145063"><ele>269.0</ele><time>2026-04-19T08:52:59.412Z</time></trkpt><trkpt lat="45.0510979" lon="7.6146324"><ele>269.0</ele><time>2026-04-19T08:53:01.412Z</time></trkpt><trkpt lat="45.0510942" lon="7.6147281"><ele>269.0</ele><time>2026-04-19T08:53:03.412Z</time></trkpt><trkpt lat="45.0510908" lon="7.6148345"><ele>269.0</ele><time>2026-04-19T08:53:06.412Z</time></trkpt><trkpt lat="45.051102" lon="7.6149765"><ele>269.0</ele><time>2026-04-19T08:53:42.412Z</time></trkpt><trkpt lat="45.0511104" lon="7.6151584"><ele>269.0</ele><time>2026-04-19T08:53:44.412Z</time></trkpt><trkpt lat="45.0511279" lon="7.6152688"><ele>269.0</ele><time>2026-04-19T08:53:45.412Z</time></trkpt><trkpt lat="45.0511638" lon="7.6153753"><ele>269.0</ele><time>2026-04-19T08:53:46.412Z</time></trkpt><trkpt lat="45.0512247" lon="7.6154655"><ele>269.0</ele><time>2026-04-19T08:53:47.412Z</time></trkpt><trkpt lat="45.0513063" lon="7.6155255"><ele>269.0</ele><time>2026-04-19T08:53:48.412Z</time></trkpt><trkpt lat="45.0513905" lon="7.615548"><ele>269.0</ele><time>2026-04-19T08:53:49.412Z</time></trkpt><trkpt lat="45.0514987" lon="7.6155581"><ele>269.25</ele><time>2026-04-19T08:53:50.411Z</time></trkpt><trkpt lat="45.0516158" lon="7.615569"><ele>269.5</ele><time>2026-04-19T08:53:51.411Z</time></trkpt><trkpt lat="45.0517415" lon="7.6155664"><ele>269.75</ele><time>2026-04-19T08:53:52.412Z</time></trkpt><trkpt lat="45.05187" lon="7.615564"><ele>270.0</ele><time>2026-04-19T08:53:53.412Z</time></trkpt><trkpt lat="45.052006" lon="7.6155573"><ele>270.0</ele><time>2026-04-19T08:53:54.412Z</time></trkpt><trkpt lat="45.0521503" lon="7.615546"><ele>270.0</ele><time>2026-04-19T08:53:55.412Z</time></trkpt><trkpt lat="45.0522908" lon="7.6155381"><ele>270.0</ele><time>2026-04-19T08:53:56.412Z</time></trkpt><trkpt lat="45.0524218" lon="7.6155309"><ele>270.0</ele><time>2026-04-19T08:53:57.412Z</time></trkpt><trkpt lat="45.0525449" lon="7.6155224"><ele>270.0</ele><time>2026-04-19T08:53:58.412Z</time></trkpt><trkpt lat="45.0526492" lon="7.6155198"><ele>270.0</ele><time>2026-04-19T08:53:59.412Z</time></trkpt><trkpt lat="45.0527394" lon="7.6155119"><ele>270.0</ele><time>2026-04-19T08:54:00.412Z</time></trkpt><trkpt lat="45.0528108" lon="7.6155065"><ele>270.0</ele><time>2026-04-19T08:54:01.412Z</time></trkpt><trkpt lat="45.0528782" lon="7.6155039"><ele>270.0</ele><time>2026-04-19T08:54:02.412Z</time></trkpt><trkpt lat="45.0529784" lon="7.6154972"><ele>270.0</ele><time>2026-04-19T08:54:04.412Z</time></trkpt><trkpt lat="45.0530584" lon="7.6154956"><ele>270.0</ele><time>2026-04-19T08:54:07.411Z</time></trkpt><trkpt lat="45.0531415" lon="7.6154778"><ele>270.0</ele><time>2026-04-19T08:54:43.412Z</time></trkpt><trkpt lat="45.0532465" lon="7.6154319"><ele>270.0</ele><time>2026-04-19T08:54:45.411Z</time></trkpt><trkpt lat="45.0533017" lon="7.6153785"><ele>270.0</ele><time>2026-04-19T08:54:46.412Z</time></trkpt><trkpt lat="45.0533612" lon="7.6152594"><ele>270.0</ele><time>2026-04-19T08:54:48.411Z</time></trkpt><trkpt lat="45.0533887" lon="7.6151396"><ele>270.0</ele><time>2026-04-19T08:54:50.412Z</time></trkpt><trkpt lat="45.0534078" lon="7.6150332"><ele>270.0</ele><time>2026-04-19T08:55:26.411Z</time></trkpt><trkpt lat="45.0534282" lon="7.6148925"><ele>270.0</ele><time>2026-04-19T08:55:28.412Z</time></trkpt><trkpt lat="45.0534471" lon="7.6148041"><ele>270.0</ele><time>2026-04-19T08:55:29.412Z</time></trkpt><trkpt lat="45.053473" lon="7.6147023"><ele>270.0</ele><time>2026-04-19T08:55:30.411Z</time></trkpt><trkpt lat="45.0535162" lon="7.6145795"><ele>270.0</ele><time>2026-04-19T08:55:31.411Z</time></trkpt><trkpt lat="45.0535507" lon="7.6144591"><ele>270.2</ele><time>2026-04-19T08:55:32.411Z</time></trkpt><trkpt lat="45.0535904" lon="7.6143319"><ele>270.4</ele><time>2026-04-19T08:55:33.412Z</time></trkpt><trkpt lat="45.0536302" lon="7.6141953"><ele>270.6</ele><time>2026-04-19T08:55:34.412Z</time></trkpt><trkpt lat="45.0536709" lon="7.6140532"><ele>270.8</ele><time>2026-04-19T08:55:35.412Z</time></trkpt><trkpt lat="45.0537109" lon="7.6139074"><ele>271.0</ele><time>2026-04-19T08:55:36.412Z</time></trkpt><trkpt lat="45.0537518" lon="7.6137584"><ele>270.75</ele><time>2026-04-19T08:55:37.412Z</time></trkpt><trkpt lat="45.0537953" lon="7.6136107"><ele>270.5</ele><time>2026-04-19T08:55:38.412Z</time></trkpt><trkpt lat="45.0538371" lon="7.6134594"><ele>270.25</ele><time>2026-04-19T08:55:39.412Z</time></trkpt><trkpt lat="45.0538816" lon="7.6133055"><ele>270.0</ele><time>2026-04-19T08:55:40.412Z</time></trkpt><trkpt lat="45.0539272" lon="7.6131525"><ele>270.0</ele><time>2026-04-19T08:55:41.412Z</time></trkpt><trkpt lat="45.053966" lon="7.6130075"><ele>270.0</ele><time>2026-04-19T08:55:42.411Z</time></trkpt><trkpt lat="45.0540055" lon="7.6128716"><ele>270.0</ele><time>2026-04-19T08:55:43.411Z</time></trkpt><trkpt lat="45.0540439" lon="7.6127412"><ele>270.0</ele><time>2026-04-19T08:55:44.412Z</time></trkpt><trkpt lat="45.0540815" lon="7.6126123"><ele>270.0</ele><time>2026-04-19T08:55:45.411Z</time></trkpt><trkpt lat="45.0541181" lon="7.6124891"><ele>270.1666666666667</ele><time>2026-04-19T08:55:46.412Z</time></trkpt><trkpt lat="45.0541527" lon="7.6123654"><ele>270.3333333333333</ele><time>2026-04-19T08:55:47.412Z</time></trkpt><trkpt lat="45.0541867" lon="7.6122453"><ele>270.5</ele><time>2026-04-19T08:55:48.411Z</time></trkpt><trkpt lat="45.0542212" lon="7.612128"><ele>270.66666666666663</ele><time>2026-04-19T08:55:49.411Z</time></trkpt><trkpt lat="45.0542504" lon="7.6120218"><ele>270.8333333333333</ele><time>2026-04-19T08:55:50.412Z</time></trkpt><trkpt lat="45.0542771" lon="7.611922"><ele>271.0</ele><time>2026-04-19T08:55:51.412Z</time></trkpt><trkpt lat="45.0543034" lon="7.6118327"><ele>271.0</ele><time>2026-04-19T08:55:52.412Z</time></trkpt><trkpt lat="45.0543662" lon="7.611711"><ele>271.0</ele><time>2026-04-19T08:55:54.411Z</time></trkpt><trkpt lat="45.0544367" lon="7.6116826"><ele>271.0</ele><time>2026-04-19T08:55:56.411Z</time></trkpt><trkpt lat="45.0544744" lon="7.6117577"><ele>271.0</ele><time>2026-04-19T08:55:58.412Z</time></trkpt><trkpt lat="45.0544498" lon="7.6118633"><ele>271.0</ele><time>2026-04-19T08:56:00.412Z</time></trkpt><trkpt lat="45.0544144" lon="7.6119823"><ele>271.0</ele><time>2026-04-19T08:56:02.412Z</time></trkpt><trkpt lat="45.0543754" lon="7.6121023"><ele>271.2</ele><time>2026-04-19T08:56:04.412Z</time></trkpt><trkpt lat="45.0543383" lon="7.6122072"><ele>271.40000000000003</ele><time>2026-04-19T08:56:06.411Z</time></trkpt><trkpt lat="45.0543063" lon="7.6123207"><ele>271.6</ele><time>2026-04-19T08:56:08.412Z</time></trkpt><trkpt lat="45.0542703" lon="7.6124469"><ele>271.8</ele><time>2026-04-19T08:56:10.411Z</time></trkpt><trkpt lat="45.0542292" lon="7.6125843"><ele>272.0</ele><time>2026-04-19T08:56:12.411Z</time></trkpt><trkpt lat="45.0541875" lon="7.6127289"><ele>272.4</ele><time>2026-04-19T08:56:14.412Z</time></trkpt><trkpt lat="45.0541449" lon="7.6128856"><ele>272.79999999999995</ele><time>2026-04-19T08:56:16.412Z</time></trkpt><trkpt lat="45.0540972" lon="7.6130516"><ele>273.2</ele><time>2026-04-19T08:56:18.411Z</time></trkpt><trkpt lat="45.0540734" lon="7.6131352"><ele>273.59999999999997</ele><time>2026-04-19T08:56:19.411Z</time></trkpt><trkpt lat="45.0540654" lon="7.6132873"><ele>274.0</ele><time>2026-04-19T08:56:21.412Z</time></trkpt><trkpt lat="45.054091" lon="7.6133698"><ele>274.00000000000006</ele><time>2026-04-19T08:56:23.411Z</time></trkpt><trkpt lat="45.0541134" lon="7.6134794"><ele>274.0</ele><time>2026-04-19T08:56:26.412Z</time></trkpt><trkpt lat="45.0541631" lon="7.6135349"><ele>274.0</ele><time>2026-04-19T08:56:28.412Z</time></trkpt><trkpt lat="45.0542324" lon="7.6135419"><ele>274.0</ele><time>2026-04-19T08:56:30.411Z</time></trkpt><trkpt lat="45.054313" lon="7.6135391"><ele>274.0</ele><time>2026-04-19T08:56:32.412Z</time></trkpt><trkpt lat="45.0543926" lon="7.6135323"><ele>274.00000000000006</ele><time>2026-04-19T08:56:34.411Z</time></trkpt><trkpt lat="45.0544611" lon="7.6135309"><ele>274.0</ele><time>2026-04-19T08:56:36.412Z</time></trkpt><trkpt lat="45.0545228" lon="7.6134865"><ele>274.00000000000006</ele><time>2026-04-19T08:56:41.412Z</time></trkpt><trkpt lat="45.054544" lon="7.6133909"><ele>274.0</ele><time>2026-04-19T08:56:44.412Z</time></trkpt><trkpt lat="45.0546069" lon="7.6133477"><ele>274.0</ele><time>2026-04-19T08:56:47.412Z</time></trkpt><trkpt lat="45.054678" lon="7.6133403"><ele>274.0</ele><time>2026-04-19T08:56:51.411Z</time></trkpt><trkpt lat="45.0546169" lon="7.6134318"><ele>274.0</ele><time>2026-04-19T08:57:14.412Z</time></trkpt><trkpt lat="45.0545436" lon="7.6134454"><ele>274.00000000000006</ele><time>2026-04-19T08:57:18.412Z</time></trkpt><trkpt lat="45.0545351" lon="7.6135389"><ele>274.0</ele><time>2026-04-19T08:57:24.412Z</time></trkpt><trkpt lat="45.054626" lon="7.6135339"><ele>274.0</ele><time>2026-04-19T08:57:27.412Z</time></trkpt><trkpt lat="45.0546962" lon="7.613525"><ele>274.0</ele><time>2026-04-19T08:57:30.412Z</time></trkpt><trkpt lat="45.0547754" lon="7.6135031"><ele>274.0</ele><time>2026-04-19T08:57:33.412Z</time></trkpt><trkpt lat="45.0548534" lon="7.6134807"><ele>274.0</ele><time>2026-04-19T08:57:36.412Z</time></trkpt><trkpt lat="45.0549459" lon="7.6134847"><ele>274.0</ele><time>2026-04-19T08:57:39.412Z</time></trkpt><trkpt lat="45.0550117" lon="7.6134844"><ele>274.0</ele><time>2026-04-19T08:57:41.412Z</time></trkpt><trkpt lat="45.0550883" lon="7.6134743"><ele>274.5</ele><time>2026-04-19T08:57:44.412Z</time></trkpt><trkpt lat="45.0551792" lon="7.6134898"><ele>275.0</ele><time>2026-04-19T08:57:46.412Z</time></trkpt><trkpt lat="45.0553095" lon="7.6134676"><ele>275.5</ele><time>2026-04-19T08:57:48.412Z</time></trkpt><trkpt lat="45.0553776" lon="7.613466"><ele>276.0</ele><time>2026-04-19T08:57:49.412Z</time></trkpt><trkpt lat="45.0554521" lon="7.6134593"><ele>276.5</ele><time>2026-04-19T08:57:50.412Z</time></trkpt><trkpt lat="45.0555268" lon="7.6134526"><ele>277.0</ele><time>2026-04-19T08:57:51.412Z</time></trkpt><trkpt lat="45.0555979" lon="7.6134482"><ele>277.0</ele><time>2026-04-19T08:57:52.412Z</time></trkpt><trkpt lat="45.0556672" lon="7.6134444"><ele>277.0</ele><time>2026-04-19T08:57:53.412Z</time></trkpt><trkpt lat="45.0557435" lon="7.6134495"><ele>277.0</ele><time>2026-04-19T08:57:54.412Z</time></trkpt><trkpt lat="45.0558201" lon="7.6134662"><ele>277.0</ele><time>2026-04-19T08:57:55.411Z</time></trkpt><trkpt lat="45.055893" lon="7.6134639"><ele>277.0</ele><time>2026-04-19T08:57:56.411Z</time></trkpt><trkpt lat="45.0559674" lon="7.6134633"><ele>277.0</ele><time>2026-04-19T08:57:57.412Z</time></trkpt><trkpt lat="45.05605" lon="7.6134554"><ele>277.2</ele><time>2026-04-19T08:57:58.412Z</time></trkpt><trkpt lat="45.0561434" lon="7.6134368"><ele>277.4</ele><time>2026-04-19T08:57:59.412Z</time></trkpt><trkpt lat="45.0562378" lon="7.6134128"><ele>277.6</ele><time>2026-04-19T08:58:00.412Z</time></trkpt><trkpt lat="45.056329" lon="7.6133845"><ele>277.8</ele><time>2026-04-19T08:58:01.412Z</time></trkpt><trkpt lat="45.0564056" lon="7.6133658"><ele>278.0</ele><time>2026-04-19T08:58:02.411Z</time></trkpt><trkpt lat="45.0565093" lon="7.613327"><ele>278.0</ele><time>2026-04-19T08:58:04.41Z</time></trkpt><trkpt lat="45.0565861" lon="7.6133723"><ele>278.0</ele><time>2026-04-19T08:58:06.411Z</time></trkpt><trkpt lat="45.0566541" lon="7.6133733"><ele>276.0</ele><time>2026-04-19T08:58:08.411Z</time></trkpt><trkpt lat="45.0567311" lon="7.6133704"><ele>276.0</ele><time>2026-04-19T08:58:11.411Z</time></trkpt><trkpt lat="45.0568097" lon="7.613323"><ele>276.0</ele><time>2026-04-19T08:58:14.41Z</time></trkpt><trkpt lat="45.0568757" lon="7.6132934"><ele>276.0</ele><time>2026-04-19T08:58:18.411Z</time></trkpt><trkpt lat="45.0569058" lon="7.6132105"><ele>276.0</ele><time>2026-04-19T09:02:20.41Z</time></trkpt></trkseg><trkseg><trkpt lat="45.0568995" lon="7.6132949"><ele>276.0</ele><time>2026-04-19T09:32:58.421Z</time></trkpt><trkpt lat="45.0568995" lon="7.6132949"><ele>276.0</ele><time>2026-04-19T09:32:58.421Z</time></trkpt><trkpt lat="45.0568995" lon="7.6132949"><ele>276.0</ele><time>2026-04-19T09:32:58.421Z</time></trkpt></trkseg></trk></gpx>